<?xml version="1.0" encoding="UTF-8" standalone="no" ?>
<gpx xmlns="http://www.topografix.com/GPX/1/1" xmlns:xsi="http://www.w3.org/2001/XMLSchema-instance" xsi:schemaLocation="http://www.topografix.com/GPX/1/1 http://www.topografix.com/GPX/1/1/gpx.xsd" version="1.1" creator="VisuGPX - https://www.visugpx.com">
  <metadata>
    <name>RAF n7 (Nevers / Blois</name>
  </metadata>
  <wpt lat="47.50616" lon="2.85271">
    <ele>139.3</ele>
    <name><![CDATA[EAU]]></name>
  </wpt>
  <wpt lat="47.56023" lon="2.83981">
    <ele>142.1</ele>
    <name><![CDATA[EAU]]></name>
  </wpt>
  <trk>
    <name><![CDATA[12742497-RAF 2500  n5 (Nevers / Mt St Michel)]]></name>
    <extensions>
      <line xmlns="http://www.topografix.com/GPX/gpx_style/0/2">
        <color>0000ff</color>
        <width>4</width>
      </line>
    </extensions>
    <trkseg>
      <trkpt lat="46.99038" lon="3.16492">
        <ele>180</ele>
        <time>2021-07-06T21:06:34Z</time>
      </trkpt>
      <trkpt lat="46.99046" lon="3.16485">
        <ele>181</ele>
        <time>2021-07-06T21:06:36Z</time>
      </trkpt>
      <trkpt lat="46.99052" lon="3.16476">
        <ele>181</ele>
        <time>2021-07-06T21:06:37Z</time>
      </trkpt>
      <trkpt lat="46.99064" lon="3.16434">
        <ele>182</ele>
        <time>2021-07-06T21:06:43Z</time>
      </trkpt>
      <trkpt lat="46.99084" lon="3.16377">
        <ele>184</ele>
        <time>2021-07-06T21:06:50Z</time>
      </trkpt>
      <trkpt lat="46.991" lon="3.16318">
        <ele>187</ele>
        <time>2021-07-06T21:06:58Z</time>
      </trkpt>
      <trkpt lat="46.99105" lon="3.16321">
        <ele>187</ele>
        <time>2021-07-06T21:06:59Z</time>
      </trkpt>
      <trkpt lat="46.99111" lon="3.16303">
        <ele>187</ele>
        <time>2021-07-06T21:07:02Z</time>
      </trkpt>
      <trkpt lat="46.99155" lon="3.16152">
        <ele>192</ele>
        <time>2021-07-06T21:07:22Z</time>
      </trkpt>
      <trkpt lat="46.99156" lon="3.16149">
        <ele>192</ele>
        <time>2021-07-06T21:07:22Z</time>
      </trkpt>
      <trkpt lat="46.99194" lon="3.16124">
        <ele>192</ele>
        <time>2021-07-06T21:07:29Z</time>
      </trkpt>
      <trkpt lat="46.99237" lon="3.16082">
        <ele>193</ele>
        <time>2021-07-06T21:07:39Z</time>
      </trkpt>
      <trkpt lat="46.9924" lon="3.16079">
        <ele>193</ele>
        <time>2021-07-06T21:07:39Z</time>
      </trkpt>
      <trkpt lat="46.99242" lon="3.16077">
        <ele>193</ele>
        <time>2021-07-06T21:07:40Z</time>
      </trkpt>
      <trkpt lat="46.99244" lon="3.16073">
        <ele>193</ele>
        <time>2021-07-06T21:07:40Z</time>
      </trkpt>
      <trkpt lat="46.99248" lon="3.16061">
        <ele>193</ele>
        <time>2021-07-06T21:07:42Z</time>
      </trkpt>
      <trkpt lat="46.99249" lon="3.16055">
        <ele>193</ele>
        <time>2021-07-06T21:07:43Z</time>
      </trkpt>
      <trkpt lat="46.99251" lon="3.16051">
        <ele>193</ele>
        <time>2021-07-06T21:07:43Z</time>
      </trkpt>
      <trkpt lat="46.9926" lon="3.16044">
        <ele>193</ele>
        <time>2021-07-06T21:07:45Z</time>
      </trkpt>
      <trkpt lat="46.99263" lon="3.16039">
        <ele>193</ele>
        <time>2021-07-06T21:07:46Z</time>
      </trkpt>
      <trkpt lat="46.99265" lon="3.16042">
        <ele>193</ele>
        <time>2021-07-06T21:07:46Z</time>
      </trkpt>
      <trkpt lat="46.9927" lon="3.16043">
        <ele>193</ele>
        <time>2021-07-06T21:07:47Z</time>
      </trkpt>
      <trkpt lat="46.99276" lon="3.1604">
        <ele>193</ele>
        <time>2021-07-06T21:07:48Z</time>
      </trkpt>
      <trkpt lat="46.99279" lon="3.16038">
        <ele>193</ele>
        <time>2021-07-06T21:07:49Z</time>
      </trkpt>
      <trkpt lat="46.99287" lon="3.1603">
        <ele>193</ele>
        <time>2021-07-06T21:07:51Z</time>
      </trkpt>
      <trkpt lat="46.99289" lon="3.16028">
        <ele>193</ele>
        <time>2021-07-06T21:07:51Z</time>
      </trkpt>
      <trkpt lat="46.99297" lon="3.16023">
        <ele>193</ele>
        <time>2021-07-06T21:07:53Z</time>
      </trkpt>
      <trkpt lat="46.99305" lon="3.16014">
        <ele>192</ele>
        <time>2021-07-06T21:07:54Z</time>
      </trkpt>
      <trkpt lat="46.99308" lon="3.16011">
        <ele>192</ele>
        <time>2021-07-06T21:07:55Z</time>
      </trkpt>
      <trkpt lat="46.99415" lon="3.15903">
        <ele>192</ele>
        <time>2021-07-06T21:08:18Z</time>
      </trkpt>
      <trkpt lat="46.99511" lon="3.15803">
        <ele>194</ele>
        <time>2021-07-06T21:08:39Z</time>
      </trkpt>
      <trkpt lat="46.99541" lon="3.15773">
        <ele>195</ele>
        <time>2021-07-06T21:08:46Z</time>
      </trkpt>
      <trkpt lat="46.99571" lon="3.15752">
        <ele>196</ele>
        <time>2021-07-06T21:08:52Z</time>
      </trkpt>
      <trkpt lat="46.99588" lon="3.15741">
        <ele>196</ele>
        <time>2021-07-06T21:08:55Z</time>
      </trkpt>
      <trkpt lat="46.9962" lon="3.15727">
        <ele>197</ele>
        <time>2021-07-06T21:09:01Z</time>
      </trkpt>
      <trkpt lat="46.99766" lon="3.15669">
        <ele>201</ele>
        <time>2021-07-06T21:09:28Z</time>
      </trkpt>
      <trkpt lat="46.99817" lon="3.15647">
        <ele>203</ele>
        <time>2021-07-06T21:09:37Z</time>
      </trkpt>
      <trkpt lat="46.99937" lon="3.15598">
        <ele>206</ele>
        <time>2021-07-06T21:09:59Z</time>
      </trkpt>
      <trkpt lat="46.9996" lon="3.15592">
        <ele>206</ele>
        <time>2021-07-06T21:10:03Z</time>
      </trkpt>
      <trkpt lat="46.9998" lon="3.15581">
        <ele>206</ele>
        <time>2021-07-06T21:10:07Z</time>
      </trkpt>
      <trkpt lat="46.99984" lon="3.15583">
        <ele>206</ele>
        <time>2021-07-06T21:10:08Z</time>
      </trkpt>
      <trkpt lat="46.9999" lon="3.15583">
        <ele>206</ele>
        <time>2021-07-06T21:10:09Z</time>
      </trkpt>
      <trkpt lat="47.00044" lon="3.15558">
        <ele>207</ele>
        <time>2021-07-06T21:10:19Z</time>
      </trkpt>
      <trkpt lat="47.00065" lon="3.15551">
        <ele>207</ele>
        <time>2021-07-06T21:10:23Z</time>
      </trkpt>
      <trkpt lat="47.00073" lon="3.15553">
        <ele>208</ele>
        <time>2021-07-06T21:10:24Z</time>
      </trkpt>
      <trkpt lat="47.00084" lon="3.15566">
        <ele>207</ele>
        <time>2021-07-06T21:10:27Z</time>
      </trkpt>
      <trkpt lat="47.00087" lon="3.15581">
        <ele>207</ele>
        <time>2021-07-06T21:10:29Z</time>
      </trkpt>
      <trkpt lat="47.00088" lon="3.15585">
        <ele>207</ele>
        <time>2021-07-06T21:10:29Z</time>
      </trkpt>
      <trkpt lat="47.00089" lon="3.15588">
        <ele>207</ele>
        <time>2021-07-06T21:10:30Z</time>
      </trkpt>
      <trkpt lat="47.00091" lon="3.15591">
        <ele>207</ele>
        <time>2021-07-06T21:10:30Z</time>
      </trkpt>
      <trkpt lat="47.00097" lon="3.15595">
        <ele>207</ele>
        <time>2021-07-06T21:10:31Z</time>
      </trkpt>
      <trkpt lat="47.00101" lon="3.15595">
        <ele>207</ele>
        <time>2021-07-06T21:10:32Z</time>
      </trkpt>
      <trkpt lat="47.00103" lon="3.15595">
        <ele>207</ele>
        <time>2021-07-06T21:10:33Z</time>
      </trkpt>
      <trkpt lat="47.00104" lon="3.15594">
        <ele>207</ele>
        <time>2021-07-06T21:10:33Z</time>
      </trkpt>
      <trkpt lat="47.00106" lon="3.15593">
        <ele>207</ele>
        <time>2021-07-06T21:10:33Z</time>
      </trkpt>
      <trkpt lat="47.00107" lon="3.15591">
        <ele>207</ele>
        <time>2021-07-06T21:10:33Z</time>
      </trkpt>
      <trkpt lat="47.00108" lon="3.15588">
        <ele>207</ele>
        <time>2021-07-06T21:10:34Z</time>
      </trkpt>
      <trkpt lat="47.00116" lon="3.15576">
        <ele>208</ele>
        <time>2021-07-06T21:10:36Z</time>
      </trkpt>
      <trkpt lat="47.00127" lon="3.15557">
        <ele>209</ele>
        <time>2021-07-06T21:10:39Z</time>
      </trkpt>
      <trkpt lat="47.00134" lon="3.15546">
        <ele>209</ele>
        <time>2021-07-06T21:10:41Z</time>
      </trkpt>
      <trkpt lat="47.00153" lon="3.15524">
        <ele>210</ele>
        <time>2021-07-06T21:10:45Z</time>
      </trkpt>
      <trkpt lat="47.00163" lon="3.15515">
        <ele>210</ele>
        <time>2021-07-06T21:10:47Z</time>
      </trkpt>
      <trkpt lat="47.00178" lon="3.15507">
        <ele>210</ele>
        <time>2021-07-06T21:10:50Z</time>
      </trkpt>
      <trkpt lat="47.00184" lon="3.15504">
        <ele>210</ele>
        <time>2021-07-06T21:10:51Z</time>
      </trkpt>
      <trkpt lat="47.00194" lon="3.15498">
        <ele>210</ele>
        <time>2021-07-06T21:10:53Z</time>
      </trkpt>
      <trkpt lat="47.00261" lon="3.1547">
        <ele>209</ele>
        <time>2021-07-06T21:11:05Z</time>
      </trkpt>
      <trkpt lat="47.00372" lon="3.15424">
        <ele>209</ele>
        <time>2021-07-06T21:11:26Z</time>
      </trkpt>
      <trkpt lat="47.00414" lon="3.1541">
        <ele>209</ele>
        <time>2021-07-06T21:11:34Z</time>
      </trkpt>
      <trkpt lat="47.00418" lon="3.15409">
        <ele>209</ele>
        <time>2021-07-06T21:11:34Z</time>
      </trkpt>
      <trkpt lat="47.00429" lon="3.15404">
        <ele>209</ele>
        <time>2021-07-06T21:11:36Z</time>
      </trkpt>
      <trkpt lat="47.00449" lon="3.15396">
        <ele>208</ele>
        <time>2021-07-06T21:11:40Z</time>
      </trkpt>
      <trkpt lat="47.00518" lon="3.15367">
        <ele>208</ele>
        <time>2021-07-06T21:11:53Z</time>
      </trkpt>
      <trkpt lat="47.00548" lon="3.15356">
        <ele>208</ele>
        <time>2021-07-06T21:11:58Z</time>
      </trkpt>
      <trkpt lat="47.00558" lon="3.15351">
        <ele>208</ele>
        <time>2021-07-06T21:12:00Z</time>
      </trkpt>
      <trkpt lat="47.0057" lon="3.15346">
        <ele>208</ele>
        <time>2021-07-06T21:12:02Z</time>
      </trkpt>
      <trkpt lat="47.00651" lon="3.15314">
        <ele>208</ele>
        <time>2021-07-06T21:12:17Z</time>
      </trkpt>
      <trkpt lat="47.00669" lon="3.15306">
        <ele>208</ele>
        <time>2021-07-06T21:12:21Z</time>
      </trkpt>
      <trkpt lat="47.00692" lon="3.15295">
        <ele>208</ele>
        <time>2021-07-06T21:12:25Z</time>
      </trkpt>
      <trkpt lat="47.00697" lon="3.15293">
        <ele>208</ele>
        <time>2021-07-06T21:12:26Z</time>
      </trkpt>
      <trkpt lat="47.00712" lon="3.15287">
        <ele>208</ele>
        <time>2021-07-06T21:12:29Z</time>
      </trkpt>
      <trkpt lat="47.00786" lon="3.15259">
        <ele>208</ele>
        <time>2021-07-06T21:12:42Z</time>
      </trkpt>
      <trkpt lat="47.00798" lon="3.15254">
        <ele>208</ele>
        <time>2021-07-06T21:12:44Z</time>
      </trkpt>
      <trkpt lat="47.00811" lon="3.15249">
        <ele>208</ele>
        <time>2021-07-06T21:12:47Z</time>
      </trkpt>
      <trkpt lat="47.00866" lon="3.15226">
        <ele>208</ele>
        <time>2021-07-06T21:12:57Z</time>
      </trkpt>
      <trkpt lat="47.00903" lon="3.15211">
        <ele>208</ele>
        <time>2021-07-06T21:13:04Z</time>
      </trkpt>
      <trkpt lat="47.00931" lon="3.15199">
        <ele>207</ele>
        <time>2021-07-06T21:13:09Z</time>
      </trkpt>
      <trkpt lat="47.00947" lon="3.15192">
        <ele>206</ele>
        <time>2021-07-06T21:13:12Z</time>
      </trkpt>
      <trkpt lat="47.00963" lon="3.15186">
        <ele>206</ele>
        <time>2021-07-06T21:13:15Z</time>
      </trkpt>
      <trkpt lat="47.00981" lon="3.15179">
        <ele>206</ele>
        <time>2021-07-06T21:13:18Z</time>
      </trkpt>
      <trkpt lat="47.01005" lon="3.15169">
        <ele>206</ele>
        <time>2021-07-06T21:13:23Z</time>
      </trkpt>
      <trkpt lat="47.01032" lon="3.15157">
        <ele>206</ele>
        <time>2021-07-06T21:13:28Z</time>
      </trkpt>
      <trkpt lat="47.01067" lon="3.15143">
        <ele>205</ele>
        <time>2021-07-06T21:13:34Z</time>
      </trkpt>
      <trkpt lat="47.01075" lon="3.1514">
        <ele>205</ele>
        <time>2021-07-06T21:13:36Z</time>
      </trkpt>
      <trkpt lat="47.01123" lon="3.1512">
        <ele>206</ele>
        <time>2021-07-06T21:13:45Z</time>
      </trkpt>
      <trkpt lat="47.0114" lon="3.15112">
        <ele>206</ele>
        <time>2021-07-06T21:13:48Z</time>
      </trkpt>
      <trkpt lat="47.01151" lon="3.15108">
        <ele>206</ele>
        <time>2021-07-06T21:13:50Z</time>
      </trkpt>
      <trkpt lat="47.01248" lon="3.15068">
        <ele>206</ele>
        <time>2021-07-06T21:14:08Z</time>
      </trkpt>
      <trkpt lat="47.01265" lon="3.15061">
        <ele>206</ele>
        <time>2021-07-06T21:14:11Z</time>
      </trkpt>
      <trkpt lat="47.01325" lon="3.15036">
        <ele>206</ele>
        <time>2021-07-06T21:14:22Z</time>
      </trkpt>
      <trkpt lat="47.01375" lon="3.15015">
        <ele>206</ele>
        <time>2021-07-06T21:14:31Z</time>
      </trkpt>
      <trkpt lat="47.01397" lon="3.15006">
        <ele>206</ele>
        <time>2021-07-06T21:14:35Z</time>
      </trkpt>
      <trkpt lat="47.0141" lon="3.15001">
        <ele>206</ele>
        <time>2021-07-06T21:14:38Z</time>
      </trkpt>
      <trkpt lat="47.01448" lon="3.14985">
        <ele>206</ele>
        <time>2021-07-06T21:14:45Z</time>
      </trkpt>
      <trkpt lat="47.01468" lon="3.14977">
        <ele>206</ele>
        <time>2021-07-06T21:14:48Z</time>
      </trkpt>
      <trkpt lat="47.01484" lon="3.1497">
        <ele>206</ele>
        <time>2021-07-06T21:14:51Z</time>
      </trkpt>
      <trkpt lat="47.01507" lon="3.1496">
        <ele>206</ele>
        <time>2021-07-06T21:14:56Z</time>
      </trkpt>
      <trkpt lat="47.01516" lon="3.14956">
        <ele>207</ele>
        <time>2021-07-06T21:14:57Z</time>
      </trkpt>
      <trkpt lat="47.01521" lon="3.14954">
        <ele>207</ele>
        <time>2021-07-06T21:14:58Z</time>
      </trkpt>
      <trkpt lat="47.01543" lon="3.14944">
        <ele>207</ele>
        <time>2021-07-06T21:15:02Z</time>
      </trkpt>
      <trkpt lat="47.01554" lon="3.1494">
        <ele>207</ele>
        <time>2021-07-06T21:15:04Z</time>
      </trkpt>
      <trkpt lat="47.01574" lon="3.14935">
        <ele>207</ele>
        <time>2021-07-06T21:15:08Z</time>
      </trkpt>
      <trkpt lat="47.016" lon="3.14936">
        <ele>206</ele>
        <time>2021-07-06T21:15:13Z</time>
      </trkpt>
      <trkpt lat="47.01603" lon="3.1494">
        <ele>206</ele>
        <time>2021-07-06T21:15:13Z</time>
      </trkpt>
      <trkpt lat="47.01607" lon="3.14943">
        <ele>206</ele>
        <time>2021-07-06T21:15:14Z</time>
      </trkpt>
      <trkpt lat="47.01611" lon="3.14943">
        <ele>206</ele>
        <time>2021-07-06T21:15:15Z</time>
      </trkpt>
      <trkpt lat="47.01615" lon="3.14943">
        <ele>206</ele>
        <time>2021-07-06T21:15:15Z</time>
      </trkpt>
      <trkpt lat="47.01618" lon="3.14941">
        <ele>206</ele>
        <time>2021-07-06T21:15:16Z</time>
      </trkpt>
      <trkpt lat="47.0162" lon="3.14937">
        <ele>206</ele>
        <time>2021-07-06T21:15:17Z</time>
      </trkpt>
      <trkpt lat="47.01622" lon="3.14933">
        <ele>206</ele>
        <time>2021-07-06T21:15:17Z</time>
      </trkpt>
      <trkpt lat="47.01624" lon="3.14928">
        <ele>206</ele>
        <time>2021-07-06T21:15:18Z</time>
      </trkpt>
      <trkpt lat="47.01624" lon="3.14922">
        <ele>206</ele>
        <time>2021-07-06T21:15:19Z</time>
      </trkpt>
      <trkpt lat="47.01637" lon="3.14909">
        <ele>206</ele>
        <time>2021-07-06T21:15:21Z</time>
      </trkpt>
      <trkpt lat="47.0165" lon="3.149">
        <ele>205</ele>
        <time>2021-07-06T21:15:24Z</time>
      </trkpt>
      <trkpt lat="47.01666" lon="3.14894">
        <ele>205</ele>
        <time>2021-07-06T21:15:27Z</time>
      </trkpt>
      <trkpt lat="47.01679" lon="3.14888">
        <ele>205</ele>
        <time>2021-07-06T21:15:29Z</time>
      </trkpt>
      <trkpt lat="47.01687" lon="3.14884">
        <ele>205</ele>
        <time>2021-07-06T21:15:31Z</time>
      </trkpt>
      <trkpt lat="47.01694" lon="3.14884">
        <ele>205</ele>
        <time>2021-07-06T21:15:32Z</time>
      </trkpt>
      <trkpt lat="47.01696" lon="3.14886">
        <ele>205</ele>
        <time>2021-07-06T21:15:33Z</time>
      </trkpt>
      <trkpt lat="47.01702" lon="3.14886">
        <ele>205</ele>
        <time>2021-07-06T21:15:34Z</time>
      </trkpt>
      <trkpt lat="47.01705" lon="3.14884">
        <ele>205</ele>
        <time>2021-07-06T21:15:34Z</time>
      </trkpt>
      <trkpt lat="47.01707" lon="3.14882">
        <ele>205</ele>
        <time>2021-07-06T21:15:35Z</time>
      </trkpt>
      <trkpt lat="47.01709" lon="3.14879">
        <ele>205</ele>
        <time>2021-07-06T21:15:35Z</time>
      </trkpt>
      <trkpt lat="47.0171" lon="3.14876">
        <ele>205</ele>
        <time>2021-07-06T21:15:36Z</time>
      </trkpt>
      <trkpt lat="47.01718" lon="3.14871">
        <ele>205</ele>
        <time>2021-07-06T21:15:37Z</time>
      </trkpt>
      <trkpt lat="47.01787" lon="3.14845">
        <ele>205</ele>
        <time>2021-07-06T21:15:50Z</time>
      </trkpt>
      <trkpt lat="47.0214" lon="3.14697">
        <ele>208</ele>
        <time>2021-07-06T21:16:55Z</time>
      </trkpt>
      <trkpt lat="47.02154" lon="3.14692">
        <ele>208</ele>
        <time>2021-07-06T21:16:58Z</time>
      </trkpt>
      <trkpt lat="47.02167" lon="3.14692">
        <ele>208</ele>
        <time>2021-07-06T21:17:00Z</time>
      </trkpt>
      <trkpt lat="47.02173" lon="3.14696">
        <ele>208</ele>
        <time>2021-07-06T21:17:01Z</time>
      </trkpt>
      <trkpt lat="47.0218" lon="3.14696">
        <ele>208</ele>
        <time>2021-07-06T21:17:02Z</time>
      </trkpt>
      <trkpt lat="47.02185" lon="3.14692">
        <ele>208</ele>
        <time>2021-07-06T21:17:03Z</time>
      </trkpt>
      <trkpt lat="47.02189" lon="3.14684">
        <ele>208</ele>
        <time>2021-07-06T21:17:05Z</time>
      </trkpt>
      <trkpt lat="47.02194" lon="3.14678">
        <ele>208</ele>
        <time>2021-07-06T21:17:06Z</time>
      </trkpt>
      <trkpt lat="47.02215" lon="3.14665">
        <ele>209</ele>
        <time>2021-07-06T21:17:10Z</time>
      </trkpt>
      <trkpt lat="47.02366" lon="3.14606">
        <ele>208</ele>
        <time>2021-07-06T21:17:38Z</time>
      </trkpt>
      <trkpt lat="47.02396" lon="3.14603">
        <ele>208</ele>
        <time>2021-07-06T21:17:43Z</time>
      </trkpt>
      <trkpt lat="47.02402" lon="3.14606">
        <ele>208</ele>
        <time>2021-07-06T21:17:44Z</time>
      </trkpt>
      <trkpt lat="47.02409" lon="3.14619">
        <ele>207</ele>
        <time>2021-07-06T21:17:46Z</time>
      </trkpt>
      <trkpt lat="47.0242" lon="3.14623">
        <ele>207</ele>
        <time>2021-07-06T21:17:48Z</time>
      </trkpt>
      <trkpt lat="47.02425" lon="3.14621">
        <ele>207</ele>
        <time>2021-07-06T21:17:49Z</time>
      </trkpt>
      <trkpt lat="47.02434" lon="3.14611">
        <ele>208</ele>
        <time>2021-07-06T21:17:51Z</time>
      </trkpt>
      <trkpt lat="47.02437" lon="3.14603">
        <ele>208</ele>
        <time>2021-07-06T21:17:52Z</time>
      </trkpt>
      <trkpt lat="47.02437" lon="3.14595">
        <ele>208</ele>
        <time>2021-07-06T21:17:53Z</time>
      </trkpt>
      <trkpt lat="47.02442" lon="3.14586">
        <ele>209</ele>
        <time>2021-07-06T21:17:55Z</time>
      </trkpt>
      <trkpt lat="47.02454" lon="3.14572">
        <ele>209</ele>
        <time>2021-07-06T21:17:57Z</time>
      </trkpt>
      <trkpt lat="47.02471" lon="3.14561">
        <ele>210</ele>
        <time>2021-07-06T21:18:01Z</time>
      </trkpt>
      <trkpt lat="47.02604" lon="3.14506">
        <ele>215</ele>
        <time>2021-07-06T21:18:25Z</time>
      </trkpt>
      <trkpt lat="47.02952" lon="3.14361">
        <ele>224</ele>
        <time>2021-07-06T21:19:30Z</time>
      </trkpt>
      <trkpt lat="47.03003" lon="3.14344">
        <ele>224</ele>
        <time>2021-07-06T21:19:39Z</time>
      </trkpt>
      <trkpt lat="47.03052" lon="3.14333">
        <ele>224</ele>
        <time>2021-07-06T21:19:48Z</time>
      </trkpt>
      <trkpt lat="47.03077" lon="3.14338">
        <ele>224</ele>
        <time>2021-07-06T21:19:52Z</time>
      </trkpt>
      <trkpt lat="47.03086" lon="3.14344">
        <ele>224</ele>
        <time>2021-07-06T21:19:54Z</time>
      </trkpt>
      <trkpt lat="47.03096" lon="3.1434">
        <ele>224</ele>
        <time>2021-07-06T21:19:56Z</time>
      </trkpt>
      <trkpt lat="47.031" lon="3.14334">
        <ele>224</ele>
        <time>2021-07-06T21:19:57Z</time>
      </trkpt>
      <trkpt lat="47.03103" lon="3.14327">
        <ele>224</ele>
        <time>2021-07-06T21:19:58Z</time>
      </trkpt>
      <trkpt lat="47.03104" lon="3.14318">
        <ele>225</ele>
        <time>2021-07-06T21:19:59Z</time>
      </trkpt>
      <trkpt lat="47.0311" lon="3.1431">
        <ele>225</ele>
        <time>2021-07-06T21:20:00Z</time>
      </trkpt>
      <trkpt lat="47.03123" lon="3.14294">
        <ele>225</ele>
        <time>2021-07-06T21:20:03Z</time>
      </trkpt>
      <trkpt lat="47.03137" lon="3.14284">
        <ele>226</ele>
        <time>2021-07-06T21:20:06Z</time>
      </trkpt>
      <trkpt lat="47.03217" lon="3.14251">
        <ele>227</ele>
        <time>2021-07-06T21:20:21Z</time>
      </trkpt>
      <trkpt lat="47.03269" lon="3.14232">
        <ele>228</ele>
        <time>2021-07-06T21:20:30Z</time>
      </trkpt>
      <trkpt lat="47.03292" lon="3.14227">
        <ele>229</ele>
        <time>2021-07-06T21:20:35Z</time>
      </trkpt>
      <trkpt lat="47.03324" lon="3.14225">
        <ele>229</ele>
        <time>2021-07-06T21:20:40Z</time>
      </trkpt>
      <trkpt lat="47.03402" lon="3.14229">
        <ele>232</ele>
        <time>2021-07-06T21:20:54Z</time>
      </trkpt>
      <trkpt lat="47.03421" lon="3.14236">
        <ele>232</ele>
        <time>2021-07-06T21:20:58Z</time>
      </trkpt>
      <trkpt lat="47.03432" lon="3.14244">
        <ele>231</ele>
        <time>2021-07-06T21:21:00Z</time>
      </trkpt>
      <trkpt lat="47.03435" lon="3.14253">
        <ele>231</ele>
        <time>2021-07-06T21:21:01Z</time>
      </trkpt>
      <trkpt lat="47.0344" lon="3.14261">
        <ele>230</ele>
        <time>2021-07-06T21:21:02Z</time>
      </trkpt>
      <trkpt lat="47.0345" lon="3.1427">
        <ele>230</ele>
        <time>2021-07-06T21:21:04Z</time>
      </trkpt>
      <trkpt lat="47.03462" lon="3.14271">
        <ele>230</ele>
        <time>2021-07-06T21:21:07Z</time>
      </trkpt>
      <trkpt lat="47.03473" lon="3.14264">
        <ele>230</ele>
        <time>2021-07-06T21:21:09Z</time>
      </trkpt>
      <trkpt lat="47.03481" lon="3.1425">
        <ele>230</ele>
        <time>2021-07-06T21:21:11Z</time>
      </trkpt>
      <trkpt lat="47.03484" lon="3.14241">
        <ele>231</ele>
        <time>2021-07-06T21:21:12Z</time>
      </trkpt>
      <trkpt lat="47.03484" lon="3.14222">
        <ele>232</ele>
        <time>2021-07-06T21:21:14Z</time>
      </trkpt>
      <trkpt lat="47.03478" lon="3.14206">
        <ele>232</ele>
        <time>2021-07-06T21:21:17Z</time>
      </trkpt>
      <trkpt lat="47.03473" lon="3.142">
        <ele>233</ele>
        <time>2021-07-06T21:21:18Z</time>
      </trkpt>
      <trkpt lat="47.0346" lon="3.14193">
        <ele>233</ele>
        <time>2021-07-06T21:21:20Z</time>
      </trkpt>
      <trkpt lat="47.03451" lon="3.14194">
        <ele>233</ele>
        <time>2021-07-06T21:21:22Z</time>
      </trkpt>
      <trkpt lat="47.03452" lon="3.14166">
        <ele>235</ele>
        <time>2021-07-06T21:21:25Z</time>
      </trkpt>
      <trkpt lat="47.03456" lon="3.14153">
        <ele>235</ele>
        <time>2021-07-06T21:21:27Z</time>
      </trkpt>
      <trkpt lat="47.03463" lon="3.14146">
        <ele>234</ele>
        <time>2021-07-06T21:21:29Z</time>
      </trkpt>
      <trkpt lat="47.03527" lon="3.14114">
        <ele>233</ele>
        <time>2021-07-06T21:21:41Z</time>
      </trkpt>
      <trkpt lat="47.03548" lon="3.14096">
        <ele>232</ele>
        <time>2021-07-06T21:21:45Z</time>
      </trkpt>
      <trkpt lat="47.03636" lon="3.1401">
        <ele>224</ele>
        <time>2021-07-06T21:22:04Z</time>
      </trkpt>
      <trkpt lat="47.03685" lon="3.13956">
        <ele>217</ele>
        <time>2021-07-06T21:22:15Z</time>
      </trkpt>
      <trkpt lat="47.037" lon="3.13945">
        <ele>215</ele>
        <time>2021-07-06T21:22:18Z</time>
      </trkpt>
      <trkpt lat="47.03767" lon="3.13917">
        <ele>212</ele>
        <time>2021-07-06T21:22:30Z</time>
      </trkpt>
      <trkpt lat="47.03781" lon="3.13907">
        <ele>210</ele>
        <time>2021-07-06T21:22:33Z</time>
      </trkpt>
      <trkpt lat="47.03792" lon="3.13897">
        <ele>209</ele>
        <time>2021-07-06T21:22:35Z</time>
      </trkpt>
      <trkpt lat="47.03801" lon="3.13884">
        <ele>207</ele>
        <time>2021-07-06T21:22:37Z</time>
      </trkpt>
      <trkpt lat="47.03811" lon="3.13853">
        <ele>204</ele>
        <time>2021-07-06T21:22:41Z</time>
      </trkpt>
      <trkpt lat="47.03817" lon="3.13805">
        <ele>201</ele>
        <time>2021-07-06T21:22:47Z</time>
      </trkpt>
      <trkpt lat="47.03821" lon="3.1379">
        <ele>200</ele>
        <time>2021-07-06T21:22:49Z</time>
      </trkpt>
      <trkpt lat="47.03876" lon="3.13664">
        <ele>194</ele>
        <time>2021-07-06T21:23:08Z</time>
      </trkpt>
      <trkpt lat="47.03881" lon="3.13645">
        <ele>194</ele>
        <time>2021-07-06T21:23:10Z</time>
      </trkpt>
      <trkpt lat="47.03882" lon="3.13635">
        <ele>194</ele>
        <time>2021-07-06T21:23:11Z</time>
      </trkpt>
      <trkpt lat="47.03887" lon="3.13631">
        <ele>193</ele>
        <time>2021-07-06T21:23:12Z</time>
      </trkpt>
      <trkpt lat="47.03888" lon="3.13622">
        <ele>193</ele>
        <time>2021-07-06T21:23:13Z</time>
      </trkpt>
      <trkpt lat="47.03893" lon="3.13604">
        <ele>193</ele>
        <time>2021-07-06T21:23:16Z</time>
      </trkpt>
      <trkpt lat="47.0401" lon="3.13285">
        <ele>185</ele>
        <time>2021-07-06T21:24:00Z</time>
      </trkpt>
      <trkpt lat="47.04016" lon="3.13275">
        <ele>184</ele>
        <time>2021-07-06T21:24:01Z</time>
      </trkpt>
      <trkpt lat="47.04021" lon="3.13271">
        <ele>184</ele>
        <time>2021-07-06T21:24:02Z</time>
      </trkpt>
      <trkpt lat="47.04028" lon="3.13276">
        <ele>184</ele>
        <time>2021-07-06T21:24:04Z</time>
      </trkpt>
      <trkpt lat="47.04033" lon="3.13274">
        <ele>184</ele>
        <time>2021-07-06T21:24:05Z</time>
      </trkpt>
      <trkpt lat="47.04035" lon="3.13271">
        <ele>184</ele>
        <time>2021-07-06T21:24:05Z</time>
      </trkpt>
      <trkpt lat="47.04037" lon="3.13262">
        <ele>184</ele>
        <time>2021-07-06T21:24:06Z</time>
      </trkpt>
      <trkpt lat="47.04037" lon="3.13258">
        <ele>183</ele>
        <time>2021-07-06T21:24:07Z</time>
      </trkpt>
      <trkpt lat="47.04033" lon="3.13251">
        <ele>183</ele>
        <time>2021-07-06T21:24:08Z</time>
      </trkpt>
      <trkpt lat="47.0403" lon="3.1325">
        <ele>183</ele>
        <time>2021-07-06T21:24:08Z</time>
      </trkpt>
      <trkpt lat="47.04035" lon="3.13221">
        <ele>183</ele>
        <time>2021-07-06T21:24:12Z</time>
      </trkpt>
      <trkpt lat="47.04243" lon="3.12675">
        <ele>184</ele>
        <time>2021-07-06T21:25:28Z</time>
      </trkpt>
      <trkpt lat="47.04256" lon="3.12643">
        <ele>184</ele>
        <time>2021-07-06T21:25:32Z</time>
      </trkpt>
      <trkpt lat="47.04267" lon="3.12624">
        <ele>184</ele>
        <time>2021-07-06T21:25:35Z</time>
      </trkpt>
      <trkpt lat="47.04281" lon="3.12605">
        <ele>183</ele>
        <time>2021-07-06T21:25:39Z</time>
      </trkpt>
      <trkpt lat="47.04297" lon="3.12588">
        <ele>183</ele>
        <time>2021-07-06T21:25:42Z</time>
      </trkpt>
      <trkpt lat="47.04395" lon="3.12506">
        <ele>183</ele>
        <time>2021-07-06T21:26:02Z</time>
      </trkpt>
      <trkpt lat="47.04407" lon="3.12491">
        <ele>183</ele>
        <time>2021-07-06T21:26:05Z</time>
      </trkpt>
      <trkpt lat="47.04416" lon="3.12479">
        <ele>183</ele>
        <time>2021-07-06T21:26:07Z</time>
      </trkpt>
      <trkpt lat="47.04422" lon="3.12469">
        <ele>183</ele>
        <time>2021-07-06T21:26:09Z</time>
      </trkpt>
      <trkpt lat="47.04432" lon="3.12456">
        <ele>183</ele>
        <time>2021-07-06T21:26:11Z</time>
      </trkpt>
      <trkpt lat="47.0444" lon="3.12455">
        <ele>183</ele>
        <time>2021-07-06T21:26:13Z</time>
      </trkpt>
      <trkpt lat="47.04448" lon="3.12449">
        <ele>183</ele>
        <time>2021-07-06T21:26:14Z</time>
      </trkpt>
      <trkpt lat="47.04461" lon="3.12454">
        <ele>184</ele>
        <time>2021-07-06T21:26:17Z</time>
      </trkpt>
      <trkpt lat="47.04475" lon="3.12465">
        <ele>184</ele>
        <time>2021-07-06T21:26:20Z</time>
      </trkpt>
      <trkpt lat="47.0448" lon="3.12467">
        <ele>184</ele>
        <time>2021-07-06T21:26:20Z</time>
      </trkpt>
      <trkpt lat="47.04785" lon="3.12778">
        <ele>184</ele>
        <time>2021-07-06T21:27:27Z</time>
      </trkpt>
      <trkpt lat="47.04803" lon="3.12801">
        <ele>184</ele>
        <time>2021-07-06T21:27:31Z</time>
      </trkpt>
      <trkpt lat="47.04823" lon="3.12835">
        <ele>185</ele>
        <time>2021-07-06T21:27:36Z</time>
      </trkpt>
      <trkpt lat="47.04837" lon="3.12863">
        <ele>185</ele>
        <time>2021-07-06T21:27:40Z</time>
      </trkpt>
      <trkpt lat="47.0485" lon="3.12897">
        <ele>186</ele>
        <time>2021-07-06T21:27:45Z</time>
      </trkpt>
      <trkpt lat="47.04855" lon="3.12941">
        <ele>186</ele>
        <time>2021-07-06T21:27:51Z</time>
      </trkpt>
      <trkpt lat="47.04851" lon="3.1295">
        <ele>186</ele>
        <time>2021-07-06T21:27:52Z</time>
      </trkpt>
      <trkpt lat="47.04849" lon="3.12961">
        <ele>186</ele>
        <time>2021-07-06T21:27:53Z</time>
      </trkpt>
      <trkpt lat="47.0485" lon="3.12972">
        <ele>185</ele>
        <time>2021-07-06T21:27:55Z</time>
      </trkpt>
      <trkpt lat="47.04852" lon="3.12981">
        <ele>185</ele>
        <time>2021-07-06T21:27:56Z</time>
      </trkpt>
      <trkpt lat="47.04859" lon="3.12994">
        <ele>185</ele>
        <time>2021-07-06T21:27:58Z</time>
      </trkpt>
      <trkpt lat="47.04871" lon="3.13001">
        <ele>185</ele>
        <time>2021-07-06T21:28:00Z</time>
      </trkpt>
      <trkpt lat="47.04878" lon="3.13">
        <ele>185</ele>
        <time>2021-07-06T21:28:01Z</time>
      </trkpt>
      <trkpt lat="47.04884" lon="3.12997">
        <ele>185</ele>
        <time>2021-07-06T21:28:02Z</time>
      </trkpt>
      <trkpt lat="47.04891" lon="3.1299">
        <ele>185</ele>
        <time>2021-07-06T21:28:04Z</time>
      </trkpt>
      <trkpt lat="47.04896" lon="3.1298">
        <ele>185</ele>
        <time>2021-07-06T21:28:05Z</time>
      </trkpt>
      <trkpt lat="47.04898" lon="3.12971">
        <ele>186</ele>
        <time>2021-07-06T21:28:07Z</time>
      </trkpt>
      <trkpt lat="47.04897" lon="3.12954">
        <ele>186</ele>
        <time>2021-07-06T21:28:09Z</time>
      </trkpt>
      <trkpt lat="47.04904" lon="3.1293">
        <ele>187</ele>
        <time>2021-07-06T21:28:12Z</time>
      </trkpt>
      <trkpt lat="47.04908" lon="3.12923">
        <ele>187</ele>
        <time>2021-07-06T21:28:13Z</time>
      </trkpt>
      <trkpt lat="47.05778" lon="3.11839">
        <ele>216</ele>
        <time>2021-07-06T21:31:36Z</time>
      </trkpt>
      <trkpt lat="47.05831" lon="3.11771">
        <ele>219</ele>
        <time>2021-07-06T21:31:49Z</time>
      </trkpt>
      <trkpt lat="47.05852" lon="3.11741">
        <ele>221</ele>
        <time>2021-07-06T21:31:54Z</time>
      </trkpt>
      <trkpt lat="47.05872" lon="3.11701">
        <ele>223</ele>
        <time>2021-07-06T21:32:00Z</time>
      </trkpt>
      <trkpt lat="47.05885" lon="3.11661">
        <ele>227</ele>
        <time>2021-07-06T21:32:05Z</time>
      </trkpt>
      <trkpt lat="47.0589" lon="3.11626">
        <ele>231</ele>
        <time>2021-07-06T21:32:09Z</time>
      </trkpt>
      <trkpt lat="47.05891" lon="3.11596">
        <ele>234</ele>
        <time>2021-07-06T21:32:13Z</time>
      </trkpt>
      <trkpt lat="47.05888" lon="3.11573">
        <ele>236</ele>
        <time>2021-07-06T21:32:16Z</time>
      </trkpt>
      <trkpt lat="47.0588" lon="3.11547">
        <ele>239</ele>
        <time>2021-07-06T21:32:19Z</time>
      </trkpt>
      <trkpt lat="47.05862" lon="3.11513">
        <ele>240</ele>
        <time>2021-07-06T21:32:25Z</time>
      </trkpt>
      <trkpt lat="47.05818" lon="3.11453">
        <ele>236</ele>
        <time>2021-07-06T21:32:35Z</time>
      </trkpt>
      <trkpt lat="47.05809" lon="3.1143">
        <ele>237</ele>
        <time>2021-07-06T21:32:39Z</time>
      </trkpt>
      <trkpt lat="47.05806" lon="3.11404">
        <ele>238</ele>
        <time>2021-07-06T21:32:42Z</time>
      </trkpt>
      <trkpt lat="47.05807" lon="3.11373">
        <ele>238</ele>
        <time>2021-07-06T21:32:45Z</time>
      </trkpt>
      <trkpt lat="47.05813" lon="3.1135">
        <ele>240</ele>
        <time>2021-07-06T21:32:48Z</time>
      </trkpt>
      <trkpt lat="47.05819" lon="3.11335">
        <ele>241</ele>
        <time>2021-07-06T21:32:51Z</time>
      </trkpt>
      <trkpt lat="47.05835" lon="3.11318">
        <ele>243</ele>
        <time>2021-07-06T21:32:54Z</time>
      </trkpt>
      <trkpt lat="47.05991" lon="3.11209">
        <ele>256</ele>
        <time>2021-07-06T21:33:25Z</time>
      </trkpt>
      <trkpt lat="47.0601" lon="3.11202">
        <ele>257</ele>
        <time>2021-07-06T21:33:28Z</time>
      </trkpt>
      <trkpt lat="47.06026" lon="3.112">
        <ele>259</ele>
        <time>2021-07-06T21:33:31Z</time>
      </trkpt>
      <trkpt lat="47.06082" lon="3.11209">
        <ele>266</ele>
        <time>2021-07-06T21:33:41Z</time>
      </trkpt>
      <trkpt lat="47.06096" lon="3.11207">
        <ele>267</ele>
        <time>2021-07-06T21:33:44Z</time>
      </trkpt>
      <trkpt lat="47.06108" lon="3.11199">
        <ele>267</ele>
        <time>2021-07-06T21:33:46Z</time>
      </trkpt>
      <trkpt lat="47.06117" lon="3.11182">
        <ele>267</ele>
        <time>2021-07-06T21:33:49Z</time>
      </trkpt>
      <trkpt lat="47.0612" lon="3.11164">
        <ele>267</ele>
        <time>2021-07-06T21:33:51Z</time>
      </trkpt>
      <trkpt lat="47.06118" lon="3.11148">
        <ele>266</ele>
        <time>2021-07-06T21:33:53Z</time>
      </trkpt>
      <trkpt lat="47.06109" lon="3.11122">
        <ele>265</ele>
        <time>2021-07-06T21:33:56Z</time>
      </trkpt>
      <trkpt lat="47.06089" lon="3.1108">
        <ele>264</ele>
        <time>2021-07-06T21:34:03Z</time>
      </trkpt>
      <trkpt lat="47.06083" lon="3.1105">
        <ele>264</ele>
        <time>2021-07-06T21:34:06Z</time>
      </trkpt>
      <trkpt lat="47.06084" lon="3.11017">
        <ele>265</ele>
        <time>2021-07-06T21:34:10Z</time>
      </trkpt>
      <trkpt lat="47.06089" lon="3.1099">
        <ele>267</ele>
        <time>2021-07-06T21:34:14Z</time>
      </trkpt>
      <trkpt lat="47.06097" lon="3.10962">
        <ele>268</ele>
        <time>2021-07-06T21:34:17Z</time>
      </trkpt>
      <trkpt lat="47.06132" lon="3.10891">
        <ele>271</ele>
        <time>2021-07-06T21:34:28Z</time>
      </trkpt>
      <trkpt lat="47.06165" lon="3.10831">
        <ele>273</ele>
        <time>2021-07-06T21:34:37Z</time>
      </trkpt>
      <trkpt lat="47.06182" lon="3.10804">
        <ele>274</ele>
        <time>2021-07-06T21:34:42Z</time>
      </trkpt>
      <trkpt lat="47.06206" lon="3.10774">
        <ele>274</ele>
        <time>2021-07-06T21:34:47Z</time>
      </trkpt>
      <trkpt lat="47.06322" lon="3.1065">
        <ele>267</ele>
        <time>2021-07-06T21:35:13Z</time>
      </trkpt>
      <trkpt lat="47.06527" lon="3.10425">
        <ele>259</ele>
        <time>2021-07-06T21:35:59Z</time>
      </trkpt>
      <trkpt lat="47.0655" lon="3.10409">
        <ele>258</ele>
        <time>2021-07-06T21:36:03Z</time>
      </trkpt>
      <trkpt lat="47.06584" lon="3.10397">
        <ele>256</ele>
        <time>2021-07-06T21:36:09Z</time>
      </trkpt>
      <trkpt lat="47.0661" lon="3.10394">
        <ele>254</ele>
        <time>2021-07-06T21:36:14Z</time>
      </trkpt>
      <trkpt lat="47.06652" lon="3.10392">
        <ele>253</ele>
        <time>2021-07-06T21:36:21Z</time>
      </trkpt>
      <trkpt lat="47.06699" lon="3.10393">
        <ele>250</ele>
        <time>2021-07-06T21:36:30Z</time>
      </trkpt>
      <trkpt lat="47.06743" lon="3.10396">
        <ele>248</ele>
        <time>2021-07-06T21:36:38Z</time>
      </trkpt>
      <trkpt lat="47.06793" lon="3.10411">
        <ele>246</ele>
        <time>2021-07-06T21:36:47Z</time>
      </trkpt>
      <trkpt lat="47.06841" lon="3.10429">
        <ele>245</ele>
        <time>2021-07-06T21:36:56Z</time>
      </trkpt>
      <trkpt lat="47.06924" lon="3.1048">
        <ele>243</ele>
        <time>2021-07-06T21:37:12Z</time>
      </trkpt>
      <trkpt lat="47.06934" lon="3.1049">
        <ele>243</ele>
        <time>2021-07-06T21:37:14Z</time>
      </trkpt>
      <trkpt lat="47.06961" lon="3.10527">
        <ele>242</ele>
        <time>2021-07-06T21:37:20Z</time>
      </trkpt>
      <trkpt lat="47.06971" lon="3.10536">
        <ele>241</ele>
        <time>2021-07-06T21:37:22Z</time>
      </trkpt>
      <trkpt lat="47.06993" lon="3.1055">
        <ele>239</ele>
        <time>2021-07-06T21:37:27Z</time>
      </trkpt>
      <trkpt lat="47.07017" lon="3.10556">
        <ele>238</ele>
        <time>2021-07-06T21:37:31Z</time>
      </trkpt>
      <trkpt lat="47.07037" lon="3.10558">
        <ele>238</ele>
        <time>2021-07-06T21:37:35Z</time>
      </trkpt>
      <trkpt lat="47.07052" lon="3.10555">
        <ele>237</ele>
        <time>2021-07-06T21:37:37Z</time>
      </trkpt>
      <trkpt lat="47.07068" lon="3.10545">
        <ele>235</ele>
        <time>2021-07-06T21:37:40Z</time>
      </trkpt>
      <trkpt lat="47.0709" lon="3.10519">
        <ele>231</ele>
        <time>2021-07-06T21:37:45Z</time>
      </trkpt>
      <trkpt lat="47.07356" lon="3.10255">
        <ele>208</ele>
        <time>2021-07-06T21:38:42Z</time>
      </trkpt>
      <trkpt lat="47.07458" lon="3.10159">
        <ele>203</ele>
        <time>2021-07-06T21:39:04Z</time>
      </trkpt>
      <trkpt lat="47.07487" lon="3.10128">
        <ele>201</ele>
        <time>2021-07-06T21:39:10Z</time>
      </trkpt>
      <trkpt lat="47.07506" lon="3.10114">
        <ele>200</ele>
        <time>2021-07-06T21:39:14Z</time>
      </trkpt>
      <trkpt lat="47.0757" lon="3.10052">
        <ele>198</ele>
        <time>2021-07-06T21:39:28Z</time>
      </trkpt>
      <trkpt lat="47.07586" lon="3.10032">
        <ele>197</ele>
        <time>2021-07-06T21:39:32Z</time>
      </trkpt>
      <trkpt lat="47.07597" lon="3.10015">
        <ele>196</ele>
        <time>2021-07-06T21:39:34Z</time>
      </trkpt>
      <trkpt lat="47.0765" lon="3.09964">
        <ele>195</ele>
        <time>2021-07-06T21:39:46Z</time>
      </trkpt>
      <trkpt lat="47.07666" lon="3.09951">
        <ele>195</ele>
        <time>2021-07-06T21:39:49Z</time>
      </trkpt>
      <trkpt lat="47.07717" lon="3.099">
        <ele>193</ele>
        <time>2021-07-06T21:40:00Z</time>
      </trkpt>
      <trkpt lat="47.07725" lon="3.09892">
        <ele>193</ele>
        <time>2021-07-06T21:40:02Z</time>
      </trkpt>
      <trkpt lat="47.07754" lon="3.09863">
        <ele>192</ele>
        <time>2021-07-06T21:40:08Z</time>
      </trkpt>
      <trkpt lat="47.07773" lon="3.09844">
        <ele>192</ele>
        <time>2021-07-06T21:40:12Z</time>
      </trkpt>
      <trkpt lat="47.08012" lon="3.09605">
        <ele>190</ele>
        <time>2021-07-06T21:41:03Z</time>
      </trkpt>
      <trkpt lat="47.08244" lon="3.09376">
        <ele>184</ele>
        <time>2021-07-06T21:41:53Z</time>
      </trkpt>
      <trkpt lat="47.08256" lon="3.09365">
        <ele>184</ele>
        <time>2021-07-06T21:41:56Z</time>
      </trkpt>
      <trkpt lat="47.08265" lon="3.0936">
        <ele>183</ele>
        <time>2021-07-06T21:41:57Z</time>
      </trkpt>
      <trkpt lat="47.08273" lon="3.09355">
        <ele>183</ele>
        <time>2021-07-06T21:41:59Z</time>
      </trkpt>
      <trkpt lat="47.083" lon="3.09352">
        <ele>183</ele>
        <time>2021-07-06T21:42:04Z</time>
      </trkpt>
      <trkpt lat="47.08303" lon="3.09356">
        <ele>183</ele>
        <time>2021-07-06T21:42:04Z</time>
      </trkpt>
      <trkpt lat="47.08307" lon="3.09359">
        <ele>183</ele>
        <time>2021-07-06T21:42:05Z</time>
      </trkpt>
      <trkpt lat="47.08311" lon="3.09359">
        <ele>182</ele>
        <time>2021-07-06T21:42:06Z</time>
      </trkpt>
      <trkpt lat="47.08315" lon="3.09358">
        <ele>182</ele>
        <time>2021-07-06T21:42:07Z</time>
      </trkpt>
      <trkpt lat="47.0832" lon="3.09355">
        <ele>182</ele>
        <time>2021-07-06T21:42:08Z</time>
      </trkpt>
      <trkpt lat="47.08325" lon="3.09347">
        <ele>182</ele>
        <time>2021-07-06T21:42:09Z</time>
      </trkpt>
      <trkpt lat="47.08326" lon="3.09338">
        <ele>182</ele>
        <time>2021-07-06T21:42:10Z</time>
      </trkpt>
      <trkpt lat="47.08327" lon="3.09322">
        <ele>182</ele>
        <time>2021-07-06T21:42:12Z</time>
      </trkpt>
      <trkpt lat="47.08327" lon="3.09307">
        <ele>181</ele>
        <time>2021-07-06T21:42:14Z</time>
      </trkpt>
      <trkpt lat="47.0833" lon="3.09299">
        <ele>181</ele>
        <time>2021-07-06T21:42:15Z</time>
      </trkpt>
      <trkpt lat="47.08343" lon="3.09277">
        <ele>180</ele>
        <time>2021-07-06T21:42:18Z</time>
      </trkpt>
      <trkpt lat="47.0852" lon="3.09101">
        <ele>182</ele>
        <time>2021-07-06T21:42:57Z</time>
      </trkpt>
      <trkpt lat="47.08647" lon="3.08975">
        <ele>183</ele>
        <time>2021-07-06T21:43:24Z</time>
      </trkpt>
      <trkpt lat="47.08663" lon="3.08959">
        <ele>183</ele>
        <time>2021-07-06T21:43:27Z</time>
      </trkpt>
      <trkpt lat="47.09123" lon="3.085">
        <ele>182</ele>
        <time>2021-07-06T21:45:06Z</time>
      </trkpt>
      <trkpt lat="47.09139" lon="3.08484">
        <ele>182</ele>
        <time>2021-07-06T21:45:10Z</time>
      </trkpt>
      <trkpt lat="47.09167" lon="3.08461">
        <ele>181</ele>
        <time>2021-07-06T21:45:15Z</time>
      </trkpt>
      <trkpt lat="47.09191" lon="3.08452">
        <ele>181</ele>
        <time>2021-07-06T21:45:20Z</time>
      </trkpt>
      <trkpt lat="47.09198" lon="3.08451">
        <ele>181</ele>
        <time>2021-07-06T21:45:21Z</time>
      </trkpt>
      <trkpt lat="47.0921" lon="3.0845">
        <ele>181</ele>
        <time>2021-07-06T21:45:23Z</time>
      </trkpt>
      <trkpt lat="47.0921" lon="3.08426">
        <ele>181</ele>
        <time>2021-07-06T21:45:26Z</time>
      </trkpt>
      <trkpt lat="47.09212" lon="3.08416">
        <ele>181</ele>
        <time>2021-07-06T21:45:27Z</time>
      </trkpt>
      <trkpt lat="47.09222" lon="3.08403">
        <ele>181</ele>
        <time>2021-07-06T21:45:30Z</time>
      </trkpt>
      <trkpt lat="47.09537" lon="3.08093">
        <ele>183</ele>
        <time>2021-07-06T21:46:37Z</time>
      </trkpt>
      <trkpt lat="47.09582" lon="3.08041">
        <ele>185</ele>
        <time>2021-07-06T21:46:47Z</time>
      </trkpt>
      <trkpt lat="47.09672" lon="3.07922">
        <ele>194</ele>
        <time>2021-07-06T21:47:09Z</time>
      </trkpt>
      <trkpt lat="47.09734" lon="3.07849">
        <ele>196</ele>
        <time>2021-07-06T21:47:23Z</time>
      </trkpt>
      <trkpt lat="47.09856" lon="3.07729">
        <ele>194</ele>
        <time>2021-07-06T21:47:49Z</time>
      </trkpt>
      <trkpt lat="47.09997" lon="3.07589">
        <ele>193</ele>
        <time>2021-07-06T21:48:19Z</time>
      </trkpt>
      <trkpt lat="47.10347" lon="3.07233">
        <ele>187</ele>
        <time>2021-07-06T21:49:35Z</time>
      </trkpt>
      <trkpt lat="47.10376" lon="3.07198">
        <ele>188</ele>
        <time>2021-07-06T21:49:42Z</time>
      </trkpt>
      <trkpt lat="47.10385" lon="3.07182">
        <ele>188</ele>
        <time>2021-07-06T21:49:44Z</time>
      </trkpt>
      <trkpt lat="47.10428" lon="3.07102">
        <ele>190</ele>
        <time>2021-07-06T21:49:57Z</time>
      </trkpt>
      <trkpt lat="47.10442" lon="3.07081">
        <ele>191</ele>
        <time>2021-07-06T21:50:00Z</time>
      </trkpt>
      <trkpt lat="47.10461" lon="3.07058">
        <ele>191</ele>
        <time>2021-07-06T21:50:05Z</time>
      </trkpt>
      <trkpt lat="47.10537" lon="3.06983">
        <ele>191</ele>
        <time>2021-07-06T21:50:21Z</time>
      </trkpt>
      <trkpt lat="47.10613" lon="3.06918">
        <ele>191</ele>
        <time>2021-07-06T21:50:37Z</time>
      </trkpt>
      <trkpt lat="47.10675" lon="3.06894">
        <ele>192</ele>
        <time>2021-07-06T21:50:48Z</time>
      </trkpt>
      <trkpt lat="47.10724" lon="3.06891">
        <ele>195</ele>
        <time>2021-07-06T21:50:57Z</time>
      </trkpt>
      <trkpt lat="47.1074" lon="3.06888">
        <ele>196</ele>
        <time>2021-07-06T21:51:00Z</time>
      </trkpt>
      <trkpt lat="47.10793" lon="3.06856">
        <ele>200</ele>
        <time>2021-07-06T21:51:10Z</time>
      </trkpt>
      <trkpt lat="47.10923" lon="3.06718">
        <ele>202</ele>
        <time>2021-07-06T21:51:38Z</time>
      </trkpt>
      <trkpt lat="47.11197" lon="3.06445">
        <ele>199</ele>
        <time>2021-07-06T21:52:37Z</time>
      </trkpt>
      <trkpt lat="47.11312" lon="3.06333">
        <ele>205</ele>
        <time>2021-07-06T21:53:02Z</time>
      </trkpt>
      <trkpt lat="47.11318" lon="3.06326">
        <ele>205</ele>
        <time>2021-07-06T21:53:03Z</time>
      </trkpt>
      <trkpt lat="47.11362" lon="3.06282">
        <ele>210</ele>
        <time>2021-07-06T21:53:13Z</time>
      </trkpt>
      <trkpt lat="47.11644" lon="3.06">
        <ele>218</ele>
        <time>2021-07-06T21:54:13Z</time>
      </trkpt>
      <trkpt lat="47.11714" lon="3.05927">
        <ele>217</ele>
        <time>2021-07-06T21:54:29Z</time>
      </trkpt>
      <trkpt lat="47.11791" lon="3.05824">
        <ele>214</ele>
        <time>2021-07-06T21:54:47Z</time>
      </trkpt>
      <trkpt lat="47.11822" lon="3.05788">
        <ele>213</ele>
        <time>2021-07-06T21:54:54Z</time>
      </trkpt>
      <trkpt lat="47.11912" lon="3.05693">
        <ele>211</ele>
        <time>2021-07-06T21:55:14Z</time>
      </trkpt>
      <trkpt lat="47.12044" lon="3.05557">
        <ele>207</ele>
        <time>2021-07-06T21:55:43Z</time>
      </trkpt>
      <trkpt lat="47.1273" lon="3.04847">
        <ele>181</ele>
        <time>2021-07-06T21:58:12Z</time>
      </trkpt>
      <trkpt lat="47.13027" lon="3.04542">
        <ele>196</ele>
        <time>2021-07-06T21:59:16Z</time>
      </trkpt>
      <trkpt lat="47.13079" lon="3.04494">
        <ele>196</ele>
        <time>2021-07-06T21:59:27Z</time>
      </trkpt>
      <trkpt lat="47.13158" lon="3.0443">
        <ele>193</ele>
        <time>2021-07-06T21:59:43Z</time>
      </trkpt>
      <trkpt lat="47.13219" lon="3.0437">
        <ele>190</ele>
        <time>2021-07-06T21:59:56Z</time>
      </trkpt>
      <trkpt lat="47.13386" lon="3.04199">
        <ele>181</ele>
        <time>2021-07-06T22:00:33Z</time>
      </trkpt>
      <trkpt lat="47.13402" lon="3.04188">
        <ele>180</ele>
        <time>2021-07-06T22:00:36Z</time>
      </trkpt>
      <trkpt lat="47.13436" lon="3.04181">
        <ele>179</ele>
        <time>2021-07-06T22:00:42Z</time>
      </trkpt>
      <trkpt lat="47.13453" lon="3.04182">
        <ele>179</ele>
        <time>2021-07-06T22:00:45Z</time>
      </trkpt>
      <trkpt lat="47.1349" lon="3.04207">
        <ele>178</ele>
        <time>2021-07-06T22:00:52Z</time>
      </trkpt>
      <trkpt lat="47.13496" lon="3.04214">
        <ele>178</ele>
        <time>2021-07-06T22:00:53Z</time>
      </trkpt>
      <trkpt lat="47.13501" lon="3.04223">
        <ele>178</ele>
        <time>2021-07-06T22:00:55Z</time>
      </trkpt>
      <trkpt lat="47.13506" lon="3.04228">
        <ele>179</ele>
        <time>2021-07-06T22:00:56Z</time>
      </trkpt>
      <trkpt lat="47.13511" lon="3.04231">
        <ele>179</ele>
        <time>2021-07-06T22:00:57Z</time>
      </trkpt>
      <trkpt lat="47.13517" lon="3.04232">
        <ele>179</ele>
        <time>2021-07-06T22:00:58Z</time>
      </trkpt>
      <trkpt lat="47.13526" lon="3.0423">
        <ele>179</ele>
        <time>2021-07-06T22:01:00Z</time>
      </trkpt>
      <trkpt lat="47.13534" lon="3.04222">
        <ele>179</ele>
        <time>2021-07-06T22:01:01Z</time>
      </trkpt>
      <trkpt lat="47.13539" lon="3.04212">
        <ele>179</ele>
        <time>2021-07-06T22:01:03Z</time>
      </trkpt>
      <trkpt lat="47.13541" lon="3.04198">
        <ele>178</ele>
        <time>2021-07-06T22:01:05Z</time>
      </trkpt>
      <trkpt lat="47.1354" lon="3.04186">
        <ele>178</ele>
        <time>2021-07-06T22:01:06Z</time>
      </trkpt>
      <trkpt lat="47.13533" lon="3.04171">
        <ele>178</ele>
        <time>2021-07-06T22:01:08Z</time>
      </trkpt>
      <trkpt lat="47.13526" lon="3.04164">
        <ele>177</ele>
        <time>2021-07-06T22:01:10Z</time>
      </trkpt>
      <trkpt lat="47.13518" lon="3.04152">
        <ele>177</ele>
        <time>2021-07-06T22:01:12Z</time>
      </trkpt>
      <trkpt lat="47.13516" lon="3.04136">
        <ele>176</ele>
        <time>2021-07-06T22:01:14Z</time>
      </trkpt>
      <trkpt lat="47.13518" lon="3.04109">
        <ele>176</ele>
        <time>2021-07-06T22:01:17Z</time>
      </trkpt>
      <trkpt lat="47.13523" lon="3.0408">
        <ele>175</ele>
        <time>2021-07-06T22:01:21Z</time>
      </trkpt>
      <trkpt lat="47.13538" lon="3.04052">
        <ele>175</ele>
        <time>2021-07-06T22:01:25Z</time>
      </trkpt>
      <trkpt lat="47.13546" lon="3.04042">
        <ele>175</ele>
        <time>2021-07-06T22:01:27Z</time>
      </trkpt>
      <trkpt lat="47.13567" lon="3.04018">
        <ele>175</ele>
        <time>2021-07-06T22:01:31Z</time>
      </trkpt>
      <trkpt lat="47.13573" lon="3.04011">
        <ele>175</ele>
        <time>2021-07-06T22:01:33Z</time>
      </trkpt>
      <trkpt lat="47.13588" lon="3.03997">
        <ele>175</ele>
        <time>2021-07-06T22:01:36Z</time>
      </trkpt>
      <trkpt lat="47.13599" lon="3.03986">
        <ele>174</ele>
        <time>2021-07-06T22:01:38Z</time>
      </trkpt>
      <trkpt lat="47.13645" lon="3.03937">
        <ele>174</ele>
        <time>2021-07-06T22:01:48Z</time>
      </trkpt>
      <trkpt lat="47.13696" lon="3.03886">
        <ele>174</ele>
        <time>2021-07-06T22:01:59Z</time>
      </trkpt>
      <trkpt lat="47.13776" lon="3.03802">
        <ele>173</ele>
        <time>2021-07-06T22:02:17Z</time>
      </trkpt>
      <trkpt lat="47.13816" lon="3.0376">
        <ele>175</ele>
        <time>2021-07-06T22:02:26Z</time>
      </trkpt>
      <trkpt lat="47.13876" lon="3.03698">
        <ele>177</ele>
        <time>2021-07-06T22:02:39Z</time>
      </trkpt>
      <trkpt lat="47.13885" lon="3.0369">
        <ele>177</ele>
        <time>2021-07-06T22:02:41Z</time>
      </trkpt>
      <trkpt lat="47.13896" lon="3.03677">
        <ele>177</ele>
        <time>2021-07-06T22:02:43Z</time>
      </trkpt>
      <trkpt lat="47.13971" lon="3.03603">
        <ele>175</ele>
        <time>2021-07-06T22:02:59Z</time>
      </trkpt>
      <trkpt lat="47.14015" lon="3.03557">
        <ele>172</ele>
        <time>2021-07-06T22:03:09Z</time>
      </trkpt>
      <trkpt lat="47.14178" lon="3.03388">
        <ele>163</ele>
        <time>2021-07-06T22:03:44Z</time>
      </trkpt>
      <trkpt lat="47.14188" lon="3.03377">
        <ele>163</ele>
        <time>2021-07-06T22:03:47Z</time>
      </trkpt>
      <trkpt lat="47.14271" lon="3.03292">
        <ele>161</ele>
        <time>2021-07-06T22:04:05Z</time>
      </trkpt>
      <trkpt lat="47.14377" lon="3.03184">
        <ele>163</ele>
        <time>2021-07-06T22:04:27Z</time>
      </trkpt>
      <trkpt lat="47.14453" lon="3.03106">
        <ele>163</ele>
        <time>2021-07-06T22:04:44Z</time>
      </trkpt>
      <trkpt lat="47.14497" lon="3.03062">
        <ele>165</ele>
        <time>2021-07-06T22:04:53Z</time>
      </trkpt>
      <trkpt lat="47.14527" lon="3.03033">
        <ele>165</ele>
        <time>2021-07-06T22:05:00Z</time>
      </trkpt>
      <trkpt lat="47.14554" lon="3.03013">
        <ele>164</ele>
        <time>2021-07-06T22:05:05Z</time>
      </trkpt>
      <trkpt lat="47.14587" lon="3.02988">
        <ele>163</ele>
        <time>2021-07-06T22:05:12Z</time>
      </trkpt>
      <trkpt lat="47.14596" lon="3.02983">
        <ele>163</ele>
        <time>2021-07-06T22:05:14Z</time>
      </trkpt>
      <trkpt lat="47.14622" lon="3.0297">
        <ele>162</ele>
        <time>2021-07-06T22:05:18Z</time>
      </trkpt>
      <trkpt lat="47.14679" lon="3.02949">
        <ele>162</ele>
        <time>2021-07-06T22:05:29Z</time>
      </trkpt>
      <trkpt lat="47.15052" lon="3.02849">
        <ele>164</ele>
        <time>2021-07-06T22:06:36Z</time>
      </trkpt>
      <trkpt lat="47.15146" lon="3.02824">
        <ele>162</ele>
        <time>2021-07-06T22:06:53Z</time>
      </trkpt>
      <trkpt lat="47.152" lon="3.02802">
        <ele>161</ele>
        <time>2021-07-06T22:07:03Z</time>
      </trkpt>
      <trkpt lat="47.15227" lon="3.02786">
        <ele>161</ele>
        <time>2021-07-06T22:07:08Z</time>
      </trkpt>
      <trkpt lat="47.15335" lon="3.02708">
        <ele>161</ele>
        <time>2021-07-06T22:07:30Z</time>
      </trkpt>
      <trkpt lat="47.15452" lon="3.02632">
        <ele>163</ele>
        <time>2021-07-06T22:07:53Z</time>
      </trkpt>
      <trkpt lat="47.15833" lon="3.02366">
        <ele>161</ele>
        <time>2021-07-06T22:09:08Z</time>
      </trkpt>
      <trkpt lat="47.1601" lon="3.02244">
        <ele>164</ele>
        <time>2021-07-06T22:09:42Z</time>
      </trkpt>
      <trkpt lat="47.16131" lon="3.02159">
        <ele>163</ele>
        <time>2021-07-06T22:10:06Z</time>
      </trkpt>
      <trkpt lat="47.16218" lon="3.02098">
        <ele>162</ele>
        <time>2021-07-06T22:10:23Z</time>
      </trkpt>
      <trkpt lat="47.1625" lon="3.02079">
        <ele>162</ele>
        <time>2021-07-06T22:10:30Z</time>
      </trkpt>
      <trkpt lat="47.16605" lon="3.01903">
        <ele>162</ele>
        <time>2021-07-06T22:11:36Z</time>
      </trkpt>
      <trkpt lat="47.16644" lon="3.01887">
        <ele>161</ele>
        <time>2021-07-06T22:11:43Z</time>
      </trkpt>
      <trkpt lat="47.16854" lon="3.0184">
        <ele>163</ele>
        <time>2021-07-06T22:12:21Z</time>
      </trkpt>
      <trkpt lat="47.17118" lon="3.01781">
        <ele>166</ele>
        <time>2021-07-06T22:13:09Z</time>
      </trkpt>
      <trkpt lat="47.17189" lon="3.01763">
        <ele>164</ele>
        <time>2021-07-06T22:13:22Z</time>
      </trkpt>
      <trkpt lat="47.17211" lon="3.01752">
        <ele>164</ele>
        <time>2021-07-06T22:13:26Z</time>
      </trkpt>
      <trkpt lat="47.1728" lon="3.0172">
        <ele>163</ele>
        <time>2021-07-06T22:13:39Z</time>
      </trkpt>
      <trkpt lat="47.17392" lon="3.01671">
        <ele>163</ele>
        <time>2021-07-06T22:13:59Z</time>
      </trkpt>
      <trkpt lat="47.17429" lon="3.01653">
        <ele>162</ele>
        <time>2021-07-06T22:14:06Z</time>
      </trkpt>
      <trkpt lat="47.17496" lon="3.01622">
        <ele>159</ele>
        <time>2021-07-06T22:14:19Z</time>
      </trkpt>
      <trkpt lat="47.17506" lon="3.01617">
        <ele>159</ele>
        <time>2021-07-06T22:14:21Z</time>
      </trkpt>
      <trkpt lat="47.17566" lon="3.01592">
        <ele>160</ele>
        <time>2021-07-06T22:14:32Z</time>
      </trkpt>
      <trkpt lat="47.1757" lon="3.0159">
        <ele>160</ele>
        <time>2021-07-06T22:14:33Z</time>
      </trkpt>
      <trkpt lat="47.17613" lon="3.0157">
        <ele>160</ele>
        <time>2021-07-06T22:14:41Z</time>
      </trkpt>
      <trkpt lat="47.17619" lon="3.01567">
        <ele>160</ele>
        <time>2021-07-06T22:14:42Z</time>
      </trkpt>
      <trkpt lat="47.17664" lon="3.01544">
        <ele>160</ele>
        <time>2021-07-06T22:14:50Z</time>
      </trkpt>
      <trkpt lat="47.1767" lon="3.01541">
        <ele>160</ele>
        <time>2021-07-06T22:14:51Z</time>
      </trkpt>
      <trkpt lat="47.17682" lon="3.01535">
        <ele>160</ele>
        <time>2021-07-06T22:14:54Z</time>
      </trkpt>
      <trkpt lat="47.17699" lon="3.01528">
        <ele>160</ele>
        <time>2021-07-06T22:14:57Z</time>
      </trkpt>
      <trkpt lat="47.17713" lon="3.0152">
        <ele>161</ele>
        <time>2021-07-06T22:14:59Z</time>
      </trkpt>
      <trkpt lat="47.17731" lon="3.01513">
        <ele>161</ele>
        <time>2021-07-06T22:15:03Z</time>
      </trkpt>
      <trkpt lat="47.17743" lon="3.01506">
        <ele>161</ele>
        <time>2021-07-06T22:15:05Z</time>
      </trkpt>
      <trkpt lat="47.17774" lon="3.01493">
        <ele>160</ele>
        <time>2021-07-06T22:15:11Z</time>
      </trkpt>
      <trkpt lat="47.17807" lon="3.0148">
        <ele>159</ele>
        <time>2021-07-06T22:15:17Z</time>
      </trkpt>
      <trkpt lat="47.17835" lon="3.01469">
        <ele>159</ele>
        <time>2021-07-06T22:15:22Z</time>
      </trkpt>
      <trkpt lat="47.17843" lon="3.01466">
        <ele>159</ele>
        <time>2021-07-06T22:15:23Z</time>
      </trkpt>
      <trkpt lat="47.17881" lon="3.01451">
        <ele>160</ele>
        <time>2021-07-06T22:15:30Z</time>
      </trkpt>
      <trkpt lat="47.17929" lon="3.01433">
        <ele>161</ele>
        <time>2021-07-06T22:15:39Z</time>
      </trkpt>
      <trkpt lat="47.17935" lon="3.0143">
        <ele>160</ele>
        <time>2021-07-06T22:15:40Z</time>
      </trkpt>
      <trkpt lat="47.18201" lon="3.01323">
        <ele>163</ele>
        <time>2021-07-06T22:16:29Z</time>
      </trkpt>
      <trkpt lat="47.18245" lon="3.01307">
        <ele>163</ele>
        <time>2021-07-06T22:16:37Z</time>
      </trkpt>
      <trkpt lat="47.184" lon="3.01231">
        <ele>160</ele>
        <time>2021-07-06T22:17:07Z</time>
      </trkpt>
      <trkpt lat="47.18427" lon="3.01217">
        <ele>160</ele>
        <time>2021-07-06T22:17:12Z</time>
      </trkpt>
      <trkpt lat="47.1848" lon="3.01193">
        <ele>161</ele>
        <time>2021-07-06T22:17:22Z</time>
      </trkpt>
      <trkpt lat="47.18627" lon="3.0112">
        <ele>160</ele>
        <time>2021-07-06T22:17:49Z</time>
      </trkpt>
      <trkpt lat="47.18638" lon="3.01115">
        <ele>160</ele>
        <time>2021-07-06T22:17:51Z</time>
      </trkpt>
      <trkpt lat="47.18668" lon="3.01102">
        <ele>161</ele>
        <time>2021-07-06T22:17:57Z</time>
      </trkpt>
      <trkpt lat="47.18671" lon="3.01101">
        <ele>161</ele>
        <time>2021-07-06T22:17:57Z</time>
      </trkpt>
      <trkpt lat="47.1877" lon="3.0106">
        <ele>162</ele>
        <time>2021-07-06T22:18:16Z</time>
      </trkpt>
      <trkpt lat="47.18809" lon="3.01054">
        <ele>163</ele>
        <time>2021-07-06T22:18:23Z</time>
      </trkpt>
      <trkpt lat="47.18849" lon="3.01067">
        <ele>165</ele>
        <time>2021-07-06T22:18:30Z</time>
      </trkpt>
      <trkpt lat="47.18889" lon="3.01097">
        <ele>166</ele>
        <time>2021-07-06T22:18:38Z</time>
      </trkpt>
      <trkpt lat="47.18941" lon="3.01135">
        <ele>166</ele>
        <time>2021-07-06T22:18:48Z</time>
      </trkpt>
      <trkpt lat="47.1912" lon="3.01266">
        <ele>166</ele>
        <time>2021-07-06T22:19:24Z</time>
      </trkpt>
      <trkpt lat="47.19193" lon="3.01325">
        <ele>166</ele>
        <time>2021-07-06T22:19:39Z</time>
      </trkpt>
      <trkpt lat="47.19241" lon="3.01361">
        <ele>167</ele>
        <time>2021-07-06T22:19:48Z</time>
      </trkpt>
      <trkpt lat="47.19279" lon="3.01381">
        <ele>169</ele>
        <time>2021-07-06T22:19:55Z</time>
      </trkpt>
      <trkpt lat="47.19339" lon="3.01408">
        <ele>171</ele>
        <time>2021-07-06T22:20:06Z</time>
      </trkpt>
      <trkpt lat="47.19369" lon="3.01412">
        <ele>172</ele>
        <time>2021-07-06T22:20:12Z</time>
      </trkpt>
      <trkpt lat="47.19401" lon="3.01413">
        <ele>173</ele>
        <time>2021-07-06T22:20:18Z</time>
      </trkpt>
      <trkpt lat="47.19425" lon="3.0141">
        <ele>174</ele>
        <time>2021-07-06T22:20:22Z</time>
      </trkpt>
      <trkpt lat="47.19451" lon="3.01404">
        <ele>175</ele>
        <time>2021-07-06T22:20:27Z</time>
      </trkpt>
      <trkpt lat="47.19482" lon="3.01382">
        <ele>175</ele>
        <time>2021-07-06T22:20:33Z</time>
      </trkpt>
      <trkpt lat="47.19702" lon="3.01304">
        <ele>175</ele>
        <time>2021-07-06T22:21:13Z</time>
      </trkpt>
      <trkpt lat="47.19983" lon="3.01199">
        <ele>171</ele>
        <time>2021-07-06T22:22:04Z</time>
      </trkpt>
      <trkpt lat="47.20094" lon="3.0117">
        <ele>170</ele>
        <time>2021-07-06T22:22:25Z</time>
      </trkpt>
      <trkpt lat="47.20201" lon="3.01138">
        <ele>166</ele>
        <time>2021-07-06T22:22:44Z</time>
      </trkpt>
      <trkpt lat="47.20217" lon="3.01137">
        <ele>165</ele>
        <time>2021-07-06T22:22:47Z</time>
      </trkpt>
      <trkpt lat="47.20234" lon="3.01136">
        <ele>165</ele>
        <time>2021-07-06T22:22:50Z</time>
      </trkpt>
      <trkpt lat="47.20249" lon="3.01139">
        <ele>165</ele>
        <time>2021-07-06T22:22:53Z</time>
      </trkpt>
      <trkpt lat="47.20261" lon="3.01144">
        <ele>165</ele>
        <time>2021-07-06T22:22:55Z</time>
      </trkpt>
      <trkpt lat="47.20281" lon="3.01154">
        <ele>166</ele>
        <time>2021-07-06T22:22:59Z</time>
      </trkpt>
      <trkpt lat="47.20301" lon="3.0117">
        <ele>166</ele>
        <time>2021-07-06T22:23:03Z</time>
      </trkpt>
      <trkpt lat="47.20316" lon="3.01188">
        <ele>166</ele>
        <time>2021-07-06T22:23:06Z</time>
      </trkpt>
      <trkpt lat="47.20328" lon="3.01206">
        <ele>166</ele>
        <time>2021-07-06T22:23:09Z</time>
      </trkpt>
      <trkpt lat="47.20345" lon="3.01241">
        <ele>166</ele>
        <time>2021-07-06T22:23:14Z</time>
      </trkpt>
      <trkpt lat="47.20367" lon="3.01306">
        <ele>168</ele>
        <time>2021-07-06T22:23:23Z</time>
      </trkpt>
      <trkpt lat="47.20375" lon="3.01331">
        <ele>168</ele>
        <time>2021-07-06T22:23:26Z</time>
      </trkpt>
      <trkpt lat="47.20379" lon="3.01329">
        <ele>169</ele>
        <time>2021-07-06T22:23:27Z</time>
      </trkpt>
      <trkpt lat="47.20398" lon="3.01322">
        <ele>169</ele>
        <time>2021-07-06T22:23:31Z</time>
      </trkpt>
      <trkpt lat="47.20408" lon="3.01312">
        <ele>169</ele>
        <time>2021-07-06T22:23:33Z</time>
      </trkpt>
      <trkpt lat="47.20462" lon="3.01201">
        <ele>167</ele>
        <time>2021-07-06T22:23:49Z</time>
      </trkpt>
      <trkpt lat="47.20484" lon="3.01163">
        <ele>167</ele>
        <time>2021-07-06T22:23:55Z</time>
      </trkpt>
      <trkpt lat="47.20507" lon="3.01132">
        <ele>166</ele>
        <time>2021-07-06T22:24:01Z</time>
      </trkpt>
      <trkpt lat="47.2055" lon="3.0109">
        <ele>166</ele>
        <time>2021-07-06T22:24:10Z</time>
      </trkpt>
      <trkpt lat="47.20608" lon="3.01037">
        <ele>165</ele>
        <time>2021-07-06T22:24:22Z</time>
      </trkpt>
      <trkpt lat="47.20669" lon="3.00995">
        <ele>165</ele>
        <time>2021-07-06T22:24:34Z</time>
      </trkpt>
      <trkpt lat="47.20738" lon="3.00953">
        <ele>160</ele>
        <time>2021-07-06T22:24:47Z</time>
      </trkpt>
      <trkpt lat="47.20802" lon="3.00919">
        <ele>161</ele>
        <time>2021-07-06T22:25:00Z</time>
      </trkpt>
      <trkpt lat="47.20861" lon="3.00893">
        <ele>161</ele>
        <time>2021-07-06T22:25:11Z</time>
      </trkpt>
      <trkpt lat="47.21032" lon="3.0083">
        <ele>158</ele>
        <time>2021-07-06T22:25:42Z</time>
      </trkpt>
      <trkpt lat="47.21069" lon="3.00816">
        <ele>158</ele>
        <time>2021-07-06T22:25:49Z</time>
      </trkpt>
      <trkpt lat="47.21482" lon="3.00672">
        <ele>156</ele>
        <time>2021-07-06T22:27:04Z</time>
      </trkpt>
      <trkpt lat="47.21666" lon="3.00607">
        <ele>156</ele>
        <time>2021-07-06T22:27:38Z</time>
      </trkpt>
      <trkpt lat="47.21702" lon="3.00594">
        <ele>155</ele>
        <time>2021-07-06T22:27:44Z</time>
      </trkpt>
      <trkpt lat="47.21734" lon="3.00586">
        <ele>154</ele>
        <time>2021-07-06T22:27:50Z</time>
      </trkpt>
      <trkpt lat="47.21758" lon="3.00586">
        <ele>154</ele>
        <time>2021-07-06T22:27:55Z</time>
      </trkpt>
      <trkpt lat="47.219" lon="3.00634">
        <ele>160</ele>
        <time>2021-07-06T22:28:20Z</time>
      </trkpt>
      <trkpt lat="47.21944" lon="3.0064">
        <ele>161</ele>
        <time>2021-07-06T22:28:28Z</time>
      </trkpt>
      <trkpt lat="47.21981" lon="3.00632">
        <ele>162</ele>
        <time>2021-07-06T22:28:35Z</time>
      </trkpt>
      <trkpt lat="47.22007" lon="3.00617">
        <ele>161</ele>
        <time>2021-07-06T22:28:40Z</time>
      </trkpt>
      <trkpt lat="47.22037" lon="3.00597">
        <ele>160</ele>
        <time>2021-07-06T22:28:46Z</time>
      </trkpt>
      <trkpt lat="47.22066" lon="3.00569">
        <ele>159</ele>
        <time>2021-07-06T22:28:52Z</time>
      </trkpt>
      <trkpt lat="47.22142" lon="3.00463">
        <ele>157</ele>
        <time>2021-07-06T22:29:11Z</time>
      </trkpt>
      <trkpt lat="47.22158" lon="3.00445">
        <ele>157</ele>
        <time>2021-07-06T22:29:14Z</time>
      </trkpt>
      <trkpt lat="47.22176" lon="3.0043">
        <ele>156</ele>
        <time>2021-07-06T22:29:18Z</time>
      </trkpt>
      <trkpt lat="47.22204" lon="3.00411">
        <ele>156</ele>
        <time>2021-07-06T22:29:23Z</time>
      </trkpt>
      <trkpt lat="47.22292" lon="3.00375">
        <ele>156</ele>
        <time>2021-07-06T22:29:40Z</time>
      </trkpt>
      <trkpt lat="47.22344" lon="3.00358">
        <ele>155</ele>
        <time>2021-07-06T22:29:49Z</time>
      </trkpt>
      <trkpt lat="47.2237" lon="3.00352">
        <ele>155</ele>
        <time>2021-07-06T22:29:54Z</time>
      </trkpt>
      <trkpt lat="47.22409" lon="3.0035">
        <ele>156</ele>
        <time>2021-07-06T22:30:01Z</time>
      </trkpt>
      <trkpt lat="47.22487" lon="3.0036">
        <ele>159</ele>
        <time>2021-07-06T22:30:15Z</time>
      </trkpt>
      <trkpt lat="47.22531" lon="3.00352">
        <ele>159</ele>
        <time>2021-07-06T22:30:22Z</time>
      </trkpt>
      <trkpt lat="47.22577" lon="3.00336">
        <ele>160</ele>
        <time>2021-07-06T22:30:31Z</time>
      </trkpt>
      <trkpt lat="47.22615" lon="3.0032">
        <ele>160</ele>
        <time>2021-07-06T22:30:38Z</time>
      </trkpt>
      <trkpt lat="47.22711" lon="3.00282">
        <ele>161</ele>
        <time>2021-07-06T22:30:56Z</time>
      </trkpt>
      <trkpt lat="47.22745" lon="3.0027">
        <ele>162</ele>
        <time>2021-07-06T22:31:02Z</time>
      </trkpt>
      <trkpt lat="47.22785" lon="3.0026">
        <ele>163</ele>
        <time>2021-07-06T22:31:09Z</time>
      </trkpt>
      <trkpt lat="47.22855" lon="3.00253">
        <ele>165</ele>
        <time>2021-07-06T22:31:22Z</time>
      </trkpt>
      <trkpt lat="47.22939" lon="3.00257">
        <ele>168</ele>
        <time>2021-07-06T22:31:37Z</time>
      </trkpt>
      <trkpt lat="47.22983" lon="3.00266">
        <ele>169</ele>
        <time>2021-07-06T22:31:44Z</time>
      </trkpt>
      <trkpt lat="47.23048" lon="3.00292">
        <ele>171</ele>
        <time>2021-07-06T22:31:56Z</time>
      </trkpt>
      <trkpt lat="47.23098" lon="3.00317">
        <ele>172</ele>
        <time>2021-07-06T22:32:06Z</time>
      </trkpt>
      <trkpt lat="47.23139" lon="3.0033">
        <ele>171</ele>
        <time>2021-07-06T22:32:13Z</time>
      </trkpt>
      <trkpt lat="47.2316" lon="3.00331">
        <ele>170</ele>
        <time>2021-07-06T22:32:17Z</time>
      </trkpt>
      <trkpt lat="47.23181" lon="3.0033">
        <ele>170</ele>
        <time>2021-07-06T22:32:21Z</time>
      </trkpt>
      <trkpt lat="47.23187" lon="3.00332">
        <ele>170</ele>
        <time>2021-07-06T22:32:22Z</time>
      </trkpt>
      <trkpt lat="47.23194" lon="3.00331">
        <ele>170</ele>
        <time>2021-07-06T22:32:23Z</time>
      </trkpt>
      <trkpt lat="47.232" lon="3.00327">
        <ele>170</ele>
        <time>2021-07-06T22:32:24Z</time>
      </trkpt>
      <trkpt lat="47.23204" lon="3.00322">
        <ele>170</ele>
        <time>2021-07-06T22:32:25Z</time>
      </trkpt>
      <trkpt lat="47.23208" lon="3.00315">
        <ele>169</ele>
        <time>2021-07-06T22:32:26Z</time>
      </trkpt>
      <trkpt lat="47.23211" lon="3.003">
        <ele>169</ele>
        <time>2021-07-06T22:32:28Z</time>
      </trkpt>
      <trkpt lat="47.23209" lon="3.00282">
        <ele>168</ele>
        <time>2021-07-06T22:32:30Z</time>
      </trkpt>
      <trkpt lat="47.23205" lon="3.00274">
        <ele>168</ele>
        <time>2021-07-06T22:32:32Z</time>
      </trkpt>
      <trkpt lat="47.23203" lon="3.0026">
        <ele>168</ele>
        <time>2021-07-06T22:32:33Z</time>
      </trkpt>
      <trkpt lat="47.23203" lon="3.00243">
        <ele>168</ele>
        <time>2021-07-06T22:32:35Z</time>
      </trkpt>
      <trkpt lat="47.23213" lon="3.00177">
        <ele>167</ele>
        <time>2021-07-06T22:32:44Z</time>
      </trkpt>
      <trkpt lat="47.23225" lon="3.00111">
        <ele>167</ele>
        <time>2021-07-06T22:32:52Z</time>
      </trkpt>
      <trkpt lat="47.2324" lon="3.00009">
        <ele>167</ele>
        <time>2021-07-06T22:33:04Z</time>
      </trkpt>
      <trkpt lat="47.2324" lon="3.00001">
        <ele>167</ele>
        <time>2021-07-06T22:33:05Z</time>
      </trkpt>
      <trkpt lat="47.23386" lon="2.99948">
        <ele>169</ele>
        <time>2021-07-06T22:33:32Z</time>
      </trkpt>
      <trkpt lat="47.23573" lon="2.99878">
        <ele>168</ele>
        <time>2021-07-06T22:34:06Z</time>
      </trkpt>
      <trkpt lat="47.23601" lon="2.99864">
        <ele>168</ele>
        <time>2021-07-06T22:34:12Z</time>
      </trkpt>
      <trkpt lat="47.23655" lon="2.99827">
        <ele>167</ele>
        <time>2021-07-06T22:34:22Z</time>
      </trkpt>
      <trkpt lat="47.24115" lon="2.99441">
        <ele>163</ele>
        <time>2021-07-06T22:35:57Z</time>
      </trkpt>
      <trkpt lat="47.2415" lon="2.99412">
        <ele>162</ele>
        <time>2021-07-06T22:36:04Z</time>
      </trkpt>
      <trkpt lat="47.24172" lon="2.994">
        <ele>162</ele>
        <time>2021-07-06T22:36:08Z</time>
      </trkpt>
      <trkpt lat="47.24187" lon="2.99394">
        <ele>161</ele>
        <time>2021-07-06T22:36:11Z</time>
      </trkpt>
      <trkpt lat="47.24247" lon="2.99385">
        <ele>159</ele>
        <time>2021-07-06T22:36:21Z</time>
      </trkpt>
      <trkpt lat="47.2444" lon="2.99372">
        <ele>157</ele>
        <time>2021-07-06T22:36:56Z</time>
      </trkpt>
      <trkpt lat="47.2445" lon="2.99371">
        <ele>157</ele>
        <time>2021-07-06T22:36:57Z</time>
      </trkpt>
      <trkpt lat="47.24482" lon="2.99365">
        <ele>159</ele>
        <time>2021-07-06T22:37:03Z</time>
      </trkpt>
      <trkpt lat="47.24526" lon="2.99348">
        <ele>161</ele>
        <time>2021-07-06T22:37:11Z</time>
      </trkpt>
      <trkpt lat="47.24543" lon="2.99339">
        <ele>161</ele>
        <time>2021-07-06T22:37:15Z</time>
      </trkpt>
      <trkpt lat="47.24673" lon="2.99266">
        <ele>167</ele>
        <time>2021-07-06T22:37:39Z</time>
      </trkpt>
      <trkpt lat="47.24835" lon="2.99182">
        <ele>167</ele>
        <time>2021-07-06T22:38:10Z</time>
      </trkpt>
      <trkpt lat="47.25146" lon="2.99014">
        <ele>159</ele>
        <time>2021-07-06T22:39:09Z</time>
      </trkpt>
      <trkpt lat="47.25443" lon="2.98852">
        <ele>159</ele>
        <time>2021-07-06T22:40:05Z</time>
      </trkpt>
      <trkpt lat="47.25489" lon="2.98815">
        <ele>159</ele>
        <time>2021-07-06T22:40:14Z</time>
      </trkpt>
      <trkpt lat="47.25507" lon="2.98803">
        <ele>159</ele>
        <time>2021-07-06T22:40:18Z</time>
      </trkpt>
      <trkpt lat="47.25576" lon="2.9876">
        <ele>158</ele>
        <time>2021-07-06T22:40:31Z</time>
      </trkpt>
      <trkpt lat="47.25738" lon="2.98673">
        <ele>154</ele>
        <time>2021-07-06T22:41:02Z</time>
      </trkpt>
      <trkpt lat="47.25782" lon="2.9865">
        <ele>154</ele>
        <time>2021-07-06T22:41:10Z</time>
      </trkpt>
      <trkpt lat="47.25859" lon="2.9861">
        <ele>153</ele>
        <time>2021-07-06T22:41:25Z</time>
      </trkpt>
      <trkpt lat="47.2589" lon="2.98591">
        <ele>153</ele>
        <time>2021-07-06T22:41:31Z</time>
      </trkpt>
      <trkpt lat="47.25945" lon="2.98546">
        <ele>152</ele>
        <time>2021-07-06T22:41:42Z</time>
      </trkpt>
      <trkpt lat="47.25976" lon="2.9852">
        <ele>153</ele>
        <time>2021-07-06T22:41:48Z</time>
      </trkpt>
      <trkpt lat="47.26016" lon="2.98491">
        <ele>153</ele>
        <time>2021-07-06T22:41:56Z</time>
      </trkpt>
      <trkpt lat="47.26047" lon="2.98473">
        <ele>153</ele>
        <time>2021-07-06T22:42:02Z</time>
      </trkpt>
      <trkpt lat="47.26176" lon="2.98415">
        <ele>154</ele>
        <time>2021-07-06T22:42:26Z</time>
      </trkpt>
      <trkpt lat="47.26235" lon="2.98378">
        <ele>153</ele>
        <time>2021-07-06T22:42:38Z</time>
      </trkpt>
      <trkpt lat="47.2629" lon="2.98339">
        <ele>152</ele>
        <time>2021-07-06T22:42:48Z</time>
      </trkpt>
      <trkpt lat="47.26341" lon="2.98296">
        <ele>151</ele>
        <time>2021-07-06T22:42:59Z</time>
      </trkpt>
      <trkpt lat="47.26429" lon="2.98197">
        <ele>151</ele>
        <time>2021-07-06T22:43:19Z</time>
      </trkpt>
      <trkpt lat="47.26524" lon="2.98106">
        <ele>151</ele>
        <time>2021-07-06T22:43:39Z</time>
      </trkpt>
      <trkpt lat="47.26635" lon="2.98016">
        <ele>151</ele>
        <time>2021-07-06T22:44:01Z</time>
      </trkpt>
      <trkpt lat="47.26699" lon="2.97955">
        <ele>152</ele>
        <time>2021-07-06T22:44:15Z</time>
      </trkpt>
      <trkpt lat="47.26729" lon="2.9793">
        <ele>154</ele>
        <time>2021-07-06T22:44:21Z</time>
      </trkpt>
      <trkpt lat="47.26768" lon="2.97903">
        <ele>154</ele>
        <time>2021-07-06T22:44:29Z</time>
      </trkpt>
      <trkpt lat="47.26812" lon="2.97876">
        <ele>152</ele>
        <time>2021-07-06T22:44:37Z</time>
      </trkpt>
      <trkpt lat="47.26912" lon="2.97838">
        <ele>152</ele>
        <time>2021-07-06T22:44:56Z</time>
      </trkpt>
      <trkpt lat="47.26953" lon="2.97817">
        <ele>151</ele>
        <time>2021-07-06T22:45:03Z</time>
      </trkpt>
      <trkpt lat="47.27011" lon="2.97784">
        <ele>152</ele>
        <time>2021-07-06T22:45:14Z</time>
      </trkpt>
      <trkpt lat="47.27058" lon="2.97746">
        <ele>152</ele>
        <time>2021-07-06T22:45:24Z</time>
      </trkpt>
      <trkpt lat="47.27089" lon="2.97713">
        <ele>152</ele>
        <time>2021-07-06T22:45:31Z</time>
      </trkpt>
      <trkpt lat="47.27131" lon="2.97665">
        <ele>152</ele>
        <time>2021-07-06T22:45:40Z</time>
      </trkpt>
      <trkpt lat="47.27154" lon="2.97632">
        <ele>151</ele>
        <time>2021-07-06T22:45:46Z</time>
      </trkpt>
      <trkpt lat="47.27169" lon="2.97607">
        <ele>151</ele>
        <time>2021-07-06T22:45:50Z</time>
      </trkpt>
      <trkpt lat="47.27186" lon="2.97578">
        <ele>151</ele>
        <time>2021-07-06T22:45:54Z</time>
      </trkpt>
      <trkpt lat="47.27202" lon="2.97551">
        <ele>152</ele>
        <time>2021-07-06T22:45:59Z</time>
      </trkpt>
      <trkpt lat="47.2749" lon="2.97031">
        <ele>162</ele>
        <time>2021-07-06T22:47:20Z</time>
      </trkpt>
      <trkpt lat="47.27604" lon="2.9683">
        <ele>168</ele>
        <time>2021-07-06T22:47:51Z</time>
      </trkpt>
      <trkpt lat="47.279" lon="2.96292">
        <ele>161</ele>
        <time>2021-07-06T22:49:15Z</time>
      </trkpt>
      <trkpt lat="47.28036" lon="2.96051">
        <ele>163</ele>
        <time>2021-07-06T22:49:53Z</time>
      </trkpt>
      <trkpt lat="47.28096" lon="2.95955">
        <ele>161</ele>
        <time>2021-07-06T22:50:09Z</time>
      </trkpt>
      <trkpt lat="47.28125" lon="2.95919">
        <ele>162</ele>
        <time>2021-07-06T22:50:15Z</time>
      </trkpt>
      <trkpt lat="47.28017" lon="2.95755">
        <ele>151</ele>
        <time>2021-07-06T22:50:43Z</time>
      </trkpt>
      <trkpt lat="47.28066" lon="2.95677">
        <ele>150</ele>
        <time>2021-07-06T22:50:56Z</time>
      </trkpt>
      <trkpt lat="47.28136" lon="2.95571">
        <ele>153</ele>
        <time>2021-07-06T22:51:14Z</time>
      </trkpt>
      <trkpt lat="47.28189" lon="2.95495">
        <ele>153</ele>
        <time>2021-07-06T22:51:27Z</time>
      </trkpt>
      <trkpt lat="47.28193" lon="2.95489">
        <ele>153</ele>
        <time>2021-07-06T22:51:28Z</time>
      </trkpt>
      <trkpt lat="47.28294" lon="2.95331">
        <ele>153</ele>
        <time>2021-07-06T22:51:54Z</time>
      </trkpt>
      <trkpt lat="47.28349" lon="2.95247">
        <ele>153</ele>
        <time>2021-07-06T22:52:08Z</time>
      </trkpt>
      <trkpt lat="47.2837" lon="2.95216">
        <ele>153</ele>
        <time>2021-07-06T22:52:13Z</time>
      </trkpt>
      <trkpt lat="47.28416" lon="2.95154">
        <ele>154</ele>
        <time>2021-07-06T22:52:25Z</time>
      </trkpt>
      <trkpt lat="47.28449" lon="2.95114">
        <ele>155</ele>
        <time>2021-07-06T22:52:32Z</time>
      </trkpt>
      <trkpt lat="47.28485" lon="2.95062">
        <ele>156</ele>
        <time>2021-07-06T22:52:41Z</time>
      </trkpt>
      <trkpt lat="47.28614" lon="2.94921">
        <ele>153</ele>
        <time>2021-07-06T22:53:10Z</time>
      </trkpt>
      <trkpt lat="47.28652" lon="2.94879">
        <ele>152</ele>
        <time>2021-07-06T22:53:18Z</time>
      </trkpt>
      <trkpt lat="47.28716" lon="2.94819">
        <ele>153</ele>
        <time>2021-07-06T22:53:32Z</time>
      </trkpt>
      <trkpt lat="47.28805" lon="2.94735">
        <ele>155</ele>
        <time>2021-07-06T22:53:50Z</time>
      </trkpt>
      <trkpt lat="47.2907" lon="2.9443">
        <ele>156</ele>
        <time>2021-07-06T22:54:50Z</time>
      </trkpt>
      <trkpt lat="47.29181" lon="2.94339">
        <ele>156</ele>
        <time>2021-07-06T22:55:13Z</time>
      </trkpt>
      <trkpt lat="47.29223" lon="2.94287">
        <ele>156</ele>
        <time>2021-07-06T22:55:23Z</time>
      </trkpt>
      <trkpt lat="47.29423" lon="2.93974">
        <ele>159</ele>
        <time>2021-07-06T22:56:15Z</time>
      </trkpt>
      <trkpt lat="47.29549" lon="2.93752">
        <ele>160</ele>
        <time>2021-07-06T22:56:49Z</time>
      </trkpt>
      <trkpt lat="47.29579" lon="2.93686">
        <ele>156</ele>
        <time>2021-07-06T22:56:59Z</time>
      </trkpt>
      <trkpt lat="47.29627" lon="2.93611">
        <ele>158</ele>
        <time>2021-07-06T22:57:11Z</time>
      </trkpt>
      <trkpt lat="47.29685" lon="2.93548">
        <ele>160</ele>
        <time>2021-07-06T22:57:24Z</time>
      </trkpt>
      <trkpt lat="47.29844" lon="2.93363">
        <ele>159</ele>
        <time>2021-07-06T22:58:00Z</time>
      </trkpt>
      <trkpt lat="47.30084" lon="2.9302">
        <ele>158</ele>
        <time>2021-07-06T22:59:00Z</time>
      </trkpt>
      <trkpt lat="47.30257" lon="2.92745">
        <ele>151</ele>
        <time>2021-07-06T22:59:45Z</time>
      </trkpt>
      <trkpt lat="47.30333" lon="2.92623">
        <ele>151</ele>
        <time>2021-07-06T23:00:05Z</time>
      </trkpt>
      <trkpt lat="47.30386" lon="2.92537">
        <ele>153</ele>
        <time>2021-07-06T23:00:19Z</time>
      </trkpt>
      <trkpt lat="47.30444" lon="2.92429">
        <ele>160</ele>
        <time>2021-07-06T23:00:36Z</time>
      </trkpt>
      <trkpt lat="47.30561" lon="2.92108">
        <ele>156</ele>
        <time>2021-07-06T23:01:20Z</time>
      </trkpt>
      <trkpt lat="47.306" lon="2.92016">
        <ele>154</ele>
        <time>2021-07-06T23:01:33Z</time>
      </trkpt>
      <trkpt lat="47.30673" lon="2.91876">
        <ele>155</ele>
        <time>2021-07-06T23:01:54Z</time>
      </trkpt>
      <trkpt lat="47.30735" lon="2.91776">
        <ele>153</ele>
        <time>2021-07-06T23:02:10Z</time>
      </trkpt>
      <trkpt lat="47.30784" lon="2.9171">
        <ele>151</ele>
        <time>2021-07-06T23:02:22Z</time>
      </trkpt>
      <trkpt lat="47.30794" lon="2.91702">
        <ele>151</ele>
        <time>2021-07-06T23:02:24Z</time>
      </trkpt>
      <trkpt lat="47.308" lon="2.91699">
        <ele>151</ele>
        <time>2021-07-06T23:02:25Z</time>
      </trkpt>
      <trkpt lat="47.30808" lon="2.91697">
        <ele>152</ele>
        <time>2021-07-06T23:02:27Z</time>
      </trkpt>
      <trkpt lat="47.3082" lon="2.917">
        <ele>153</ele>
        <time>2021-07-06T23:02:29Z</time>
      </trkpt>
      <trkpt lat="47.3083" lon="2.91701">
        <ele>154</ele>
        <time>2021-07-06T23:02:31Z</time>
      </trkpt>
      <trkpt lat="47.30839" lon="2.91698">
        <ele>154</ele>
        <time>2021-07-06T23:02:32Z</time>
      </trkpt>
      <trkpt lat="47.30846" lon="2.91694">
        <ele>154</ele>
        <time>2021-07-06T23:02:34Z</time>
      </trkpt>
      <trkpt lat="47.3088" lon="2.91658">
        <ele>153</ele>
        <time>2021-07-06T23:02:41Z</time>
      </trkpt>
      <trkpt lat="47.30908" lon="2.91629">
        <ele>152</ele>
        <time>2021-07-06T23:02:47Z</time>
      </trkpt>
      <trkpt lat="47.30948" lon="2.91607">
        <ele>153</ele>
        <time>2021-07-06T23:02:55Z</time>
      </trkpt>
      <trkpt lat="47.30976" lon="2.91591">
        <ele>154</ele>
        <time>2021-07-06T23:03:00Z</time>
      </trkpt>
      <trkpt lat="47.31056" lon="2.91534">
        <ele>157</ele>
        <time>2021-07-06T23:03:16Z</time>
      </trkpt>
      <trkpt lat="47.31107" lon="2.91492">
        <ele>157</ele>
        <time>2021-07-06T23:03:26Z</time>
      </trkpt>
      <trkpt lat="47.31171" lon="2.91449">
        <ele>156</ele>
        <time>2021-07-06T23:03:39Z</time>
      </trkpt>
      <trkpt lat="47.31199" lon="2.91432">
        <ele>155</ele>
        <time>2021-07-06T23:03:44Z</time>
      </trkpt>
      <trkpt lat="47.31322" lon="2.91357">
        <ele>153</ele>
        <time>2021-07-06T23:04:08Z</time>
      </trkpt>
      <trkpt lat="47.3137" lon="2.91314">
        <ele>152</ele>
        <time>2021-07-06T23:04:18Z</time>
      </trkpt>
      <trkpt lat="47.31427" lon="2.91242">
        <ele>151</ele>
        <time>2021-07-06T23:04:31Z</time>
      </trkpt>
      <trkpt lat="47.31444" lon="2.9122">
        <ele>150</ele>
        <time>2021-07-06T23:04:35Z</time>
      </trkpt>
      <trkpt lat="47.31502" lon="2.9118">
        <ele>149</ele>
        <time>2021-07-06T23:04:47Z</time>
      </trkpt>
      <trkpt lat="47.31629" lon="2.9109">
        <ele>150</ele>
        <time>2021-07-06T23:05:12Z</time>
      </trkpt>
      <trkpt lat="47.3166" lon="2.91059">
        <ele>151</ele>
        <time>2021-07-06T23:05:18Z</time>
      </trkpt>
      <trkpt lat="47.31685" lon="2.91033">
        <ele>151</ele>
        <time>2021-07-06T23:05:24Z</time>
      </trkpt>
      <trkpt lat="47.31778" lon="2.90917">
        <ele>150</ele>
        <time>2021-07-06T23:05:46Z</time>
      </trkpt>
      <trkpt lat="47.31792" lon="2.90901">
        <ele>151</ele>
        <time>2021-07-06T23:05:49Z</time>
      </trkpt>
      <trkpt lat="47.31805" lon="2.90889">
        <ele>151</ele>
        <time>2021-07-06T23:05:51Z</time>
      </trkpt>
      <trkpt lat="47.31866" lon="2.90854">
        <ele>154</ele>
        <time>2021-07-06T23:06:03Z</time>
      </trkpt>
      <trkpt lat="47.31899" lon="2.9084">
        <ele>156</ele>
        <time>2021-07-06T23:06:09Z</time>
      </trkpt>
      <trkpt lat="47.31915" lon="2.90836">
        <ele>157</ele>
        <time>2021-07-06T23:06:12Z</time>
      </trkpt>
      <trkpt lat="47.31932" lon="2.90826">
        <ele>158</ele>
        <time>2021-07-06T23:06:15Z</time>
      </trkpt>
      <trkpt lat="47.31945" lon="2.90819">
        <ele>159</ele>
        <time>2021-07-06T23:06:18Z</time>
      </trkpt>
      <trkpt lat="47.31952" lon="2.90807">
        <ele>159</ele>
        <time>2021-07-06T23:06:20Z</time>
      </trkpt>
      <trkpt lat="47.31958" lon="2.90795">
        <ele>159</ele>
        <time>2021-07-06T23:06:22Z</time>
      </trkpt>
      <trkpt lat="47.31967" lon="2.90748">
        <ele>160</ele>
        <time>2021-07-06T23:06:27Z</time>
      </trkpt>
      <trkpt lat="47.31976" lon="2.90706">
        <ele>160</ele>
        <time>2021-07-06T23:06:33Z</time>
      </trkpt>
      <trkpt lat="47.31996" lon="2.90669">
        <ele>162</ele>
        <time>2021-07-06T23:06:38Z</time>
      </trkpt>
      <trkpt lat="47.32005" lon="2.90649">
        <ele>162</ele>
        <time>2021-07-06T23:06:41Z</time>
      </trkpt>
      <trkpt lat="47.32014" lon="2.90653">
        <ele>163</ele>
        <time>2021-07-06T23:06:43Z</time>
      </trkpt>
      <trkpt lat="47.32042" lon="2.90655">
        <ele>164</ele>
        <time>2021-07-06T23:06:48Z</time>
      </trkpt>
      <trkpt lat="47.32142" lon="2.90606">
        <ele>169</ele>
        <time>2021-07-06T23:07:07Z</time>
      </trkpt>
      <trkpt lat="47.32241" lon="2.90552">
        <ele>175</ele>
        <time>2021-07-06T23:07:26Z</time>
      </trkpt>
      <trkpt lat="47.32247" lon="2.90548">
        <ele>175</ele>
        <time>2021-07-06T23:07:27Z</time>
      </trkpt>
      <trkpt lat="47.32359" lon="2.90467">
        <ele>173</ele>
        <time>2021-07-06T23:07:49Z</time>
      </trkpt>
      <trkpt lat="47.32445" lon="2.90405">
        <ele>170</ele>
        <time>2021-07-06T23:08:06Z</time>
      </trkpt>
      <trkpt lat="47.3248" lon="2.90379">
        <ele>169</ele>
        <time>2021-07-06T23:08:13Z</time>
      </trkpt>
      <trkpt lat="47.3256" lon="2.90319">
        <ele>166</ele>
        <time>2021-07-06T23:08:29Z</time>
      </trkpt>
      <trkpt lat="47.3265" lon="2.90255">
        <ele>167</ele>
        <time>2021-07-06T23:08:47Z</time>
      </trkpt>
      <trkpt lat="47.32657" lon="2.90247">
        <ele>167</ele>
        <time>2021-07-06T23:08:48Z</time>
      </trkpt>
      <trkpt lat="47.32666" lon="2.90233">
        <ele>167</ele>
        <time>2021-07-06T23:08:51Z</time>
      </trkpt>
      <trkpt lat="47.32671" lon="2.90219">
        <ele>166</ele>
        <time>2021-07-06T23:08:52Z</time>
      </trkpt>
      <trkpt lat="47.32694" lon="2.90069">
        <ele>167</ele>
        <time>2021-07-06T23:09:11Z</time>
      </trkpt>
      <trkpt lat="47.32701" lon="2.8996">
        <ele>174</ele>
        <time>2021-07-06T23:09:24Z</time>
      </trkpt>
      <trkpt lat="47.32711" lon="2.8982">
        <ele>178</ele>
        <time>2021-07-06T23:09:41Z</time>
      </trkpt>
      <trkpt lat="47.32754" lon="2.89721">
        <ele>180</ele>
        <time>2021-07-06T23:09:55Z</time>
      </trkpt>
      <trkpt lat="47.32776" lon="2.89687">
        <ele>179</ele>
        <time>2021-07-06T23:10:01Z</time>
      </trkpt>
      <trkpt lat="47.32803" lon="2.89673">
        <ele>179</ele>
        <time>2021-07-06T23:10:06Z</time>
      </trkpt>
      <trkpt lat="47.32833" lon="2.89629">
        <ele>178</ele>
        <time>2021-07-06T23:10:14Z</time>
      </trkpt>
      <trkpt lat="47.32852" lon="2.89568">
        <ele>175</ele>
        <time>2021-07-06T23:10:22Z</time>
      </trkpt>
      <trkpt lat="47.32865" lon="2.89477">
        <ele>173</ele>
        <time>2021-07-06T23:10:33Z</time>
      </trkpt>
      <trkpt lat="47.32877" lon="2.89355">
        <ele>175</ele>
        <time>2021-07-06T23:10:48Z</time>
      </trkpt>
      <trkpt lat="47.32899" lon="2.89261">
        <ele>174</ele>
        <time>2021-07-06T23:11:00Z</time>
      </trkpt>
      <trkpt lat="47.32913" lon="2.89199">
        <ele>173</ele>
        <time>2021-07-06T23:11:08Z</time>
      </trkpt>
      <trkpt lat="47.33008" lon="2.88797">
        <ele>179</ele>
        <time>2021-07-06T23:11:59Z</time>
      </trkpt>
      <trkpt lat="47.33031" lon="2.88733">
        <ele>181</ele>
        <time>2021-07-06T23:12:08Z</time>
      </trkpt>
      <trkpt lat="47.33042" lon="2.88727">
        <ele>181</ele>
        <time>2021-07-06T23:12:10Z</time>
      </trkpt>
      <trkpt lat="47.33082" lon="2.88723">
        <ele>179</ele>
        <time>2021-07-06T23:12:17Z</time>
      </trkpt>
      <trkpt lat="47.3318" lon="2.88689">
        <ele>186</ele>
        <time>2021-07-06T23:12:35Z</time>
      </trkpt>
      <trkpt lat="47.33252" lon="2.88655">
        <ele>188</ele>
        <time>2021-07-06T23:12:48Z</time>
      </trkpt>
      <trkpt lat="47.33278" lon="2.88619">
        <ele>187</ele>
        <time>2021-07-06T23:12:55Z</time>
      </trkpt>
      <trkpt lat="47.33316" lon="2.8854">
        <ele>184</ele>
        <time>2021-07-06T23:13:06Z</time>
      </trkpt>
      <trkpt lat="47.33362" lon="2.8847">
        <ele>182</ele>
        <time>2021-07-06T23:13:18Z</time>
      </trkpt>
      <trkpt lat="47.33443" lon="2.88415">
        <ele>181</ele>
        <time>2021-07-06T23:13:34Z</time>
      </trkpt>
      <trkpt lat="47.33485" lon="2.88408">
        <ele>180</ele>
        <time>2021-07-06T23:13:42Z</time>
      </trkpt>
      <trkpt lat="47.33578" lon="2.88418">
        <ele>182</ele>
        <time>2021-07-06T23:13:58Z</time>
      </trkpt>
      <trkpt lat="47.33632" lon="2.88414">
        <ele>181</ele>
        <time>2021-07-06T23:14:08Z</time>
      </trkpt>
      <trkpt lat="47.3367" lon="2.88398">
        <ele>179</ele>
        <time>2021-07-06T23:14:15Z</time>
      </trkpt>
      <trkpt lat="47.33709" lon="2.88369">
        <ele>178</ele>
        <time>2021-07-06T23:14:23Z</time>
      </trkpt>
      <trkpt lat="47.33744" lon="2.88332">
        <ele>177</ele>
        <time>2021-07-06T23:14:30Z</time>
      </trkpt>
      <trkpt lat="47.33871" lon="2.8823">
        <ele>170</ele>
        <time>2021-07-06T23:14:56Z</time>
      </trkpt>
      <trkpt lat="47.33914" lon="2.88204">
        <ele>169</ele>
        <time>2021-07-06T23:15:04Z</time>
      </trkpt>
      <trkpt lat="47.33954" lon="2.88196">
        <ele>167</ele>
        <time>2021-07-06T23:15:11Z</time>
      </trkpt>
      <trkpt lat="47.33989" lon="2.88196">
        <ele>167</ele>
        <time>2021-07-06T23:15:18Z</time>
      </trkpt>
      <trkpt lat="47.33995" lon="2.88193">
        <ele>166</ele>
        <time>2021-07-06T23:15:19Z</time>
      </trkpt>
      <trkpt lat="47.34001" lon="2.8819">
        <ele>166</ele>
        <time>2021-07-06T23:15:20Z</time>
      </trkpt>
      <trkpt lat="47.3401" lon="2.88182">
        <ele>165</ele>
        <time>2021-07-06T23:15:22Z</time>
      </trkpt>
      <trkpt lat="47.34031" lon="2.88175">
        <ele>164</ele>
        <time>2021-07-06T23:15:26Z</time>
      </trkpt>
      <trkpt lat="47.34059" lon="2.88172">
        <ele>162</ele>
        <time>2021-07-06T23:15:31Z</time>
      </trkpt>
      <trkpt lat="47.34073" lon="2.88173">
        <ele>162</ele>
        <time>2021-07-06T23:15:33Z</time>
      </trkpt>
      <trkpt lat="47.34092" lon="2.88179">
        <ele>162</ele>
        <time>2021-07-06T23:15:37Z</time>
      </trkpt>
      <trkpt lat="47.34122" lon="2.88197">
        <ele>162</ele>
        <time>2021-07-06T23:15:42Z</time>
      </trkpt>
      <trkpt lat="47.34241" lon="2.88259">
        <ele>165</ele>
        <time>2021-07-06T23:16:05Z</time>
      </trkpt>
      <trkpt lat="47.34326" lon="2.88271">
        <ele>170</ele>
        <time>2021-07-06T23:16:20Z</time>
      </trkpt>
      <trkpt lat="47.34495" lon="2.88288">
        <ele>171</ele>
        <time>2021-07-06T23:16:50Z</time>
      </trkpt>
      <trkpt lat="47.34662" lon="2.8835">
        <ele>170</ele>
        <time>2021-07-06T23:17:21Z</time>
      </trkpt>
      <trkpt lat="47.34968" lon="2.88565">
        <ele>164</ele>
        <time>2021-07-06T23:18:21Z</time>
      </trkpt>
      <trkpt lat="47.3513" lon="2.88694">
        <ele>169</ele>
        <time>2021-07-06T23:18:54Z</time>
      </trkpt>
      <trkpt lat="47.35243" lon="2.88784">
        <ele>170</ele>
        <time>2021-07-06T23:19:17Z</time>
      </trkpt>
      <trkpt lat="47.35448" lon="2.88864">
        <ele>169</ele>
        <time>2021-07-06T23:19:54Z</time>
      </trkpt>
      <trkpt lat="47.3566" lon="2.88916">
        <ele>160</ele>
        <time>2021-07-06T23:20:33Z</time>
      </trkpt>
      <trkpt lat="47.35845" lon="2.89024">
        <ele>160</ele>
        <time>2021-07-06T23:21:08Z</time>
      </trkpt>
      <trkpt lat="47.35986" lon="2.89126">
        <ele>157</ele>
        <time>2021-07-06T23:21:36Z</time>
      </trkpt>
      <trkpt lat="47.3604" lon="2.89187">
        <ele>157</ele>
        <time>2021-07-06T23:21:48Z</time>
      </trkpt>
      <trkpt lat="47.36145" lon="2.89361">
        <ele>157</ele>
        <time>2021-07-06T23:22:16Z</time>
      </trkpt>
      <trkpt lat="47.36177" lon="2.894">
        <ele>156</ele>
        <time>2021-07-06T23:22:23Z</time>
      </trkpt>
      <trkpt lat="47.36249" lon="2.89472">
        <ele>158</ele>
        <time>2021-07-06T23:22:39Z</time>
      </trkpt>
      <trkpt lat="47.363" lon="2.89508">
        <ele>156</ele>
        <time>2021-07-06T23:22:49Z</time>
      </trkpt>
      <trkpt lat="47.36414" lon="2.89588">
        <ele>155</ele>
        <time>2021-07-06T23:23:11Z</time>
      </trkpt>
      <trkpt lat="47.36488" lon="2.89647">
        <ele>155</ele>
        <time>2021-07-06T23:23:26Z</time>
      </trkpt>
      <trkpt lat="47.3658" lon="2.89719">
        <ele>154</ele>
        <time>2021-07-06T23:23:45Z</time>
      </trkpt>
      <trkpt lat="47.36638" lon="2.89745">
        <ele>153</ele>
        <time>2021-07-06T23:23:56Z</time>
      </trkpt>
      <trkpt lat="47.36672" lon="2.89767">
        <ele>153</ele>
        <time>2021-07-06T23:24:02Z</time>
      </trkpt>
      <trkpt lat="47.3672" lon="2.89806">
        <ele>153</ele>
        <time>2021-07-06T23:24:12Z</time>
      </trkpt>
      <trkpt lat="47.36756" lon="2.89835">
        <ele>152</ele>
        <time>2021-07-06T23:24:19Z</time>
      </trkpt>
      <trkpt lat="47.36823" lon="2.8989">
        <ele>151</ele>
        <time>2021-07-06T23:24:33Z</time>
      </trkpt>
      <trkpt lat="47.36831" lon="2.89897">
        <ele>151</ele>
        <time>2021-07-06T23:24:35Z</time>
      </trkpt>
      <trkpt lat="47.3685" lon="2.89918">
        <ele>150</ele>
        <time>2021-07-06T23:24:39Z</time>
      </trkpt>
      <trkpt lat="47.36863" lon="2.89938">
        <ele>150</ele>
        <time>2021-07-06T23:24:42Z</time>
      </trkpt>
      <trkpt lat="47.36872" lon="2.89956">
        <ele>149</ele>
        <time>2021-07-06T23:24:45Z</time>
      </trkpt>
      <trkpt lat="47.36878" lon="2.89975">
        <ele>148</ele>
        <time>2021-07-06T23:24:47Z</time>
      </trkpt>
      <trkpt lat="47.36884" lon="2.90005">
        <ele>148</ele>
        <time>2021-07-06T23:24:51Z</time>
      </trkpt>
      <trkpt lat="47.36888" lon="2.90021">
        <ele>148</ele>
        <time>2021-07-06T23:24:53Z</time>
      </trkpt>
      <trkpt lat="47.36918" lon="2.90078">
        <ele>148</ele>
        <time>2021-07-06T23:25:02Z</time>
      </trkpt>
      <trkpt lat="47.3693" lon="2.90093">
        <ele>149</ele>
        <time>2021-07-06T23:25:05Z</time>
      </trkpt>
      <trkpt lat="47.36943" lon="2.90103">
        <ele>150</ele>
        <time>2021-07-06T23:25:07Z</time>
      </trkpt>
      <trkpt lat="47.36946" lon="2.90104">
        <ele>150</ele>
        <time>2021-07-06T23:25:08Z</time>
      </trkpt>
      <trkpt lat="47.36957" lon="2.90108">
        <ele>151</ele>
        <time>2021-07-06T23:25:10Z</time>
      </trkpt>
      <trkpt lat="47.3698" lon="2.90112">
        <ele>152</ele>
        <time>2021-07-06T23:25:14Z</time>
      </trkpt>
      <trkpt lat="47.3701" lon="2.90115">
        <ele>153</ele>
        <time>2021-07-06T23:25:19Z</time>
      </trkpt>
      <trkpt lat="47.37046" lon="2.90123">
        <ele>154</ele>
        <time>2021-07-06T23:25:26Z</time>
      </trkpt>
      <trkpt lat="47.37062" lon="2.90129">
        <ele>154</ele>
        <time>2021-07-06T23:25:29Z</time>
      </trkpt>
      <trkpt lat="47.3709" lon="2.90144">
        <ele>154</ele>
        <time>2021-07-06T23:25:34Z</time>
      </trkpt>
      <trkpt lat="47.37095" lon="2.90146">
        <ele>155</ele>
        <time>2021-07-06T23:25:35Z</time>
      </trkpt>
      <trkpt lat="47.37142" lon="2.90169">
        <ele>155</ele>
        <time>2021-07-06T23:25:44Z</time>
      </trkpt>
      <trkpt lat="47.37167" lon="2.90177">
        <ele>155</ele>
        <time>2021-07-06T23:25:48Z</time>
      </trkpt>
      <trkpt lat="47.37197" lon="2.90185">
        <ele>154</ele>
        <time>2021-07-06T23:25:54Z</time>
      </trkpt>
      <trkpt lat="47.37238" lon="2.90193">
        <ele>152</ele>
        <time>2021-07-06T23:26:01Z</time>
      </trkpt>
      <trkpt lat="47.37245" lon="2.90194">
        <ele>152</ele>
        <time>2021-07-06T23:26:02Z</time>
      </trkpt>
      <trkpt lat="47.37275" lon="2.90198">
        <ele>151</ele>
        <time>2021-07-06T23:26:08Z</time>
      </trkpt>
      <trkpt lat="47.37298" lon="2.90197">
        <ele>150</ele>
        <time>2021-07-06T23:26:12Z</time>
      </trkpt>
      <trkpt lat="47.37316" lon="2.90196">
        <ele>149</ele>
        <time>2021-07-06T23:26:15Z</time>
      </trkpt>
      <trkpt lat="47.37346" lon="2.90197">
        <ele>149</ele>
        <time>2021-07-06T23:26:20Z</time>
      </trkpt>
      <trkpt lat="47.37366" lon="2.90199">
        <ele>149</ele>
        <time>2021-07-06T23:26:24Z</time>
      </trkpt>
      <trkpt lat="47.37419" lon="2.90211">
        <ele>151</ele>
        <time>2021-07-06T23:26:34Z</time>
      </trkpt>
      <trkpt lat="47.37466" lon="2.90233">
        <ele>152</ele>
        <time>2021-07-06T23:26:42Z</time>
      </trkpt>
      <trkpt lat="47.37533" lon="2.9027">
        <ele>152</ele>
        <time>2021-07-06T23:26:55Z</time>
      </trkpt>
      <trkpt lat="47.37552" lon="2.90281">
        <ele>152</ele>
        <time>2021-07-06T23:26:59Z</time>
      </trkpt>
      <trkpt lat="47.37583" lon="2.90295">
        <ele>152</ele>
        <time>2021-07-06T23:27:04Z</time>
      </trkpt>
      <trkpt lat="47.37598" lon="2.90301">
        <ele>152</ele>
        <time>2021-07-06T23:27:07Z</time>
      </trkpt>
      <trkpt lat="47.37658" lon="2.90317">
        <ele>153</ele>
        <time>2021-07-06T23:27:18Z</time>
      </trkpt>
      <trkpt lat="47.37721" lon="2.90337">
        <ele>152</ele>
        <time>2021-07-06T23:27:30Z</time>
      </trkpt>
      <trkpt lat="47.3773" lon="2.9034">
        <ele>152</ele>
        <time>2021-07-06T23:27:31Z</time>
      </trkpt>
      <trkpt lat="47.3775" lon="2.90352">
        <ele>152</ele>
        <time>2021-07-06T23:27:35Z</time>
      </trkpt>
      <trkpt lat="47.37891" lon="2.9045">
        <ele>152</ele>
        <time>2021-07-06T23:28:03Z</time>
      </trkpt>
      <trkpt lat="47.37903" lon="2.90458">
        <ele>152</ele>
        <time>2021-07-06T23:28:05Z</time>
      </trkpt>
      <trkpt lat="47.38012" lon="2.90535">
        <ele>151</ele>
        <time>2021-07-06T23:28:27Z</time>
      </trkpt>
      <trkpt lat="47.38224" lon="2.90687">
        <ele>154</ele>
        <time>2021-07-06T23:29:09Z</time>
      </trkpt>
      <trkpt lat="47.38417" lon="2.90816">
        <ele>156</ele>
        <time>2021-07-06T23:29:46Z</time>
      </trkpt>
      <trkpt lat="47.38664" lon="2.90988">
        <ele>155</ele>
        <time>2021-07-06T23:30:35Z</time>
      </trkpt>
      <trkpt lat="47.38704" lon="2.91023">
        <ele>155</ele>
        <time>2021-07-06T23:30:43Z</time>
      </trkpt>
      <trkpt lat="47.38721" lon="2.91035">
        <ele>155</ele>
        <time>2021-07-06T23:30:46Z</time>
      </trkpt>
      <trkpt lat="47.38797" lon="2.91078">
        <ele>155</ele>
        <time>2021-07-06T23:31:01Z</time>
      </trkpt>
      <trkpt lat="47.38856" lon="2.9112">
        <ele>155</ele>
        <time>2021-07-06T23:31:13Z</time>
      </trkpt>
      <trkpt lat="47.38884" lon="2.91143">
        <ele>155</ele>
        <time>2021-07-06T23:31:18Z</time>
      </trkpt>
      <trkpt lat="47.38911" lon="2.91164">
        <ele>155</ele>
        <time>2021-07-06T23:31:24Z</time>
      </trkpt>
      <trkpt lat="47.38923" lon="2.91181">
        <ele>155</ele>
        <time>2021-07-06T23:31:27Z</time>
      </trkpt>
      <trkpt lat="47.38952" lon="2.91222">
        <ele>156</ele>
        <time>2021-07-06T23:31:34Z</time>
      </trkpt>
      <trkpt lat="47.39029" lon="2.91341">
        <ele>157</ele>
        <time>2021-07-06T23:31:54Z</time>
      </trkpt>
      <trkpt lat="47.39088" lon="2.91417">
        <ele>157</ele>
        <time>2021-07-06T23:32:08Z</time>
      </trkpt>
      <trkpt lat="47.39115" lon="2.91443">
        <ele>156</ele>
        <time>2021-07-06T23:32:13Z</time>
      </trkpt>
      <trkpt lat="47.39143" lon="2.91465">
        <ele>156</ele>
        <time>2021-07-06T23:32:19Z</time>
      </trkpt>
      <trkpt lat="47.39192" lon="2.91498">
        <ele>155</ele>
        <time>2021-07-06T23:32:29Z</time>
      </trkpt>
      <trkpt lat="47.39198" lon="2.91501">
        <ele>155</ele>
        <time>2021-07-06T23:32:30Z</time>
      </trkpt>
      <trkpt lat="47.39236" lon="2.91519">
        <ele>155</ele>
        <time>2021-07-06T23:32:37Z</time>
      </trkpt>
      <trkpt lat="47.39498" lon="2.91613">
        <ele>154</ele>
        <time>2021-07-06T23:33:25Z</time>
      </trkpt>
      <trkpt lat="47.39577" lon="2.91642">
        <ele>155</ele>
        <time>2021-07-06T23:33:39Z</time>
      </trkpt>
      <trkpt lat="47.39636" lon="2.91677">
        <ele>155</ele>
        <time>2021-07-06T23:33:51Z</time>
      </trkpt>
      <trkpt lat="47.39753" lon="2.91814">
        <ele>155</ele>
        <time>2021-07-06T23:34:17Z</time>
      </trkpt>
      <trkpt lat="47.39864" lon="2.91927">
        <ele>154</ele>
        <time>2021-07-06T23:34:41Z</time>
      </trkpt>
      <trkpt lat="47.39894" lon="2.91957">
        <ele>154</ele>
        <time>2021-07-06T23:34:48Z</time>
      </trkpt>
      <trkpt lat="47.40053" lon="2.92025">
        <ele>153</ele>
        <time>2021-07-06T23:35:17Z</time>
      </trkpt>
      <trkpt lat="47.40109" lon="2.92046">
        <ele>153</ele>
        <time>2021-07-06T23:35:27Z</time>
      </trkpt>
      <trkpt lat="47.40134" lon="2.92062">
        <ele>153</ele>
        <time>2021-07-06T23:35:32Z</time>
      </trkpt>
      <trkpt lat="47.40151" lon="2.92073">
        <ele>153</ele>
        <time>2021-07-06T23:35:35Z</time>
      </trkpt>
      <trkpt lat="47.40335" lon="2.9223">
        <ele>156</ele>
        <time>2021-07-06T23:36:13Z</time>
      </trkpt>
      <trkpt lat="47.4035" lon="2.92246">
        <ele>156</ele>
        <time>2021-07-06T23:36:17Z</time>
      </trkpt>
      <trkpt lat="47.40357" lon="2.92255">
        <ele>156</ele>
        <time>2021-07-06T23:36:18Z</time>
      </trkpt>
      <trkpt lat="47.40355" lon="2.92259">
        <ele>156</ele>
        <time>2021-07-06T23:36:19Z</time>
      </trkpt>
      <trkpt lat="47.40354" lon="2.92263">
        <ele>156</ele>
        <time>2021-07-06T23:36:19Z</time>
      </trkpt>
      <trkpt lat="47.40354" lon="2.92268">
        <ele>157</ele>
        <time>2021-07-06T23:36:20Z</time>
      </trkpt>
      <trkpt lat="47.40354" lon="2.92273">
        <ele>157</ele>
        <time>2021-07-06T23:36:20Z</time>
      </trkpt>
      <trkpt lat="47.40359" lon="2.92281">
        <ele>157</ele>
        <time>2021-07-06T23:36:22Z</time>
      </trkpt>
      <trkpt lat="47.40363" lon="2.92283">
        <ele>156</ele>
        <time>2021-07-06T23:36:23Z</time>
      </trkpt>
      <trkpt lat="47.4037" lon="2.92281">
        <ele>156</ele>
        <time>2021-07-06T23:36:24Z</time>
      </trkpt>
      <trkpt lat="47.40372" lon="2.92278">
        <ele>156</ele>
        <time>2021-07-06T23:36:24Z</time>
      </trkpt>
      <trkpt lat="47.40374" lon="2.92274">
        <ele>156</ele>
        <time>2021-07-06T23:36:25Z</time>
      </trkpt>
      <trkpt lat="47.40376" lon="2.92269">
        <ele>156</ele>
        <time>2021-07-06T23:36:26Z</time>
      </trkpt>
      <trkpt lat="47.40375" lon="2.92264">
        <ele>156</ele>
        <time>2021-07-06T23:36:26Z</time>
      </trkpt>
      <trkpt lat="47.40386" lon="2.92261">
        <ele>155</ele>
        <time>2021-07-06T23:36:28Z</time>
      </trkpt>
      <trkpt lat="47.40405" lon="2.92258">
        <ele>155</ele>
        <time>2021-07-06T23:36:32Z</time>
      </trkpt>
      <trkpt lat="47.40455" lon="2.92258">
        <ele>154</ele>
        <time>2021-07-06T23:36:41Z</time>
      </trkpt>
      <trkpt lat="47.40462" lon="2.92258">
        <ele>155</ele>
        <time>2021-07-06T23:36:42Z</time>
      </trkpt>
      <trkpt lat="47.40483" lon="2.92258">
        <ele>155</ele>
        <time>2021-07-06T23:36:46Z</time>
      </trkpt>
      <trkpt lat="47.40643" lon="2.92266">
        <ele>154</ele>
        <time>2021-07-06T23:37:14Z</time>
      </trkpt>
      <trkpt lat="47.4065" lon="2.92266">
        <ele>154</ele>
        <time>2021-07-06T23:37:15Z</time>
      </trkpt>
      <trkpt lat="47.40655" lon="2.92267">
        <ele>154</ele>
        <time>2021-07-06T23:37:16Z</time>
      </trkpt>
      <trkpt lat="47.40663" lon="2.92267">
        <ele>154</ele>
        <time>2021-07-06T23:37:18Z</time>
      </trkpt>
      <trkpt lat="47.40705" lon="2.92268">
        <ele>153</ele>
        <time>2021-07-06T23:37:25Z</time>
      </trkpt>
      <trkpt lat="47.40735" lon="2.92272">
        <ele>153</ele>
        <time>2021-07-06T23:37:30Z</time>
      </trkpt>
      <trkpt lat="47.40742" lon="2.92273">
        <ele>153</ele>
        <time>2021-07-06T23:37:32Z</time>
      </trkpt>
      <trkpt lat="47.40747" lon="2.92274">
        <ele>153</ele>
        <time>2021-07-06T23:37:33Z</time>
      </trkpt>
      <trkpt lat="47.40774" lon="2.92286">
        <ele>152</ele>
        <time>2021-07-06T23:37:38Z</time>
      </trkpt>
      <trkpt lat="47.40793" lon="2.92295">
        <ele>152</ele>
        <time>2021-07-06T23:37:41Z</time>
      </trkpt>
      <trkpt lat="47.408" lon="2.92298">
        <ele>152</ele>
        <time>2021-07-06T23:37:42Z</time>
      </trkpt>
      <trkpt lat="47.40804" lon="2.92299">
        <ele>152</ele>
        <time>2021-07-06T23:37:43Z</time>
      </trkpt>
      <trkpt lat="47.40807" lon="2.92301">
        <ele>152</ele>
        <time>2021-07-06T23:37:44Z</time>
      </trkpt>
      <trkpt lat="47.40834" lon="2.92313">
        <ele>151</ele>
        <time>2021-07-06T23:37:49Z</time>
      </trkpt>
      <trkpt lat="47.40883" lon="2.92344">
        <ele>150</ele>
        <time>2021-07-06T23:37:58Z</time>
      </trkpt>
      <trkpt lat="47.40884" lon="2.92353">
        <ele>149</ele>
        <time>2021-07-06T23:37:59Z</time>
      </trkpt>
      <trkpt lat="47.40887" lon="2.92355">
        <ele>149</ele>
        <time>2021-07-06T23:38:00Z</time>
      </trkpt>
      <trkpt lat="47.40892" lon="2.92354">
        <ele>149</ele>
        <time>2021-07-06T23:38:01Z</time>
      </trkpt>
      <trkpt lat="47.40894" lon="2.92351">
        <ele>149</ele>
        <time>2021-07-06T23:38:01Z</time>
      </trkpt>
      <trkpt lat="47.40894" lon="2.92344">
        <ele>149</ele>
        <time>2021-07-06T23:38:02Z</time>
      </trkpt>
      <trkpt lat="47.40892" lon="2.92341">
        <ele>149</ele>
        <time>2021-07-06T23:38:03Z</time>
      </trkpt>
      <trkpt lat="47.40897" lon="2.9233">
        <ele>149</ele>
        <time>2021-07-06T23:38:04Z</time>
      </trkpt>
      <trkpt lat="47.40901" lon="2.92314">
        <ele>149</ele>
        <time>2021-07-06T23:38:06Z</time>
      </trkpt>
      <trkpt lat="47.4092" lon="2.92211">
        <ele>146</ele>
        <time>2021-07-06T23:38:19Z</time>
      </trkpt>
      <trkpt lat="47.40889" lon="2.92196">
        <ele>146</ele>
        <time>2021-07-06T23:38:25Z</time>
      </trkpt>
      <trkpt lat="47.40889" lon="2.92174">
        <ele>144</ele>
        <time>2021-07-06T23:38:28Z</time>
      </trkpt>
      <trkpt lat="47.40916" lon="2.92172">
        <ele>145</ele>
        <time>2021-07-06T23:38:32Z</time>
      </trkpt>
      <trkpt lat="47.40979" lon="2.92167">
        <ele>142</ele>
        <time>2021-07-06T23:38:44Z</time>
      </trkpt>
      <trkpt lat="47.40982" lon="2.92167">
        <ele>142</ele>
        <time>2021-07-06T23:38:44Z</time>
      </trkpt>
      <trkpt lat="47.4099" lon="2.92167">
        <ele>141</ele>
        <time>2021-07-06T23:38:46Z</time>
      </trkpt>
      <trkpt lat="47.41005" lon="2.92166">
        <ele>141</ele>
        <time>2021-07-06T23:38:48Z</time>
      </trkpt>
      <trkpt lat="47.41011" lon="2.92166">
        <ele>141</ele>
        <time>2021-07-06T23:38:49Z</time>
      </trkpt>
      <trkpt lat="47.41034" lon="2.92165">
        <ele>141</ele>
        <time>2021-07-06T23:38:53Z</time>
      </trkpt>
      <trkpt lat="47.41036" lon="2.92165">
        <ele>140</ele>
        <time>2021-07-06T23:38:54Z</time>
      </trkpt>
      <trkpt lat="47.41048" lon="2.92165">
        <ele>140</ele>
        <time>2021-07-06T23:38:56Z</time>
      </trkpt>
      <trkpt lat="47.41052" lon="2.92165">
        <ele>140</ele>
        <time>2021-07-06T23:38:57Z</time>
      </trkpt>
      <trkpt lat="47.41057" lon="2.92165">
        <ele>140</ele>
        <time>2021-07-06T23:38:58Z</time>
      </trkpt>
      <trkpt lat="47.41062" lon="2.92164">
        <ele>140</ele>
        <time>2021-07-06T23:38:58Z</time>
      </trkpt>
      <trkpt lat="47.41069" lon="2.92164">
        <ele>140</ele>
        <time>2021-07-06T23:39:00Z</time>
      </trkpt>
      <trkpt lat="47.41089" lon="2.92255">
        <ele>145</ele>
        <time>2021-07-06T23:39:11Z</time>
      </trkpt>
      <trkpt lat="47.41092" lon="2.92258">
        <ele>145</ele>
        <time>2021-07-06T23:39:12Z</time>
      </trkpt>
      <trkpt lat="47.41096" lon="2.92258">
        <ele>145</ele>
        <time>2021-07-06T23:39:13Z</time>
      </trkpt>
      <trkpt lat="47.41115" lon="2.92243">
        <ele>145</ele>
        <time>2021-07-06T23:39:16Z</time>
      </trkpt>
      <trkpt lat="47.41133" lon="2.92234">
        <ele>145</ele>
        <time>2021-07-06T23:39:20Z</time>
      </trkpt>
      <trkpt lat="47.41138" lon="2.92225">
        <ele>144</ele>
        <time>2021-07-06T23:39:21Z</time>
      </trkpt>
      <trkpt lat="47.41144" lon="2.92229">
        <ele>144</ele>
        <time>2021-07-06T23:39:22Z</time>
      </trkpt>
      <trkpt lat="47.4115" lon="2.92225">
        <ele>144</ele>
        <time>2021-07-06T23:39:24Z</time>
      </trkpt>
      <trkpt lat="47.41152" lon="2.92218">
        <ele>144</ele>
        <time>2021-07-06T23:39:24Z</time>
      </trkpt>
      <trkpt lat="47.4115" lon="2.9221">
        <ele>143</ele>
        <time>2021-07-06T23:39:25Z</time>
      </trkpt>
      <trkpt lat="47.41144" lon="2.92205">
        <ele>143</ele>
        <time>2021-07-06T23:39:27Z</time>
      </trkpt>
      <trkpt lat="47.41144" lon="2.92167">
        <ele>141</ele>
        <time>2021-07-06T23:39:31Z</time>
      </trkpt>
      <trkpt lat="47.41134" lon="2.91728">
        <ele>144</ele>
        <time>2021-07-06T23:40:24Z</time>
      </trkpt>
      <trkpt lat="47.41117" lon="2.90869">
        <ele>144</ele>
        <time>2021-07-06T23:42:08Z</time>
      </trkpt>
      <trkpt lat="47.41111" lon="2.9063">
        <ele>143</ele>
        <time>2021-07-06T23:42:36Z</time>
      </trkpt>
      <trkpt lat="47.41093" lon="2.90173">
        <ele>142</ele>
        <time>2021-07-06T23:43:32Z</time>
      </trkpt>
      <trkpt lat="47.41073" lon="2.89745">
        <ele>143</ele>
        <time>2021-07-06T23:44:23Z</time>
      </trkpt>
      <trkpt lat="47.41073" lon="2.89711">
        <ele>143</ele>
        <time>2021-07-06T23:44:27Z</time>
      </trkpt>
      <trkpt lat="47.41076" lon="2.89675">
        <ele>144</ele>
        <time>2021-07-06T23:44:32Z</time>
      </trkpt>
      <trkpt lat="47.41082" lon="2.89628">
        <ele>144</ele>
        <time>2021-07-06T23:44:37Z</time>
      </trkpt>
      <trkpt lat="47.41087" lon="2.89592">
        <ele>145</ele>
        <time>2021-07-06T23:44:42Z</time>
      </trkpt>
      <trkpt lat="47.41096" lon="2.89542">
        <ele>147</ele>
        <time>2021-07-06T23:44:48Z</time>
      </trkpt>
      <trkpt lat="47.41101" lon="2.89538">
        <ele>147</ele>
        <time>2021-07-06T23:44:49Z</time>
      </trkpt>
      <trkpt lat="47.41105" lon="2.89528">
        <ele>147</ele>
        <time>2021-07-06T23:44:50Z</time>
      </trkpt>
      <trkpt lat="47.41114" lon="2.89524">
        <ele>147</ele>
        <time>2021-07-06T23:44:52Z</time>
      </trkpt>
      <trkpt lat="47.41158" lon="2.89512">
        <ele>145</ele>
        <time>2021-07-06T23:45:00Z</time>
      </trkpt>
      <trkpt lat="47.41199" lon="2.89509">
        <ele>145</ele>
        <time>2021-07-06T23:45:07Z</time>
      </trkpt>
      <trkpt lat="47.41209" lon="2.89509">
        <ele>145</ele>
        <time>2021-07-06T23:45:09Z</time>
      </trkpt>
      <trkpt lat="47.41259" lon="2.8951">
        <ele>146</ele>
        <time>2021-07-06T23:45:18Z</time>
      </trkpt>
      <trkpt lat="47.41308" lon="2.8952">
        <ele>147</ele>
        <time>2021-07-06T23:45:27Z</time>
      </trkpt>
      <trkpt lat="47.41455" lon="2.89563">
        <ele>146</ele>
        <time>2021-07-06T23:45:54Z</time>
      </trkpt>
      <trkpt lat="47.41475" lon="2.89565">
        <ele>146</ele>
        <time>2021-07-06T23:45:57Z</time>
      </trkpt>
      <trkpt lat="47.41507" lon="2.89563">
        <ele>146</ele>
        <time>2021-07-06T23:46:03Z</time>
      </trkpt>
      <trkpt lat="47.41658" lon="2.8953">
        <ele>144</ele>
        <time>2021-07-06T23:46:30Z</time>
      </trkpt>
      <trkpt lat="47.41696" lon="2.89525">
        <ele>146</ele>
        <time>2021-07-06T23:46:37Z</time>
      </trkpt>
      <trkpt lat="47.41769" lon="2.89525">
        <ele>149</ele>
        <time>2021-07-06T23:46:50Z</time>
      </trkpt>
      <trkpt lat="47.41798" lon="2.89522">
        <ele>151</ele>
        <time>2021-07-06T23:46:55Z</time>
      </trkpt>
      <trkpt lat="47.41877" lon="2.89503">
        <ele>153</ele>
        <time>2021-07-06T23:47:09Z</time>
      </trkpt>
      <trkpt lat="47.41918" lon="2.89502">
        <ele>151</ele>
        <time>2021-07-06T23:47:16Z</time>
      </trkpt>
      <trkpt lat="47.41952" lon="2.8951">
        <ele>149</ele>
        <time>2021-07-06T23:47:23Z</time>
      </trkpt>
      <trkpt lat="47.41978" lon="2.89525">
        <ele>147</ele>
        <time>2021-07-06T23:47:28Z</time>
      </trkpt>
      <trkpt lat="47.42015" lon="2.89556">
        <ele>144</ele>
        <time>2021-07-06T23:47:35Z</time>
      </trkpt>
      <trkpt lat="47.4205" lon="2.89583">
        <ele>142</ele>
        <time>2021-07-06T23:47:42Z</time>
      </trkpt>
      <trkpt lat="47.4208" lon="2.89594">
        <ele>142</ele>
        <time>2021-07-06T23:47:48Z</time>
      </trkpt>
      <trkpt lat="47.42113" lon="2.89594">
        <ele>142</ele>
        <time>2021-07-06T23:47:54Z</time>
      </trkpt>
      <trkpt lat="47.42129" lon="2.8959">
        <ele>143</ele>
        <time>2021-07-06T23:47:56Z</time>
      </trkpt>
      <trkpt lat="47.42149" lon="2.89581">
        <ele>143</ele>
        <time>2021-07-06T23:48:00Z</time>
      </trkpt>
      <trkpt lat="47.42161" lon="2.89572">
        <ele>143</ele>
        <time>2021-07-06T23:48:03Z</time>
      </trkpt>
      <trkpt lat="47.42176" lon="2.89557">
        <ele>143</ele>
        <time>2021-07-06T23:48:06Z</time>
      </trkpt>
      <trkpt lat="47.42266" lon="2.89412">
        <ele>144</ele>
        <time>2021-07-06T23:48:29Z</time>
      </trkpt>
      <trkpt lat="47.42289" lon="2.89381">
        <ele>145</ele>
        <time>2021-07-06T23:48:35Z</time>
      </trkpt>
      <trkpt lat="47.42308" lon="2.89362">
        <ele>145</ele>
        <time>2021-07-06T23:48:39Z</time>
      </trkpt>
      <trkpt lat="47.42322" lon="2.89351">
        <ele>145</ele>
        <time>2021-07-06T23:48:42Z</time>
      </trkpt>
      <trkpt lat="47.42339" lon="2.8934">
        <ele>144</ele>
        <time>2021-07-06T23:48:45Z</time>
      </trkpt>
      <trkpt lat="47.42523" lon="2.89257">
        <ele>140</ele>
        <time>2021-07-06T23:49:19Z</time>
      </trkpt>
      <trkpt lat="47.42573" lon="2.8924">
        <ele>142</ele>
        <time>2021-07-06T23:49:29Z</time>
      </trkpt>
      <trkpt lat="47.4268" lon="2.89219">
        <ele>143</ele>
        <time>2021-07-06T23:49:48Z</time>
      </trkpt>
      <trkpt lat="47.42704" lon="2.89211">
        <ele>143</ele>
        <time>2021-07-06T23:49:52Z</time>
      </trkpt>
      <trkpt lat="47.4273" lon="2.89199">
        <ele>143</ele>
        <time>2021-07-06T23:49:57Z</time>
      </trkpt>
      <trkpt lat="47.42855" lon="2.89133">
        <ele>141</ele>
        <time>2021-07-06T23:50:21Z</time>
      </trkpt>
      <trkpt lat="47.43075" lon="2.88995">
        <ele>139</ele>
        <time>2021-07-06T23:51:03Z</time>
      </trkpt>
      <trkpt lat="47.43103" lon="2.88975">
        <ele>140</ele>
        <time>2021-07-06T23:51:09Z</time>
      </trkpt>
      <trkpt lat="47.43128" lon="2.88949">
        <ele>140</ele>
        <time>2021-07-06T23:51:14Z</time>
      </trkpt>
      <trkpt lat="47.43205" lon="2.88861">
        <ele>141</ele>
        <time>2021-07-06T23:51:31Z</time>
      </trkpt>
      <trkpt lat="47.43246" lon="2.88824">
        <ele>141</ele>
        <time>2021-07-06T23:51:40Z</time>
      </trkpt>
      <trkpt lat="47.43516" lon="2.88653">
        <ele>141</ele>
        <time>2021-07-06T23:52:32Z</time>
      </trkpt>
      <trkpt lat="47.43544" lon="2.88639">
        <ele>140</ele>
        <time>2021-07-06T23:52:37Z</time>
      </trkpt>
      <trkpt lat="47.43585" lon="2.88623">
        <ele>140</ele>
        <time>2021-07-06T23:52:45Z</time>
      </trkpt>
      <trkpt lat="47.43761" lon="2.88577">
        <ele>139</ele>
        <time>2021-07-06T23:53:17Z</time>
      </trkpt>
      <trkpt lat="47.43797" lon="2.88565">
        <ele>141</ele>
        <time>2021-07-06T23:53:23Z</time>
      </trkpt>
      <trkpt lat="47.44003" lon="2.88489">
        <ele>140</ele>
        <time>2021-07-06T23:54:01Z</time>
      </trkpt>
      <trkpt lat="47.44027" lon="2.88478">
        <ele>140</ele>
        <time>2021-07-06T23:54:06Z</time>
      </trkpt>
      <trkpt lat="47.44051" lon="2.88464">
        <ele>139</ele>
        <time>2021-07-06T23:54:10Z</time>
      </trkpt>
      <trkpt lat="47.44075" lon="2.88443">
        <ele>139</ele>
        <time>2021-07-06T23:54:15Z</time>
      </trkpt>
      <trkpt lat="47.44192" lon="2.88326">
        <ele>139</ele>
        <time>2021-07-06T23:54:40Z</time>
      </trkpt>
      <trkpt lat="47.44515" lon="2.88263">
        <ele>138</ele>
        <time>2021-07-06T23:55:38Z</time>
      </trkpt>
      <trkpt lat="47.44899" lon="2.88104">
        <ele>140</ele>
        <time>2021-07-06T23:56:49Z</time>
      </trkpt>
      <trkpt lat="47.45166" lon="2.87946">
        <ele>140</ele>
        <time>2021-07-06T23:57:40Z</time>
      </trkpt>
      <trkpt lat="47.45207" lon="2.87928">
        <ele>140</ele>
        <time>2021-07-06T23:57:48Z</time>
      </trkpt>
      <trkpt lat="47.45249" lon="2.8792">
        <ele>139</ele>
        <time>2021-07-06T23:57:56Z</time>
      </trkpt>
      <trkpt lat="47.45408" lon="2.87909">
        <ele>139</ele>
        <time>2021-07-06T23:58:24Z</time>
      </trkpt>
      <trkpt lat="47.45452" lon="2.87912">
        <ele>139</ele>
        <time>2021-07-06T23:58:32Z</time>
      </trkpt>
      <trkpt lat="47.45483" lon="2.87917">
        <ele>139</ele>
        <time>2021-07-06T23:58:37Z</time>
      </trkpt>
      <trkpt lat="47.4556" lon="2.87934">
        <ele>140</ele>
        <time>2021-07-06T23:58:51Z</time>
      </trkpt>
      <trkpt lat="47.45686" lon="2.8797">
        <ele>139</ele>
        <time>2021-07-06T23:59:14Z</time>
      </trkpt>
      <trkpt lat="47.45753" lon="2.87977">
        <ele>139</ele>
        <time>2021-07-06T23:59:26Z</time>
      </trkpt>
      <trkpt lat="47.45807" lon="2.87958">
        <ele>139</ele>
        <time>2021-07-06T23:59:36Z</time>
      </trkpt>
      <trkpt lat="47.45826" lon="2.87944">
        <ele>138</ele>
        <time>2021-07-06T23:59:40Z</time>
      </trkpt>
      <trkpt lat="47.45848" lon="2.87922">
        <ele>138</ele>
        <time>2021-07-06T23:59:44Z</time>
      </trkpt>
      <trkpt lat="47.45894" lon="2.87868">
        <ele>140</ele>
        <time>2021-07-06T23:59:55Z</time>
      </trkpt>
      <trkpt lat="47.45902" lon="2.87857">
        <ele>141</ele>
        <time>2021-07-06T23:59:57Z</time>
      </trkpt>
      <trkpt lat="47.45925" lon="2.87831">
        <ele>142</ele>
        <time>2021-07-07T00:00:02Z</time>
      </trkpt>
      <trkpt lat="47.45939" lon="2.87816">
        <ele>142</ele>
        <time>2021-07-07T00:00:05Z</time>
      </trkpt>
      <trkpt lat="47.4596" lon="2.87797">
        <ele>142</ele>
        <time>2021-07-07T00:00:09Z</time>
      </trkpt>
      <trkpt lat="47.45982" lon="2.8778">
        <ele>142</ele>
        <time>2021-07-07T00:00:14Z</time>
      </trkpt>
      <trkpt lat="47.46035" lon="2.8775">
        <ele>142</ele>
        <time>2021-07-07T00:00:24Z</time>
      </trkpt>
      <trkpt lat="47.46043" lon="2.87745">
        <ele>142</ele>
        <time>2021-07-07T00:00:25Z</time>
      </trkpt>
      <trkpt lat="47.46314" lon="2.87597">
        <ele>141</ele>
        <time>2021-07-07T00:01:17Z</time>
      </trkpt>
      <trkpt lat="47.46333" lon="2.87585">
        <ele>141</ele>
        <time>2021-07-07T00:01:20Z</time>
      </trkpt>
      <trkpt lat="47.46345" lon="2.87579">
        <ele>141</ele>
        <time>2021-07-07T00:01:23Z</time>
      </trkpt>
      <trkpt lat="47.46363" lon="2.87568">
        <ele>141</ele>
        <time>2021-07-07T00:01:26Z</time>
      </trkpt>
      <trkpt lat="47.46416" lon="2.87531">
        <ele>143</ele>
        <time>2021-07-07T00:01:37Z</time>
      </trkpt>
      <trkpt lat="47.46492" lon="2.87477">
        <ele>142</ele>
        <time>2021-07-07T00:01:52Z</time>
      </trkpt>
      <trkpt lat="47.46501" lon="2.8747">
        <ele>143</ele>
        <time>2021-07-07T00:01:53Z</time>
      </trkpt>
      <trkpt lat="47.46532" lon="2.87454">
        <ele>143</ele>
        <time>2021-07-07T00:01:59Z</time>
      </trkpt>
      <trkpt lat="47.46582" lon="2.87442">
        <ele>144</ele>
        <time>2021-07-07T00:02:08Z</time>
      </trkpt>
      <trkpt lat="47.4686" lon="2.87379">
        <ele>142</ele>
        <time>2021-07-07T00:02:58Z</time>
      </trkpt>
      <trkpt lat="47.46889" lon="2.87375">
        <ele>141</ele>
        <time>2021-07-07T00:03:03Z</time>
      </trkpt>
      <trkpt lat="47.46895" lon="2.87375">
        <ele>141</ele>
        <time>2021-07-07T00:03:05Z</time>
      </trkpt>
      <trkpt lat="47.469" lon="2.87376">
        <ele>141</ele>
        <time>2021-07-07T00:03:05Z</time>
      </trkpt>
      <trkpt lat="47.46914" lon="2.87377">
        <ele>141</ele>
        <time>2021-07-07T00:03:08Z</time>
      </trkpt>
      <trkpt lat="47.46932" lon="2.8738">
        <ele>141</ele>
        <time>2021-07-07T00:03:11Z</time>
      </trkpt>
      <trkpt lat="47.46965" lon="2.87385">
        <ele>141</ele>
        <time>2021-07-07T00:03:17Z</time>
      </trkpt>
      <trkpt lat="47.46971" lon="2.87386">
        <ele>141</ele>
        <time>2021-07-07T00:03:18Z</time>
      </trkpt>
      <trkpt lat="47.47025" lon="2.87393">
        <ele>142</ele>
        <time>2021-07-07T00:03:28Z</time>
      </trkpt>
      <trkpt lat="47.4707" lon="2.87391">
        <ele>144</ele>
        <time>2021-07-07T00:03:36Z</time>
      </trkpt>
      <trkpt lat="47.47067" lon="2.87371">
        <ele>144</ele>
        <time>2021-07-07T00:03:38Z</time>
      </trkpt>
      <trkpt lat="47.4707" lon="2.87391">
        <ele>144</ele>
        <time>2021-07-07T00:03:41Z</time>
      </trkpt>
      <trkpt lat="47.47088" lon="2.87389">
        <ele>144</ele>
        <time>2021-07-07T00:03:44Z</time>
      </trkpt>
      <trkpt lat="47.47102" lon="2.87384">
        <ele>144</ele>
        <time>2021-07-07T00:03:46Z</time>
      </trkpt>
      <trkpt lat="47.47144" lon="2.87364">
        <ele>144</ele>
        <time>2021-07-07T00:03:54Z</time>
      </trkpt>
      <trkpt lat="47.47153" lon="2.87361">
        <ele>144</ele>
        <time>2021-07-07T00:03:56Z</time>
      </trkpt>
      <trkpt lat="47.47175" lon="2.87358">
        <ele>144</ele>
        <time>2021-07-07T00:04:00Z</time>
      </trkpt>
      <trkpt lat="47.47193" lon="2.87357">
        <ele>144</ele>
        <time>2021-07-07T00:04:03Z</time>
      </trkpt>
      <trkpt lat="47.47205" lon="2.87354">
        <ele>144</ele>
        <time>2021-07-07T00:04:05Z</time>
      </trkpt>
      <trkpt lat="47.47264" lon="2.87328">
        <ele>144</ele>
        <time>2021-07-07T00:04:16Z</time>
      </trkpt>
      <trkpt lat="47.47317" lon="2.87304">
        <ele>143</ele>
        <time>2021-07-07T00:04:26Z</time>
      </trkpt>
      <trkpt lat="47.47328" lon="2.87298">
        <ele>143</ele>
        <time>2021-07-07T00:04:28Z</time>
      </trkpt>
      <trkpt lat="47.47347" lon="2.87282">
        <ele>143</ele>
        <time>2021-07-07T00:04:32Z</time>
      </trkpt>
      <trkpt lat="47.47367" lon="2.87258">
        <ele>142</ele>
        <time>2021-07-07T00:04:37Z</time>
      </trkpt>
      <trkpt lat="47.47376" lon="2.87249">
        <ele>142</ele>
        <time>2021-07-07T00:04:39Z</time>
      </trkpt>
      <trkpt lat="47.47391" lon="2.87234">
        <ele>141</ele>
        <time>2021-07-07T00:04:42Z</time>
      </trkpt>
      <trkpt lat="47.47416" lon="2.87222">
        <ele>141</ele>
        <time>2021-07-07T00:04:46Z</time>
      </trkpt>
      <trkpt lat="47.47472" lon="2.87213">
        <ele>142</ele>
        <time>2021-07-07T00:04:56Z</time>
      </trkpt>
      <trkpt lat="47.47663" lon="2.87233">
        <ele>142</ele>
        <time>2021-07-07T00:05:31Z</time>
      </trkpt>
      <trkpt lat="47.47717" lon="2.87219">
        <ele>142</ele>
        <time>2021-07-07T00:05:40Z</time>
      </trkpt>
      <trkpt lat="47.48117" lon="2.87028">
        <ele>139</ele>
        <time>2021-07-07T00:06:55Z</time>
      </trkpt>
      <trkpt lat="47.48161" lon="2.87003">
        <ele>140</ele>
        <time>2021-07-07T00:07:03Z</time>
      </trkpt>
      <trkpt lat="47.48423" lon="2.8679">
        <ele>140</ele>
        <time>2021-07-07T00:07:57Z</time>
      </trkpt>
      <trkpt lat="47.48438" lon="2.86774">
        <ele>140</ele>
        <time>2021-07-07T00:08:00Z</time>
      </trkpt>
      <trkpt lat="47.48462" lon="2.8674">
        <ele>140</ele>
        <time>2021-07-07T00:08:06Z</time>
      </trkpt>
      <trkpt lat="47.4852" lon="2.86678">
        <ele>140</ele>
        <time>2021-07-07T00:08:19Z</time>
      </trkpt>
      <trkpt lat="47.48548" lon="2.86643">
        <ele>140</ele>
        <time>2021-07-07T00:08:25Z</time>
      </trkpt>
      <trkpt lat="47.48557" lon="2.8663">
        <ele>140</ele>
        <time>2021-07-07T00:08:27Z</time>
      </trkpt>
      <trkpt lat="47.48583" lon="2.86595">
        <ele>141</ele>
        <time>2021-07-07T00:08:34Z</time>
      </trkpt>
      <trkpt lat="47.48606" lon="2.86573">
        <ele>141</ele>
        <time>2021-07-07T00:08:38Z</time>
      </trkpt>
      <trkpt lat="47.48623" lon="2.86561">
        <ele>141</ele>
        <time>2021-07-07T00:08:42Z</time>
      </trkpt>
      <trkpt lat="47.49063" lon="2.86316">
        <ele>141</ele>
        <time>2021-07-07T00:10:05Z</time>
      </trkpt>
      <trkpt lat="47.49205" lon="2.86241">
        <ele>140</ele>
        <time>2021-07-07T00:10:32Z</time>
      </trkpt>
      <trkpt lat="47.49279" lon="2.86191">
        <ele>139</ele>
        <time>2021-07-07T00:10:47Z</time>
      </trkpt>
      <trkpt lat="47.49361" lon="2.86118">
        <ele>137</ele>
        <time>2021-07-07T00:11:04Z</time>
      </trkpt>
      <trkpt lat="47.49424" lon="2.8607">
        <ele>138</ele>
        <time>2021-07-07T00:11:16Z</time>
      </trkpt>
      <trkpt lat="47.49474" lon="2.86029">
        <ele>138</ele>
        <time>2021-07-07T00:11:27Z</time>
      </trkpt>
      <trkpt lat="47.4995" lon="2.8565">
        <ele>137</ele>
        <time>2021-07-07T00:13:03Z</time>
      </trkpt>
      <trkpt lat="47.49984" lon="2.85629">
        <ele>138</ele>
        <time>2021-07-07T00:13:09Z</time>
      </trkpt>
      <trkpt lat="47.50219" lon="2.85528">
        <ele>140</ele>
        <time>2021-07-07T00:13:53Z</time>
      </trkpt>
      <trkpt lat="47.50268" lon="2.85505">
        <ele>139</ele>
        <time>2021-07-07T00:14:02Z</time>
      </trkpt>
      <trkpt lat="47.50324" lon="2.85482">
        <ele>139</ele>
        <time>2021-07-07T00:14:12Z</time>
      </trkpt>
      <trkpt lat="47.50713" lon="2.8522">
        <ele>138</ele>
        <time>2021-07-07T00:15:28Z</time>
      </trkpt>
      <trkpt lat="47.50723" lon="2.85209">
        <ele>138</ele>
        <time>2021-07-07T00:15:31Z</time>
      </trkpt>
      <trkpt lat="47.50761" lon="2.85159">
        <ele>138</ele>
        <time>2021-07-07T00:15:40Z</time>
      </trkpt>
      <trkpt lat="47.50848" lon="2.85039">
        <ele>138</ele>
        <time>2021-07-07T00:16:01Z</time>
      </trkpt>
      <trkpt lat="47.50986" lon="2.84892">
        <ele>137</ele>
        <time>2021-07-07T00:16:31Z</time>
      </trkpt>
      <trkpt lat="47.51069" lon="2.84825">
        <ele>138</ele>
        <time>2021-07-07T00:16:48Z</time>
      </trkpt>
      <trkpt lat="47.51355" lon="2.84608">
        <ele>135</ele>
        <time>2021-07-07T00:17:45Z</time>
      </trkpt>
      <trkpt lat="47.51656" lon="2.84392">
        <ele>137</ele>
        <time>2021-07-07T00:18:45Z</time>
      </trkpt>
      <trkpt lat="47.52386" lon="2.83883">
        <ele>149</ele>
        <time>2021-07-07T00:21:08Z</time>
      </trkpt>
      <trkpt lat="47.52672" lon="2.83681">
        <ele>144</ele>
        <time>2021-07-07T00:22:05Z</time>
      </trkpt>
      <trkpt lat="47.52768" lon="2.8357">
        <ele>139</ele>
        <time>2021-07-07T00:22:26Z</time>
      </trkpt>
      <trkpt lat="47.52781" lon="2.83553">
        <ele>139</ele>
        <time>2021-07-07T00:22:29Z</time>
      </trkpt>
      <trkpt lat="47.5282" lon="2.83502">
        <ele>139</ele>
        <time>2021-07-07T00:22:39Z</time>
      </trkpt>
      <trkpt lat="47.52828" lon="2.83491">
        <ele>139</ele>
        <time>2021-07-07T00:22:40Z</time>
      </trkpt>
      <trkpt lat="47.52831" lon="2.83487">
        <ele>140</ele>
        <time>2021-07-07T00:22:41Z</time>
      </trkpt>
      <trkpt lat="47.5307" lon="2.83181">
        <ele>148</ele>
        <time>2021-07-07T00:23:37Z</time>
      </trkpt>
      <trkpt lat="47.53188" lon="2.8303">
        <ele>147</ele>
        <time>2021-07-07T00:24:05Z</time>
      </trkpt>
      <trkpt lat="47.53264" lon="2.82932">
        <ele>146</ele>
        <time>2021-07-07T00:24:23Z</time>
      </trkpt>
      <trkpt lat="47.53523" lon="2.82598">
        <ele>151</ele>
        <time>2021-07-07T00:25:24Z</time>
      </trkpt>
      <trkpt lat="47.53651" lon="2.82431">
        <ele>153</ele>
        <time>2021-07-07T00:25:55Z</time>
      </trkpt>
      <trkpt lat="47.53712" lon="2.82355">
        <ele>155</ele>
        <time>2021-07-07T00:26:09Z</time>
      </trkpt>
      <trkpt lat="47.5376" lon="2.82291">
        <ele>157</ele>
        <time>2021-07-07T00:26:20Z</time>
      </trkpt>
      <trkpt lat="47.53825" lon="2.82208">
        <ele>159</ele>
        <time>2021-07-07T00:26:35Z</time>
      </trkpt>
      <trkpt lat="47.54043" lon="2.81923">
        <ele>163</ele>
        <time>2021-07-07T00:27:27Z</time>
      </trkpt>
      <trkpt lat="47.54079" lon="2.81875">
        <ele>164</ele>
        <time>2021-07-07T00:27:36Z</time>
      </trkpt>
      <trkpt lat="47.54094" lon="2.81857">
        <ele>163</ele>
        <time>2021-07-07T00:27:39Z</time>
      </trkpt>
      <trkpt lat="47.54121" lon="2.81825">
        <ele>162</ele>
        <time>2021-07-07T00:27:45Z</time>
      </trkpt>
      <trkpt lat="47.54129" lon="2.81815">
        <ele>162</ele>
        <time>2021-07-07T00:27:47Z</time>
      </trkpt>
      <trkpt lat="47.54146" lon="2.81793">
        <ele>162</ele>
        <time>2021-07-07T00:27:51Z</time>
      </trkpt>
      <trkpt lat="47.54153" lon="2.81782">
        <ele>162</ele>
        <time>2021-07-07T00:27:53Z</time>
      </trkpt>
      <trkpt lat="47.54167" lon="2.81766">
        <ele>162</ele>
        <time>2021-07-07T00:27:56Z</time>
      </trkpt>
      <trkpt lat="47.54181" lon="2.81749">
        <ele>162</ele>
        <time>2021-07-07T00:27:59Z</time>
      </trkpt>
      <trkpt lat="47.54221" lon="2.81702">
        <ele>162</ele>
        <time>2021-07-07T00:28:09Z</time>
      </trkpt>
      <trkpt lat="47.54224" lon="2.81706">
        <ele>161</ele>
        <time>2021-07-07T00:28:09Z</time>
      </trkpt>
      <trkpt lat="47.54259" lon="2.81743">
        <ele>161</ele>
        <time>2021-07-07T00:28:17Z</time>
      </trkpt>
      <trkpt lat="47.54267" lon="2.81752">
        <ele>161</ele>
        <time>2021-07-07T00:28:19Z</time>
      </trkpt>
      <trkpt lat="47.54278" lon="2.81763">
        <ele>161</ele>
        <time>2021-07-07T00:28:21Z</time>
      </trkpt>
      <trkpt lat="47.54303" lon="2.81788">
        <ele>161</ele>
        <time>2021-07-07T00:28:26Z</time>
      </trkpt>
      <trkpt lat="47.54312" lon="2.81791">
        <ele>161</ele>
        <time>2021-07-07T00:28:28Z</time>
      </trkpt>
      <trkpt lat="47.54321" lon="2.81788">
        <ele>161</ele>
        <time>2021-07-07T00:28:30Z</time>
      </trkpt>
      <trkpt lat="47.54334" lon="2.81783">
        <ele>161</ele>
        <time>2021-07-07T00:28:32Z</time>
      </trkpt>
      <trkpt lat="47.54349" lon="2.81775">
        <ele>161</ele>
        <time>2021-07-07T00:28:35Z</time>
      </trkpt>
      <trkpt lat="47.54356" lon="2.81781">
        <ele>161</ele>
        <time>2021-07-07T00:28:36Z</time>
      </trkpt>
      <trkpt lat="47.5438" lon="2.81837">
        <ele>159</ele>
        <time>2021-07-07T00:28:44Z</time>
      </trkpt>
      <trkpt lat="47.54384" lon="2.81853">
        <ele>157</ele>
        <time>2021-07-07T00:28:46Z</time>
      </trkpt>
      <trkpt lat="47.54385" lon="2.81869">
        <ele>155</ele>
        <time>2021-07-07T00:28:48Z</time>
      </trkpt>
      <trkpt lat="47.5438" lon="2.81933">
        <ele>149</ele>
        <time>2021-07-07T00:28:56Z</time>
      </trkpt>
      <trkpt lat="47.54377" lon="2.81954">
        <ele>147</ele>
        <time>2021-07-07T00:28:59Z</time>
      </trkpt>
      <trkpt lat="47.54371" lon="2.81981">
        <ele>145</ele>
        <time>2021-07-07T00:29:02Z</time>
      </trkpt>
      <trkpt lat="47.54356" lon="2.82027">
        <ele>143</ele>
        <time>2021-07-07T00:29:08Z</time>
      </trkpt>
      <trkpt lat="47.54349" lon="2.82048">
        <ele>141</ele>
        <time>2021-07-07T00:29:11Z</time>
      </trkpt>
      <trkpt lat="47.54348" lon="2.82057">
        <ele>140</ele>
        <time>2021-07-07T00:29:12Z</time>
      </trkpt>
      <trkpt lat="47.54348" lon="2.82065">
        <ele>139</ele>
        <time>2021-07-07T00:29:13Z</time>
      </trkpt>
      <trkpt lat="47.54349" lon="2.82073">
        <ele>139</ele>
        <time>2021-07-07T00:29:14Z</time>
      </trkpt>
      <trkpt lat="47.54366" lon="2.82105">
        <ele>136</ele>
        <time>2021-07-07T00:29:19Z</time>
      </trkpt>
      <trkpt lat="47.54598" lon="2.82521">
        <ele>131</ele>
        <time>2021-07-07T00:30:24Z</time>
      </trkpt>
      <trkpt lat="47.54781" lon="2.82854">
        <ele>132</ele>
        <time>2021-07-07T00:31:15Z</time>
      </trkpt>
      <trkpt lat="47.54788" lon="2.82866">
        <ele>132</ele>
        <time>2021-07-07T00:31:17Z</time>
      </trkpt>
      <trkpt lat="47.54814" lon="2.82915">
        <ele>133</ele>
        <time>2021-07-07T00:31:25Z</time>
      </trkpt>
      <trkpt lat="47.54858" lon="2.82992">
        <ele>134</ele>
        <time>2021-07-07T00:31:37Z</time>
      </trkpt>
      <trkpt lat="47.54895" lon="2.83064">
        <ele>132</ele>
        <time>2021-07-07T00:31:48Z</time>
      </trkpt>
      <trkpt lat="47.54909" lon="2.83095">
        <ele>132</ele>
        <time>2021-07-07T00:31:52Z</time>
      </trkpt>
      <trkpt lat="47.54922" lon="2.83129">
        <ele>133</ele>
        <time>2021-07-07T00:31:57Z</time>
      </trkpt>
      <trkpt lat="47.54971" lon="2.83294">
        <ele>131</ele>
        <time>2021-07-07T00:32:19Z</time>
      </trkpt>
      <trkpt lat="47.55099" lon="2.83734">
        <ele>135</ele>
        <time>2021-07-07T00:33:16Z</time>
      </trkpt>
      <trkpt lat="47.55157" lon="2.83938">
        <ele>134</ele>
        <time>2021-07-07T00:33:43Z</time>
      </trkpt>
      <trkpt lat="47.55162" lon="2.83952">
        <ele>134</ele>
        <time>2021-07-07T00:33:45Z</time>
      </trkpt>
      <trkpt lat="47.55175" lon="2.83978">
        <ele>134</ele>
        <time>2021-07-07T00:33:48Z</time>
      </trkpt>
      <trkpt lat="47.55209" lon="2.84029">
        <ele>134</ele>
        <time>2021-07-07T00:33:57Z</time>
      </trkpt>
      <trkpt lat="47.55225" lon="2.84048">
        <ele>134</ele>
        <time>2021-07-07T00:34:01Z</time>
      </trkpt>
      <trkpt lat="47.55235" lon="2.84059">
        <ele>134</ele>
        <time>2021-07-07T00:34:03Z</time>
      </trkpt>
      <trkpt lat="47.55328" lon="2.84159">
        <ele>132</ele>
        <time>2021-07-07T00:34:23Z</time>
      </trkpt>
      <trkpt lat="47.55348" lon="2.84188">
        <ele>133</ele>
        <time>2021-07-07T00:34:28Z</time>
      </trkpt>
      <trkpt lat="47.55363" lon="2.84205">
        <ele>133</ele>
        <time>2021-07-07T00:34:32Z</time>
      </trkpt>
      <trkpt lat="47.55373" lon="2.84215">
        <ele>134</ele>
        <time>2021-07-07T00:34:34Z</time>
      </trkpt>
      <trkpt lat="47.5542" lon="2.84265">
        <ele>136</ele>
        <time>2021-07-07T00:34:44Z</time>
      </trkpt>
      <trkpt lat="47.55434" lon="2.84282">
        <ele>135</ele>
        <time>2021-07-07T00:34:47Z</time>
      </trkpt>
      <trkpt lat="47.55448" lon="2.84294">
        <ele>135</ele>
        <time>2021-07-07T00:34:50Z</time>
      </trkpt>
      <trkpt lat="47.55456" lon="2.84299">
        <ele>135</ele>
        <time>2021-07-07T00:34:52Z</time>
      </trkpt>
      <trkpt lat="47.55472" lon="2.84316">
        <ele>134</ele>
        <time>2021-07-07T00:34:55Z</time>
      </trkpt>
      <trkpt lat="47.55484" lon="2.8433">
        <ele>134</ele>
        <time>2021-07-07T00:34:58Z</time>
      </trkpt>
      <trkpt lat="47.55538" lon="2.8439">
        <ele>135</ele>
        <time>2021-07-07T00:35:10Z</time>
      </trkpt>
      <trkpt lat="47.55552" lon="2.84405">
        <ele>136</ele>
        <time>2021-07-07T00:35:13Z</time>
      </trkpt>
      <trkpt lat="47.55555" lon="2.84408">
        <ele>136</ele>
        <time>2021-07-07T00:35:14Z</time>
      </trkpt>
      <trkpt lat="47.55564" lon="2.84417">
        <ele>136</ele>
        <time>2021-07-07T00:35:16Z</time>
      </trkpt>
      <trkpt lat="47.55595" lon="2.84451">
        <ele>138</ele>
        <time>2021-07-07T00:35:23Z</time>
      </trkpt>
      <trkpt lat="47.55603" lon="2.84464">
        <ele>139</ele>
        <time>2021-07-07T00:35:25Z</time>
      </trkpt>
      <trkpt lat="47.55605" lon="2.84467">
        <ele>139</ele>
        <time>2021-07-07T00:35:25Z</time>
      </trkpt>
      <trkpt lat="47.55693" lon="2.84334">
        <ele>138</ele>
        <time>2021-07-07T00:35:47Z</time>
      </trkpt>
      <trkpt lat="47.55727" lon="2.84283">
        <ele>138</ele>
        <time>2021-07-07T00:35:56Z</time>
      </trkpt>
      <trkpt lat="47.5577" lon="2.84217">
        <ele>139</ele>
        <time>2021-07-07T00:36:07Z</time>
      </trkpt>
      <trkpt lat="47.55778" lon="2.84204">
        <ele>139</ele>
        <time>2021-07-07T00:36:09Z</time>
      </trkpt>
      <trkpt lat="47.55815" lon="2.84148">
        <ele>138</ele>
        <time>2021-07-07T00:36:19Z</time>
      </trkpt>
      <trkpt lat="47.55847" lon="2.84107">
        <ele>139</ele>
        <time>2021-07-07T00:36:26Z</time>
      </trkpt>
      <trkpt lat="47.55851" lon="2.84102">
        <ele>139</ele>
        <time>2021-07-07T00:36:27Z</time>
      </trkpt>
      <trkpt lat="47.55856" lon="2.84096">
        <ele>139</ele>
        <time>2021-07-07T00:36:28Z</time>
      </trkpt>
      <trkpt lat="47.55877" lon="2.84072">
        <ele>140</ele>
        <time>2021-07-07T00:36:33Z</time>
      </trkpt>
      <trkpt lat="47.55901" lon="2.84048">
        <ele>140</ele>
        <time>2021-07-07T00:36:38Z</time>
      </trkpt>
      <trkpt lat="47.55914" lon="2.84039">
        <ele>140</ele>
        <time>2021-07-07T00:36:41Z</time>
      </trkpt>
      <trkpt lat="47.55919" lon="2.84035">
        <ele>140</ele>
        <time>2021-07-07T00:36:42Z</time>
      </trkpt>
      <trkpt lat="47.55904" lon="2.83991">
        <ele>138</ele>
        <time>2021-07-07T00:36:48Z</time>
      </trkpt>
      <trkpt lat="47.559" lon="2.83976">
        <ele>138</ele>
        <time>2021-07-07T00:36:50Z</time>
      </trkpt>
      <trkpt lat="47.55921" lon="2.8397">
        <ele>138</ele>
        <time>2021-07-07T00:36:53Z</time>
      </trkpt>
      <trkpt lat="47.55943" lon="2.83953">
        <ele>139</ele>
        <time>2021-07-07T00:36:58Z</time>
      </trkpt>
      <trkpt lat="47.55957" lon="2.83938">
        <ele>138</ele>
        <time>2021-07-07T00:37:01Z</time>
      </trkpt>
      <trkpt lat="47.55963" lon="2.83932">
        <ele>138</ele>
        <time>2021-07-07T00:37:02Z</time>
      </trkpt>
      <trkpt lat="47.55988" lon="2.83906">
        <ele>137</ele>
        <time>2021-07-07T00:37:08Z</time>
      </trkpt>
      <trkpt lat="47.56044" lon="2.83855">
        <ele>136</ele>
        <time>2021-07-07T00:37:19Z</time>
      </trkpt>
      <trkpt lat="47.56056" lon="2.83839">
        <ele>136</ele>
        <time>2021-07-07T00:37:22Z</time>
      </trkpt>
      <trkpt lat="47.56059" lon="2.83835">
        <ele>136</ele>
        <time>2021-07-07T00:37:23Z</time>
      </trkpt>
      <trkpt lat="47.56067" lon="2.83824">
        <ele>136</ele>
        <time>2021-07-07T00:37:25Z</time>
      </trkpt>
      <trkpt lat="47.56115" lon="2.83751">
        <ele>135</ele>
        <time>2021-07-07T00:37:37Z</time>
      </trkpt>
      <trkpt lat="47.56132" lon="2.83742">
        <ele>135</ele>
        <time>2021-07-07T00:37:40Z</time>
      </trkpt>
      <trkpt lat="47.56148" lon="2.83736">
        <ele>136</ele>
        <time>2021-07-07T00:37:43Z</time>
      </trkpt>
      <trkpt lat="47.56157" lon="2.83732">
        <ele>136</ele>
        <time>2021-07-07T00:37:45Z</time>
      </trkpt>
      <trkpt lat="47.56167" lon="2.83725">
        <ele>136</ele>
        <time>2021-07-07T00:37:47Z</time>
      </trkpt>
      <trkpt lat="47.5618" lon="2.83708">
        <ele>137</ele>
        <time>2021-07-07T00:37:50Z</time>
      </trkpt>
      <trkpt lat="47.56198" lon="2.83676">
        <ele>137</ele>
        <time>2021-07-07T00:37:55Z</time>
      </trkpt>
      <trkpt lat="47.56221" lon="2.83635">
        <ele>138</ele>
        <time>2021-07-07T00:38:01Z</time>
      </trkpt>
      <trkpt lat="47.5626" lon="2.83553">
        <ele>137</ele>
        <time>2021-07-07T00:38:13Z</time>
      </trkpt>
      <trkpt lat="47.56273" lon="2.8351">
        <ele>136</ele>
        <time>2021-07-07T00:38:19Z</time>
      </trkpt>
      <trkpt lat="47.56281" lon="2.83491">
        <ele>136</ele>
        <time>2021-07-07T00:38:22Z</time>
      </trkpt>
      <trkpt lat="47.56309" lon="2.83445">
        <ele>136</ele>
        <time>2021-07-07T00:38:29Z</time>
      </trkpt>
      <trkpt lat="47.56315" lon="2.83429">
        <ele>136</ele>
        <time>2021-07-07T00:38:31Z</time>
      </trkpt>
      <trkpt lat="47.56318" lon="2.83402">
        <ele>135</ele>
        <time>2021-07-07T00:38:35Z</time>
      </trkpt>
      <trkpt lat="47.56337" lon="2.83323">
        <ele>134</ele>
        <time>2021-07-07T00:38:45Z</time>
      </trkpt>
      <trkpt lat="47.56348" lon="2.83296">
        <ele>134</ele>
        <time>2021-07-07T00:38:48Z</time>
      </trkpt>
      <trkpt lat="47.56358" lon="2.83289">
        <ele>135</ele>
        <time>2021-07-07T00:38:50Z</time>
      </trkpt>
      <trkpt lat="47.56383" lon="2.83285">
        <ele>136</ele>
        <time>2021-07-07T00:38:55Z</time>
      </trkpt>
      <trkpt lat="47.56391" lon="2.83282">
        <ele>136</ele>
        <time>2021-07-07T00:38:56Z</time>
      </trkpt>
      <trkpt lat="47.564" lon="2.83276">
        <ele>136</ele>
        <time>2021-07-07T00:38:58Z</time>
      </trkpt>
      <trkpt lat="47.56407" lon="2.83268">
        <ele>136</ele>
        <time>2021-07-07T00:39:00Z</time>
      </trkpt>
      <trkpt lat="47.5662" lon="2.8297">
        <ele>136</ele>
        <time>2021-07-07T00:39:52Z</time>
      </trkpt>
      <trkpt lat="47.56825" lon="2.82689">
        <ele>136</ele>
        <time>2021-07-07T00:40:42Z</time>
      </trkpt>
      <trkpt lat="47.56963" lon="2.82457">
        <ele>134</ele>
        <time>2021-07-07T00:41:19Z</time>
      </trkpt>
      <trkpt lat="47.57173" lon="2.82198">
        <ele>139</ele>
        <time>2021-07-07T00:42:07Z</time>
      </trkpt>
      <trkpt lat="47.57204" lon="2.82152">
        <ele>141</ele>
        <time>2021-07-07T00:42:15Z</time>
      </trkpt>
      <trkpt lat="47.57378" lon="2.81844">
        <ele>139</ele>
        <time>2021-07-07T00:43:03Z</time>
      </trkpt>
      <trkpt lat="47.57425" lon="2.81789">
        <ele>138</ele>
        <time>2021-07-07T00:43:14Z</time>
      </trkpt>
      <trkpt lat="47.57438" lon="2.81769">
        <ele>138</ele>
        <time>2021-07-07T00:43:17Z</time>
      </trkpt>
      <trkpt lat="47.57458" lon="2.81726">
        <ele>138</ele>
        <time>2021-07-07T00:43:24Z</time>
      </trkpt>
      <trkpt lat="47.57479" lon="2.81661">
        <ele>138</ele>
        <time>2021-07-07T00:43:32Z</time>
      </trkpt>
      <trkpt lat="47.57502" lon="2.81621">
        <ele>137</ele>
        <time>2021-07-07T00:43:38Z</time>
      </trkpt>
      <trkpt lat="47.57537" lon="2.81567">
        <ele>138</ele>
        <time>2021-07-07T00:43:47Z</time>
      </trkpt>
      <trkpt lat="47.57651" lon="2.814">
        <ele>138</ele>
        <time>2021-07-07T00:44:16Z</time>
      </trkpt>
      <trkpt lat="47.57676" lon="2.81369">
        <ele>138</ele>
        <time>2021-07-07T00:44:22Z</time>
      </trkpt>
      <trkpt lat="47.57722" lon="2.81321">
        <ele>138</ele>
        <time>2021-07-07T00:44:32Z</time>
      </trkpt>
      <trkpt lat="47.57764" lon="2.81241">
        <ele>136</ele>
        <time>2021-07-07T00:44:44Z</time>
      </trkpt>
      <trkpt lat="47.57797" lon="2.81186">
        <ele>136</ele>
        <time>2021-07-07T00:44:53Z</time>
      </trkpt>
      <trkpt lat="47.5788" lon="2.8104">
        <ele>136</ele>
        <time>2021-07-07T00:45:16Z</time>
      </trkpt>
      <trkpt lat="47.57941" lon="2.80941">
        <ele>135</ele>
        <time>2021-07-07T00:45:32Z</time>
      </trkpt>
      <trkpt lat="47.57946" lon="2.80926">
        <ele>134</ele>
        <time>2021-07-07T00:45:34Z</time>
      </trkpt>
      <trkpt lat="47.57964" lon="2.80887">
        <ele>133</ele>
        <time>2021-07-07T00:45:39Z</time>
      </trkpt>
      <trkpt lat="47.57989" lon="2.80847">
        <ele>132</ele>
        <time>2021-07-07T00:45:46Z</time>
      </trkpt>
      <trkpt lat="47.58033" lon="2.80753">
        <ele>133</ele>
        <time>2021-07-07T00:46:00Z</time>
      </trkpt>
      <trkpt lat="47.58133" lon="2.80522">
        <ele>133</ele>
        <time>2021-07-07T00:46:33Z</time>
      </trkpt>
      <trkpt lat="47.5826" lon="2.80266">
        <ele>134</ele>
        <time>2021-07-07T00:47:11Z</time>
      </trkpt>
      <trkpt lat="47.5835" lon="2.80034">
        <ele>135</ele>
        <time>2021-07-07T00:47:43Z</time>
      </trkpt>
      <trkpt lat="47.58381" lon="2.79949">
        <ele>134</ele>
        <time>2021-07-07T00:47:55Z</time>
      </trkpt>
      <trkpt lat="47.5841" lon="2.7986">
        <ele>132</ele>
        <time>2021-07-07T00:48:06Z</time>
      </trkpt>
      <trkpt lat="47.58435" lon="2.79801">
        <ele>133</ele>
        <time>2021-07-07T00:48:15Z</time>
      </trkpt>
      <trkpt lat="47.58474" lon="2.79691">
        <ele>135</ele>
        <time>2021-07-07T00:48:30Z</time>
      </trkpt>
      <trkpt lat="47.58482" lon="2.79665">
        <ele>135</ele>
        <time>2021-07-07T00:48:33Z</time>
      </trkpt>
      <trkpt lat="47.58492" lon="2.79633">
        <ele>134</ele>
        <time>2021-07-07T00:48:37Z</time>
      </trkpt>
      <trkpt lat="47.58538" lon="2.79536">
        <ele>134</ele>
        <time>2021-07-07T00:48:52Z</time>
      </trkpt>
      <trkpt lat="47.58579" lon="2.79443">
        <ele>135</ele>
        <time>2021-07-07T00:49:05Z</time>
      </trkpt>
      <trkpt lat="47.58631" lon="2.79315">
        <ele>135</ele>
        <time>2021-07-07T00:49:23Z</time>
      </trkpt>
      <trkpt lat="47.58649" lon="2.79233">
        <ele>134</ele>
        <time>2021-07-07T00:49:33Z</time>
      </trkpt>
      <trkpt lat="47.58672" lon="2.79174">
        <ele>134</ele>
        <time>2021-07-07T00:49:41Z</time>
      </trkpt>
      <trkpt lat="47.58729" lon="2.78982">
        <ele>133</ele>
        <time>2021-07-07T00:50:07Z</time>
      </trkpt>
      <trkpt lat="47.58732" lon="2.78973">
        <ele>133</ele>
        <time>2021-07-07T00:50:08Z</time>
      </trkpt>
      <trkpt lat="47.58758" lon="2.78868">
        <ele>132</ele>
        <time>2021-07-07T00:50:21Z</time>
      </trkpt>
      <trkpt lat="47.58776" lon="2.78797">
        <ele>132</ele>
        <time>2021-07-07T00:50:30Z</time>
      </trkpt>
      <trkpt lat="47.58778" lon="2.78791">
        <ele>133</ele>
        <time>2021-07-07T00:50:31Z</time>
      </trkpt>
      <trkpt lat="47.58779" lon="2.78784">
        <ele>133</ele>
        <time>2021-07-07T00:50:32Z</time>
      </trkpt>
      <trkpt lat="47.58787" lon="2.78748">
        <ele>133</ele>
        <time>2021-07-07T00:50:37Z</time>
      </trkpt>
      <trkpt lat="47.58788" lon="2.78717">
        <ele>133</ele>
        <time>2021-07-07T00:50:40Z</time>
      </trkpt>
      <trkpt lat="47.58786" lon="2.78679">
        <ele>133</ele>
        <time>2021-07-07T00:50:45Z</time>
      </trkpt>
      <trkpt lat="47.58788" lon="2.78648">
        <ele>133</ele>
        <time>2021-07-07T00:50:49Z</time>
      </trkpt>
      <trkpt lat="47.58794" lon="2.78596">
        <ele>132</ele>
        <time>2021-07-07T00:50:55Z</time>
      </trkpt>
      <trkpt lat="47.58808" lon="2.7855">
        <ele>133</ele>
        <time>2021-07-07T00:51:01Z</time>
      </trkpt>
      <trkpt lat="47.5883" lon="2.78477">
        <ele>133</ele>
        <time>2021-07-07T00:51:11Z</time>
      </trkpt>
      <trkpt lat="47.58853" lon="2.7842">
        <ele>131</ele>
        <time>2021-07-07T00:51:19Z</time>
      </trkpt>
      <trkpt lat="47.58865" lon="2.78384">
        <ele>130</ele>
        <time>2021-07-07T00:51:23Z</time>
      </trkpt>
      <trkpt lat="47.5888" lon="2.78347">
        <ele>130</ele>
        <time>2021-07-07T00:51:29Z</time>
      </trkpt>
      <trkpt lat="47.58932" lon="2.78217">
        <ele>129</ele>
        <time>2021-07-07T00:51:47Z</time>
      </trkpt>
      <trkpt lat="47.58996" lon="2.78089">
        <ele>130</ele>
        <time>2021-07-07T00:52:06Z</time>
      </trkpt>
      <trkpt lat="47.59016" lon="2.7805">
        <ele>131</ele>
        <time>2021-07-07T00:52:12Z</time>
      </trkpt>
      <trkpt lat="47.5903" lon="2.78027">
        <ele>133</ele>
        <time>2021-07-07T00:52:15Z</time>
      </trkpt>
      <trkpt lat="47.59033" lon="2.78024">
        <ele>133</ele>
        <time>2021-07-07T00:52:16Z</time>
      </trkpt>
      <trkpt lat="47.59112" lon="2.78109">
        <ele>137</ele>
        <time>2021-07-07T00:52:33Z</time>
      </trkpt>
      <trkpt lat="47.5913" lon="2.78067">
        <ele>137</ele>
        <time>2021-07-07T00:52:39Z</time>
      </trkpt>
      <trkpt lat="47.5917" lon="2.77996">
        <ele>138</ele>
        <time>2021-07-07T00:52:50Z</time>
      </trkpt>
      <trkpt lat="47.59237" lon="2.77887">
        <ele>138</ele>
        <time>2021-07-07T00:53:08Z</time>
      </trkpt>
      <trkpt lat="47.59279" lon="2.77825">
        <ele>138</ele>
        <time>2021-07-07T00:53:19Z</time>
      </trkpt>
      <trkpt lat="47.59367" lon="2.77735">
        <ele>139</ele>
        <time>2021-07-07T00:53:38Z</time>
      </trkpt>
      <trkpt lat="47.59388" lon="2.7771">
        <ele>138</ele>
        <time>2021-07-07T00:53:42Z</time>
      </trkpt>
      <trkpt lat="47.59406" lon="2.7768">
        <ele>138</ele>
        <time>2021-07-07T00:53:47Z</time>
      </trkpt>
      <trkpt lat="47.59424" lon="2.77646">
        <ele>138</ele>
        <time>2021-07-07T00:53:53Z</time>
      </trkpt>
      <trkpt lat="47.59448" lon="2.77588">
        <ele>137</ele>
        <time>2021-07-07T00:54:01Z</time>
      </trkpt>
      <trkpt lat="47.5946" lon="2.77567">
        <ele>137</ele>
        <time>2021-07-07T00:54:04Z</time>
      </trkpt>
      <trkpt lat="47.59593" lon="2.77383">
        <ele>139</ele>
        <time>2021-07-07T00:54:36Z</time>
      </trkpt>
      <trkpt lat="47.59659" lon="2.77269">
        <ele>139</ele>
        <time>2021-07-07T00:54:54Z</time>
      </trkpt>
      <trkpt lat="47.5979" lon="2.77074">
        <ele>140</ele>
        <time>2021-07-07T00:55:27Z</time>
      </trkpt>
      <trkpt lat="47.59944" lon="2.76924">
        <ele>137</ele>
        <time>2021-07-07T00:56:00Z</time>
      </trkpt>
      <trkpt lat="47.60048" lon="2.76782">
        <ele>136</ele>
        <time>2021-07-07T00:56:25Z</time>
      </trkpt>
      <trkpt lat="47.60115" lon="2.76696">
        <ele>134</ele>
        <time>2021-07-07T00:56:41Z</time>
      </trkpt>
      <trkpt lat="47.60239" lon="2.76549">
        <ele>132</ele>
        <time>2021-07-07T00:57:09Z</time>
      </trkpt>
      <trkpt lat="47.60357" lon="2.76443">
        <ele>133</ele>
        <time>2021-07-07T00:57:34Z</time>
      </trkpt>
      <trkpt lat="47.6052" lon="2.76302">
        <ele>137</ele>
        <time>2021-07-07T00:58:07Z</time>
      </trkpt>
      <trkpt lat="47.60732" lon="2.76148">
        <ele>139</ele>
        <time>2021-07-07T00:58:49Z</time>
      </trkpt>
      <trkpt lat="47.61581" lon="2.75523">
        <ele>140</ele>
        <time>2021-07-07T01:01:38Z</time>
      </trkpt>
      <trkpt lat="47.61942" lon="2.75264">
        <ele>140</ele>
        <time>2021-07-07T01:02:49Z</time>
      </trkpt>
      <trkpt lat="47.62343" lon="2.75135">
        <ele>136</ele>
        <time>2021-07-07T01:04:02Z</time>
      </trkpt>
      <trkpt lat="47.62389" lon="2.75115">
        <ele>135</ele>
        <time>2021-07-07T01:04:11Z</time>
      </trkpt>
      <trkpt lat="47.62627" lon="2.74959">
        <ele>137</ele>
        <time>2021-07-07T01:04:57Z</time>
      </trkpt>
      <trkpt lat="47.62677" lon="2.74924">
        <ele>136</ele>
        <time>2021-07-07T01:05:07Z</time>
      </trkpt>
      <trkpt lat="47.62703" lon="2.74902">
        <ele>137</ele>
        <time>2021-07-07T01:05:12Z</time>
      </trkpt>
      <trkpt lat="47.62809" lon="2.74801">
        <ele>138</ele>
        <time>2021-07-07T01:05:35Z</time>
      </trkpt>
      <trkpt lat="47.62995" lon="2.74618">
        <ele>140</ele>
        <time>2021-07-07T01:06:15Z</time>
      </trkpt>
      <trkpt lat="47.63023" lon="2.74597">
        <ele>140</ele>
        <time>2021-07-07T01:06:20Z</time>
      </trkpt>
      <trkpt lat="47.63032" lon="2.74597">
        <ele>140</ele>
        <time>2021-07-07T01:06:22Z</time>
      </trkpt>
      <trkpt lat="47.63043" lon="2.74572">
        <ele>140</ele>
        <time>2021-07-07T01:06:25Z</time>
      </trkpt>
      <trkpt lat="47.63054" lon="2.74574">
        <ele>140</ele>
        <time>2021-07-07T01:06:27Z</time>
      </trkpt>
      <trkpt lat="47.63061" lon="2.74572">
        <ele>140</ele>
        <time>2021-07-07T01:06:29Z</time>
      </trkpt>
      <trkpt lat="47.63195" lon="2.74495">
        <ele>140</ele>
        <time>2021-07-07T01:06:54Z</time>
      </trkpt>
      <trkpt lat="47.63388" lon="2.74411">
        <ele>140</ele>
        <time>2021-07-07T01:07:30Z</time>
      </trkpt>
      <trkpt lat="47.63399" lon="2.7441">
        <ele>140</ele>
        <time>2021-07-07T01:07:32Z</time>
      </trkpt>
      <trkpt lat="47.63409" lon="2.74418">
        <ele>140</ele>
        <time>2021-07-07T01:07:34Z</time>
      </trkpt>
      <trkpt lat="47.63417" lon="2.74409">
        <ele>140</ele>
        <time>2021-07-07T01:07:36Z</time>
      </trkpt>
      <trkpt lat="47.63432" lon="2.7439">
        <ele>140</ele>
        <time>2021-07-07T01:07:39Z</time>
      </trkpt>
      <trkpt lat="47.63453" lon="2.74365">
        <ele>140</ele>
        <time>2021-07-07T01:07:44Z</time>
      </trkpt>
      <trkpt lat="47.63513" lon="2.74295">
        <ele>140</ele>
        <time>2021-07-07T01:07:58Z</time>
      </trkpt>
      <trkpt lat="47.63522" lon="2.74285">
        <ele>140</ele>
        <time>2021-07-07T01:08:00Z</time>
      </trkpt>
      <trkpt lat="47.63538" lon="2.74266">
        <ele>140</ele>
        <time>2021-07-07T01:08:03Z</time>
      </trkpt>
      <trkpt lat="47.63571" lon="2.74226">
        <ele>139</ele>
        <time>2021-07-07T01:08:11Z</time>
      </trkpt>
      <trkpt lat="47.6358" lon="2.74215">
        <ele>139</ele>
        <time>2021-07-07T01:08:13Z</time>
      </trkpt>
      <trkpt lat="47.63597" lon="2.74194">
        <ele>139</ele>
        <time>2021-07-07T01:08:17Z</time>
      </trkpt>
      <trkpt lat="47.63677" lon="2.74098">
        <ele>138</ele>
        <time>2021-07-07T01:08:35Z</time>
      </trkpt>
      <trkpt lat="47.63786" lon="2.73976">
        <ele>136</ele>
        <time>2021-07-07T01:08:59Z</time>
      </trkpt>
      <trkpt lat="47.63982" lon="2.73752">
        <ele>130</ele>
        <time>2021-07-07T01:09:43Z</time>
      </trkpt>
      <trkpt lat="47.64023" lon="2.73707">
        <ele>131</ele>
        <time>2021-07-07T01:09:52Z</time>
      </trkpt>
      <trkpt lat="47.64041" lon="2.73687">
        <ele>132</ele>
        <time>2021-07-07T01:09:56Z</time>
      </trkpt>
      <trkpt lat="47.64048" lon="2.73679">
        <ele>133</ele>
        <time>2021-07-07T01:09:58Z</time>
      </trkpt>
      <trkpt lat="47.6405" lon="2.73677">
        <ele>133</ele>
        <time>2021-07-07T01:09:58Z</time>
      </trkpt>
      <trkpt lat="47.64056" lon="2.73669">
        <ele>134</ele>
        <time>2021-07-07T01:10:00Z</time>
      </trkpt>
      <trkpt lat="47.64064" lon="2.7366">
        <ele>134</ele>
        <time>2021-07-07T01:10:02Z</time>
      </trkpt>
      <trkpt lat="47.64071" lon="2.73653">
        <ele>134</ele>
        <time>2021-07-07T01:10:03Z</time>
      </trkpt>
      <trkpt lat="47.64108" lon="2.73612">
        <ele>135</ele>
        <time>2021-07-07T01:10:11Z</time>
      </trkpt>
      <trkpt lat="47.64129" lon="2.73595">
        <ele>136</ele>
        <time>2021-07-07T01:10:16Z</time>
      </trkpt>
      <trkpt lat="47.64213" lon="2.7354">
        <ele>137</ele>
        <time>2021-07-07T01:10:32Z</time>
      </trkpt>
      <trkpt lat="47.64291" lon="2.7349">
        <ele>139</ele>
        <time>2021-07-07T01:10:47Z</time>
      </trkpt>
      <trkpt lat="47.64302" lon="2.73483">
        <ele>140</ele>
        <time>2021-07-07T01:10:49Z</time>
      </trkpt>
      <trkpt lat="47.64319" lon="2.73471">
        <ele>140</ele>
        <time>2021-07-07T01:10:53Z</time>
      </trkpt>
      <trkpt lat="47.64328" lon="2.73464">
        <ele>140</ele>
        <time>2021-07-07T01:10:54Z</time>
      </trkpt>
      <trkpt lat="47.64348" lon="2.73455">
        <ele>140</ele>
        <time>2021-07-07T01:10:58Z</time>
      </trkpt>
      <trkpt lat="47.64356" lon="2.73452">
        <ele>140</ele>
        <time>2021-07-07T01:11:00Z</time>
      </trkpt>
      <trkpt lat="47.64359" lon="2.73455">
        <ele>141</ele>
        <time>2021-07-07T01:11:00Z</time>
      </trkpt>
      <trkpt lat="47.64362" lon="2.73457">
        <ele>141</ele>
        <time>2021-07-07T01:11:01Z</time>
      </trkpt>
      <trkpt lat="47.64366" lon="2.73457">
        <ele>141</ele>
        <time>2021-07-07T01:11:02Z</time>
      </trkpt>
      <trkpt lat="47.6437" lon="2.73455">
        <ele>141</ele>
        <time>2021-07-07T01:11:02Z</time>
      </trkpt>
      <trkpt lat="47.64375" lon="2.73447">
        <ele>141</ele>
        <time>2021-07-07T01:11:04Z</time>
      </trkpt>
      <trkpt lat="47.64376" lon="2.73441">
        <ele>140</ele>
        <time>2021-07-07T01:11:04Z</time>
      </trkpt>
      <trkpt lat="47.64376" lon="2.73436">
        <ele>140</ele>
        <time>2021-07-07T01:11:05Z</time>
      </trkpt>
      <trkpt lat="47.64373" lon="2.73426">
        <ele>139</ele>
        <time>2021-07-07T01:11:06Z</time>
      </trkpt>
      <trkpt lat="47.6437" lon="2.73423">
        <ele>139</ele>
        <time>2021-07-07T01:11:07Z</time>
      </trkpt>
      <trkpt lat="47.64373" lon="2.73413">
        <ele>138</ele>
        <time>2021-07-07T01:11:08Z</time>
      </trkpt>
      <trkpt lat="47.64381" lon="2.734">
        <ele>138</ele>
        <time>2021-07-07T01:11:10Z</time>
      </trkpt>
      <trkpt lat="47.64467" lon="2.73304">
        <ele>137</ele>
        <time>2021-07-07T01:11:29Z</time>
      </trkpt>
      <trkpt lat="47.64479" lon="2.73289">
        <ele>137</ele>
        <time>2021-07-07T01:11:32Z</time>
      </trkpt>
      <trkpt lat="47.64486" lon="2.73279">
        <ele>137</ele>
        <time>2021-07-07T01:11:34Z</time>
      </trkpt>
      <trkpt lat="47.64532" lon="2.73227">
        <ele>136</ele>
        <time>2021-07-07T01:11:44Z</time>
      </trkpt>
      <trkpt lat="47.64541" lon="2.73217">
        <ele>136</ele>
        <time>2021-07-07T01:11:46Z</time>
      </trkpt>
      <trkpt lat="47.64547" lon="2.7321">
        <ele>136</ele>
        <time>2021-07-07T01:11:48Z</time>
      </trkpt>
      <trkpt lat="47.64586" lon="2.73165">
        <ele>135</ele>
        <time>2021-07-07T01:11:56Z</time>
      </trkpt>
      <trkpt lat="47.64644" lon="2.73099">
        <ele>135</ele>
        <time>2021-07-07T01:12:09Z</time>
      </trkpt>
      <trkpt lat="47.64694" lon="2.73043">
        <ele>136</ele>
        <time>2021-07-07T01:12:21Z</time>
      </trkpt>
      <trkpt lat="47.6472" lon="2.73012">
        <ele>136</ele>
        <time>2021-07-07T01:12:27Z</time>
      </trkpt>
      <trkpt lat="47.64807" lon="2.72905">
        <ele>136</ele>
        <time>2021-07-07T01:12:47Z</time>
      </trkpt>
      <trkpt lat="47.64823" lon="2.72885">
        <ele>136</ele>
        <time>2021-07-07T01:12:50Z</time>
      </trkpt>
      <trkpt lat="47.65067" lon="2.72607">
        <ele>135</ele>
        <time>2021-07-07T01:13:45Z</time>
      </trkpt>
      <trkpt lat="47.65147" lon="2.72515">
        <ele>133</ele>
        <time>2021-07-07T01:14:03Z</time>
      </trkpt>
      <trkpt lat="47.65153" lon="2.72508">
        <ele>132</ele>
        <time>2021-07-07T01:14:04Z</time>
      </trkpt>
      <trkpt lat="47.65166" lon="2.72495">
        <ele>132</ele>
        <time>2021-07-07T01:14:07Z</time>
      </trkpt>
      <trkpt lat="47.65332" lon="2.72298">
        <ele>134</ele>
        <time>2021-07-07T01:14:45Z</time>
      </trkpt>
      <trkpt lat="47.65369" lon="2.72256">
        <ele>134</ele>
        <time>2021-07-07T01:14:53Z</time>
      </trkpt>
      <trkpt lat="47.65519" lon="2.72083">
        <ele>132</ele>
        <time>2021-07-07T01:15:27Z</time>
      </trkpt>
      <trkpt lat="47.65533" lon="2.72063">
        <ele>133</ele>
        <time>2021-07-07T01:15:31Z</time>
      </trkpt>
      <trkpt lat="47.65544" lon="2.72043">
        <ele>133</ele>
        <time>2021-07-07T01:15:34Z</time>
      </trkpt>
      <trkpt lat="47.65627" lon="2.71879">
        <ele>132</ele>
        <time>2021-07-07T01:15:58Z</time>
      </trkpt>
      <trkpt lat="47.65676" lon="2.71781">
        <ele>131</ele>
        <time>2021-07-07T01:16:13Z</time>
      </trkpt>
      <trkpt lat="47.65686" lon="2.71761">
        <ele>132</ele>
        <time>2021-07-07T01:16:16Z</time>
      </trkpt>
      <trkpt lat="47.65835" lon="2.71467">
        <ele>128</ele>
        <time>2021-07-07T01:17:00Z</time>
      </trkpt>
      <trkpt lat="47.65862" lon="2.71419">
        <ele>128</ele>
        <time>2021-07-07T01:17:07Z</time>
      </trkpt>
      <trkpt lat="47.6588" lon="2.71391">
        <ele>128</ele>
        <time>2021-07-07T01:17:12Z</time>
      </trkpt>
      <trkpt lat="47.65899" lon="2.71378">
        <ele>129</ele>
        <time>2021-07-07T01:17:16Z</time>
      </trkpt>
      <trkpt lat="47.65905" lon="2.71385">
        <ele>129</ele>
        <time>2021-07-07T01:17:17Z</time>
      </trkpt>
      <trkpt lat="47.65912" lon="2.71389">
        <ele>130</ele>
        <time>2021-07-07T01:17:19Z</time>
      </trkpt>
      <trkpt lat="47.65922" lon="2.7139">
        <ele>130</ele>
        <time>2021-07-07T01:17:20Z</time>
      </trkpt>
      <trkpt lat="47.65931" lon="2.71386">
        <ele>131</ele>
        <time>2021-07-07T01:17:22Z</time>
      </trkpt>
      <trkpt lat="47.65938" lon="2.71378">
        <ele>131</ele>
        <time>2021-07-07T01:17:24Z</time>
      </trkpt>
      <trkpt lat="47.65944" lon="2.71366">
        <ele>131</ele>
        <time>2021-07-07T01:17:25Z</time>
      </trkpt>
      <trkpt lat="47.65946" lon="2.71353">
        <ele>131</ele>
        <time>2021-07-07T01:17:27Z</time>
      </trkpt>
      <trkpt lat="47.65945" lon="2.71339">
        <ele>130</ele>
        <time>2021-07-07T01:17:29Z</time>
      </trkpt>
      <trkpt lat="47.65942" lon="2.71326">
        <ele>130</ele>
        <time>2021-07-07T01:17:30Z</time>
      </trkpt>
      <trkpt lat="47.65944" lon="2.71305">
        <ele>130</ele>
        <time>2021-07-07T01:17:33Z</time>
      </trkpt>
      <trkpt lat="47.65948" lon="2.7129">
        <ele>129</ele>
        <time>2021-07-07T01:17:35Z</time>
      </trkpt>
      <trkpt lat="47.65972" lon="2.71221">
        <ele>129</ele>
        <time>2021-07-07T01:17:44Z</time>
      </trkpt>
      <trkpt lat="47.66028" lon="2.71086">
        <ele>131</ele>
        <time>2021-07-07T01:18:03Z</time>
      </trkpt>
      <trkpt lat="47.66235" lon="2.70688">
        <ele>129</ele>
        <time>2021-07-07T01:19:03Z</time>
      </trkpt>
      <trkpt lat="47.66484" lon="2.70192">
        <ele>131</ele>
        <time>2021-07-07T01:20:17Z</time>
      </trkpt>
      <trkpt lat="47.66613" lon="2.69916">
        <ele>132</ele>
        <time>2021-07-07T01:20:58Z</time>
      </trkpt>
      <trkpt lat="47.66723" lon="2.6963">
        <ele>135</ele>
        <time>2021-07-07T01:21:37Z</time>
      </trkpt>
      <trkpt lat="47.66799" lon="2.69401">
        <ele>136</ele>
        <time>2021-07-07T01:22:08Z</time>
      </trkpt>
      <trkpt lat="47.66894" lon="2.69">
        <ele>136</ele>
        <time>2021-07-07T01:22:59Z</time>
      </trkpt>
      <trkpt lat="47.66908" lon="2.68914">
        <ele>136</ele>
        <time>2021-07-07T01:23:09Z</time>
      </trkpt>
      <trkpt lat="47.67059" lon="2.67936">
        <ele>130</ele>
        <time>2021-07-07T01:25:10Z</time>
      </trkpt>
      <trkpt lat="47.67058" lon="2.67898">
        <ele>128</ele>
        <time>2021-07-07T01:25:14Z</time>
      </trkpt>
      <trkpt lat="47.6706" lon="2.67876">
        <ele>128</ele>
        <time>2021-07-07T01:25:17Z</time>
      </trkpt>
      <trkpt lat="47.67059" lon="2.67853">
        <ele>127</ele>
        <time>2021-07-07T01:25:19Z</time>
      </trkpt>
      <trkpt lat="47.67065" lon="2.67784">
        <ele>127</ele>
        <time>2021-07-07T01:25:28Z</time>
      </trkpt>
      <trkpt lat="47.67071" lon="2.67749">
        <ele>128</ele>
        <time>2021-07-07T01:25:32Z</time>
      </trkpt>
      <trkpt lat="47.6708" lon="2.67742">
        <ele>128</ele>
        <time>2021-07-07T01:25:34Z</time>
      </trkpt>
      <trkpt lat="47.67084" lon="2.67737">
        <ele>128</ele>
        <time>2021-07-07T01:25:35Z</time>
      </trkpt>
      <trkpt lat="47.67088" lon="2.67728">
        <ele>128</ele>
        <time>2021-07-07T01:25:36Z</time>
      </trkpt>
      <trkpt lat="47.67091" lon="2.67714">
        <ele>128</ele>
        <time>2021-07-07T01:25:38Z</time>
      </trkpt>
      <trkpt lat="47.6709" lon="2.67697">
        <ele>128</ele>
        <time>2021-07-07T01:25:40Z</time>
      </trkpt>
      <trkpt lat="47.67086" lon="2.67684">
        <ele>128</ele>
        <time>2021-07-07T01:25:42Z</time>
      </trkpt>
      <trkpt lat="47.67081" lon="2.67675">
        <ele>127</ele>
        <time>2021-07-07T01:25:43Z</time>
      </trkpt>
      <trkpt lat="47.67085" lon="2.67661">
        <ele>127</ele>
        <time>2021-07-07T01:25:45Z</time>
      </trkpt>
      <trkpt lat="47.6709" lon="2.67646">
        <ele>128</ele>
        <time>2021-07-07T01:25:47Z</time>
      </trkpt>
      <trkpt lat="47.67108" lon="2.67606">
        <ele>131</ele>
        <time>2021-07-07T01:25:53Z</time>
      </trkpt>
      <trkpt lat="47.67111" lon="2.67591">
        <ele>132</ele>
        <time>2021-07-07T01:25:55Z</time>
      </trkpt>
      <trkpt lat="47.67115" lon="2.67568">
        <ele>133</ele>
        <time>2021-07-07T01:25:57Z</time>
      </trkpt>
      <trkpt lat="47.6712" lon="2.67519">
        <ele>133</ele>
        <time>2021-07-07T01:26:03Z</time>
      </trkpt>
      <trkpt lat="47.67126" lon="2.67469">
        <ele>133</ele>
        <time>2021-07-07T01:26:09Z</time>
      </trkpt>
      <trkpt lat="47.67183" lon="2.67101">
        <ele>132</ele>
        <time>2021-07-07T01:26:55Z</time>
      </trkpt>
      <trkpt lat="47.6724" lon="2.66865">
        <ele>129</ele>
        <time>2021-07-07T01:27:25Z</time>
      </trkpt>
      <trkpt lat="47.67374" lon="2.66289">
        <ele>135</ele>
        <time>2021-07-07T01:28:38Z</time>
      </trkpt>
      <trkpt lat="47.67412" lon="2.66157">
        <ele>137</ele>
        <time>2021-07-07T01:28:55Z</time>
      </trkpt>
      <trkpt lat="47.67519" lon="2.6578">
        <ele>132</ele>
        <time>2021-07-07T01:29:44Z</time>
      </trkpt>
      <trkpt lat="47.67587" lon="2.65541">
        <ele>127</ele>
        <time>2021-07-07T01:30:15Z</time>
      </trkpt>
      <trkpt lat="47.67591" lon="2.65528">
        <ele>127</ele>
        <time>2021-07-07T01:30:17Z</time>
      </trkpt>
      <trkpt lat="47.67676" lon="2.65229">
        <ele>131</ele>
        <time>2021-07-07T01:30:56Z</time>
      </trkpt>
      <trkpt lat="47.67768" lon="2.64906">
        <ele>131</ele>
        <time>2021-07-07T01:31:38Z</time>
      </trkpt>
      <trkpt lat="47.67915" lon="2.6456">
        <ele>135</ele>
        <time>2021-07-07T01:32:27Z</time>
      </trkpt>
      <trkpt lat="47.68008" lon="2.64342">
        <ele>131</ele>
        <time>2021-07-07T01:32:58Z</time>
      </trkpt>
      <trkpt lat="47.68042" lon="2.64258">
        <ele>131</ele>
        <time>2021-07-07T01:33:09Z</time>
      </trkpt>
      <trkpt lat="47.68083" lon="2.64153">
        <ele>132</ele>
        <time>2021-07-07T01:33:24Z</time>
      </trkpt>
      <trkpt lat="47.68091" lon="2.64144">
        <ele>133</ele>
        <time>2021-07-07T01:33:26Z</time>
      </trkpt>
      <trkpt lat="47.68096" lon="2.64117">
        <ele>132</ele>
        <time>2021-07-07T01:33:29Z</time>
      </trkpt>
      <trkpt lat="47.68218" lon="2.63782">
        <ele>131</ele>
        <time>2021-07-07T01:34:15Z</time>
      </trkpt>
      <trkpt lat="47.68227" lon="2.63745">
        <ele>131</ele>
        <time>2021-07-07T01:34:19Z</time>
      </trkpt>
      <trkpt lat="47.68232" lon="2.63707">
        <ele>132</ele>
        <time>2021-07-07T01:34:24Z</time>
      </trkpt>
      <trkpt lat="47.68241" lon="2.63693">
        <ele>133</ele>
        <time>2021-07-07T01:34:26Z</time>
      </trkpt>
      <trkpt lat="47.68282" lon="2.63477">
        <ele>129</ele>
        <time>2021-07-07T01:34:53Z</time>
      </trkpt>
      <trkpt lat="47.68311" lon="2.63415">
        <ele>130</ele>
        <time>2021-07-07T01:35:02Z</time>
      </trkpt>
      <trkpt lat="47.68327" lon="2.63377">
        <ele>129</ele>
        <time>2021-07-07T01:35:08Z</time>
      </trkpt>
      <trkpt lat="47.68358" lon="2.63322">
        <ele>128</ele>
        <time>2021-07-07T01:35:16Z</time>
      </trkpt>
      <trkpt lat="47.68366" lon="2.63325">
        <ele>128</ele>
        <time>2021-07-07T01:35:18Z</time>
      </trkpt>
      <trkpt lat="47.68393" lon="2.63341">
        <ele>130</ele>
        <time>2021-07-07T01:35:23Z</time>
      </trkpt>
      <trkpt lat="47.68417" lon="2.63269">
        <ele>131</ele>
        <time>2021-07-07T01:35:32Z</time>
      </trkpt>
      <trkpt lat="47.68424" lon="2.63232">
        <ele>132</ele>
        <time>2021-07-07T01:35:37Z</time>
      </trkpt>
      <trkpt lat="47.68418" lon="2.63224">
        <ele>131</ele>
        <time>2021-07-07T01:35:38Z</time>
      </trkpt>
      <trkpt lat="47.68415" lon="2.6322">
        <ele>131</ele>
        <time>2021-07-07T01:35:39Z</time>
      </trkpt>
      <trkpt lat="47.68408" lon="2.63211">
        <ele>130</ele>
        <time>2021-07-07T01:35:41Z</time>
      </trkpt>
      <trkpt lat="47.68395" lon="2.63195">
        <ele>129</ele>
        <time>2021-07-07T01:35:44Z</time>
      </trkpt>
      <trkpt lat="47.68387" lon="2.63185">
        <ele>128</ele>
        <time>2021-07-07T01:35:46Z</time>
      </trkpt>
      <trkpt lat="47.68381" lon="2.63176">
        <ele>127</ele>
        <time>2021-07-07T01:35:47Z</time>
      </trkpt>
      <trkpt lat="47.68373" lon="2.63171">
        <ele>125</ele>
        <time>2021-07-07T01:35:49Z</time>
      </trkpt>
      <trkpt lat="47.68371" lon="2.63169">
        <ele>125</ele>
        <time>2021-07-07T01:35:49Z</time>
      </trkpt>
      <trkpt lat="47.68124" lon="2.63022">
        <ele>121</ele>
        <time>2021-07-07T01:36:37Z</time>
      </trkpt>
      <trkpt lat="47.6812" lon="2.63019">
        <ele>122</ele>
        <time>2021-07-07T01:36:37Z</time>
      </trkpt>
      <trkpt lat="47.68121" lon="2.63014">
        <ele>122</ele>
        <time>2021-07-07T01:36:38Z</time>
      </trkpt>
      <trkpt lat="47.6812" lon="2.63004">
        <ele>122</ele>
        <time>2021-07-07T01:36:39Z</time>
      </trkpt>
      <trkpt lat="47.68115" lon="2.62997">
        <ele>123</ele>
        <time>2021-07-07T01:36:40Z</time>
      </trkpt>
      <trkpt lat="47.68119" lon="2.62964">
        <ele>122</ele>
        <time>2021-07-07T01:36:44Z</time>
      </trkpt>
      <trkpt lat="47.68121" lon="2.6294">
        <ele>122</ele>
        <time>2021-07-07T01:36:47Z</time>
      </trkpt>
      <trkpt lat="47.68128" lon="2.62907">
        <ele>122</ele>
        <time>2021-07-07T01:36:51Z</time>
      </trkpt>
      <trkpt lat="47.68142" lon="2.62762">
        <ele>123</ele>
        <time>2021-07-07T01:37:09Z</time>
      </trkpt>
      <trkpt lat="47.68186" lon="2.62379">
        <ele>125</ele>
        <time>2021-07-07T01:37:56Z</time>
      </trkpt>
      <trkpt lat="47.68193" lon="2.623">
        <ele>126</ele>
        <time>2021-07-07T01:38:05Z</time>
      </trkpt>
      <trkpt lat="47.68201" lon="2.62249">
        <ele>126</ele>
        <time>2021-07-07T01:38:11Z</time>
      </trkpt>
      <trkpt lat="47.68206" lon="2.62184">
        <ele>126</ele>
        <time>2021-07-07T01:38:19Z</time>
      </trkpt>
      <trkpt lat="47.68205" lon="2.62148">
        <ele>127</ele>
        <time>2021-07-07T01:38:24Z</time>
      </trkpt>
      <trkpt lat="47.6819" lon="2.61921">
        <ele>127</ele>
        <time>2021-07-07T01:38:51Z</time>
      </trkpt>
      <trkpt lat="47.68168" lon="2.61645">
        <ele>124</ele>
        <time>2021-07-07T01:39:24Z</time>
      </trkpt>
      <trkpt lat="47.68164" lon="2.61566">
        <ele>124</ele>
        <time>2021-07-07T01:39:34Z</time>
      </trkpt>
      <trkpt lat="47.68152" lon="2.6144">
        <ele>124</ele>
        <time>2021-07-07T01:39:49Z</time>
      </trkpt>
      <trkpt lat="47.6814" lon="2.61275">
        <ele>124</ele>
        <time>2021-07-07T01:40:09Z</time>
      </trkpt>
      <trkpt lat="47.68125" lon="2.61152">
        <ele>125</ele>
        <time>2021-07-07T01:40:24Z</time>
      </trkpt>
      <trkpt lat="47.68092" lon="2.60971">
        <ele>125</ele>
        <time>2021-07-07T01:40:46Z</time>
      </trkpt>
      <trkpt lat="47.68083" lon="2.60935">
        <ele>125</ele>
        <time>2021-07-07T01:40:51Z</time>
      </trkpt>
      <trkpt lat="47.68079" lon="2.60925">
        <ele>125</ele>
        <time>2021-07-07T01:40:52Z</time>
      </trkpt>
      <trkpt lat="47.68054" lon="2.60859">
        <ele>125</ele>
        <time>2021-07-07T01:41:01Z</time>
      </trkpt>
      <trkpt lat="47.67852" lon="2.60297">
        <ele>127</ele>
        <time>2021-07-07T01:42:18Z</time>
      </trkpt>
      <trkpt lat="47.67847" lon="2.60268">
        <ele>128</ele>
        <time>2021-07-07T01:42:21Z</time>
      </trkpt>
      <trkpt lat="47.67849" lon="2.6024">
        <ele>128</ele>
        <time>2021-07-07T01:42:25Z</time>
      </trkpt>
      <trkpt lat="47.67872" lon="2.60144">
        <ele>126</ele>
        <time>2021-07-07T01:42:37Z</time>
      </trkpt>
      <trkpt lat="47.67878" lon="2.60124">
        <ele>126</ele>
        <time>2021-07-07T01:42:39Z</time>
      </trkpt>
      <trkpt lat="47.67882" lon="2.60089">
        <ele>125</ele>
        <time>2021-07-07T01:42:44Z</time>
      </trkpt>
      <trkpt lat="47.67879" lon="2.60068">
        <ele>125</ele>
        <time>2021-07-07T01:42:46Z</time>
      </trkpt>
      <trkpt lat="47.67876" lon="2.60061">
        <ele>125</ele>
        <time>2021-07-07T01:42:47Z</time>
      </trkpt>
      <trkpt lat="47.67871" lon="2.6005">
        <ele>125</ele>
        <time>2021-07-07T01:42:49Z</time>
      </trkpt>
      <trkpt lat="47.67845" lon="2.60009">
        <ele>126</ele>
        <time>2021-07-07T01:42:56Z</time>
      </trkpt>
      <trkpt lat="47.67836" lon="2.59992">
        <ele>127</ele>
        <time>2021-07-07T01:42:58Z</time>
      </trkpt>
      <trkpt lat="47.67826" lon="2.59967">
        <ele>127</ele>
        <time>2021-07-07T01:43:02Z</time>
      </trkpt>
      <trkpt lat="47.67819" lon="2.59954">
        <ele>126</ele>
        <time>2021-07-07T01:43:04Z</time>
      </trkpt>
      <trkpt lat="47.67803" lon="2.59938">
        <ele>126</ele>
        <time>2021-07-07T01:43:07Z</time>
      </trkpt>
      <trkpt lat="47.67799" lon="2.59932">
        <ele>126</ele>
        <time>2021-07-07T01:43:08Z</time>
      </trkpt>
      <trkpt lat="47.67794" lon="2.59919">
        <ele>126</ele>
        <time>2021-07-07T01:43:10Z</time>
      </trkpt>
      <trkpt lat="47.67793" lon="2.59904">
        <ele>125</ele>
        <time>2021-07-07T01:43:12Z</time>
      </trkpt>
      <trkpt lat="47.67794" lon="2.5989">
        <ele>125</ele>
        <time>2021-07-07T01:43:13Z</time>
      </trkpt>
      <trkpt lat="47.67805" lon="2.59851">
        <ele>125</ele>
        <time>2021-07-07T01:43:18Z</time>
      </trkpt>
      <trkpt lat="47.67807" lon="2.59845">
        <ele>125</ele>
        <time>2021-07-07T01:43:19Z</time>
      </trkpt>
      <trkpt lat="47.67811" lon="2.5983">
        <ele>124</ele>
        <time>2021-07-07T01:43:21Z</time>
      </trkpt>
      <trkpt lat="47.67883" lon="2.59586">
        <ele>127</ele>
        <time>2021-07-07T01:43:53Z</time>
      </trkpt>
      <trkpt lat="47.6789" lon="2.59561">
        <ele>126</ele>
        <time>2021-07-07T01:43:56Z</time>
      </trkpt>
      <trkpt lat="47.67936" lon="2.59407">
        <ele>124</ele>
        <time>2021-07-07T01:44:16Z</time>
      </trkpt>
      <trkpt lat="47.67948" lon="2.59364">
        <ele>124</ele>
        <time>2021-07-07T01:44:22Z</time>
      </trkpt>
      <trkpt lat="47.67977" lon="2.59267">
        <ele>123</ele>
        <time>2021-07-07T01:44:35Z</time>
      </trkpt>
      <trkpt lat="47.67988" lon="2.59231">
        <ele>123</ele>
        <time>2021-07-07T01:44:39Z</time>
      </trkpt>
      <trkpt lat="47.67993" lon="2.59211">
        <ele>124</ele>
        <time>2021-07-07T01:44:42Z</time>
      </trkpt>
      <trkpt lat="47.68017" lon="2.59133">
        <ele>124</ele>
        <time>2021-07-07T01:44:52Z</time>
      </trkpt>
      <trkpt lat="47.68035" lon="2.59073">
        <ele>123</ele>
        <time>2021-07-07T01:45:00Z</time>
      </trkpt>
      <trkpt lat="47.68094" lon="2.58841">
        <ele>123</ele>
        <time>2021-07-07T01:45:30Z</time>
      </trkpt>
      <trkpt lat="47.68131" lon="2.5874">
        <ele>125</ele>
        <time>2021-07-07T01:45:44Z</time>
      </trkpt>
      <trkpt lat="47.68152" lon="2.58685">
        <ele>124</ele>
        <time>2021-07-07T01:45:51Z</time>
      </trkpt>
      <trkpt lat="47.68169" lon="2.5864">
        <ele>124</ele>
        <time>2021-07-07T01:45:57Z</time>
      </trkpt>
      <trkpt lat="47.6829" lon="2.58312">
        <ele>124</ele>
        <time>2021-07-07T01:46:42Z</time>
      </trkpt>
      <trkpt lat="47.68493" lon="2.57831">
        <ele>126</ele>
        <time>2021-07-07T01:47:50Z</time>
      </trkpt>
      <trkpt lat="47.68538" lon="2.57723">
        <ele>123</ele>
        <time>2021-07-07T01:48:05Z</time>
      </trkpt>
      <trkpt lat="47.68583" lon="2.5754">
        <ele>126</ele>
        <time>2021-07-07T01:48:29Z</time>
      </trkpt>
      <trkpt lat="47.68702" lon="2.57058">
        <ele>123</ele>
        <time>2021-07-07T01:49:30Z</time>
      </trkpt>
      <trkpt lat="47.6873" lon="2.56968">
        <ele>124</ele>
        <time>2021-07-07T01:49:42Z</time>
      </trkpt>
      <trkpt lat="47.68818" lon="2.56683">
        <ele>122</ele>
        <time>2021-07-07T01:50:20Z</time>
      </trkpt>
      <trkpt lat="47.68836" lon="2.56638">
        <ele>123</ele>
        <time>2021-07-07T01:50:26Z</time>
      </trkpt>
      <trkpt lat="47.68853" lon="2.56603">
        <ele>123</ele>
        <time>2021-07-07T01:50:31Z</time>
      </trkpt>
      <trkpt lat="47.68855" lon="2.56599">
        <ele>123</ele>
        <time>2021-07-07T01:50:32Z</time>
      </trkpt>
      <trkpt lat="47.6897" lon="2.56393">
        <ele>122</ele>
        <time>2021-07-07T01:51:04Z</time>
      </trkpt>
      <trkpt lat="47.69053" lon="2.56238">
        <ele>123</ele>
        <time>2021-07-07T01:51:28Z</time>
      </trkpt>
      <trkpt lat="47.69071" lon="2.56197">
        <ele>122</ele>
        <time>2021-07-07T01:51:33Z</time>
      </trkpt>
      <trkpt lat="47.69083" lon="2.56163">
        <ele>122</ele>
        <time>2021-07-07T01:51:38Z</time>
      </trkpt>
      <trkpt lat="47.69106" lon="2.56063">
        <ele>123</ele>
        <time>2021-07-07T01:51:51Z</time>
      </trkpt>
      <trkpt lat="47.6911" lon="2.56046">
        <ele>123</ele>
        <time>2021-07-07T01:51:53Z</time>
      </trkpt>
      <trkpt lat="47.69118" lon="2.56016">
        <ele>123</ele>
        <time>2021-07-07T01:51:57Z</time>
      </trkpt>
      <trkpt lat="47.69128" lon="2.55987">
        <ele>124</ele>
        <time>2021-07-07T01:52:01Z</time>
      </trkpt>
      <trkpt lat="47.69168" lon="2.5591">
        <ele>128</ele>
        <time>2021-07-07T01:52:12Z</time>
      </trkpt>
      <trkpt lat="47.69212" lon="2.55824">
        <ele>129</ele>
        <time>2021-07-07T01:52:25Z</time>
      </trkpt>
      <trkpt lat="47.6923" lon="2.55788">
        <ele>131</ele>
        <time>2021-07-07T01:52:31Z</time>
      </trkpt>
      <trkpt lat="47.69271" lon="2.55699">
        <ele>132</ele>
        <time>2021-07-07T01:52:43Z</time>
      </trkpt>
      <trkpt lat="47.69283" lon="2.55672">
        <ele>130</ele>
        <time>2021-07-07T01:52:47Z</time>
      </trkpt>
      <trkpt lat="47.69299" lon="2.55621">
        <ele>129</ele>
        <time>2021-07-07T01:52:54Z</time>
      </trkpt>
      <trkpt lat="47.69331" lon="2.55496">
        <ele>130</ele>
        <time>2021-07-07T01:53:10Z</time>
      </trkpt>
      <trkpt lat="47.6935" lon="2.55457">
        <ele>130</ele>
        <time>2021-07-07T01:53:16Z</time>
      </trkpt>
      <trkpt lat="47.69402" lon="2.55373">
        <ele>131</ele>
        <time>2021-07-07T01:53:29Z</time>
      </trkpt>
      <trkpt lat="47.69424" lon="2.55334">
        <ele>131</ele>
        <time>2021-07-07T01:53:36Z</time>
      </trkpt>
      <trkpt lat="47.69452" lon="2.55278">
        <ele>131</ele>
        <time>2021-07-07T01:53:44Z</time>
      </trkpt>
      <trkpt lat="47.69544" lon="2.55076">
        <ele>132</ele>
        <time>2021-07-07T01:54:13Z</time>
      </trkpt>
      <trkpt lat="47.6957" lon="2.55013">
        <ele>133</ele>
        <time>2021-07-07T01:54:22Z</time>
      </trkpt>
      <trkpt lat="47.6961" lon="2.54909">
        <ele>133</ele>
        <time>2021-07-07T01:54:36Z</time>
      </trkpt>
      <trkpt lat="47.69641" lon="2.54829">
        <ele>132</ele>
        <time>2021-07-07T01:54:47Z</time>
      </trkpt>
      <trkpt lat="47.69655" lon="2.54795">
        <ele>132</ele>
        <time>2021-07-07T01:54:52Z</time>
      </trkpt>
      <trkpt lat="47.69736" lon="2.54576">
        <ele>132</ele>
        <time>2021-07-07T01:55:22Z</time>
      </trkpt>
      <trkpt lat="47.69795" lon="2.54424">
        <ele>131</ele>
        <time>2021-07-07T01:55:43Z</time>
      </trkpt>
      <trkpt lat="47.69842" lon="2.54309">
        <ele>132</ele>
        <time>2021-07-07T01:55:59Z</time>
      </trkpt>
      <trkpt lat="47.69847" lon="2.54297">
        <ele>132</ele>
        <time>2021-07-07T01:56:01Z</time>
      </trkpt>
      <trkpt lat="47.69861" lon="2.54261">
        <ele>131</ele>
        <time>2021-07-07T01:56:06Z</time>
      </trkpt>
      <trkpt lat="47.69873" lon="2.54224">
        <ele>131</ele>
        <time>2021-07-07T01:56:11Z</time>
      </trkpt>
      <trkpt lat="47.69881" lon="2.542">
        <ele>131</ele>
        <time>2021-07-07T01:56:14Z</time>
      </trkpt>
      <trkpt lat="47.69883" lon="2.54188">
        <ele>130</ele>
        <time>2021-07-07T01:56:15Z</time>
      </trkpt>
      <trkpt lat="47.69884" lon="2.54176">
        <ele>130</ele>
        <time>2021-07-07T01:56:17Z</time>
      </trkpt>
      <trkpt lat="47.69891" lon="2.54107">
        <ele>129</ele>
        <time>2021-07-07T01:56:25Z</time>
      </trkpt>
      <trkpt lat="47.69891" lon="2.54101">
        <ele>128</ele>
        <time>2021-07-07T01:56:26Z</time>
      </trkpt>
      <trkpt lat="47.69895" lon="2.54056">
        <ele>127</ele>
        <time>2021-07-07T01:56:31Z</time>
      </trkpt>
      <trkpt lat="47.69887" lon="2.54043">
        <ele>127</ele>
        <time>2021-07-07T01:56:34Z</time>
      </trkpt>
      <trkpt lat="47.69878" lon="2.54032">
        <ele>126</ele>
        <time>2021-07-07T01:56:36Z</time>
      </trkpt>
      <trkpt lat="47.69874" lon="2.54027">
        <ele>126</ele>
        <time>2021-07-07T01:56:37Z</time>
      </trkpt>
      <trkpt lat="47.69849" lon="2.53995">
        <ele>125</ele>
        <time>2021-07-07T01:56:42Z</time>
      </trkpt>
      <trkpt lat="47.69844" lon="2.53986">
        <ele>125</ele>
        <time>2021-07-07T01:56:44Z</time>
      </trkpt>
      <trkpt lat="47.6984" lon="2.53975">
        <ele>125</ele>
        <time>2021-07-07T01:56:45Z</time>
      </trkpt>
      <trkpt lat="47.69836" lon="2.53957">
        <ele>124</ele>
        <time>2021-07-07T01:56:48Z</time>
      </trkpt>
      <trkpt lat="47.69825" lon="2.53906">
        <ele>124</ele>
        <time>2021-07-07T01:56:54Z</time>
      </trkpt>
      <trkpt lat="47.69822" lon="2.53883">
        <ele>124</ele>
        <time>2021-07-07T01:56:57Z</time>
      </trkpt>
      <trkpt lat="47.69824" lon="2.53867">
        <ele>124</ele>
        <time>2021-07-07T01:56:59Z</time>
      </trkpt>
      <trkpt lat="47.69827" lon="2.53854">
        <ele>123</ele>
        <time>2021-07-07T01:57:00Z</time>
      </trkpt>
      <trkpt lat="47.69837" lon="2.53834">
        <ele>123</ele>
        <time>2021-07-07T01:57:03Z</time>
      </trkpt>
      <trkpt lat="47.69875" lon="2.53776">
        <ele>125</ele>
        <time>2021-07-07T01:57:13Z</time>
      </trkpt>
      <trkpt lat="47.69894" lon="2.53752">
        <ele>126</ele>
        <time>2021-07-07T01:57:18Z</time>
      </trkpt>
      <trkpt lat="47.69907" lon="2.5374">
        <ele>126</ele>
        <time>2021-07-07T01:57:20Z</time>
      </trkpt>
      <trkpt lat="47.6993" lon="2.53725">
        <ele>127</ele>
        <time>2021-07-07T01:57:25Z</time>
      </trkpt>
      <trkpt lat="47.69962" lon="2.53708">
        <ele>128</ele>
        <time>2021-07-07T01:57:31Z</time>
      </trkpt>
      <trkpt lat="47.69978" lon="2.537">
        <ele>128</ele>
        <time>2021-07-07T01:57:34Z</time>
      </trkpt>
      <trkpt lat="47.70051" lon="2.53662">
        <ele>128</ele>
        <time>2021-07-07T01:57:48Z</time>
      </trkpt>
      <trkpt lat="47.70063" lon="2.53656">
        <ele>128</ele>
        <time>2021-07-07T01:57:50Z</time>
      </trkpt>
      <trkpt lat="47.7011" lon="2.53631">
        <ele>128</ele>
        <time>2021-07-07T01:57:59Z</time>
      </trkpt>
      <trkpt lat="47.70145" lon="2.53615">
        <ele>129</ele>
        <time>2021-07-07T01:58:05Z</time>
      </trkpt>
      <trkpt lat="47.70159" lon="2.5361">
        <ele>129</ele>
        <time>2021-07-07T01:58:08Z</time>
      </trkpt>
      <trkpt lat="47.70255" lon="2.53571">
        <ele>130</ele>
        <time>2021-07-07T01:58:25Z</time>
      </trkpt>
      <trkpt lat="47.70352" lon="2.53536">
        <ele>132</ele>
        <time>2021-07-07T01:58:43Z</time>
      </trkpt>
      <trkpt lat="47.70427" lon="2.53509">
        <ele>130</ele>
        <time>2021-07-07T01:58:57Z</time>
      </trkpt>
      <trkpt lat="47.70443" lon="2.535">
        <ele>129</ele>
        <time>2021-07-07T01:59:00Z</time>
      </trkpt>
      <trkpt lat="47.70454" lon="2.53491">
        <ele>129</ele>
        <time>2021-07-07T01:59:02Z</time>
      </trkpt>
      <trkpt lat="47.70475" lon="2.53469">
        <ele>128</ele>
        <time>2021-07-07T01:59:07Z</time>
      </trkpt>
      <trkpt lat="47.7054" lon="2.53372">
        <ele>127</ele>
        <time>2021-07-07T01:59:23Z</time>
      </trkpt>
      <trkpt lat="47.70639" lon="2.53203">
        <ele>126</ele>
        <time>2021-07-07T01:59:50Z</time>
      </trkpt>
      <trkpt lat="47.70664" lon="2.5316">
        <ele>126</ele>
        <time>2021-07-07T01:59:57Z</time>
      </trkpt>
      <trkpt lat="47.70731" lon="2.53042">
        <ele>124</ele>
        <time>2021-07-07T02:00:15Z</time>
      </trkpt>
      <trkpt lat="47.70758" lon="2.52977">
        <ele>123</ele>
        <time>2021-07-07T02:00:24Z</time>
      </trkpt>
      <trkpt lat="47.70762" lon="2.52967">
        <ele>123</ele>
        <time>2021-07-07T02:00:26Z</time>
      </trkpt>
      <trkpt lat="47.7079" lon="2.52872">
        <ele>123</ele>
        <time>2021-07-07T02:00:38Z</time>
      </trkpt>
      <trkpt lat="47.70865" lon="2.52649">
        <ele>124</ele>
        <time>2021-07-07T02:01:08Z</time>
      </trkpt>
      <trkpt lat="47.70918" lon="2.52497">
        <ele>124</ele>
        <time>2021-07-07T02:01:29Z</time>
      </trkpt>
      <trkpt lat="47.70945" lon="2.5243">
        <ele>124</ele>
        <time>2021-07-07T02:01:38Z</time>
      </trkpt>
      <trkpt lat="47.71107" lon="2.52087">
        <ele>123</ele>
        <time>2021-07-07T02:02:28Z</time>
      </trkpt>
      <trkpt lat="47.71165" lon="2.51948">
        <ele>125</ele>
        <time>2021-07-07T02:02:48Z</time>
      </trkpt>
      <trkpt lat="47.71216" lon="2.51823">
        <ele>126</ele>
        <time>2021-07-07T02:03:05Z</time>
      </trkpt>
      <trkpt lat="47.71252" lon="2.51734">
        <ele>125</ele>
        <time>2021-07-07T02:03:18Z</time>
      </trkpt>
      <trkpt lat="47.71271" lon="2.517">
        <ele>124</ele>
        <time>2021-07-07T02:03:23Z</time>
      </trkpt>
      <trkpt lat="47.71293" lon="2.5167">
        <ele>123</ele>
        <time>2021-07-07T02:03:28Z</time>
      </trkpt>
      <trkpt lat="47.71474" lon="2.51457">
        <ele>123</ele>
        <time>2021-07-07T02:04:09Z</time>
      </trkpt>
      <trkpt lat="47.71697" lon="2.51193">
        <ele>126</ele>
        <time>2021-07-07T02:05:00Z</time>
      </trkpt>
      <trkpt lat="47.71803" lon="2.5107">
        <ele>128</ele>
        <time>2021-07-07T02:05:24Z</time>
      </trkpt>
      <trkpt lat="47.71871" lon="2.50997">
        <ele>125</ele>
        <time>2021-07-07T02:05:39Z</time>
      </trkpt>
      <trkpt lat="47.7196" lon="2.50896">
        <ele>129</ele>
        <time>2021-07-07T02:05:59Z</time>
      </trkpt>
      <trkpt lat="47.7197" lon="2.50879">
        <ele>130</ele>
        <time>2021-07-07T02:06:02Z</time>
      </trkpt>
      <trkpt lat="47.71973" lon="2.50875">
        <ele>130</ele>
        <time>2021-07-07T02:06:02Z</time>
      </trkpt>
      <trkpt lat="47.72058" lon="2.50731">
        <ele>130</ele>
        <time>2021-07-07T02:06:25Z</time>
      </trkpt>
      <trkpt lat="47.72086" lon="2.50688">
        <ele>131</ele>
        <time>2021-07-07T02:06:32Z</time>
      </trkpt>
      <trkpt lat="47.72104" lon="2.50664">
        <ele>131</ele>
        <time>2021-07-07T02:06:37Z</time>
      </trkpt>
      <trkpt lat="47.72226" lon="2.5057">
        <ele>131</ele>
        <time>2021-07-07T02:07:01Z</time>
      </trkpt>
      <trkpt lat="47.72268" lon="2.50535">
        <ele>130</ele>
        <time>2021-07-07T02:07:10Z</time>
      </trkpt>
      <trkpt lat="47.72302" lon="2.50493">
        <ele>130</ele>
        <time>2021-07-07T02:07:18Z</time>
      </trkpt>
      <trkpt lat="47.72333" lon="2.5045">
        <ele>131</ele>
        <time>2021-07-07T02:07:25Z</time>
      </trkpt>
      <trkpt lat="47.72406" lon="2.50272">
        <ele>132</ele>
        <time>2021-07-07T02:07:50Z</time>
      </trkpt>
      <trkpt lat="47.72419" lon="2.50241">
        <ele>132</ele>
        <time>2021-07-07T02:07:54Z</time>
      </trkpt>
      <trkpt lat="47.7245" lon="2.50164">
        <ele>132</ele>
        <time>2021-07-07T02:08:05Z</time>
      </trkpt>
      <trkpt lat="47.7251" lon="2.50021">
        <ele>133</ele>
        <time>2021-07-07T02:08:25Z</time>
      </trkpt>
      <trkpt lat="47.72549" lon="2.49927">
        <ele>131</ele>
        <time>2021-07-07T02:08:39Z</time>
      </trkpt>
      <trkpt lat="47.72563" lon="2.49891">
        <ele>130</ele>
        <time>2021-07-07T02:08:44Z</time>
      </trkpt>
      <trkpt lat="47.72592" lon="2.49804">
        <ele>129</ele>
        <time>2021-07-07T02:08:55Z</time>
      </trkpt>
      <trkpt lat="47.72619" lon="2.49717">
        <ele>130</ele>
        <time>2021-07-07T02:09:07Z</time>
      </trkpt>
      <trkpt lat="47.72656" lon="2.49598">
        <ele>131</ele>
        <time>2021-07-07T02:09:22Z</time>
      </trkpt>
      <trkpt lat="47.72681" lon="2.49514">
        <ele>130</ele>
        <time>2021-07-07T02:09:33Z</time>
      </trkpt>
      <trkpt lat="47.72685" lon="2.49491">
        <ele>130</ele>
        <time>2021-07-07T02:09:36Z</time>
      </trkpt>
      <trkpt lat="47.72686" lon="2.49465">
        <ele>130</ele>
        <time>2021-07-07T02:09:39Z</time>
      </trkpt>
      <trkpt lat="47.72685" lon="2.49456">
        <ele>130</ele>
        <time>2021-07-07T02:09:40Z</time>
      </trkpt>
      <trkpt lat="47.7266" lon="2.49201">
        <ele>130</ele>
        <time>2021-07-07T02:10:11Z</time>
      </trkpt>
      <trkpt lat="47.72651" lon="2.4908">
        <ele>129</ele>
        <time>2021-07-07T02:10:26Z</time>
      </trkpt>
      <trkpt lat="47.72651" lon="2.49077">
        <ele>129</ele>
        <time>2021-07-07T02:10:26Z</time>
      </trkpt>
      <trkpt lat="47.7265" lon="2.49057">
        <ele>129</ele>
        <time>2021-07-07T02:10:29Z</time>
      </trkpt>
      <trkpt lat="47.72643" lon="2.48973">
        <ele>129</ele>
        <time>2021-07-07T02:10:39Z</time>
      </trkpt>
      <trkpt lat="47.7264" lon="2.48935">
        <ele>128</ele>
        <time>2021-07-07T02:10:43Z</time>
      </trkpt>
      <trkpt lat="47.72639" lon="2.48918">
        <ele>128</ele>
        <time>2021-07-07T02:10:45Z</time>
      </trkpt>
      <trkpt lat="47.72639" lon="2.48898">
        <ele>128</ele>
        <time>2021-07-07T02:10:48Z</time>
      </trkpt>
      <trkpt lat="47.7264" lon="2.4889">
        <ele>128</ele>
        <time>2021-07-07T02:10:49Z</time>
      </trkpt>
      <trkpt lat="47.72665" lon="2.48735">
        <ele>126</ele>
        <time>2021-07-07T02:11:08Z</time>
      </trkpt>
      <trkpt lat="47.72674" lon="2.48685">
        <ele>125</ele>
        <time>2021-07-07T02:11:14Z</time>
      </trkpt>
      <trkpt lat="47.72676" lon="2.48677">
        <ele>125</ele>
        <time>2021-07-07T02:11:15Z</time>
      </trkpt>
      <trkpt lat="47.7268" lon="2.48666">
        <ele>125</ele>
        <time>2021-07-07T02:11:16Z</time>
      </trkpt>
      <trkpt lat="47.72689" lon="2.48643">
        <ele>125</ele>
        <time>2021-07-07T02:11:20Z</time>
      </trkpt>
      <trkpt lat="47.72709" lon="2.4861">
        <ele>125</ele>
        <time>2021-07-07T02:11:25Z</time>
      </trkpt>
      <trkpt lat="47.72729" lon="2.48587">
        <ele>124</ele>
        <time>2021-07-07T02:11:29Z</time>
      </trkpt>
      <trkpt lat="47.72733" lon="2.48582">
        <ele>124</ele>
        <time>2021-07-07T02:11:30Z</time>
      </trkpt>
      <trkpt lat="47.7277" lon="2.48537">
        <ele>126</ele>
        <time>2021-07-07T02:11:39Z</time>
      </trkpt>
      <trkpt lat="47.7293" lon="2.48347">
        <ele>128</ele>
        <time>2021-07-07T02:12:15Z</time>
      </trkpt>
      <trkpt lat="47.72943" lon="2.4833">
        <ele>128</ele>
        <time>2021-07-07T02:12:18Z</time>
      </trkpt>
      <trkpt lat="47.72957" lon="2.48307">
        <ele>129</ele>
        <time>2021-07-07T02:12:22Z</time>
      </trkpt>
      <trkpt lat="47.72975" lon="2.48272">
        <ele>129</ele>
        <time>2021-07-07T02:12:27Z</time>
      </trkpt>
      <trkpt lat="47.73001" lon="2.48203">
        <ele>132</ele>
        <time>2021-07-07T02:12:37Z</time>
      </trkpt>
      <trkpt lat="47.73007" lon="2.4819">
        <ele>132</ele>
        <time>2021-07-07T02:12:39Z</time>
      </trkpt>
      <trkpt lat="47.73191" lon="2.47438">
        <ele>129</ele>
        <time>2021-07-07T02:14:14Z</time>
      </trkpt>
      <trkpt lat="47.73213" lon="2.47319">
        <ele>126</ele>
        <time>2021-07-07T02:14:29Z</time>
      </trkpt>
      <trkpt lat="47.73218" lon="2.47274">
        <ele>125</ele>
        <time>2021-07-07T02:14:35Z</time>
      </trkpt>
      <trkpt lat="47.7322" lon="2.4724">
        <ele>125</ele>
        <time>2021-07-07T02:14:39Z</time>
      </trkpt>
      <trkpt lat="47.73219" lon="2.47117">
        <ele>127</ele>
        <time>2021-07-07T02:14:54Z</time>
      </trkpt>
      <trkpt lat="47.73194" lon="2.4669">
        <ele>128</ele>
        <time>2021-07-07T02:15:45Z</time>
      </trkpt>
      <trkpt lat="47.73192" lon="2.46632">
        <ele>127</ele>
        <time>2021-07-07T02:15:52Z</time>
      </trkpt>
      <trkpt lat="47.73184" lon="2.4648">
        <ele>127</ele>
        <time>2021-07-07T02:16:10Z</time>
      </trkpt>
      <trkpt lat="47.7318" lon="2.46402">
        <ele>127</ele>
        <time>2021-07-07T02:16:19Z</time>
      </trkpt>
      <trkpt lat="47.73181" lon="2.46359">
        <ele>126</ele>
        <time>2021-07-07T02:16:25Z</time>
      </trkpt>
      <trkpt lat="47.73187" lon="2.46305">
        <ele>126</ele>
        <time>2021-07-07T02:16:31Z</time>
      </trkpt>
      <trkpt lat="47.73198" lon="2.46256">
        <ele>126</ele>
        <time>2021-07-07T02:16:37Z</time>
      </trkpt>
      <trkpt lat="47.73214" lon="2.46204">
        <ele>126</ele>
        <time>2021-07-07T02:16:44Z</time>
      </trkpt>
      <trkpt lat="47.73226" lon="2.46177">
        <ele>125</ele>
        <time>2021-07-07T02:16:48Z</time>
      </trkpt>
      <trkpt lat="47.73236" lon="2.46154">
        <ele>125</ele>
        <time>2021-07-07T02:16:51Z</time>
      </trkpt>
      <trkpt lat="47.73271" lon="2.46078">
        <ele>125</ele>
        <time>2021-07-07T02:17:02Z</time>
      </trkpt>
      <trkpt lat="47.73301" lon="2.46016">
        <ele>126</ele>
        <time>2021-07-07T02:17:11Z</time>
      </trkpt>
      <trkpt lat="47.73339" lon="2.45937">
        <ele>126</ele>
        <time>2021-07-07T02:17:23Z</time>
      </trkpt>
      <trkpt lat="47.73398" lon="2.45822">
        <ele>125</ele>
        <time>2021-07-07T02:17:40Z</time>
      </trkpt>
      <trkpt lat="47.73476" lon="2.45679">
        <ele>123</ele>
        <time>2021-07-07T02:18:02Z</time>
      </trkpt>
      <trkpt lat="47.735" lon="2.45635">
        <ele>122</ele>
        <time>2021-07-07T02:18:09Z</time>
      </trkpt>
      <trkpt lat="47.73515" lon="2.45609">
        <ele>123</ele>
        <time>2021-07-07T02:18:13Z</time>
      </trkpt>
      <trkpt lat="47.73549" lon="2.45545">
        <ele>123</ele>
        <time>2021-07-07T02:18:23Z</time>
      </trkpt>
      <trkpt lat="47.73577" lon="2.45495">
        <ele>125</ele>
        <time>2021-07-07T02:18:31Z</time>
      </trkpt>
      <trkpt lat="47.73664" lon="2.45334">
        <ele>124</ele>
        <time>2021-07-07T02:18:55Z</time>
      </trkpt>
      <trkpt lat="47.73706" lon="2.4526">
        <ele>123</ele>
        <time>2021-07-07T02:19:07Z</time>
      </trkpt>
      <trkpt lat="47.73736" lon="2.45192">
        <ele>123</ele>
        <time>2021-07-07T02:19:17Z</time>
      </trkpt>
      <trkpt lat="47.73758" lon="2.45144">
        <ele>124</ele>
        <time>2021-07-07T02:19:24Z</time>
      </trkpt>
      <trkpt lat="47.73833" lon="2.44964">
        <ele>124</ele>
        <time>2021-07-07T02:19:49Z</time>
      </trkpt>
      <trkpt lat="47.73862" lon="2.44894">
        <ele>124</ele>
        <time>2021-07-07T02:19:59Z</time>
      </trkpt>
      <trkpt lat="47.73864" lon="2.44889">
        <ele>124</ele>
        <time>2021-07-07T02:20:00Z</time>
      </trkpt>
      <trkpt lat="47.73948" lon="2.44687">
        <ele>123</ele>
        <time>2021-07-07T02:20:28Z</time>
      </trkpt>
      <trkpt lat="47.74005" lon="2.4455">
        <ele>121</ele>
        <time>2021-07-07T02:20:47Z</time>
      </trkpt>
      <trkpt lat="47.74021" lon="2.44521">
        <ele>122</ele>
        <time>2021-07-07T02:20:52Z</time>
      </trkpt>
      <trkpt lat="47.74056" lon="2.44448">
        <ele>122</ele>
        <time>2021-07-07T02:21:03Z</time>
      </trkpt>
      <trkpt lat="47.74062" lon="2.44427">
        <ele>122</ele>
        <time>2021-07-07T02:21:05Z</time>
      </trkpt>
      <trkpt lat="47.74155" lon="2.44239">
        <ele>121</ele>
        <time>2021-07-07T02:21:33Z</time>
      </trkpt>
      <trkpt lat="47.74181" lon="2.44186">
        <ele>121</ele>
        <time>2021-07-07T02:21:41Z</time>
      </trkpt>
      <trkpt lat="47.7419" lon="2.44168">
        <ele>121</ele>
        <time>2021-07-07T02:21:44Z</time>
      </trkpt>
      <trkpt lat="47.74193" lon="2.44161">
        <ele>121</ele>
        <time>2021-07-07T02:21:45Z</time>
      </trkpt>
      <trkpt lat="47.742" lon="2.44144">
        <ele>121</ele>
        <time>2021-07-07T02:21:47Z</time>
      </trkpt>
      <trkpt lat="47.74249" lon="2.4403">
        <ele>121</ele>
        <time>2021-07-07T02:22:03Z</time>
      </trkpt>
      <trkpt lat="47.74271" lon="2.43968">
        <ele>122</ele>
        <time>2021-07-07T02:22:12Z</time>
      </trkpt>
      <trkpt lat="47.74278" lon="2.43953">
        <ele>122</ele>
        <time>2021-07-07T02:22:14Z</time>
      </trkpt>
      <trkpt lat="47.7429" lon="2.43927">
        <ele>122</ele>
        <time>2021-07-07T02:22:18Z</time>
      </trkpt>
      <trkpt lat="47.74356" lon="2.43818">
        <ele>126</ele>
        <time>2021-07-07T02:22:35Z</time>
      </trkpt>
      <trkpt lat="47.7439" lon="2.43748">
        <ele>127</ele>
        <time>2021-07-07T02:22:46Z</time>
      </trkpt>
      <trkpt lat="47.74396" lon="2.43738">
        <ele>127</ele>
        <time>2021-07-07T02:22:47Z</time>
      </trkpt>
      <trkpt lat="47.74398" lon="2.43732">
        <ele>127</ele>
        <time>2021-07-07T02:22:48Z</time>
      </trkpt>
      <trkpt lat="47.74404" lon="2.43722">
        <ele>126</ele>
        <time>2021-07-07T02:22:50Z</time>
      </trkpt>
      <trkpt lat="47.74432" lon="2.43689">
        <ele>126</ele>
        <time>2021-07-07T02:22:56Z</time>
      </trkpt>
      <trkpt lat="47.74436" lon="2.43684">
        <ele>126</ele>
        <time>2021-07-07T02:22:57Z</time>
      </trkpt>
      <trkpt lat="47.74533" lon="2.43571">
        <ele>127</ele>
        <time>2021-07-07T02:23:19Z</time>
      </trkpt>
      <trkpt lat="47.74554" lon="2.43547">
        <ele>127</ele>
        <time>2021-07-07T02:23:23Z</time>
      </trkpt>
      <trkpt lat="47.74749" lon="2.43291">
        <ele>126</ele>
        <time>2021-07-07T02:24:10Z</time>
      </trkpt>
      <trkpt lat="47.7478" lon="2.4325">
        <ele>126</ele>
        <time>2021-07-07T02:24:17Z</time>
      </trkpt>
      <trkpt lat="47.74824" lon="2.43194">
        <ele>127</ele>
        <time>2021-07-07T02:24:27Z</time>
      </trkpt>
      <trkpt lat="47.74856" lon="2.43153">
        <ele>127</ele>
        <time>2021-07-07T02:24:35Z</time>
      </trkpt>
      <trkpt lat="47.74862" lon="2.43146">
        <ele>127</ele>
        <time>2021-07-07T02:24:36Z</time>
      </trkpt>
      <trkpt lat="47.74929" lon="2.43055">
        <ele>126</ele>
        <time>2021-07-07T02:24:52Z</time>
      </trkpt>
      <trkpt lat="47.75132" lon="2.42832">
        <ele>127</ele>
        <time>2021-07-07T02:25:37Z</time>
      </trkpt>
      <trkpt lat="47.75189" lon="2.42758">
        <ele>127</ele>
        <time>2021-07-07T02:25:51Z</time>
      </trkpt>
      <trkpt lat="47.75205" lon="2.42732">
        <ele>127</ele>
        <time>2021-07-07T02:25:55Z</time>
      </trkpt>
      <trkpt lat="47.7522" lon="2.42705">
        <ele>127</ele>
        <time>2021-07-07T02:25:59Z</time>
      </trkpt>
      <trkpt lat="47.75237" lon="2.4267">
        <ele>128</ele>
        <time>2021-07-07T02:26:04Z</time>
      </trkpt>
      <trkpt lat="47.75261" lon="2.42615">
        <ele>127</ele>
        <time>2021-07-07T02:26:12Z</time>
      </trkpt>
      <trkpt lat="47.75402" lon="2.42298">
        <ele>127</ele>
        <time>2021-07-07T02:26:58Z</time>
      </trkpt>
      <trkpt lat="47.75427" lon="2.42234">
        <ele>128</ele>
        <time>2021-07-07T02:27:07Z</time>
      </trkpt>
      <trkpt lat="47.7546" lon="2.42118">
        <ele>127</ele>
        <time>2021-07-07T02:27:22Z</time>
      </trkpt>
      <trkpt lat="47.75483" lon="2.42004">
        <ele>129</ele>
        <time>2021-07-07T02:27:36Z</time>
      </trkpt>
      <trkpt lat="47.75494" lon="2.41927">
        <ele>129</ele>
        <time>2021-07-07T02:27:45Z</time>
      </trkpt>
      <trkpt lat="47.75515" lon="2.41811">
        <ele>129</ele>
        <time>2021-07-07T02:28:00Z</time>
      </trkpt>
      <trkpt lat="47.75531" lon="2.41757">
        <ele>127</ele>
        <time>2021-07-07T02:28:07Z</time>
      </trkpt>
      <trkpt lat="47.75595" lon="2.41629">
        <ele>124</ele>
        <time>2021-07-07T02:28:26Z</time>
      </trkpt>
      <trkpt lat="47.75668" lon="2.41493">
        <ele>123</ele>
        <time>2021-07-07T02:28:47Z</time>
      </trkpt>
      <trkpt lat="47.75754" lon="2.41264">
        <ele>119</ele>
        <time>2021-07-07T02:29:18Z</time>
      </trkpt>
      <trkpt lat="47.7578" lon="2.41182">
        <ele>120</ele>
        <time>2021-07-07T02:29:29Z</time>
      </trkpt>
      <trkpt lat="47.75799" lon="2.41105">
        <ele>121</ele>
        <time>2021-07-07T02:29:39Z</time>
      </trkpt>
      <trkpt lat="47.75815" lon="2.41038">
        <ele>124</ele>
        <time>2021-07-07T02:29:47Z</time>
      </trkpt>
      <trkpt lat="47.75883" lon="2.40759">
        <ele>127</ele>
        <time>2021-07-07T02:30:23Z</time>
      </trkpt>
      <trkpt lat="47.75899" lon="2.40688">
        <ele>127</ele>
        <time>2021-07-07T02:30:32Z</time>
      </trkpt>
      <trkpt lat="47.75909" lon="2.4065">
        <ele>127</ele>
        <time>2021-07-07T02:30:36Z</time>
      </trkpt>
      <trkpt lat="47.75924" lon="2.40604">
        <ele>128</ele>
        <time>2021-07-07T02:30:43Z</time>
      </trkpt>
      <trkpt lat="47.75944" lon="2.40551">
        <ele>127</ele>
        <time>2021-07-07T02:30:50Z</time>
      </trkpt>
      <trkpt lat="47.75962" lon="2.40511">
        <ele>126</ele>
        <time>2021-07-07T02:30:56Z</time>
      </trkpt>
      <trkpt lat="47.75995" lon="2.40439">
        <ele>123</ele>
        <time>2021-07-07T02:31:06Z</time>
      </trkpt>
      <trkpt lat="47.76024" lon="2.40372">
        <ele>121</ele>
        <time>2021-07-07T02:31:16Z</time>
      </trkpt>
      <trkpt lat="47.76102" lon="2.40214">
        <ele>120</ele>
        <time>2021-07-07T02:31:39Z</time>
      </trkpt>
      <trkpt lat="47.76115" lon="2.40184">
        <ele>120</ele>
        <time>2021-07-07T02:31:43Z</time>
      </trkpt>
      <trkpt lat="47.76138" lon="2.40104">
        <ele>119</ele>
        <time>2021-07-07T02:31:54Z</time>
      </trkpt>
      <trkpt lat="47.76169" lon="2.39917">
        <ele>117</ele>
        <time>2021-07-07T02:32:17Z</time>
      </trkpt>
      <trkpt lat="47.76179" lon="2.39817">
        <ele>119</ele>
        <time>2021-07-07T02:32:29Z</time>
      </trkpt>
      <trkpt lat="47.7619" lon="2.39649">
        <ele>119</ele>
        <time>2021-07-07T02:32:49Z</time>
      </trkpt>
      <trkpt lat="47.76204" lon="2.39422">
        <ele>116</ele>
        <time>2021-07-07T02:33:16Z</time>
      </trkpt>
      <trkpt lat="47.76208" lon="2.39377">
        <ele>116</ele>
        <time>2021-07-07T02:33:22Z</time>
      </trkpt>
      <trkpt lat="47.76215" lon="2.39335">
        <ele>116</ele>
        <time>2021-07-07T02:33:27Z</time>
      </trkpt>
      <trkpt lat="47.76247" lon="2.39208">
        <ele>117</ele>
        <time>2021-07-07T02:33:43Z</time>
      </trkpt>
      <trkpt lat="47.76257" lon="2.39163">
        <ele>117</ele>
        <time>2021-07-07T02:33:49Z</time>
      </trkpt>
      <trkpt lat="47.76322" lon="2.38937">
        <ele>117</ele>
        <time>2021-07-07T02:34:18Z</time>
      </trkpt>
      <trkpt lat="47.76328" lon="2.38917">
        <ele>117</ele>
        <time>2021-07-07T02:34:21Z</time>
      </trkpt>
      <trkpt lat="47.76355" lon="2.38829">
        <ele>117</ele>
        <time>2021-07-07T02:34:32Z</time>
      </trkpt>
      <trkpt lat="47.7636" lon="2.38794">
        <ele>118</ele>
        <time>2021-07-07T02:34:37Z</time>
      </trkpt>
      <trkpt lat="47.76368" lon="2.38218">
        <ele>118</ele>
        <time>2021-07-07T02:35:46Z</time>
      </trkpt>
      <trkpt lat="47.76374" lon="2.37926">
        <ele>119</ele>
        <time>2021-07-07T02:36:20Z</time>
      </trkpt>
      <trkpt lat="47.7638" lon="2.37837">
        <ele>118</ele>
        <time>2021-07-07T02:36:31Z</time>
      </trkpt>
      <trkpt lat="47.76383" lon="2.37836">
        <ele>118</ele>
        <time>2021-07-07T02:36:32Z</time>
      </trkpt>
      <trkpt lat="47.76387" lon="2.3783">
        <ele>118</ele>
        <time>2021-07-07T02:36:33Z</time>
      </trkpt>
      <trkpt lat="47.76386" lon="2.37819">
        <ele>118</ele>
        <time>2021-07-07T02:36:34Z</time>
      </trkpt>
      <trkpt lat="47.76384" lon="2.37815">
        <ele>118</ele>
        <time>2021-07-07T02:36:35Z</time>
      </trkpt>
      <trkpt lat="47.76394" lon="2.37796">
        <ele>118</ele>
        <time>2021-07-07T02:36:38Z</time>
      </trkpt>
      <trkpt lat="47.76488" lon="2.37698">
        <ele>119</ele>
        <time>2021-07-07T02:36:58Z</time>
      </trkpt>
      <trkpt lat="47.76517" lon="2.3766">
        <ele>119</ele>
        <time>2021-07-07T02:37:05Z</time>
      </trkpt>
      <trkpt lat="47.76559" lon="2.37614">
        <ele>120</ele>
        <time>2021-07-07T02:37:14Z</time>
      </trkpt>
      <trkpt lat="47.76578" lon="2.37578">
        <ele>121</ele>
        <time>2021-07-07T02:37:20Z</time>
      </trkpt>
      <trkpt lat="47.76587" lon="2.37468">
        <ele>119</ele>
        <time>2021-07-07T02:37:33Z</time>
      </trkpt>
      <trkpt lat="47.76605" lon="2.37425">
        <ele>117</ele>
        <time>2021-07-07T02:37:39Z</time>
      </trkpt>
      <trkpt lat="47.76616" lon="2.37419">
        <ele>117</ele>
        <time>2021-07-07T02:37:41Z</time>
      </trkpt>
      <trkpt lat="47.76709" lon="2.37408">
        <ele>116</ele>
        <time>2021-07-07T02:37:58Z</time>
      </trkpt>
      <trkpt lat="47.76703" lon="2.37346">
        <ele>115</ele>
        <time>2021-07-07T02:38:05Z</time>
      </trkpt>
      <trkpt lat="47.76697" lon="2.37301">
        <ele>115</ele>
        <time>2021-07-07T02:38:11Z</time>
      </trkpt>
      <trkpt lat="47.76687" lon="2.37245">
        <ele>116</ele>
        <time>2021-07-07T02:38:18Z</time>
      </trkpt>
      <trkpt lat="47.76673" lon="2.37185">
        <ele>116</ele>
        <time>2021-07-07T02:38:25Z</time>
      </trkpt>
      <trkpt lat="47.76663" lon="2.37119">
        <ele>116</ele>
        <time>2021-07-07T02:38:33Z</time>
      </trkpt>
      <trkpt lat="47.76649" lon="2.37007">
        <ele>116</ele>
        <time>2021-07-07T02:38:47Z</time>
      </trkpt>
      <trkpt lat="47.7664" lon="2.36953">
        <ele>116</ele>
        <time>2021-07-07T02:38:53Z</time>
      </trkpt>
      <trkpt lat="47.76609" lon="2.36815">
        <ele>116</ele>
        <time>2021-07-07T02:39:11Z</time>
      </trkpt>
      <trkpt lat="47.76574" lon="2.36683">
        <ele>118</ele>
        <time>2021-07-07T02:39:28Z</time>
      </trkpt>
      <trkpt lat="47.76561" lon="2.3665">
        <ele>118</ele>
        <time>2021-07-07T02:39:32Z</time>
      </trkpt>
      <trkpt lat="47.76343" lon="2.36151">
        <ele>114</ele>
        <time>2021-07-07T02:40:44Z</time>
      </trkpt>
      <trkpt lat="47.76332" lon="2.36121">
        <ele>115</ele>
        <time>2021-07-07T02:40:48Z</time>
      </trkpt>
      <trkpt lat="47.76333" lon="2.36111">
        <ele>115</ele>
        <time>2021-07-07T02:40:49Z</time>
      </trkpt>
      <trkpt lat="47.76328" lon="2.36097">
        <ele>115</ele>
        <time>2021-07-07T02:40:51Z</time>
      </trkpt>
      <trkpt lat="47.76332" lon="2.36065">
        <ele>115</ele>
        <time>2021-07-07T02:40:55Z</time>
      </trkpt>
      <trkpt lat="47.7641" lon="2.35823">
        <ele>117</ele>
        <time>2021-07-07T02:41:27Z</time>
      </trkpt>
      <trkpt lat="47.76457" lon="2.35677">
        <ele>116</ele>
        <time>2021-07-07T02:41:46Z</time>
      </trkpt>
      <trkpt lat="47.7646" lon="2.3567">
        <ele>115</ele>
        <time>2021-07-07T02:41:47Z</time>
      </trkpt>
      <trkpt lat="47.76464" lon="2.35657">
        <ele>115</ele>
        <time>2021-07-07T02:41:49Z</time>
      </trkpt>
      <trkpt lat="47.76519" lon="2.35485">
        <ele>114</ele>
        <time>2021-07-07T02:42:12Z</time>
      </trkpt>
      <trkpt lat="47.7656" lon="2.35361">
        <ele>115</ele>
        <time>2021-07-07T02:42:28Z</time>
      </trkpt>
      <trkpt lat="47.76615" lon="2.35182">
        <ele>114</ele>
        <time>2021-07-07T02:42:52Z</time>
      </trkpt>
      <trkpt lat="47.76631" lon="2.35132">
        <ele>115</ele>
        <time>2021-07-07T02:42:58Z</time>
      </trkpt>
      <trkpt lat="47.76706" lon="2.34905">
        <ele>117</ele>
        <time>2021-07-07T02:43:29Z</time>
      </trkpt>
      <trkpt lat="47.76744" lon="2.34788">
        <ele>117</ele>
        <time>2021-07-07T02:43:44Z</time>
      </trkpt>
      <trkpt lat="47.76761" lon="2.34734">
        <ele>117</ele>
        <time>2021-07-07T02:43:51Z</time>
      </trkpt>
      <trkpt lat="47.7677" lon="2.34705">
        <ele>117</ele>
        <time>2021-07-07T02:43:55Z</time>
      </trkpt>
      <trkpt lat="47.76845" lon="2.3448">
        <ele>115</ele>
        <time>2021-07-07T02:44:25Z</time>
      </trkpt>
      <trkpt lat="47.76899" lon="2.3431">
        <ele>116</ele>
        <time>2021-07-07T02:44:48Z</time>
      </trkpt>
      <trkpt lat="47.76915" lon="2.34261">
        <ele>116</ele>
        <time>2021-07-07T02:44:54Z</time>
      </trkpt>
      <trkpt lat="47.76938" lon="2.3419">
        <ele>115</ele>
        <time>2021-07-07T02:45:04Z</time>
      </trkpt>
      <trkpt lat="47.77076" lon="2.33762">
        <ele>115</ele>
        <time>2021-07-07T02:46:00Z</time>
      </trkpt>
      <trkpt lat="47.77119" lon="2.33626">
        <ele>115</ele>
        <time>2021-07-07T02:46:18Z</time>
      </trkpt>
      <trkpt lat="47.77147" lon="2.33564">
        <ele>114</ele>
        <time>2021-07-07T02:46:27Z</time>
      </trkpt>
      <trkpt lat="47.77351" lon="2.3313">
        <ele>115</ele>
        <time>2021-07-07T02:47:31Z</time>
      </trkpt>
      <trkpt lat="47.77405" lon="2.33014">
        <ele>118</ele>
        <time>2021-07-07T02:47:47Z</time>
      </trkpt>
      <trkpt lat="47.77623" lon="2.3255">
        <ele>115</ele>
        <time>2021-07-07T02:48:55Z</time>
      </trkpt>
      <trkpt lat="47.77674" lon="2.32442">
        <ele>113</ele>
        <time>2021-07-07T02:49:11Z</time>
      </trkpt>
      <trkpt lat="47.7775" lon="2.32282">
        <ele>111</ele>
        <time>2021-07-07T02:49:34Z</time>
      </trkpt>
      <trkpt lat="47.77755" lon="2.32271">
        <ele>111</ele>
        <time>2021-07-07T02:49:36Z</time>
      </trkpt>
      <trkpt lat="47.77953" lon="2.3185">
        <ele>115</ele>
        <time>2021-07-07T02:50:37Z</time>
      </trkpt>
      <trkpt lat="47.77975" lon="2.318">
        <ele>116</ele>
        <time>2021-07-07T02:50:44Z</time>
      </trkpt>
      <trkpt lat="47.77987" lon="2.31762">
        <ele>115</ele>
        <time>2021-07-07T02:50:50Z</time>
      </trkpt>
      <trkpt lat="47.78308" lon="2.30415">
        <ele>114</ele>
        <time>2021-07-07T02:53:40Z</time>
      </trkpt>
      <trkpt lat="47.78401" lon="2.30022">
        <ele>117</ele>
        <time>2021-07-07T02:54:30Z</time>
      </trkpt>
      <trkpt lat="47.78467" lon="2.29752">
        <ele>114</ele>
        <time>2021-07-07T02:55:05Z</time>
      </trkpt>
      <trkpt lat="47.78579" lon="2.29265">
        <ele>114</ele>
        <time>2021-07-07T02:56:06Z</time>
      </trkpt>
      <trkpt lat="47.7865" lon="2.28975">
        <ele>112</ele>
        <time>2021-07-07T02:56:43Z</time>
      </trkpt>
      <trkpt lat="47.78821" lon="2.28253">
        <ele>113</ele>
        <time>2021-07-07T02:58:14Z</time>
      </trkpt>
      <trkpt lat="47.78825" lon="2.28238">
        <ele>113</ele>
        <time>2021-07-07T02:58:16Z</time>
      </trkpt>
      <trkpt lat="47.78861" lon="2.28085">
        <ele>113</ele>
        <time>2021-07-07T02:58:36Z</time>
      </trkpt>
      <trkpt lat="47.78921" lon="2.27838">
        <ele>113</ele>
        <time>2021-07-07T02:59:07Z</time>
      </trkpt>
      <trkpt lat="47.79028" lon="2.27385">
        <ele>114</ele>
        <time>2021-07-07T03:00:05Z</time>
      </trkpt>
      <trkpt lat="47.79034" lon="2.27353">
        <ele>114</ele>
        <time>2021-07-07T03:00:09Z</time>
      </trkpt>
      <trkpt lat="47.79037" lon="2.27328">
        <ele>114</ele>
        <time>2021-07-07T03:00:12Z</time>
      </trkpt>
      <trkpt lat="47.79046" lon="2.27213">
        <ele>115</ele>
        <time>2021-07-07T03:00:25Z</time>
      </trkpt>
      <trkpt lat="47.79091" lon="2.26528">
        <ele>111</ele>
        <time>2021-07-07T03:01:48Z</time>
      </trkpt>
      <trkpt lat="47.79247" lon="2.24182">
        <ele>110</ele>
        <time>2021-07-07T03:06:30Z</time>
      </trkpt>
      <trkpt lat="47.79277" lon="2.23722">
        <ele>109</ele>
        <time>2021-07-07T03:07:25Z</time>
      </trkpt>
      <trkpt lat="47.79416" lon="2.21629">
        <ele>112</ele>
        <time>2021-07-07T03:11:36Z</time>
      </trkpt>
      <trkpt lat="47.79431" lon="2.21388">
        <ele>111</ele>
        <time>2021-07-07T03:12:05Z</time>
      </trkpt>
      <trkpt lat="47.79476" lon="2.20722">
        <ele>109</ele>
        <time>2021-07-07T03:13:25Z</time>
      </trkpt>
      <trkpt lat="47.79495" lon="2.20537">
        <ele>109</ele>
        <time>2021-07-07T03:13:47Z</time>
      </trkpt>
      <trkpt lat="47.79504" lon="2.204">
        <ele>109</ele>
        <time>2021-07-07T03:14:04Z</time>
      </trkpt>
      <trkpt lat="47.7951" lon="2.20378">
        <ele>109</ele>
        <time>2021-07-07T03:14:07Z</time>
      </trkpt>
      <trkpt lat="47.79512" lon="2.20364">
        <ele>109</ele>
        <time>2021-07-07T03:14:08Z</time>
      </trkpt>
      <trkpt lat="47.79511" lon="2.20299">
        <ele>109</ele>
        <time>2021-07-07T03:14:16Z</time>
      </trkpt>
      <trkpt lat="47.79533" lon="2.2">
        <ele>110</ele>
        <time>2021-07-07T03:14:52Z</time>
      </trkpt>
      <trkpt lat="47.79541" lon="2.19918">
        <ele>110</ele>
        <time>2021-07-07T03:15:02Z</time>
      </trkpt>
      <trkpt lat="47.7954" lon="2.19908">
        <ele>110</ele>
        <time>2021-07-07T03:15:03Z</time>
      </trkpt>
      <trkpt lat="47.79537" lon="2.19898">
        <ele>110</ele>
        <time>2021-07-07T03:15:05Z</time>
      </trkpt>
      <trkpt lat="47.79527" lon="2.19879">
        <ele>110</ele>
        <time>2021-07-07T03:15:08Z</time>
      </trkpt>
      <trkpt lat="47.79509" lon="2.19826">
        <ele>110</ele>
        <time>2021-07-07T03:15:15Z</time>
      </trkpt>
      <trkpt lat="47.79493" lon="2.1964">
        <ele>108</ele>
        <time>2021-07-07T03:15:37Z</time>
      </trkpt>
      <trkpt lat="47.79484" lon="2.19568">
        <ele>109</ele>
        <time>2021-07-07T03:15:46Z</time>
      </trkpt>
      <trkpt lat="47.79474" lon="2.19506">
        <ele>109</ele>
        <time>2021-07-07T03:15:53Z</time>
      </trkpt>
      <trkpt lat="47.79417" lon="2.19289">
        <ele>109</ele>
        <time>2021-07-07T03:16:21Z</time>
      </trkpt>
      <trkpt lat="47.7941" lon="2.19259">
        <ele>109</ele>
        <time>2021-07-07T03:16:25Z</time>
      </trkpt>
      <trkpt lat="47.79394" lon="2.19175">
        <ele>109</ele>
        <time>2021-07-07T03:16:35Z</time>
      </trkpt>
      <trkpt lat="47.79386" lon="2.19076">
        <ele>107</ele>
        <time>2021-07-07T03:16:47Z</time>
      </trkpt>
      <trkpt lat="47.79386" lon="2.18988">
        <ele>107</ele>
        <time>2021-07-07T03:16:58Z</time>
      </trkpt>
      <trkpt lat="47.79418" lon="2.18762">
        <ele>108</ele>
        <time>2021-07-07T03:17:26Z</time>
      </trkpt>
      <trkpt lat="47.79438" lon="2.18611">
        <ele>108</ele>
        <time>2021-07-07T03:17:44Z</time>
      </trkpt>
      <trkpt lat="47.7946" lon="2.18487">
        <ele>108</ele>
        <time>2021-07-07T03:17:59Z</time>
      </trkpt>
      <trkpt lat="47.79478" lon="2.18429">
        <ele>108</ele>
        <time>2021-07-07T03:18:07Z</time>
      </trkpt>
      <trkpt lat="47.79529" lon="2.18302">
        <ele>109</ele>
        <time>2021-07-07T03:18:25Z</time>
      </trkpt>
      <trkpt lat="47.7955" lon="2.18243">
        <ele>109</ele>
        <time>2021-07-07T03:18:33Z</time>
      </trkpt>
      <trkpt lat="47.79603" lon="2.18017">
        <ele>108</ele>
        <time>2021-07-07T03:19:01Z</time>
      </trkpt>
      <trkpt lat="47.79684" lon="2.17648">
        <ele>109</ele>
        <time>2021-07-07T03:19:48Z</time>
      </trkpt>
      <trkpt lat="47.79734" lon="2.17453">
        <ele>110</ele>
        <time>2021-07-07T03:20:13Z</time>
      </trkpt>
      <trkpt lat="47.79792" lon="2.1719">
        <ele>109</ele>
        <time>2021-07-07T03:20:46Z</time>
      </trkpt>
      <trkpt lat="47.79815" lon="2.17066">
        <ele>107</ele>
        <time>2021-07-07T03:21:01Z</time>
      </trkpt>
      <trkpt lat="47.79839" lon="2.16848">
        <ele>110</ele>
        <time>2021-07-07T03:21:27Z</time>
      </trkpt>
      <trkpt lat="47.79856" lon="2.16744">
        <ele>110</ele>
        <time>2021-07-07T03:21:40Z</time>
      </trkpt>
      <trkpt lat="47.79945" lon="2.16277">
        <ele>107</ele>
        <time>2021-07-07T03:22:38Z</time>
      </trkpt>
      <trkpt lat="47.8" lon="2.15817">
        <ele>108</ele>
        <time>2021-07-07T03:23:34Z</time>
      </trkpt>
      <trkpt lat="47.80017" lon="2.15762">
        <ele>109</ele>
        <time>2021-07-07T03:23:41Z</time>
      </trkpt>
      <trkpt lat="47.80071" lon="2.1564">
        <ele>108</ele>
        <time>2021-07-07T03:23:59Z</time>
      </trkpt>
      <trkpt lat="47.80124" lon="2.15532">
        <ele>109</ele>
        <time>2021-07-07T03:24:15Z</time>
      </trkpt>
      <trkpt lat="47.80152" lon="2.15467">
        <ele>109</ele>
        <time>2021-07-07T03:24:24Z</time>
      </trkpt>
      <trkpt lat="47.80185" lon="2.15354">
        <ele>109</ele>
        <time>2021-07-07T03:24:39Z</time>
      </trkpt>
      <trkpt lat="47.80194" lon="2.15303">
        <ele>108</ele>
        <time>2021-07-07T03:24:45Z</time>
      </trkpt>
      <trkpt lat="47.80201" lon="2.15248">
        <ele>107</ele>
        <time>2021-07-07T03:24:52Z</time>
      </trkpt>
      <trkpt lat="47.80204" lon="2.14942">
        <ele>107</ele>
        <time>2021-07-07T03:25:28Z</time>
      </trkpt>
      <trkpt lat="47.80206" lon="2.14576">
        <ele>108</ele>
        <time>2021-07-07T03:26:12Z</time>
      </trkpt>
      <trkpt lat="47.80205" lon="2.14487">
        <ele>107</ele>
        <time>2021-07-07T03:26:23Z</time>
      </trkpt>
      <trkpt lat="47.80174" lon="2.14109">
        <ele>107</ele>
        <time>2021-07-07T03:27:08Z</time>
      </trkpt>
      <trkpt lat="47.80168" lon="2.14082">
        <ele>107</ele>
        <time>2021-07-07T03:27:12Z</time>
      </trkpt>
      <trkpt lat="47.80161" lon="2.14055">
        <ele>107</ele>
        <time>2021-07-07T03:27:15Z</time>
      </trkpt>
      <trkpt lat="47.80158" lon="2.14038">
        <ele>108</ele>
        <time>2021-07-07T03:27:17Z</time>
      </trkpt>
      <trkpt lat="47.80161" lon="2.14036">
        <ele>108</ele>
        <time>2021-07-07T03:27:18Z</time>
      </trkpt>
      <trkpt lat="47.80165" lon="2.14031">
        <ele>108</ele>
        <time>2021-07-07T03:27:19Z</time>
      </trkpt>
      <trkpt lat="47.80165" lon="2.14022">
        <ele>108</ele>
        <time>2021-07-07T03:27:20Z</time>
      </trkpt>
      <trkpt lat="47.80164" lon="2.14019">
        <ele>108</ele>
        <time>2021-07-07T03:27:20Z</time>
      </trkpt>
      <trkpt lat="47.80157" lon="2.14014">
        <ele>108</ele>
        <time>2021-07-07T03:27:21Z</time>
      </trkpt>
      <trkpt lat="47.80151" lon="2.14018">
        <ele>108</ele>
        <time>2021-07-07T03:27:23Z</time>
      </trkpt>
      <trkpt lat="47.80145" lon="2.14012">
        <ele>108</ele>
        <time>2021-07-07T03:27:24Z</time>
      </trkpt>
      <trkpt lat="47.80114" lon="2.13966">
        <ele>108</ele>
        <time>2021-07-07T03:27:32Z</time>
      </trkpt>
      <trkpt lat="47.8007" lon="2.13911">
        <ele>108</ele>
        <time>2021-07-07T03:27:42Z</time>
      </trkpt>
      <trkpt lat="47.80068" lon="2.139">
        <ele>108</ele>
        <time>2021-07-07T03:27:43Z</time>
      </trkpt>
      <trkpt lat="47.80066" lon="2.13852">
        <ele>108</ele>
        <time>2021-07-07T03:27:49Z</time>
      </trkpt>
      <trkpt lat="47.80067" lon="2.13799">
        <ele>109</ele>
        <time>2021-07-07T03:27:55Z</time>
      </trkpt>
      <trkpt lat="47.80079" lon="2.13628">
        <ele>111</ele>
        <time>2021-07-07T03:28:16Z</time>
      </trkpt>
      <trkpt lat="47.8008" lon="2.13563">
        <ele>111</ele>
        <time>2021-07-07T03:28:24Z</time>
      </trkpt>
      <trkpt lat="47.80085" lon="2.13526">
        <ele>110</ele>
        <time>2021-07-07T03:28:28Z</time>
      </trkpt>
      <trkpt lat="47.80078" lon="2.1352">
        <ele>110</ele>
        <time>2021-07-07T03:28:30Z</time>
      </trkpt>
      <trkpt lat="47.80059" lon="2.13495">
        <ele>111</ele>
        <time>2021-07-07T03:28:34Z</time>
      </trkpt>
      <trkpt lat="47.80055" lon="2.13486">
        <ele>111</ele>
        <time>2021-07-07T03:28:35Z</time>
      </trkpt>
      <trkpt lat="47.80026" lon="2.13411">
        <ele>112</ele>
        <time>2021-07-07T03:28:46Z</time>
      </trkpt>
      <trkpt lat="47.80015" lon="2.13371">
        <ele>113</ele>
        <time>2021-07-07T03:28:51Z</time>
      </trkpt>
      <trkpt lat="47.80012" lon="2.13355">
        <ele>113</ele>
        <time>2021-07-07T03:28:53Z</time>
      </trkpt>
      <trkpt lat="47.80011" lon="2.13341">
        <ele>113</ele>
        <time>2021-07-07T03:28:55Z</time>
      </trkpt>
      <trkpt lat="47.80013" lon="2.13327">
        <ele>113</ele>
        <time>2021-07-07T03:28:56Z</time>
      </trkpt>
      <trkpt lat="47.80018" lon="2.13314">
        <ele>113</ele>
        <time>2021-07-07T03:28:58Z</time>
      </trkpt>
      <trkpt lat="47.80075" lon="2.13148">
        <ele>115</ele>
        <time>2021-07-07T03:29:20Z</time>
      </trkpt>
      <trkpt lat="47.80125" lon="2.12974">
        <ele>116</ele>
        <time>2021-07-07T03:29:43Z</time>
      </trkpt>
      <trkpt lat="47.80166" lon="2.12799">
        <ele>118</ele>
        <time>2021-07-07T03:30:05Z</time>
      </trkpt>
      <trkpt lat="47.80194" lon="2.12693">
        <ele>116</ele>
        <time>2021-07-07T03:30:19Z</time>
      </trkpt>
      <trkpt lat="47.80201" lon="2.12648">
        <ele>116</ele>
        <time>2021-07-07T03:30:24Z</time>
      </trkpt>
      <trkpt lat="47.80223" lon="2.12456">
        <ele>109</ele>
        <time>2021-07-07T03:30:48Z</time>
      </trkpt>
      <trkpt lat="47.80246" lon="2.12327">
        <ele>111</ele>
        <time>2021-07-07T03:31:04Z</time>
      </trkpt>
      <trkpt lat="47.8028" lon="2.1222">
        <ele>114</ele>
        <time>2021-07-07T03:31:18Z</time>
      </trkpt>
      <trkpt lat="47.80342" lon="2.12103">
        <ele>112</ele>
        <time>2021-07-07T03:31:36Z</time>
      </trkpt>
      <trkpt lat="47.80369" lon="2.12062">
        <ele>111</ele>
        <time>2021-07-07T03:31:42Z</time>
      </trkpt>
      <trkpt lat="47.8039" lon="2.12026">
        <ele>111</ele>
        <time>2021-07-07T03:31:48Z</time>
      </trkpt>
      <trkpt lat="47.80405" lon="2.11994">
        <ele>111</ele>
        <time>2021-07-07T03:31:53Z</time>
      </trkpt>
      <trkpt lat="47.80418" lon="2.11958">
        <ele>111</ele>
        <time>2021-07-07T03:31:58Z</time>
      </trkpt>
      <trkpt lat="47.80425" lon="2.11928">
        <ele>111</ele>
        <time>2021-07-07T03:32:01Z</time>
      </trkpt>
      <trkpt lat="47.80433" lon="2.11883">
        <ele>110</ele>
        <time>2021-07-07T03:32:07Z</time>
      </trkpt>
      <trkpt lat="47.80437" lon="2.11819">
        <ele>110</ele>
        <time>2021-07-07T03:32:15Z</time>
      </trkpt>
      <trkpt lat="47.80432" lon="2.11585">
        <ele>113</ele>
        <time>2021-07-07T03:32:43Z</time>
      </trkpt>
      <trkpt lat="47.8044" lon="2.11489">
        <ele>114</ele>
        <time>2021-07-07T03:32:54Z</time>
      </trkpt>
      <trkpt lat="47.80465" lon="2.11376">
        <ele>113</ele>
        <time>2021-07-07T03:33:08Z</time>
      </trkpt>
      <trkpt lat="47.8047" lon="2.11313">
        <ele>113</ele>
        <time>2021-07-07T03:33:16Z</time>
      </trkpt>
      <trkpt lat="47.80468" lon="2.1118">
        <ele>114</ele>
        <time>2021-07-07T03:33:32Z</time>
      </trkpt>
      <trkpt lat="47.80478" lon="2.1105">
        <ele>112</ele>
        <time>2021-07-07T03:33:48Z</time>
      </trkpt>
      <trkpt lat="47.80504" lon="2.10922">
        <ele>111</ele>
        <time>2021-07-07T03:34:04Z</time>
      </trkpt>
      <trkpt lat="47.80521" lon="2.10864">
        <ele>111</ele>
        <time>2021-07-07T03:34:11Z</time>
      </trkpt>
      <trkpt lat="47.80535" lon="2.10808">
        <ele>109</ele>
        <time>2021-07-07T03:34:18Z</time>
      </trkpt>
      <trkpt lat="47.80592" lon="2.1057">
        <ele>106</ele>
        <time>2021-07-07T03:34:48Z</time>
      </trkpt>
      <trkpt lat="47.80602" lon="2.1051">
        <ele>105</ele>
        <time>2021-07-07T03:34:56Z</time>
      </trkpt>
      <trkpt lat="47.80601" lon="2.1046">
        <ele>107</ele>
        <time>2021-07-07T03:35:02Z</time>
      </trkpt>
      <trkpt lat="47.80598" lon="2.1032">
        <ele>110</ele>
        <time>2021-07-07T03:35:19Z</time>
      </trkpt>
      <trkpt lat="47.80579" lon="2.09993">
        <ele>111</ele>
        <time>2021-07-07T03:35:58Z</time>
      </trkpt>
      <trkpt lat="47.80585" lon="2.09856">
        <ele>112</ele>
        <time>2021-07-07T03:36:14Z</time>
      </trkpt>
      <trkpt lat="47.80606" lon="2.09386">
        <ele>112</ele>
        <time>2021-07-07T03:37:10Z</time>
      </trkpt>
      <trkpt lat="47.80609" lon="2.09333">
        <ele>112</ele>
        <time>2021-07-07T03:37:17Z</time>
      </trkpt>
      <trkpt lat="47.80608" lon="2.09281">
        <ele>111</ele>
        <time>2021-07-07T03:37:23Z</time>
      </trkpt>
      <trkpt lat="47.80565" lon="2.08997">
        <ele>111</ele>
        <time>2021-07-07T03:37:58Z</time>
      </trkpt>
      <trkpt lat="47.8056" lon="2.0897">
        <ele>111</ele>
        <time>2021-07-07T03:38:01Z</time>
      </trkpt>
      <trkpt lat="47.80563" lon="2.08932">
        <ele>112</ele>
        <time>2021-07-07T03:38:06Z</time>
      </trkpt>
      <trkpt lat="47.80567" lon="2.0891">
        <ele>112</ele>
        <time>2021-07-07T03:38:08Z</time>
      </trkpt>
      <trkpt lat="47.80569" lon="2.08903">
        <ele>112</ele>
        <time>2021-07-07T03:38:09Z</time>
      </trkpt>
      <trkpt lat="47.80562" lon="2.08896">
        <ele>113</ele>
        <time>2021-07-07T03:38:11Z</time>
      </trkpt>
      <trkpt lat="47.80557" lon="2.0889">
        <ele>113</ele>
        <time>2021-07-07T03:38:12Z</time>
      </trkpt>
      <trkpt lat="47.80551" lon="2.08878">
        <ele>114</ele>
        <time>2021-07-07T03:38:14Z</time>
      </trkpt>
      <trkpt lat="47.80544" lon="2.0885">
        <ele>115</ele>
        <time>2021-07-07T03:38:17Z</time>
      </trkpt>
      <trkpt lat="47.80527" lon="2.08737">
        <ele>117</ele>
        <time>2021-07-07T03:38:31Z</time>
      </trkpt>
      <trkpt lat="47.80506" lon="2.08612">
        <ele>118</ele>
        <time>2021-07-07T03:38:47Z</time>
      </trkpt>
      <trkpt lat="47.805" lon="2.08577">
        <ele>118</ele>
        <time>2021-07-07T03:38:51Z</time>
      </trkpt>
      <trkpt lat="47.80491" lon="2.08529">
        <ele>119</ele>
        <time>2021-07-07T03:38:57Z</time>
      </trkpt>
      <trkpt lat="47.80475" lon="2.0846">
        <ele>118</ele>
        <time>2021-07-07T03:39:06Z</time>
      </trkpt>
      <trkpt lat="47.80472" lon="2.08445">
        <ele>118</ele>
        <time>2021-07-07T03:39:07Z</time>
      </trkpt>
      <trkpt lat="47.80452" lon="2.08379">
        <ele>118</ele>
        <time>2021-07-07T03:39:16Z</time>
      </trkpt>
      <trkpt lat="47.80421" lon="2.08295">
        <ele>118</ele>
        <time>2021-07-07T03:39:28Z</time>
      </trkpt>
      <trkpt lat="47.80395" lon="2.0824">
        <ele>119</ele>
        <time>2021-07-07T03:39:36Z</time>
      </trkpt>
      <trkpt lat="47.80362" lon="2.08188">
        <ele>118</ele>
        <time>2021-07-07T03:39:44Z</time>
      </trkpt>
      <trkpt lat="47.80334" lon="2.08151">
        <ele>117</ele>
        <time>2021-07-07T03:39:51Z</time>
      </trkpt>
      <trkpt lat="47.80291" lon="2.0811">
        <ele>117</ele>
        <time>2021-07-07T03:40:00Z</time>
      </trkpt>
      <trkpt lat="47.80255" lon="2.08082">
        <ele>118</ele>
        <time>2021-07-07T03:40:07Z</time>
      </trkpt>
      <trkpt lat="47.80016" lon="2.07907">
        <ele>123</ele>
        <time>2021-07-07T03:40:55Z</time>
      </trkpt>
      <trkpt lat="47.79974" lon="2.07871">
        <ele>125</ele>
        <time>2021-07-07T03:41:03Z</time>
      </trkpt>
      <trkpt lat="47.79946" lon="2.07839">
        <ele>127</ele>
        <time>2021-07-07T03:41:09Z</time>
      </trkpt>
      <trkpt lat="47.79932" lon="2.07822">
        <ele>127</ele>
        <time>2021-07-07T03:41:13Z</time>
      </trkpt>
      <trkpt lat="47.79804" lon="2.07653">
        <ele>130</ele>
        <time>2021-07-07T03:41:43Z</time>
      </trkpt>
      <trkpt lat="47.7977" lon="2.07612">
        <ele>131</ele>
        <time>2021-07-07T03:41:51Z</time>
      </trkpt>
      <trkpt lat="47.79736" lon="2.07578">
        <ele>132</ele>
        <time>2021-07-07T03:41:58Z</time>
      </trkpt>
      <trkpt lat="47.79571" lon="2.07448">
        <ele>130</ele>
        <time>2021-07-07T03:42:31Z</time>
      </trkpt>
      <trkpt lat="47.79271" lon="2.07192">
        <ele>128</ele>
        <time>2021-07-07T03:43:33Z</time>
      </trkpt>
      <trkpt lat="47.79147" lon="2.07085">
        <ele>128</ele>
        <time>2021-07-07T03:43:58Z</time>
      </trkpt>
      <trkpt lat="47.79088" lon="2.07033">
        <ele>126</ele>
        <time>2021-07-07T03:44:11Z</time>
      </trkpt>
      <trkpt lat="47.78957" lon="2.06922">
        <ele>127</ele>
        <time>2021-07-07T03:44:37Z</time>
      </trkpt>
      <trkpt lat="47.78889" lon="2.06859">
        <ele>127</ele>
        <time>2021-07-07T03:44:52Z</time>
      </trkpt>
      <trkpt lat="47.78856" lon="2.06824">
        <ele>127</ele>
        <time>2021-07-07T03:44:59Z</time>
      </trkpt>
      <trkpt lat="47.78765" lon="2.06714">
        <ele>126</ele>
        <time>2021-07-07T03:45:20Z</time>
      </trkpt>
      <trkpt lat="47.78674" lon="2.06599">
        <ele>126</ele>
        <time>2021-07-07T03:45:41Z</time>
      </trkpt>
      <trkpt lat="47.7862" lon="2.06528">
        <ele>126</ele>
        <time>2021-07-07T03:45:54Z</time>
      </trkpt>
      <trkpt lat="47.78597" lon="2.06492">
        <ele>125</ele>
        <time>2021-07-07T03:46:00Z</time>
      </trkpt>
      <trkpt lat="47.78581" lon="2.0646">
        <ele>124</ele>
        <time>2021-07-07T03:46:05Z</time>
      </trkpt>
      <trkpt lat="47.7857" lon="2.06434">
        <ele>123</ele>
        <time>2021-07-07T03:46:08Z</time>
      </trkpt>
      <trkpt lat="47.78561" lon="2.06408">
        <ele>122</ele>
        <time>2021-07-07T03:46:12Z</time>
      </trkpt>
      <trkpt lat="47.78552" lon="2.06376">
        <ele>122</ele>
        <time>2021-07-07T03:46:16Z</time>
      </trkpt>
      <trkpt lat="47.78526" lon="2.06263">
        <ele>122</ele>
        <time>2021-07-07T03:46:30Z</time>
      </trkpt>
      <trkpt lat="47.78468" lon="2.06024">
        <ele>123</ele>
        <time>2021-07-07T03:47:00Z</time>
      </trkpt>
      <trkpt lat="47.78466" lon="2.06015">
        <ele>123</ele>
        <time>2021-07-07T03:47:02Z</time>
      </trkpt>
      <trkpt lat="47.78412" lon="2.05789">
        <ele>122</ele>
        <time>2021-07-07T03:47:30Z</time>
      </trkpt>
      <trkpt lat="47.7839" lon="2.05699">
        <ele>123</ele>
        <time>2021-07-07T03:47:42Z</time>
      </trkpt>
      <trkpt lat="47.78377" lon="2.05649">
        <ele>123</ele>
        <time>2021-07-07T03:47:48Z</time>
      </trkpt>
      <trkpt lat="47.7837" lon="2.0563">
        <ele>123</ele>
        <time>2021-07-07T03:47:51Z</time>
      </trkpt>
      <trkpt lat="47.78356" lon="2.05594">
        <ele>124</ele>
        <time>2021-07-07T03:47:56Z</time>
      </trkpt>
      <trkpt lat="47.7833" lon="2.05536">
        <ele>124</ele>
        <time>2021-07-07T03:48:04Z</time>
      </trkpt>
      <trkpt lat="47.7815" lon="2.05207">
        <ele>126</ele>
        <time>2021-07-07T03:48:55Z</time>
      </trkpt>
      <trkpt lat="47.77743" lon="2.04627">
        <ele>128</ele>
        <time>2021-07-07T03:50:35Z</time>
      </trkpt>
      <trkpt lat="47.77683" lon="2.04532">
        <ele>129</ele>
        <time>2021-07-07T03:50:51Z</time>
      </trkpt>
      <trkpt lat="47.77634" lon="2.04441">
        <ele>128</ele>
        <time>2021-07-07T03:51:05Z</time>
      </trkpt>
      <trkpt lat="47.77599" lon="2.04372">
        <ele>129</ele>
        <time>2021-07-07T03:51:15Z</time>
      </trkpt>
      <trkpt lat="47.77571" lon="2.04312">
        <ele>129</ele>
        <time>2021-07-07T03:51:24Z</time>
      </trkpt>
      <trkpt lat="47.77544" lon="2.04245">
        <ele>128</ele>
        <time>2021-07-07T03:51:33Z</time>
      </trkpt>
      <trkpt lat="47.77422" lon="2.0393">
        <ele>127</ele>
        <time>2021-07-07T03:52:16Z</time>
      </trkpt>
      <trkpt lat="47.77244" lon="2.03474">
        <ele>126</ele>
        <time>2021-07-07T03:53:20Z</time>
      </trkpt>
      <trkpt lat="47.77224" lon="2.03429">
        <ele>125</ele>
        <time>2021-07-07T03:53:26Z</time>
      </trkpt>
      <trkpt lat="47.77201" lon="2.03384">
        <ele>125</ele>
        <time>2021-07-07T03:53:33Z</time>
      </trkpt>
      <trkpt lat="47.77126" lon="2.03248">
        <ele>125</ele>
        <time>2021-07-07T03:53:54Z</time>
      </trkpt>
      <trkpt lat="47.77059" lon="2.0313">
        <ele>126</ele>
        <time>2021-07-07T03:54:12Z</time>
      </trkpt>
      <trkpt lat="47.76897" lon="2.0284">
        <ele>125</ele>
        <time>2021-07-07T03:54:57Z</time>
      </trkpt>
      <trkpt lat="47.7687" lon="2.02783">
        <ele>126</ele>
        <time>2021-07-07T03:55:06Z</time>
      </trkpt>
      <trkpt lat="47.76842" lon="2.02735">
        <ele>126</ele>
        <time>2021-07-07T03:55:13Z</time>
      </trkpt>
      <trkpt lat="47.76819" lon="2.02694">
        <ele>125</ele>
        <time>2021-07-07T03:55:20Z</time>
      </trkpt>
      <trkpt lat="47.76792" lon="2.02653">
        <ele>125</ele>
        <time>2021-07-07T03:55:27Z</time>
      </trkpt>
      <trkpt lat="47.76778" lon="2.02627">
        <ele>126</ele>
        <time>2021-07-07T03:55:31Z</time>
      </trkpt>
      <trkpt lat="47.76761" lon="2.02598">
        <ele>126</ele>
        <time>2021-07-07T03:55:35Z</time>
      </trkpt>
      <trkpt lat="47.76731" lon="2.02544">
        <ele>126</ele>
        <time>2021-07-07T03:55:44Z</time>
      </trkpt>
      <trkpt lat="47.76691" lon="2.02471">
        <ele>125</ele>
        <time>2021-07-07T03:55:55Z</time>
      </trkpt>
      <trkpt lat="47.76657" lon="2.0241">
        <ele>124</ele>
        <time>2021-07-07T03:56:04Z</time>
      </trkpt>
      <trkpt lat="47.7663" lon="2.02361">
        <ele>125</ele>
        <time>2021-07-07T03:56:12Z</time>
      </trkpt>
      <trkpt lat="47.76624" lon="2.02349">
        <ele>125</ele>
        <time>2021-07-07T03:56:14Z</time>
      </trkpt>
      <trkpt lat="47.76591" lon="2.02289">
        <ele>125</ele>
        <time>2021-07-07T03:56:23Z</time>
      </trkpt>
      <trkpt lat="47.76576" lon="2.0226">
        <ele>125</ele>
        <time>2021-07-07T03:56:27Z</time>
      </trkpt>
      <trkpt lat="47.76539" lon="2.02187">
        <ele>124</ele>
        <time>2021-07-07T03:56:38Z</time>
      </trkpt>
      <trkpt lat="47.76527" lon="2.02167">
        <ele>124</ele>
        <time>2021-07-07T03:56:41Z</time>
      </trkpt>
      <trkpt lat="47.76517" lon="2.02155">
        <ele>124</ele>
        <time>2021-07-07T03:56:44Z</time>
      </trkpt>
      <trkpt lat="47.76502" lon="2.02146">
        <ele>123</ele>
        <time>2021-07-07T03:56:47Z</time>
      </trkpt>
      <trkpt lat="47.76489" lon="2.02136">
        <ele>123</ele>
        <time>2021-07-07T03:56:49Z</time>
      </trkpt>
      <trkpt lat="47.76462" lon="2.02113">
        <ele>122</ele>
        <time>2021-07-07T03:56:55Z</time>
      </trkpt>
      <trkpt lat="47.76455" lon="2.02105">
        <ele>122</ele>
        <time>2021-07-07T03:56:56Z</time>
      </trkpt>
      <trkpt lat="47.76449" lon="2.02098">
        <ele>122</ele>
        <time>2021-07-07T03:56:58Z</time>
      </trkpt>
      <trkpt lat="47.76443" lon="2.02091">
        <ele>121</ele>
        <time>2021-07-07T03:56:59Z</time>
      </trkpt>
      <trkpt lat="47.76389" lon="2.02045">
        <ele>120</ele>
        <time>2021-07-07T03:57:10Z</time>
      </trkpt>
      <trkpt lat="47.76373" lon="2.02032">
        <ele>120</ele>
        <time>2021-07-07T03:57:13Z</time>
      </trkpt>
      <trkpt lat="47.76304" lon="2.01975">
        <ele>118</ele>
        <time>2021-07-07T03:57:27Z</time>
      </trkpt>
      <trkpt lat="47.76275" lon="2.01952">
        <ele>118</ele>
        <time>2021-07-07T03:57:33Z</time>
      </trkpt>
      <trkpt lat="47.76259" lon="2.01939">
        <ele>117</ele>
        <time>2021-07-07T03:57:36Z</time>
      </trkpt>
      <trkpt lat="47.76184" lon="2.01875">
        <ele>117</ele>
        <time>2021-07-07T03:57:52Z</time>
      </trkpt>
      <trkpt lat="47.76142" lon="2.01842">
        <ele>117</ele>
        <time>2021-07-07T03:58:00Z</time>
      </trkpt>
      <trkpt lat="47.76092" lon="2.01799">
        <ele>116</ele>
        <time>2021-07-07T03:58:11Z</time>
      </trkpt>
      <trkpt lat="47.76" lon="2.01723">
        <ele>116</ele>
        <time>2021-07-07T03:58:29Z</time>
      </trkpt>
      <trkpt lat="47.75981" lon="2.01705">
        <ele>116</ele>
        <time>2021-07-07T03:58:33Z</time>
      </trkpt>
      <trkpt lat="47.75961" lon="2.01681">
        <ele>115</ele>
        <time>2021-07-07T03:58:38Z</time>
      </trkpt>
      <trkpt lat="47.7594" lon="2.01652">
        <ele>113</ele>
        <time>2021-07-07T03:58:43Z</time>
      </trkpt>
      <trkpt lat="47.75922" lon="2.01621">
        <ele>112</ele>
        <time>2021-07-07T03:58:48Z</time>
      </trkpt>
      <trkpt lat="47.75907" lon="2.01587">
        <ele>111</ele>
        <time>2021-07-07T03:58:53Z</time>
      </trkpt>
      <trkpt lat="47.75894" lon="2.01553">
        <ele>111</ele>
        <time>2021-07-07T03:58:57Z</time>
      </trkpt>
      <trkpt lat="47.75882" lon="2.0151">
        <ele>112</ele>
        <time>2021-07-07T03:59:03Z</time>
      </trkpt>
      <trkpt lat="47.75871" lon="2.01451">
        <ele>113</ele>
        <time>2021-07-07T03:59:10Z</time>
      </trkpt>
      <trkpt lat="47.75867" lon="2.01391">
        <ele>113</ele>
        <time>2021-07-07T03:59:17Z</time>
      </trkpt>
      <trkpt lat="47.75854" lon="2.01022">
        <ele>114</ele>
        <time>2021-07-07T04:00:02Z</time>
      </trkpt>
      <trkpt lat="47.7585" lon="2.0098">
        <ele>114</ele>
        <time>2021-07-07T04:00:07Z</time>
      </trkpt>
      <trkpt lat="47.75845" lon="2.00948">
        <ele>114</ele>
        <time>2021-07-07T04:00:11Z</time>
      </trkpt>
      <trkpt lat="47.75835" lon="2.00905">
        <ele>114</ele>
        <time>2021-07-07T04:00:16Z</time>
      </trkpt>
      <trkpt lat="47.75819" lon="2.00862">
        <ele>114</ele>
        <time>2021-07-07T04:00:22Z</time>
      </trkpt>
      <trkpt lat="47.75757" lon="2.00722">
        <ele>114</ele>
        <time>2021-07-07T04:00:42Z</time>
      </trkpt>
      <trkpt lat="47.75647" lon="2.00416">
        <ele>112</ele>
        <time>2021-07-07T04:01:24Z</time>
      </trkpt>
      <trkpt lat="47.75638" lon="2.0038">
        <ele>111</ele>
        <time>2021-07-07T04:01:28Z</time>
      </trkpt>
      <trkpt lat="47.75621" lon="2.00255">
        <ele>111</ele>
        <time>2021-07-07T04:01:43Z</time>
      </trkpt>
      <trkpt lat="47.75609" lon="2.00204">
        <ele>111</ele>
        <time>2021-07-07T04:01:50Z</time>
      </trkpt>
      <trkpt lat="47.75597" lon="2.00162">
        <ele>111</ele>
        <time>2021-07-07T04:01:55Z</time>
      </trkpt>
      <trkpt lat="47.75588" lon="2.00141">
        <ele>111</ele>
        <time>2021-07-07T04:01:58Z</time>
      </trkpt>
      <trkpt lat="47.75576" lon="2.00111">
        <ele>112</ele>
        <time>2021-07-07T04:02:03Z</time>
      </trkpt>
      <trkpt lat="47.7556" lon="2.00084">
        <ele>112</ele>
        <time>2021-07-07T04:02:07Z</time>
      </trkpt>
      <trkpt lat="47.75511" lon="2.00021">
        <ele>111</ele>
        <time>2021-07-07T04:02:18Z</time>
      </trkpt>
      <trkpt lat="47.75418" lon="1.99916">
        <ele>111</ele>
        <time>2021-07-07T04:02:39Z</time>
      </trkpt>
      <trkpt lat="47.75382" lon="1.99874">
        <ele>110</ele>
        <time>2021-07-07T04:02:47Z</time>
      </trkpt>
      <trkpt lat="47.75315" lon="1.99794">
        <ele>110</ele>
        <time>2021-07-07T04:03:03Z</time>
      </trkpt>
      <trkpt lat="47.75057" lon="1.99405">
        <ele>111</ele>
        <time>2021-07-07T04:04:08Z</time>
      </trkpt>
      <trkpt lat="47.7492" lon="1.99196">
        <ele>111</ele>
        <time>2021-07-07T04:04:43Z</time>
      </trkpt>
      <trkpt lat="47.7486" lon="1.99107">
        <ele>110</ele>
        <time>2021-07-07T04:04:58Z</time>
      </trkpt>
      <trkpt lat="47.74853" lon="1.99098">
        <ele>110</ele>
        <time>2021-07-07T04:05:00Z</time>
      </trkpt>
      <trkpt lat="47.7474" lon="1.98966">
        <ele>108</ele>
        <time>2021-07-07T04:05:25Z</time>
      </trkpt>
      <trkpt lat="47.74704" lon="1.98922">
        <ele>108</ele>
        <time>2021-07-07T04:05:33Z</time>
      </trkpt>
      <trkpt lat="47.74592" lon="1.98791">
        <ele>109</ele>
        <time>2021-07-07T04:05:59Z</time>
      </trkpt>
      <trkpt lat="47.74581" lon="1.98781">
        <ele>109</ele>
        <time>2021-07-07T04:06:01Z</time>
      </trkpt>
      <trkpt lat="47.7456" lon="1.9876">
        <ele>109</ele>
        <time>2021-07-07T04:06:06Z</time>
      </trkpt>
      <trkpt lat="47.7445" lon="1.98667">
        <ele>110</ele>
        <time>2021-07-07T04:06:28Z</time>
      </trkpt>
      <trkpt lat="47.74207" lon="1.98469">
        <ele>109</ele>
        <time>2021-07-07T04:07:17Z</time>
      </trkpt>
      <trkpt lat="47.74185" lon="1.98449">
        <ele>109</ele>
        <time>2021-07-07T04:07:22Z</time>
      </trkpt>
      <trkpt lat="47.74009" lon="1.98206">
        <ele>113</ele>
        <time>2021-07-07T04:08:05Z</time>
      </trkpt>
      <trkpt lat="47.73967" lon="1.98138">
        <ele>112</ele>
        <time>2021-07-07T04:08:16Z</time>
      </trkpt>
      <trkpt lat="47.73882" lon="1.97933">
        <ele>112</ele>
        <time>2021-07-07T04:08:45Z</time>
      </trkpt>
      <trkpt lat="47.73744" lon="1.97596">
        <ele>109</ele>
        <time>2021-07-07T04:09:32Z</time>
      </trkpt>
      <trkpt lat="47.73726" lon="1.97627">
        <ele>108</ele>
        <time>2021-07-07T04:09:37Z</time>
      </trkpt>
      <trkpt lat="47.73684" lon="1.97657">
        <ele>107</ele>
        <time>2021-07-07T04:09:45Z</time>
      </trkpt>
      <trkpt lat="47.73635" lon="1.97651">
        <ele>106</ele>
        <time>2021-07-07T04:09:54Z</time>
      </trkpt>
      <trkpt lat="47.73564" lon="1.97629">
        <ele>106</ele>
        <time>2021-07-07T04:10:07Z</time>
      </trkpt>
      <trkpt lat="47.73498" lon="1.9758">
        <ele>106</ele>
        <time>2021-07-07T04:10:20Z</time>
      </trkpt>
      <trkpt lat="47.73341" lon="1.97456">
        <ele>105</ele>
        <time>2021-07-07T04:10:51Z</time>
      </trkpt>
      <trkpt lat="47.73283" lon="1.97502">
        <ele>105</ele>
        <time>2021-07-07T04:11:03Z</time>
      </trkpt>
      <trkpt lat="47.73248" lon="1.97535">
        <ele>105</ele>
        <time>2021-07-07T04:11:10Z</time>
      </trkpt>
      <trkpt lat="47.73218" lon="1.97569">
        <ele>105</ele>
        <time>2021-07-07T04:11:17Z</time>
      </trkpt>
      <trkpt lat="47.73208" lon="1.9758">
        <ele>105</ele>
        <time>2021-07-07T04:11:19Z</time>
      </trkpt>
      <trkpt lat="47.73106" lon="1.97696">
        <ele>108</ele>
        <time>2021-07-07T04:11:42Z</time>
      </trkpt>
      <trkpt lat="47.73055" lon="1.97747">
        <ele>109</ele>
        <time>2021-07-07T04:11:53Z</time>
      </trkpt>
      <trkpt lat="47.72974" lon="1.97767">
        <ele>111</ele>
        <time>2021-07-07T04:12:08Z</time>
      </trkpt>
      <trkpt lat="47.72807" lon="1.97765">
        <ele>115</ele>
        <time>2021-07-07T04:12:37Z</time>
      </trkpt>
      <trkpt lat="47.72754" lon="1.97802">
        <ele>114</ele>
        <time>2021-07-07T04:12:48Z</time>
      </trkpt>
      <trkpt lat="47.72749" lon="1.97763">
        <ele>114</ele>
        <time>2021-07-07T04:12:53Z</time>
      </trkpt>
      <trkpt lat="47.72719" lon="1.97594">
        <ele>115</ele>
        <time>2021-07-07T04:13:14Z</time>
      </trkpt>
      <trkpt lat="47.72624" lon="1.97222">
        <ele>114</ele>
        <time>2021-07-07T04:14:01Z</time>
      </trkpt>
      <trkpt lat="47.72578" lon="1.97024">
        <ele>111</ele>
        <time>2021-07-07T04:14:26Z</time>
      </trkpt>
      <trkpt lat="47.72557" lon="1.96881">
        <ele>112</ele>
        <time>2021-07-07T04:14:44Z</time>
      </trkpt>
      <trkpt lat="47.72532" lon="1.96723">
        <ele>112</ele>
        <time>2021-07-07T04:15:03Z</time>
      </trkpt>
      <trkpt lat="47.72502" lon="1.96537">
        <ele>110</ele>
        <time>2021-07-07T04:15:26Z</time>
      </trkpt>
      <trkpt lat="47.72442" lon="1.96148">
        <ele>109</ele>
        <time>2021-07-07T04:16:14Z</time>
      </trkpt>
      <trkpt lat="47.72437" lon="1.96093">
        <ele>110</ele>
        <time>2021-07-07T04:16:21Z</time>
      </trkpt>
      <trkpt lat="47.72434" lon="1.9599">
        <ele>110</ele>
        <time>2021-07-07T04:16:33Z</time>
      </trkpt>
      <trkpt lat="47.72434" lon="1.95977">
        <ele>110</ele>
        <time>2021-07-07T04:16:34Z</time>
      </trkpt>
      <trkpt lat="47.72433" lon="1.95962">
        <ele>110</ele>
        <time>2021-07-07T04:16:36Z</time>
      </trkpt>
      <trkpt lat="47.7243" lon="1.95746">
        <ele>111</ele>
        <time>2021-07-07T04:17:02Z</time>
      </trkpt>
      <trkpt lat="47.7243" lon="1.95736">
        <ele>111</ele>
        <time>2021-07-07T04:17:03Z</time>
      </trkpt>
      <trkpt lat="47.7243" lon="1.95731">
        <ele>112</ele>
        <time>2021-07-07T04:17:04Z</time>
      </trkpt>
      <trkpt lat="47.7243" lon="1.95718">
        <ele>112</ele>
        <time>2021-07-07T04:17:05Z</time>
      </trkpt>
      <trkpt lat="47.72429" lon="1.95691">
        <ele>112</ele>
        <time>2021-07-07T04:17:09Z</time>
      </trkpt>
      <trkpt lat="47.72426" lon="1.95536">
        <ele>111</ele>
        <time>2021-07-07T04:17:27Z</time>
      </trkpt>
      <trkpt lat="47.72419" lon="1.95432">
        <ele>109</ele>
        <time>2021-07-07T04:17:40Z</time>
      </trkpt>
      <trkpt lat="47.72411" lon="1.95397">
        <ele>109</ele>
        <time>2021-07-07T04:17:44Z</time>
      </trkpt>
      <trkpt lat="47.72393" lon="1.95355">
        <ele>109</ele>
        <time>2021-07-07T04:17:50Z</time>
      </trkpt>
      <trkpt lat="47.72363" lon="1.95292">
        <ele>109</ele>
        <time>2021-07-07T04:17:59Z</time>
      </trkpt>
      <trkpt lat="47.72356" lon="1.95265">
        <ele>109</ele>
        <time>2021-07-07T04:18:03Z</time>
      </trkpt>
      <trkpt lat="47.72316" lon="1.9506">
        <ele>108</ele>
        <time>2021-07-07T04:18:28Z</time>
      </trkpt>
      <trkpt lat="47.7232" lon="1.95053">
        <ele>108</ele>
        <time>2021-07-07T04:18:29Z</time>
      </trkpt>
      <trkpt lat="47.72246" lon="1.94683">
        <ele>105</ele>
        <time>2021-07-07T04:19:16Z</time>
      </trkpt>
      <trkpt lat="47.72196" lon="1.94414">
        <ele>106</ele>
        <time>2021-07-07T04:19:49Z</time>
      </trkpt>
      <trkpt lat="47.72267" lon="1.94385">
        <ele>106</ele>
        <time>2021-07-07T04:20:02Z</time>
      </trkpt>
      <trkpt lat="47.72281" lon="1.94377">
        <ele>107</ele>
        <time>2021-07-07T04:20:05Z</time>
      </trkpt>
      <trkpt lat="47.7229" lon="1.94357">
        <ele>107</ele>
        <time>2021-07-07T04:20:08Z</time>
      </trkpt>
      <trkpt lat="47.72299" lon="1.94326">
        <ele>107</ele>
        <time>2021-07-07T04:20:12Z</time>
      </trkpt>
      <trkpt lat="47.72326" lon="1.94283">
        <ele>107</ele>
        <time>2021-07-07T04:20:19Z</time>
      </trkpt>
      <trkpt lat="47.72342" lon="1.94271">
        <ele>106</ele>
        <time>2021-07-07T04:20:22Z</time>
      </trkpt>
      <trkpt lat="47.72361" lon="1.94265">
        <ele>106</ele>
        <time>2021-07-07T04:20:25Z</time>
      </trkpt>
      <trkpt lat="47.72375" lon="1.94263">
        <ele>105</ele>
        <time>2021-07-07T04:20:28Z</time>
      </trkpt>
      <trkpt lat="47.72421" lon="1.94267">
        <ele>105</ele>
        <time>2021-07-07T04:20:36Z</time>
      </trkpt>
      <trkpt lat="47.7243" lon="1.94264">
        <ele>105</ele>
        <time>2021-07-07T04:20:38Z</time>
      </trkpt>
      <trkpt lat="47.72434" lon="1.94257">
        <ele>104</ele>
        <time>2021-07-07T04:20:39Z</time>
      </trkpt>
      <trkpt lat="47.72436" lon="1.94241">
        <ele>104</ele>
        <time>2021-07-07T04:20:41Z</time>
      </trkpt>
      <trkpt lat="47.72437" lon="1.94203">
        <ele>104</ele>
        <time>2021-07-07T04:20:45Z</time>
      </trkpt>
      <trkpt lat="47.72451" lon="1.94109">
        <ele>104</ele>
        <time>2021-07-07T04:20:57Z</time>
      </trkpt>
      <trkpt lat="47.72445" lon="1.94058">
        <ele>104</ele>
        <time>2021-07-07T04:21:03Z</time>
      </trkpt>
      <trkpt lat="47.72441" lon="1.94045">
        <ele>104</ele>
        <time>2021-07-07T04:21:05Z</time>
      </trkpt>
      <trkpt lat="47.72415" lon="1.93987">
        <ele>104</ele>
        <time>2021-07-07T04:21:13Z</time>
      </trkpt>
      <trkpt lat="47.72388" lon="1.93891">
        <ele>104</ele>
        <time>2021-07-07T04:21:26Z</time>
      </trkpt>
      <trkpt lat="47.72337" lon="1.93671">
        <ele>105</ele>
        <time>2021-07-07T04:21:53Z</time>
      </trkpt>
      <trkpt lat="47.72311" lon="1.93603">
        <ele>104</ele>
        <time>2021-07-07T04:22:03Z</time>
      </trkpt>
      <trkpt lat="47.72294" lon="1.93569">
        <ele>104</ele>
        <time>2021-07-07T04:22:08Z</time>
      </trkpt>
      <trkpt lat="47.72183" lon="1.93361">
        <ele>104</ele>
        <time>2021-07-07T04:22:40Z</time>
      </trkpt>
      <trkpt lat="47.72151" lon="1.93301">
        <ele>104</ele>
        <time>2021-07-07T04:22:49Z</time>
      </trkpt>
      <trkpt lat="47.72138" lon="1.93282">
        <ele>104</ele>
        <time>2021-07-07T04:22:52Z</time>
      </trkpt>
      <trkpt lat="47.72131" lon="1.93265">
        <ele>104</ele>
        <time>2021-07-07T04:22:54Z</time>
      </trkpt>
      <trkpt lat="47.72127" lon="1.93248">
        <ele>104</ele>
        <time>2021-07-07T04:22:57Z</time>
      </trkpt>
      <trkpt lat="47.72124" lon="1.93228">
        <ele>104</ele>
        <time>2021-07-07T04:22:59Z</time>
      </trkpt>
      <trkpt lat="47.72123" lon="1.93219">
        <ele>104</ele>
        <time>2021-07-07T04:23:00Z</time>
      </trkpt>
      <trkpt lat="47.72121" lon="1.93198">
        <ele>104</ele>
        <time>2021-07-07T04:23:03Z</time>
      </trkpt>
      <trkpt lat="47.72121" lon="1.9315">
        <ele>104</ele>
        <time>2021-07-07T04:23:08Z</time>
      </trkpt>
      <trkpt lat="47.72131" lon="1.93066">
        <ele>104</ele>
        <time>2021-07-07T04:23:19Z</time>
      </trkpt>
      <trkpt lat="47.72192" lon="1.92083">
        <ele>104</ele>
        <time>2021-07-07T04:25:17Z</time>
      </trkpt>
      <trkpt lat="47.72202" lon="1.92021">
        <ele>105</ele>
        <time>2021-07-07T04:25:24Z</time>
      </trkpt>
      <trkpt lat="47.72224" lon="1.91909">
        <ele>108</ele>
        <time>2021-07-07T04:25:38Z</time>
      </trkpt>
      <trkpt lat="47.72385" lon="1.91133">
        <ele>108</ele>
        <time>2021-07-07T04:27:16Z</time>
      </trkpt>
      <trkpt lat="47.72404" lon="1.91034">
        <ele>107</ele>
        <time>2021-07-07T04:27:28Z</time>
      </trkpt>
      <trkpt lat="47.7241" lon="1.90983">
        <ele>106</ele>
        <time>2021-07-07T04:27:34Z</time>
      </trkpt>
      <trkpt lat="47.72412" lon="1.90951">
        <ele>106</ele>
        <time>2021-07-07T04:27:38Z</time>
      </trkpt>
      <trkpt lat="47.72409" lon="1.90869">
        <ele>104</ele>
        <time>2021-07-07T04:27:48Z</time>
      </trkpt>
      <trkpt lat="47.72404" lon="1.90835">
        <ele>103</ele>
        <time>2021-07-07T04:27:52Z</time>
      </trkpt>
      <trkpt lat="47.7239" lon="1.90781">
        <ele>103</ele>
        <time>2021-07-07T04:27:59Z</time>
      </trkpt>
      <trkpt lat="47.7238" lon="1.90751">
        <ele>103</ele>
        <time>2021-07-07T04:28:03Z</time>
      </trkpt>
      <trkpt lat="47.72357" lon="1.90694">
        <ele>104</ele>
        <time>2021-07-07T04:28:11Z</time>
      </trkpt>
      <trkpt lat="47.72049" lon="1.89996">
        <ele>101</ele>
        <time>2021-07-07T04:29:51Z</time>
      </trkpt>
      <trkpt lat="47.72035" lon="1.89934">
        <ele>101</ele>
        <time>2021-07-07T04:29:59Z</time>
      </trkpt>
      <trkpt lat="47.72031" lon="1.8989">
        <ele>101</ele>
        <time>2021-07-07T04:30:04Z</time>
      </trkpt>
      <trkpt lat="47.72037" lon="1.89646">
        <ele>104</ele>
        <time>2021-07-07T04:30:33Z</time>
      </trkpt>
      <trkpt lat="47.7203" lon="1.89557">
        <ele>103</ele>
        <time>2021-07-07T04:30:44Z</time>
      </trkpt>
      <trkpt lat="47.72025" lon="1.89502">
        <ele>102</ele>
        <time>2021-07-07T04:30:51Z</time>
      </trkpt>
      <trkpt lat="47.72017" lon="1.89449">
        <ele>102</ele>
        <time>2021-07-07T04:30:57Z</time>
      </trkpt>
      <trkpt lat="47.71979" lon="1.8925">
        <ele>101</ele>
        <time>2021-07-07T04:31:22Z</time>
      </trkpt>
      <trkpt lat="47.71966" lon="1.89187">
        <ele>101</ele>
        <time>2021-07-07T04:31:30Z</time>
      </trkpt>
      <trkpt lat="47.71898" lon="1.88843">
        <ele>100</ele>
        <time>2021-07-07T04:32:13Z</time>
      </trkpt>
      <trkpt lat="47.71876" lon="1.88741">
        <ele>100</ele>
        <time>2021-07-07T04:32:25Z</time>
      </trkpt>
      <trkpt lat="47.71407" lon="1.87325">
        <ele>103</ele>
        <time>2021-07-07T04:35:34Z</time>
      </trkpt>
      <trkpt lat="47.71108" lon="1.86365">
        <ele>110</ele>
        <time>2021-07-07T04:37:41Z</time>
      </trkpt>
      <trkpt lat="47.70931" lon="1.85782">
        <ele>107</ele>
        <time>2021-07-07T04:38:58Z</time>
      </trkpt>
      <trkpt lat="47.70462" lon="1.84274">
        <ele>103</ele>
        <time>2021-07-07T04:42:17Z</time>
      </trkpt>
      <trkpt lat="47.70448" lon="1.84237">
        <ele>104</ele>
        <time>2021-07-07T04:42:22Z</time>
      </trkpt>
      <trkpt lat="47.70422" lon="1.84177">
        <ele>103</ele>
        <time>2021-07-07T04:42:30Z</time>
      </trkpt>
      <trkpt lat="47.70316" lon="1.84025">
        <ele>98</ele>
        <time>2021-07-07T04:42:56Z</time>
      </trkpt>
      <trkpt lat="47.70303" lon="1.84006">
        <ele>98</ele>
        <time>2021-07-07T04:43:00Z</time>
      </trkpt>
      <trkpt lat="47.70055" lon="1.83651">
        <ele>103</ele>
        <time>2021-07-07T04:44:01Z</time>
      </trkpt>
      <trkpt lat="47.70041" lon="1.83626">
        <ele>103</ele>
        <time>2021-07-07T04:44:05Z</time>
      </trkpt>
      <trkpt lat="47.7003" lon="1.83598">
        <ele>103</ele>
        <time>2021-07-07T04:44:09Z</time>
      </trkpt>
      <trkpt lat="47.69943" lon="1.83228">
        <ele>105</ele>
        <time>2021-07-07T04:44:56Z</time>
      </trkpt>
      <trkpt lat="47.69932" lon="1.8319">
        <ele>106</ele>
        <time>2021-07-07T04:45:01Z</time>
      </trkpt>
      <trkpt lat="47.69884" lon="1.83091">
        <ele>107</ele>
        <time>2021-07-07T04:45:15Z</time>
      </trkpt>
      <trkpt lat="47.69485" lon="1.8223">
        <ele>113</ele>
        <time>2021-07-07T04:47:20Z</time>
      </trkpt>
      <trkpt lat="47.69468" lon="1.82202">
        <ele>113</ele>
        <time>2021-07-07T04:47:25Z</time>
      </trkpt>
      <trkpt lat="47.69019" lon="1.81628">
        <ele>111</ele>
        <time>2021-07-07T04:49:10Z</time>
      </trkpt>
      <trkpt lat="47.68995" lon="1.81593">
        <ele>111</ele>
        <time>2021-07-07T04:49:16Z</time>
      </trkpt>
      <trkpt lat="47.6897" lon="1.81551">
        <ele>110</ele>
        <time>2021-07-07T04:49:23Z</time>
      </trkpt>
      <trkpt lat="47.68952" lon="1.81516">
        <ele>110</ele>
        <time>2021-07-07T04:49:28Z</time>
      </trkpt>
      <trkpt lat="47.68913" lon="1.81427">
        <ele>109</ele>
        <time>2021-07-07T04:49:41Z</time>
      </trkpt>
      <trkpt lat="47.68894" lon="1.81367">
        <ele>108</ele>
        <time>2021-07-07T04:49:49Z</time>
      </trkpt>
      <trkpt lat="47.68662" lon="1.80513">
        <ele>106</ele>
        <time>2021-07-07T04:51:39Z</time>
      </trkpt>
      <trkpt lat="47.6851" lon="1.79788">
        <ele>106</ele>
        <time>2021-07-07T04:53:10Z</time>
      </trkpt>
      <trkpt lat="47.68439" lon="1.79399">
        <ele>99</ele>
        <time>2021-07-07T04:53:58Z</time>
      </trkpt>
      <trkpt lat="47.68428" lon="1.79349">
        <ele>97</ele>
        <time>2021-07-07T04:54:05Z</time>
      </trkpt>
      <trkpt lat="47.6842" lon="1.79323">
        <ele>96</ele>
        <time>2021-07-07T04:54:08Z</time>
      </trkpt>
      <trkpt lat="47.68408" lon="1.79293">
        <ele>96</ele>
        <time>2021-07-07T04:54:12Z</time>
      </trkpt>
      <trkpt lat="47.68292" lon="1.79026">
        <ele>94</ele>
        <time>2021-07-07T04:54:50Z</time>
      </trkpt>
      <trkpt lat="47.68271" lon="1.78974">
        <ele>94</ele>
        <time>2021-07-07T04:54:58Z</time>
      </trkpt>
      <trkpt lat="47.68259" lon="1.78937">
        <ele>94</ele>
        <time>2021-07-07T04:55:03Z</time>
      </trkpt>
      <trkpt lat="47.68238" lon="1.78857">
        <ele>95</ele>
        <time>2021-07-07T04:55:13Z</time>
      </trkpt>
      <trkpt lat="47.68145" lon="1.78462">
        <ele>92</ele>
        <time>2021-07-07T04:56:03Z</time>
      </trkpt>
      <trkpt lat="47.68142" lon="1.78446">
        <ele>92</ele>
        <time>2021-07-07T04:56:05Z</time>
      </trkpt>
      <trkpt lat="47.68142" lon="1.78431">
        <ele>92</ele>
        <time>2021-07-07T04:56:07Z</time>
      </trkpt>
      <trkpt lat="47.68145" lon="1.7842">
        <ele>92</ele>
        <time>2021-07-07T04:56:08Z</time>
      </trkpt>
      <trkpt lat="47.68149" lon="1.78411">
        <ele>92</ele>
        <time>2021-07-07T04:56:09Z</time>
      </trkpt>
      <trkpt lat="47.6816" lon="1.78399">
        <ele>92</ele>
        <time>2021-07-07T04:56:12Z</time>
      </trkpt>
      <trkpt lat="47.68176" lon="1.78386">
        <ele>91</ele>
        <time>2021-07-07T04:56:15Z</time>
      </trkpt>
      <trkpt lat="47.68222" lon="1.78356">
        <ele>90</ele>
        <time>2021-07-07T04:56:24Z</time>
      </trkpt>
      <trkpt lat="47.68243" lon="1.78343">
        <ele>90</ele>
        <time>2021-07-07T04:56:28Z</time>
      </trkpt>
      <trkpt lat="47.68312" lon="1.78298">
        <ele>91</ele>
        <time>2021-07-07T04:56:42Z</time>
      </trkpt>
      <trkpt lat="47.68318" lon="1.78295">
        <ele>91</ele>
        <time>2021-07-07T04:56:43Z</time>
      </trkpt>
      <trkpt lat="47.68387" lon="1.78254">
        <ele>93</ele>
        <time>2021-07-07T04:56:56Z</time>
      </trkpt>
      <trkpt lat="47.68393" lon="1.78248">
        <ele>93</ele>
        <time>2021-07-07T04:56:57Z</time>
      </trkpt>
      <trkpt lat="47.68389" lon="1.78207">
        <ele>93</ele>
        <time>2021-07-07T04:57:02Z</time>
      </trkpt>
      <trkpt lat="47.68383" lon="1.7819">
        <ele>93</ele>
        <time>2021-07-07T04:57:04Z</time>
      </trkpt>
      <trkpt lat="47.68371" lon="1.78157">
        <ele>93</ele>
        <time>2021-07-07T04:57:09Z</time>
      </trkpt>
      <trkpt lat="47.68364" lon="1.78137">
        <ele>93</ele>
        <time>2021-07-07T04:57:12Z</time>
      </trkpt>
      <trkpt lat="47.68357" lon="1.7812">
        <ele>92</ele>
        <time>2021-07-07T04:57:14Z</time>
      </trkpt>
      <trkpt lat="47.68339" lon="1.78083">
        <ele>92</ele>
        <time>2021-07-07T04:57:19Z</time>
      </trkpt>
      <trkpt lat="47.68326" lon="1.78069">
        <ele>92</ele>
        <time>2021-07-07T04:57:22Z</time>
      </trkpt>
      <trkpt lat="47.68313" lon="1.78054">
        <ele>92</ele>
        <time>2021-07-07T04:57:25Z</time>
      </trkpt>
      <trkpt lat="47.68302" lon="1.78039">
        <ele>92</ele>
        <time>2021-07-07T04:57:28Z</time>
      </trkpt>
      <trkpt lat="47.68297" lon="1.7803">
        <ele>92</ele>
        <time>2021-07-07T04:57:29Z</time>
      </trkpt>
      <trkpt lat="47.68268" lon="1.77962">
        <ele>92</ele>
        <time>2021-07-07T04:57:39Z</time>
      </trkpt>
      <trkpt lat="47.68253" lon="1.77925">
        <ele>91</ele>
        <time>2021-07-07T04:57:44Z</time>
      </trkpt>
      <trkpt lat="47.68242" lon="1.77899">
        <ele>91</ele>
        <time>2021-07-07T04:57:48Z</time>
      </trkpt>
      <trkpt lat="47.68222" lon="1.77849">
        <ele>92</ele>
        <time>2021-07-07T04:57:55Z</time>
      </trkpt>
      <trkpt lat="47.6821" lon="1.77816">
        <ele>92</ele>
        <time>2021-07-07T04:57:59Z</time>
      </trkpt>
      <trkpt lat="47.68203" lon="1.77797">
        <ele>92</ele>
        <time>2021-07-07T04:58:02Z</time>
      </trkpt>
      <trkpt lat="47.68185" lon="1.77744">
        <ele>91</ele>
        <time>2021-07-07T04:58:09Z</time>
      </trkpt>
      <trkpt lat="47.68178" lon="1.77719">
        <ele>91</ele>
        <time>2021-07-07T04:58:12Z</time>
      </trkpt>
      <trkpt lat="47.68169" lon="1.77698">
        <ele>91</ele>
        <time>2021-07-07T04:58:15Z</time>
      </trkpt>
      <trkpt lat="47.68122" lon="1.77631">
        <ele>92</ele>
        <time>2021-07-07T04:58:27Z</time>
      </trkpt>
      <trkpt lat="47.68112" lon="1.77613">
        <ele>91</ele>
        <time>2021-07-07T04:58:30Z</time>
      </trkpt>
      <trkpt lat="47.68103" lon="1.77591">
        <ele>91</ele>
        <time>2021-07-07T04:58:33Z</time>
      </trkpt>
      <trkpt lat="47.68096" lon="1.7757">
        <ele>91</ele>
        <time>2021-07-07T04:58:35Z</time>
      </trkpt>
      <trkpt lat="47.68016" lon="1.77245">
        <ele>95</ele>
        <time>2021-07-07T04:59:17Z</time>
      </trkpt>
      <trkpt lat="47.67931" lon="1.769">
        <ele>92</ele>
        <time>2021-07-07T05:00:01Z</time>
      </trkpt>
      <trkpt lat="47.67897" lon="1.76766">
        <ele>91</ele>
        <time>2021-07-07T05:00:18Z</time>
      </trkpt>
      <trkpt lat="47.67879" lon="1.76706">
        <ele>92</ele>
        <time>2021-07-07T05:00:26Z</time>
      </trkpt>
      <trkpt lat="47.67804" lon="1.76484">
        <ele>98</ele>
        <time>2021-07-07T05:00:56Z</time>
      </trkpt>
      <trkpt lat="47.67744" lon="1.76316">
        <ele>97</ele>
        <time>2021-07-07T05:01:19Z</time>
      </trkpt>
      <trkpt lat="47.67617" lon="1.76019">
        <ele>96</ele>
        <time>2021-07-07T05:02:01Z</time>
      </trkpt>
      <trkpt lat="47.67421" lon="1.75554">
        <ele>94</ele>
        <time>2021-07-07T05:03:06Z</time>
      </trkpt>
      <trkpt lat="47.67383" lon="1.75419">
        <ele>95</ele>
        <time>2021-07-07T05:03:24Z</time>
      </trkpt>
      <trkpt lat="47.67283" lon="1.75043">
        <ele>90</ele>
        <time>2021-07-07T05:04:12Z</time>
      </trkpt>
      <trkpt lat="47.6726" lon="1.74989">
        <ele>92</ele>
        <time>2021-07-07T05:04:20Z</time>
      </trkpt>
      <trkpt lat="47.67176" lon="1.7486">
        <ele>94</ele>
        <time>2021-07-07T05:04:42Z</time>
      </trkpt>
      <trkpt lat="47.67144" lon="1.74809">
        <ele>95</ele>
        <time>2021-07-07T05:04:50Z</time>
      </trkpt>
      <trkpt lat="47.67116" lon="1.74752">
        <ele>96</ele>
        <time>2021-07-07T05:04:58Z</time>
      </trkpt>
      <trkpt lat="47.67092" lon="1.74698">
        <ele>96</ele>
        <time>2021-07-07T05:05:06Z</time>
      </trkpt>
      <trkpt lat="47.6708" lon="1.7466">
        <ele>96</ele>
        <time>2021-07-07T05:05:11Z</time>
      </trkpt>
      <trkpt lat="47.67063" lon="1.74604">
        <ele>95</ele>
        <time>2021-07-07T05:05:18Z</time>
      </trkpt>
      <trkpt lat="47.67045" lon="1.74529">
        <ele>95</ele>
        <time>2021-07-07T05:05:28Z</time>
      </trkpt>
      <trkpt lat="47.67014" lon="1.74383">
        <ele>96</ele>
        <time>2021-07-07T05:05:46Z</time>
      </trkpt>
      <trkpt lat="47.66972" lon="1.74164">
        <ele>96</ele>
        <time>2021-07-07T05:06:14Z</time>
      </trkpt>
      <trkpt lat="47.66957" lon="1.74093">
        <ele>95</ele>
        <time>2021-07-07T05:06:23Z</time>
      </trkpt>
      <trkpt lat="47.66931" lon="1.74">
        <ele>92</ele>
        <time>2021-07-07T05:06:35Z</time>
      </trkpt>
      <trkpt lat="47.669" lon="1.73901">
        <ele>91</ele>
        <time>2021-07-07T05:06:48Z</time>
      </trkpt>
      <trkpt lat="47.66859" lon="1.73786">
        <ele>91</ele>
        <time>2021-07-07T05:07:03Z</time>
      </trkpt>
      <trkpt lat="47.66738" lon="1.73442">
        <ele>89</ele>
        <time>2021-07-07T05:07:50Z</time>
      </trkpt>
      <trkpt lat="47.66719" lon="1.73383">
        <ele>92</ele>
        <time>2021-07-07T05:07:58Z</time>
      </trkpt>
      <trkpt lat="47.6671" lon="1.73348">
        <ele>93</ele>
        <time>2021-07-07T05:08:02Z</time>
      </trkpt>
      <trkpt lat="47.66699" lon="1.73297">
        <ele>93</ele>
        <time>2021-07-07T05:08:09Z</time>
      </trkpt>
      <trkpt lat="47.66693" lon="1.73251">
        <ele>93</ele>
        <time>2021-07-07T05:08:14Z</time>
      </trkpt>
      <trkpt lat="47.66688" lon="1.73205">
        <ele>93</ele>
        <time>2021-07-07T05:08:20Z</time>
      </trkpt>
      <trkpt lat="47.66687" lon="1.73155">
        <ele>93</ele>
        <time>2021-07-07T05:08:26Z</time>
      </trkpt>
      <trkpt lat="47.66691" lon="1.73087">
        <ele>92</ele>
        <time>2021-07-07T05:08:34Z</time>
      </trkpt>
      <trkpt lat="47.66695" lon="1.73055">
        <ele>92</ele>
        <time>2021-07-07T05:08:38Z</time>
      </trkpt>
      <trkpt lat="47.66728" lon="1.72848">
        <ele>96</ele>
        <time>2021-07-07T05:09:03Z</time>
      </trkpt>
      <trkpt lat="47.6673" lon="1.72837">
        <ele>96</ele>
        <time>2021-07-07T05:09:05Z</time>
      </trkpt>
      <trkpt lat="47.66767" lon="1.72625">
        <ele>100</ele>
        <time>2021-07-07T05:09:31Z</time>
      </trkpt>
      <trkpt lat="47.66855" lon="1.72076">
        <ele>109</ele>
        <time>2021-07-07T05:10:39Z</time>
      </trkpt>
      <trkpt lat="47.66886" lon="1.71885">
        <ele>107</ele>
        <time>2021-07-07T05:11:02Z</time>
      </trkpt>
      <trkpt lat="47.66894" lon="1.71829">
        <ele>107</ele>
        <time>2021-07-07T05:11:09Z</time>
      </trkpt>
      <trkpt lat="47.66897" lon="1.71785">
        <ele>108</ele>
        <time>2021-07-07T05:11:14Z</time>
      </trkpt>
      <trkpt lat="47.66897" lon="1.71744">
        <ele>109</ele>
        <time>2021-07-07T05:11:19Z</time>
      </trkpt>
      <trkpt lat="47.66893" lon="1.71697">
        <ele>110</ele>
        <time>2021-07-07T05:11:25Z</time>
      </trkpt>
      <trkpt lat="47.66888" lon="1.71655">
        <ele>110</ele>
        <time>2021-07-07T05:11:30Z</time>
      </trkpt>
      <trkpt lat="47.66878" lon="1.71587">
        <ele>110</ele>
        <time>2021-07-07T05:11:38Z</time>
      </trkpt>
      <trkpt lat="47.6682" lon="1.71268">
        <ele>109</ele>
        <time>2021-07-07T05:12:18Z</time>
      </trkpt>
      <trkpt lat="47.66768" lon="1.7099">
        <ele>107</ele>
        <time>2021-07-07T05:12:52Z</time>
      </trkpt>
      <trkpt lat="47.66766" lon="1.70979">
        <ele>107</ele>
        <time>2021-07-07T05:12:54Z</time>
      </trkpt>
      <trkpt lat="47.66733" lon="1.70796">
        <ele>103</ele>
        <time>2021-07-07T05:13:16Z</time>
      </trkpt>
      <trkpt lat="47.66687" lon="1.70541">
        <ele>105</ele>
        <time>2021-07-07T05:13:48Z</time>
      </trkpt>
      <trkpt lat="47.6664" lon="1.70282">
        <ele>110</ele>
        <time>2021-07-07T05:14:20Z</time>
      </trkpt>
      <trkpt lat="47.66619" lon="1.70168">
        <ele>112</ele>
        <time>2021-07-07T05:14:34Z</time>
      </trkpt>
      <trkpt lat="47.66598" lon="1.7008">
        <ele>110</ele>
        <time>2021-07-07T05:14:46Z</time>
      </trkpt>
      <trkpt lat="47.66586" lon="1.70037">
        <ele>111</ele>
        <time>2021-07-07T05:14:51Z</time>
      </trkpt>
      <trkpt lat="47.66569" lon="1.69985">
        <ele>112</ele>
        <time>2021-07-07T05:14:58Z</time>
      </trkpt>
      <trkpt lat="47.66276" lon="1.69216">
        <ele>106</ele>
        <time>2021-07-07T05:16:44Z</time>
      </trkpt>
      <trkpt lat="47.66182" lon="1.68977">
        <ele>104</ele>
        <time>2021-07-07T05:17:17Z</time>
      </trkpt>
      <trkpt lat="47.65969" lon="1.68416">
        <ele>96</ele>
        <time>2021-07-07T05:18:34Z</time>
      </trkpt>
      <trkpt lat="47.65956" lon="1.68374">
        <ele>93</ele>
        <time>2021-07-07T05:18:40Z</time>
      </trkpt>
      <trkpt lat="47.65935" lon="1.68285">
        <ele>91</ele>
        <time>2021-07-07T05:18:51Z</time>
      </trkpt>
      <trkpt lat="47.65928" lon="1.68239">
        <ele>91</ele>
        <time>2021-07-07T05:18:57Z</time>
      </trkpt>
      <trkpt lat="47.65926" lon="1.68218">
        <ele>92</ele>
        <time>2021-07-07T05:18:59Z</time>
      </trkpt>
      <trkpt lat="47.65924" lon="1.68177">
        <ele>92</ele>
        <time>2021-07-07T05:19:04Z</time>
      </trkpt>
      <trkpt lat="47.65914" lon="1.67845">
        <ele>90</ele>
        <time>2021-07-07T05:19:44Z</time>
      </trkpt>
      <trkpt lat="47.6591" lon="1.67661">
        <ele>91</ele>
        <time>2021-07-07T05:20:06Z</time>
      </trkpt>
      <trkpt lat="47.65907" lon="1.67536">
        <ele>91</ele>
        <time>2021-07-07T05:20:21Z</time>
      </trkpt>
      <trkpt lat="47.65903" lon="1.6748">
        <ele>89</ele>
        <time>2021-07-07T05:20:28Z</time>
      </trkpt>
      <trkpt lat="47.65896" lon="1.67427">
        <ele>87</ele>
        <time>2021-07-07T05:20:34Z</time>
      </trkpt>
      <trkpt lat="47.65864" lon="1.67215">
        <ele>86</ele>
        <time>2021-07-07T05:21:00Z</time>
      </trkpt>
      <trkpt lat="47.65863" lon="1.67209">
        <ele>86</ele>
        <time>2021-07-07T05:21:01Z</time>
      </trkpt>
      <trkpt lat="47.65888" lon="1.67195">
        <ele>87</ele>
        <time>2021-07-07T05:21:06Z</time>
      </trkpt>
      <trkpt lat="47.65953" lon="1.67136">
        <ele>89</ele>
        <time>2021-07-07T05:21:19Z</time>
      </trkpt>
      <trkpt lat="47.65976" lon="1.67113">
        <ele>90</ele>
        <time>2021-07-07T05:21:24Z</time>
      </trkpt>
      <trkpt lat="47.65975" lon="1.67107">
        <ele>90</ele>
        <time>2021-07-07T05:21:25Z</time>
      </trkpt>
      <trkpt lat="47.65969" lon="1.66837">
        <ele>98</ele>
        <time>2021-07-07T05:21:58Z</time>
      </trkpt>
      <trkpt lat="47.65963" lon="1.66646">
        <ele>102</ele>
        <time>2021-07-07T05:22:20Z</time>
      </trkpt>
      <trkpt lat="47.65959" lon="1.66451">
        <ele>96</ele>
        <time>2021-07-07T05:22:44Z</time>
      </trkpt>
      <trkpt lat="47.65958" lon="1.66369">
        <ele>95</ele>
        <time>2021-07-07T05:22:54Z</time>
      </trkpt>
      <trkpt lat="47.65955" lon="1.66253">
        <ele>94</ele>
        <time>2021-07-07T05:23:08Z</time>
      </trkpt>
      <trkpt lat="47.65952" lon="1.66173">
        <ele>94</ele>
        <time>2021-07-07T05:23:17Z</time>
      </trkpt>
      <trkpt lat="47.65948" lon="1.66134">
        <ele>94</ele>
        <time>2021-07-07T05:23:22Z</time>
      </trkpt>
      <trkpt lat="47.65941" lon="1.66092">
        <ele>94</ele>
        <time>2021-07-07T05:23:27Z</time>
      </trkpt>
      <trkpt lat="47.65909" lon="1.65958">
        <ele>98</ele>
        <time>2021-07-07T05:23:44Z</time>
      </trkpt>
      <trkpt lat="47.65901" lon="1.65929">
        <ele>98</ele>
        <time>2021-07-07T05:23:48Z</time>
      </trkpt>
      <trkpt lat="47.65813" lon="1.65555">
        <ele>98</ele>
        <time>2021-07-07T05:24:35Z</time>
      </trkpt>
      <trkpt lat="47.65807" lon="1.65517">
        <ele>97</ele>
        <time>2021-07-07T05:24:40Z</time>
      </trkpt>
      <trkpt lat="47.65804" lon="1.65481">
        <ele>97</ele>
        <time>2021-07-07T05:24:44Z</time>
      </trkpt>
      <trkpt lat="47.65797" lon="1.65375">
        <ele>94</ele>
        <time>2021-07-07T05:24:57Z</time>
      </trkpt>
      <trkpt lat="47.65776" lon="1.64955">
        <ele>95</ele>
        <time>2021-07-07T05:25:48Z</time>
      </trkpt>
      <trkpt lat="47.65768" lon="1.64849">
        <ele>93</ele>
        <time>2021-07-07T05:26:00Z</time>
      </trkpt>
      <trkpt lat="47.65757" lon="1.64603">
        <ele>91</ele>
        <time>2021-07-07T05:26:30Z</time>
      </trkpt>
      <trkpt lat="47.65754" lon="1.64234">
        <ele>88</ele>
        <time>2021-07-07T05:27:14Z</time>
      </trkpt>
      <trkpt lat="47.65754" lon="1.64189">
        <ele>86</ele>
        <time>2021-07-07T05:27:20Z</time>
      </trkpt>
      <trkpt lat="47.65752" lon="1.63803">
        <ele>87</ele>
        <time>2021-07-07T05:28:06Z</time>
      </trkpt>
      <trkpt lat="47.65751" lon="1.63715">
        <ele>86</ele>
        <time>2021-07-07T05:28:16Z</time>
      </trkpt>
      <trkpt lat="47.6575" lon="1.63656">
        <ele>87</ele>
        <time>2021-07-07T05:28:23Z</time>
      </trkpt>
      <trkpt lat="47.65749" lon="1.63642">
        <ele>87</ele>
        <time>2021-07-07T05:28:25Z</time>
      </trkpt>
      <trkpt lat="47.65748" lon="1.63622">
        <ele>87</ele>
        <time>2021-07-07T05:28:28Z</time>
      </trkpt>
      <trkpt lat="47.65741" lon="1.63589">
        <ele>88</ele>
        <time>2021-07-07T05:28:32Z</time>
      </trkpt>
      <trkpt lat="47.65686" lon="1.6335">
        <ele>86</ele>
        <time>2021-07-07T05:29:02Z</time>
      </trkpt>
      <trkpt lat="47.65653" lon="1.63203">
        <ele>85</ele>
        <time>2021-07-07T05:29:21Z</time>
      </trkpt>
      <trkpt lat="47.65649" lon="1.63186">
        <ele>85</ele>
        <time>2021-07-07T05:29:23Z</time>
      </trkpt>
      <trkpt lat="47.65607" lon="1.62996">
        <ele>90</ele>
        <time>2021-07-07T05:29:47Z</time>
      </trkpt>
      <trkpt lat="47.65523" lon="1.62642">
        <ele>91</ele>
        <time>2021-07-07T05:30:32Z</time>
      </trkpt>
      <trkpt lat="47.65505" lon="1.62555">
        <ele>90</ele>
        <time>2021-07-07T05:30:43Z</time>
      </trkpt>
      <trkpt lat="47.65499" lon="1.62521">
        <ele>91</ele>
        <time>2021-07-07T05:30:47Z</time>
      </trkpt>
      <trkpt lat="47.65498" lon="1.62486">
        <ele>91</ele>
        <time>2021-07-07T05:30:51Z</time>
      </trkpt>
      <trkpt lat="47.65497" lon="1.62313">
        <ele>88</ele>
        <time>2021-07-07T05:31:12Z</time>
      </trkpt>
      <trkpt lat="47.65497" lon="1.62296">
        <ele>88</ele>
        <time>2021-07-07T05:31:14Z</time>
      </trkpt>
      <trkpt lat="47.65497" lon="1.62282">
        <ele>87</ele>
        <time>2021-07-07T05:31:15Z</time>
      </trkpt>
      <trkpt lat="47.65495" lon="1.62166">
        <ele>86</ele>
        <time>2021-07-07T05:31:29Z</time>
      </trkpt>
      <trkpt lat="47.65494" lon="1.61986">
        <ele>93</ele>
        <time>2021-07-07T05:31:51Z</time>
      </trkpt>
      <trkpt lat="47.65491" lon="1.61681">
        <ele>100</ele>
        <time>2021-07-07T05:32:27Z</time>
      </trkpt>
      <trkpt lat="47.65489" lon="1.61651">
        <ele>100</ele>
        <time>2021-07-07T05:32:31Z</time>
      </trkpt>
      <trkpt lat="47.65487" lon="1.6162">
        <ele>101</ele>
        <time>2021-07-07T05:32:35Z</time>
      </trkpt>
      <trkpt lat="47.65483" lon="1.61593">
        <ele>101</ele>
        <time>2021-07-07T05:32:38Z</time>
      </trkpt>
      <trkpt lat="47.65476" lon="1.61563">
        <ele>101</ele>
        <time>2021-07-07T05:32:42Z</time>
      </trkpt>
      <trkpt lat="47.65457" lon="1.61512">
        <ele>99</ele>
        <time>2021-07-07T05:32:49Z</time>
      </trkpt>
      <trkpt lat="47.65433" lon="1.61466">
        <ele>95</ele>
        <time>2021-07-07T05:32:56Z</time>
      </trkpt>
      <trkpt lat="47.6538" lon="1.6139">
        <ele>90</ele>
        <time>2021-07-07T05:33:09Z</time>
      </trkpt>
      <trkpt lat="47.65361" lon="1.61362">
        <ele>89</ele>
        <time>2021-07-07T05:33:14Z</time>
      </trkpt>
      <trkpt lat="47.65342" lon="1.61333">
        <ele>87</ele>
        <time>2021-07-07T05:33:19Z</time>
      </trkpt>
      <trkpt lat="47.65308" lon="1.61282">
        <ele>87</ele>
        <time>2021-07-07T05:33:27Z</time>
      </trkpt>
      <trkpt lat="47.65305" lon="1.61278">
        <ele>87</ele>
        <time>2021-07-07T05:33:28Z</time>
      </trkpt>
      <trkpt lat="47.65264" lon="1.61221">
        <ele>88</ele>
        <time>2021-07-07T05:33:38Z</time>
      </trkpt>
      <trkpt lat="47.6524" lon="1.61186">
        <ele>88</ele>
        <time>2021-07-07T05:33:44Z</time>
      </trkpt>
      <trkpt lat="47.65224" lon="1.61162">
        <ele>87</ele>
        <time>2021-07-07T05:33:48Z</time>
      </trkpt>
      <trkpt lat="47.65208" lon="1.61138">
        <ele>87</ele>
        <time>2021-07-07T05:33:52Z</time>
      </trkpt>
      <trkpt lat="47.65161" lon="1.61069">
        <ele>87</ele>
        <time>2021-07-07T05:34:04Z</time>
      </trkpt>
      <trkpt lat="47.65145" lon="1.61049">
        <ele>87</ele>
        <time>2021-07-07T05:34:07Z</time>
      </trkpt>
      <trkpt lat="47.65124" lon="1.61015">
        <ele>87</ele>
        <time>2021-07-07T05:34:13Z</time>
      </trkpt>
      <trkpt lat="47.651" lon="1.60976">
        <ele>87</ele>
        <time>2021-07-07T05:34:19Z</time>
      </trkpt>
      <trkpt lat="47.65088" lon="1.60956">
        <ele>87</ele>
        <time>2021-07-07T05:34:23Z</time>
      </trkpt>
      <trkpt lat="47.65078" lon="1.6094">
        <ele>87</ele>
        <time>2021-07-07T05:34:25Z</time>
      </trkpt>
      <trkpt lat="47.65068" lon="1.60923">
        <ele>86</ele>
        <time>2021-07-07T05:34:28Z</time>
      </trkpt>
      <trkpt lat="47.65058" lon="1.60912">
        <ele>86</ele>
        <time>2021-07-07T05:34:30Z</time>
      </trkpt>
      <trkpt lat="47.65046" lon="1.60912">
        <ele>85</ele>
        <time>2021-07-07T05:34:32Z</time>
      </trkpt>
      <trkpt lat="47.65031" lon="1.60916">
        <ele>84</ele>
        <time>2021-07-07T05:34:35Z</time>
      </trkpt>
      <trkpt lat="47.65025" lon="1.60919">
        <ele>84</ele>
        <time>2021-07-07T05:34:36Z</time>
      </trkpt>
      <trkpt lat="47.64992" lon="1.60931">
        <ele>83</ele>
        <time>2021-07-07T05:34:42Z</time>
      </trkpt>
      <trkpt lat="47.64963" lon="1.60942">
        <ele>82</ele>
        <time>2021-07-07T05:34:47Z</time>
      </trkpt>
      <trkpt lat="47.64922" lon="1.60957">
        <ele>80</ele>
        <time>2021-07-07T05:34:55Z</time>
      </trkpt>
      <trkpt lat="47.64904" lon="1.60959">
        <ele>80</ele>
        <time>2021-07-07T05:34:58Z</time>
      </trkpt>
      <trkpt lat="47.64841" lon="1.60967">
        <ele>80</ele>
        <time>2021-07-07T05:35:09Z</time>
      </trkpt>
      <trkpt lat="47.64809" lon="1.60971">
        <ele>81</ele>
        <time>2021-07-07T05:35:15Z</time>
      </trkpt>
      <trkpt lat="47.6479" lon="1.60971">
        <ele>82</ele>
        <time>2021-07-07T05:35:18Z</time>
      </trkpt>
      <trkpt lat="47.64756" lon="1.60962">
        <ele>82</ele>
        <time>2021-07-07T05:35:25Z</time>
      </trkpt>
      <trkpt lat="47.64739" lon="1.60952">
        <ele>82</ele>
        <time>2021-07-07T05:35:28Z</time>
      </trkpt>
      <trkpt lat="47.64675" lon="1.60906">
        <ele>85</ele>
        <time>2021-07-07T05:35:41Z</time>
      </trkpt>
      <trkpt lat="47.64535" lon="1.60789">
        <ele>85</ele>
        <time>2021-07-07T05:36:09Z</time>
      </trkpt>
      <trkpt lat="47.64316" lon="1.60496">
        <ele>84</ele>
        <time>2021-07-07T05:37:02Z</time>
      </trkpt>
      <trkpt lat="47.64294" lon="1.60478">
        <ele>84</ele>
        <time>2021-07-07T05:37:06Z</time>
      </trkpt>
      <trkpt lat="47.64278" lon="1.60471">
        <ele>83</ele>
        <time>2021-07-07T05:37:09Z</time>
      </trkpt>
      <trkpt lat="47.64264" lon="1.60468">
        <ele>83</ele>
        <time>2021-07-07T05:37:12Z</time>
      </trkpt>
      <trkpt lat="47.64229" lon="1.60468">
        <ele>82</ele>
        <time>2021-07-07T05:37:18Z</time>
      </trkpt>
      <trkpt lat="47.64207" lon="1.60473">
        <ele>82</ele>
        <time>2021-07-07T05:37:22Z</time>
      </trkpt>
      <trkpt lat="47.64188" lon="1.60484">
        <ele>82</ele>
        <time>2021-07-07T05:37:25Z</time>
      </trkpt>
      <trkpt lat="47.64081" lon="1.60577">
        <ele>80</ele>
        <time>2021-07-07T05:37:47Z</time>
      </trkpt>
      <trkpt lat="47.64064" lon="1.6059">
        <ele>81</ele>
        <time>2021-07-07T05:37:51Z</time>
      </trkpt>
      <trkpt lat="47.64052" lon="1.60596">
        <ele>81</ele>
        <time>2021-07-07T05:37:53Z</time>
      </trkpt>
      <trkpt lat="47.64032" lon="1.60602">
        <ele>82</ele>
        <time>2021-07-07T05:37:57Z</time>
      </trkpt>
      <trkpt lat="47.63959" lon="1.60615">
        <ele>84</ele>
        <time>2021-07-07T05:38:10Z</time>
      </trkpt>
      <trkpt lat="47.63791" lon="1.6056">
        <ele>84</ele>
        <time>2021-07-07T05:38:40Z</time>
      </trkpt>
      <trkpt lat="47.63585" lon="1.60487">
        <ele>85</ele>
        <time>2021-07-07T05:39:18Z</time>
      </trkpt>
      <trkpt lat="47.63537" lon="1.60468">
        <ele>84</ele>
        <time>2021-07-07T05:39:27Z</time>
      </trkpt>
      <trkpt lat="47.63443" lon="1.60436">
        <ele>84</ele>
        <time>2021-07-07T05:39:44Z</time>
      </trkpt>
      <trkpt lat="47.63356" lon="1.604">
        <ele>85</ele>
        <time>2021-07-07T05:40:00Z</time>
      </trkpt>
      <trkpt lat="47.63335" lon="1.60384">
        <ele>85</ele>
        <time>2021-07-07T05:40:04Z</time>
      </trkpt>
      <trkpt lat="47.63317" lon="1.60368">
        <ele>84</ele>
        <time>2021-07-07T05:40:08Z</time>
      </trkpt>
      <trkpt lat="47.63244" lon="1.60268">
        <ele>83</ele>
        <time>2021-07-07T05:40:26Z</time>
      </trkpt>
      <trkpt lat="47.63215" lon="1.60219">
        <ele>84</ele>
        <time>2021-07-07T05:40:34Z</time>
      </trkpt>
      <trkpt lat="47.63196" lon="1.60179">
        <ele>85</ele>
        <time>2021-07-07T05:40:39Z</time>
      </trkpt>
      <trkpt lat="47.63136" lon="1.60044">
        <ele>85</ele>
        <time>2021-07-07T05:40:59Z</time>
      </trkpt>
      <trkpt lat="47.6308" lon="1.59908">
        <ele>82</ele>
        <time>2021-07-07T05:41:18Z</time>
      </trkpt>
      <trkpt lat="47.62988" lon="1.597">
        <ele>85</ele>
        <time>2021-07-07T05:41:48Z</time>
      </trkpt>
      <trkpt lat="47.6296" lon="1.59642">
        <ele>85</ele>
        <time>2021-07-07T05:41:56Z</time>
      </trkpt>
      <trkpt lat="47.62942" lon="1.59613">
        <ele>84</ele>
        <time>2021-07-07T05:42:01Z</time>
      </trkpt>
      <trkpt lat="47.62933" lon="1.59594">
        <ele>84</ele>
        <time>2021-07-07T05:42:04Z</time>
      </trkpt>
      <trkpt lat="47.62883" lon="1.59455">
        <ele>85</ele>
        <time>2021-07-07T05:42:23Z</time>
      </trkpt>
      <trkpt lat="47.62861" lon="1.59381">
        <ele>84</ele>
        <time>2021-07-07T05:42:32Z</time>
      </trkpt>
      <trkpt lat="47.62837" lon="1.5929">
        <ele>84</ele>
        <time>2021-07-07T05:42:44Z</time>
      </trkpt>
      <trkpt lat="47.62798" lon="1.59126">
        <ele>84</ele>
        <time>2021-07-07T05:43:05Z</time>
      </trkpt>
      <trkpt lat="47.62779" lon="1.5906">
        <ele>83</ele>
        <time>2021-07-07T05:43:14Z</time>
      </trkpt>
      <trkpt lat="47.62752" lon="1.58929">
        <ele>82</ele>
        <time>2021-07-07T05:43:30Z</time>
      </trkpt>
      <trkpt lat="47.62734" lon="1.58865">
        <ele>84</ele>
        <time>2021-07-07T05:43:38Z</time>
      </trkpt>
      <trkpt lat="47.62668" lon="1.58665">
        <ele>87</ele>
        <time>2021-07-07T05:44:05Z</time>
      </trkpt>
      <trkpt lat="47.62593" lon="1.58498">
        <ele>86</ele>
        <time>2021-07-07T05:44:29Z</time>
      </trkpt>
      <trkpt lat="47.62575" lon="1.5845">
        <ele>87</ele>
        <time>2021-07-07T05:44:36Z</time>
      </trkpt>
      <trkpt lat="47.62557" lon="1.58398">
        <ele>88</ele>
        <time>2021-07-07T05:44:43Z</time>
      </trkpt>
      <trkpt lat="47.62529" lon="1.58274">
        <ele>90</ele>
        <time>2021-07-07T05:44:58Z</time>
      </trkpt>
      <trkpt lat="47.62432" lon="1.57774">
        <ele>88</ele>
        <time>2021-07-07T05:46:01Z</time>
      </trkpt>
      <trkpt lat="47.62374" lon="1.57494">
        <ele>87</ele>
        <time>2021-07-07T05:46:36Z</time>
      </trkpt>
      <trkpt lat="47.6224" lon="1.56822">
        <ele>85</ele>
        <time>2021-07-07T05:48:00Z</time>
      </trkpt>
      <trkpt lat="47.61895" lon="1.55077">
        <ele>87</ele>
        <time>2021-07-07T05:51:38Z</time>
      </trkpt>
      <trkpt lat="47.6181" lon="1.54662">
        <ele>84</ele>
        <time>2021-07-07T05:52:30Z</time>
      </trkpt>
      <trkpt lat="47.61771" lon="1.54459">
        <ele>89</ele>
        <time>2021-07-07T05:52:55Z</time>
      </trkpt>
      <trkpt lat="47.61695" lon="1.54102">
        <ele>84</ele>
        <time>2021-07-07T05:53:40Z</time>
      </trkpt>
      <trkpt lat="47.61603" lon="1.53647">
        <ele>84</ele>
        <time>2021-07-07T05:54:37Z</time>
      </trkpt>
      <trkpt lat="47.61513" lon="1.53194">
        <ele>88</ele>
        <time>2021-07-07T05:55:34Z</time>
      </trkpt>
      <trkpt lat="47.61405" lon="1.52674">
        <ele>80</ele>
        <time>2021-07-07T05:56:39Z</time>
      </trkpt>
      <trkpt lat="47.61341" lon="1.52065">
        <ele>81</ele>
        <time>2021-07-07T05:57:53Z</time>
      </trkpt>
      <trkpt lat="47.61331" lon="1.51956">
        <ele>82</ele>
        <time>2021-07-07T05:58:06Z</time>
      </trkpt>
      <trkpt lat="47.61325" lon="1.51927">
        <ele>82</ele>
        <time>2021-07-07T05:58:10Z</time>
      </trkpt>
      <trkpt lat="47.61312" lon="1.51895">
        <ele>82</ele>
        <time>2021-07-07T05:58:14Z</time>
      </trkpt>
      <trkpt lat="47.61294" lon="1.51858">
        <ele>82</ele>
        <time>2021-07-07T05:58:20Z</time>
      </trkpt>
      <trkpt lat="47.61306" lon="1.51843">
        <ele>82</ele>
        <time>2021-07-07T05:58:23Z</time>
      </trkpt>
      <trkpt lat="47.61308" lon="1.51838">
        <ele>82</ele>
        <time>2021-07-07T05:58:23Z</time>
      </trkpt>
      <trkpt lat="47.6131" lon="1.51827">
        <ele>82</ele>
        <time>2021-07-07T05:58:25Z</time>
      </trkpt>
      <trkpt lat="47.61313" lon="1.51796">
        <ele>83</ele>
        <time>2021-07-07T05:58:28Z</time>
      </trkpt>
      <trkpt lat="47.61318" lon="1.51714">
        <ele>85</ele>
        <time>2021-07-07T05:58:38Z</time>
      </trkpt>
      <trkpt lat="47.61321" lon="1.51632">
        <ele>89</ele>
        <time>2021-07-07T05:58:48Z</time>
      </trkpt>
      <trkpt lat="47.61328" lon="1.51515">
        <ele>91</ele>
        <time>2021-07-07T05:59:02Z</time>
      </trkpt>
      <trkpt lat="47.61336" lon="1.51463">
        <ele>92</ele>
        <time>2021-07-07T05:59:09Z</time>
      </trkpt>
      <trkpt lat="47.6134" lon="1.5145">
        <ele>92</ele>
        <time>2021-07-07T05:59:10Z</time>
      </trkpt>
      <trkpt lat="47.61346" lon="1.5144">
        <ele>92</ele>
        <time>2021-07-07T05:59:12Z</time>
      </trkpt>
      <trkpt lat="47.61353" lon="1.51433">
        <ele>92</ele>
        <time>2021-07-07T05:59:14Z</time>
      </trkpt>
      <trkpt lat="47.61364" lon="1.51425">
        <ele>93</ele>
        <time>2021-07-07T05:59:16Z</time>
      </trkpt>
      <trkpt lat="47.61486" lon="1.5137">
        <ele>86</ele>
        <time>2021-07-07T05:59:38Z</time>
      </trkpt>
      <trkpt lat="47.61493" lon="1.51363">
        <ele>86</ele>
        <time>2021-07-07T05:59:40Z</time>
      </trkpt>
      <trkpt lat="47.61501" lon="1.51342">
        <ele>84</ele>
        <time>2021-07-07T05:59:43Z</time>
      </trkpt>
      <trkpt lat="47.61503" lon="1.51324">
        <ele>84</ele>
        <time>2021-07-07T05:59:45Z</time>
      </trkpt>
      <trkpt lat="47.615" lon="1.51298">
        <ele>85</ele>
        <time>2021-07-07T05:59:48Z</time>
      </trkpt>
      <trkpt lat="47.61495" lon="1.51279">
        <ele>86</ele>
        <time>2021-07-07T05:59:51Z</time>
      </trkpt>
      <trkpt lat="47.61287" lon="1.50593">
        <ele>91</ele>
        <time>2021-07-07T06:01:21Z</time>
      </trkpt>
      <trkpt lat="47.61064" lon="1.49839">
        <ele>90</ele>
        <time>2021-07-07T06:03:00Z</time>
      </trkpt>
      <trkpt lat="47.6048" lon="1.47926">
        <ele>86</ele>
        <time>2021-07-07T06:07:11Z</time>
      </trkpt>
      <trkpt lat="47.60438" lon="1.47792">
        <ele>84</ele>
        <time>2021-07-07T06:07:29Z</time>
      </trkpt>
      <trkpt lat="47.60428" lon="1.47764">
        <ele>82</ele>
        <time>2021-07-07T06:07:33Z</time>
      </trkpt>
      <trkpt lat="47.60406" lon="1.47719">
        <ele>81</ele>
        <time>2021-07-07T06:07:40Z</time>
      </trkpt>
      <trkpt lat="47.60277" lon="1.47514">
        <ele>80</ele>
        <time>2021-07-07T06:08:13Z</time>
      </trkpt>
      <trkpt lat="47.6027" lon="1.475">
        <ele>80</ele>
        <time>2021-07-07T06:08:15Z</time>
      </trkpt>
      <trkpt lat="47.60259" lon="1.47471">
        <ele>80</ele>
        <time>2021-07-07T06:08:19Z</time>
      </trkpt>
      <trkpt lat="47.6024" lon="1.47445">
        <ele>81</ele>
        <time>2021-07-07T06:08:24Z</time>
      </trkpt>
      <trkpt lat="47.60224" lon="1.47427">
        <ele>80</ele>
        <time>2021-07-07T06:08:28Z</time>
      </trkpt>
      <trkpt lat="47.60214" lon="1.47419">
        <ele>80</ele>
        <time>2021-07-07T06:08:30Z</time>
      </trkpt>
      <trkpt lat="47.60085" lon="1.4737">
        <ele>82</ele>
        <time>2021-07-07T06:08:53Z</time>
      </trkpt>
      <trkpt lat="47.60075" lon="1.47363">
        <ele>82</ele>
        <time>2021-07-07T06:08:55Z</time>
      </trkpt>
      <trkpt lat="47.60064" lon="1.4735">
        <ele>82</ele>
        <time>2021-07-07T06:08:58Z</time>
      </trkpt>
      <trkpt lat="47.60022" lon="1.47281">
        <ele>82</ele>
        <time>2021-07-07T06:09:09Z</time>
      </trkpt>
      <trkpt lat="47.6" lon="1.47249">
        <ele>82</ele>
        <time>2021-07-07T06:09:14Z</time>
      </trkpt>
      <trkpt lat="47.59866" lon="1.47104">
        <ele>81</ele>
        <time>2021-07-07T06:09:44Z</time>
      </trkpt>
      <trkpt lat="47.59854" lon="1.47089">
        <ele>81</ele>
        <time>2021-07-07T06:09:47Z</time>
      </trkpt>
      <trkpt lat="47.59828" lon="1.4704">
        <ele>81</ele>
        <time>2021-07-07T06:09:54Z</time>
      </trkpt>
      <trkpt lat="47.59802" lon="1.46983">
        <ele>80</ele>
        <time>2021-07-07T06:10:02Z</time>
      </trkpt>
      <trkpt lat="47.5975" lon="1.46855">
        <ele>80</ele>
        <time>2021-07-07T06:10:20Z</time>
      </trkpt>
      <trkpt lat="47.5973" lon="1.46813">
        <ele>79</ele>
        <time>2021-07-07T06:10:27Z</time>
      </trkpt>
      <trkpt lat="47.59655" lon="1.46677">
        <ele>80</ele>
        <time>2021-07-07T06:10:48Z</time>
      </trkpt>
      <trkpt lat="47.59432" lon="1.46287">
        <ele>81</ele>
        <time>2021-07-07T06:11:49Z</time>
      </trkpt>
      <trkpt lat="47.59413" lon="1.46252">
        <ele>81</ele>
        <time>2021-07-07T06:11:54Z</time>
      </trkpt>
      <trkpt lat="47.59393" lon="1.46204">
        <ele>81</ele>
        <time>2021-07-07T06:12:01Z</time>
      </trkpt>
      <trkpt lat="47.59383" lon="1.46169">
        <ele>80</ele>
        <time>2021-07-07T06:12:06Z</time>
      </trkpt>
      <trkpt lat="47.59375" lon="1.46116">
        <ele>79</ele>
        <time>2021-07-07T06:12:12Z</time>
      </trkpt>
      <trkpt lat="47.59364" lon="1.45816">
        <ele>76</ele>
        <time>2021-07-07T06:12:48Z</time>
      </trkpt>
      <trkpt lat="47.59361" lon="1.45764">
        <ele>76</ele>
        <time>2021-07-07T06:12:55Z</time>
      </trkpt>
      <trkpt lat="47.59352" lon="1.45668">
        <ele>77</ele>
        <time>2021-07-07T06:13:06Z</time>
      </trkpt>
      <trkpt lat="47.5934" lon="1.45585">
        <ele>78</ele>
        <time>2021-07-07T06:13:16Z</time>
      </trkpt>
      <trkpt lat="47.59335" lon="1.45563">
        <ele>78</ele>
        <time>2021-07-07T06:13:19Z</time>
      </trkpt>
      <trkpt lat="47.59307" lon="1.45487">
        <ele>79</ele>
        <time>2021-07-07T06:13:30Z</time>
      </trkpt>
      <trkpt lat="47.5927" lon="1.45446">
        <ele>80</ele>
        <time>2021-07-07T06:13:38Z</time>
      </trkpt>
      <trkpt lat="47.59233" lon="1.45326">
        <ele>80</ele>
        <time>2021-07-07T06:13:54Z</time>
      </trkpt>
      <trkpt lat="47.5923" lon="1.45314">
        <ele>80</ele>
        <time>2021-07-07T06:13:55Z</time>
      </trkpt>
      <trkpt lat="47.59227" lon="1.45238">
        <ele>78</ele>
        <time>2021-07-07T06:14:04Z</time>
      </trkpt>
      <trkpt lat="47.59211" lon="1.4514">
        <ele>79</ele>
        <time>2021-07-07T06:14:16Z</time>
      </trkpt>
      <trkpt lat="47.59189" lon="1.45026">
        <ele>78</ele>
        <time>2021-07-07T06:14:31Z</time>
      </trkpt>
      <trkpt lat="47.59174" lon="1.44964">
        <ele>79</ele>
        <time>2021-07-07T06:14:38Z</time>
      </trkpt>
      <trkpt lat="47.59142" lon="1.44857">
        <ele>79</ele>
        <time>2021-07-07T06:14:53Z</time>
      </trkpt>
      <trkpt lat="47.59134" lon="1.44838">
        <ele>79</ele>
        <time>2021-07-07T06:14:55Z</time>
      </trkpt>
      <trkpt lat="47.59122" lon="1.44819">
        <ele>80</ele>
        <time>2021-07-07T06:14:58Z</time>
      </trkpt>
      <trkpt lat="47.5911" lon="1.44806">
        <ele>80</ele>
        <time>2021-07-07T06:15:01Z</time>
      </trkpt>
      <trkpt lat="47.59095" lon="1.44794">
        <ele>81</ele>
        <time>2021-07-07T06:15:04Z</time>
      </trkpt>
      <trkpt lat="47.59069" lon="1.44781">
        <ele>82</ele>
        <time>2021-07-07T06:15:09Z</time>
      </trkpt>
      <trkpt lat="47.59054" lon="1.44769">
        <ele>82</ele>
        <time>2021-07-07T06:15:12Z</time>
      </trkpt>
      <trkpt lat="47.59041" lon="1.44756">
        <ele>83</ele>
        <time>2021-07-07T06:15:15Z</time>
      </trkpt>
      <trkpt lat="47.59031" lon="1.44739">
        <ele>83</ele>
        <time>2021-07-07T06:15:17Z</time>
      </trkpt>
      <trkpt lat="47.59024" lon="1.44716">
        <ele>83</ele>
        <time>2021-07-07T06:15:20Z</time>
      </trkpt>
      <trkpt lat="47.59019" lon="1.44693">
        <ele>83</ele>
        <time>2021-07-07T06:15:23Z</time>
      </trkpt>
      <trkpt lat="47.59006" lon="1.44554">
        <ele>81</ele>
        <time>2021-07-07T06:15:40Z</time>
      </trkpt>
      <trkpt lat="47.58953" lon="1.43956">
        <ele>80</ele>
        <time>2021-07-07T06:16:53Z</time>
      </trkpt>
      <trkpt lat="47.58941" lon="1.43885">
        <ele>79</ele>
        <time>2021-07-07T06:17:01Z</time>
      </trkpt>
      <trkpt lat="47.5891" lon="1.43754">
        <ele>79</ele>
        <time>2021-07-07T06:17:18Z</time>
      </trkpt>
      <trkpt lat="47.58882" lon="1.43665">
        <ele>80</ele>
        <time>2021-07-07T06:17:30Z</time>
      </trkpt>
      <trkpt lat="47.58772" lon="1.4344">
        <ele>79</ele>
        <time>2021-07-07T06:18:03Z</time>
      </trkpt>
      <trkpt lat="47.58744" lon="1.43379">
        <ele>80</ele>
        <time>2021-07-07T06:18:12Z</time>
      </trkpt>
      <trkpt lat="47.58729" lon="1.43335">
        <ele>81</ele>
        <time>2021-07-07T06:18:18Z</time>
      </trkpt>
      <trkpt lat="47.58661" lon="1.43094">
        <ele>82</ele>
        <time>2021-07-07T06:18:49Z</time>
      </trkpt>
      <trkpt lat="47.58648" lon="1.43062">
        <ele>83</ele>
        <time>2021-07-07T06:18:54Z</time>
      </trkpt>
      <trkpt lat="47.58634" lon="1.43031">
        <ele>84</ele>
        <time>2021-07-07T06:18:58Z</time>
      </trkpt>
      <trkpt lat="47.58613" lon="1.42997">
        <ele>85</ele>
        <time>2021-07-07T06:19:04Z</time>
      </trkpt>
      <trkpt lat="47.58562" lon="1.42934">
        <ele>83</ele>
        <time>2021-07-07T06:19:16Z</time>
      </trkpt>
      <trkpt lat="47.58548" lon="1.42911">
        <ele>82</ele>
        <time>2021-07-07T06:19:19Z</time>
      </trkpt>
      <trkpt lat="47.58535" lon="1.42884">
        <ele>81</ele>
        <time>2021-07-07T06:19:23Z</time>
      </trkpt>
      <trkpt lat="47.58524" lon="1.42857">
        <ele>81</ele>
        <time>2021-07-07T06:19:27Z</time>
      </trkpt>
      <trkpt lat="47.58472" lon="1.42669">
        <ele>84</ele>
        <time>2021-07-07T06:19:51Z</time>
      </trkpt>
      <trkpt lat="47.5845" lon="1.42583">
        <ele>84</ele>
        <time>2021-07-07T06:20:02Z</time>
      </trkpt>
      <trkpt lat="47.58433" lon="1.42533">
        <ele>87</ele>
        <time>2021-07-07T06:20:09Z</time>
      </trkpt>
      <trkpt lat="47.5842" lon="1.42505">
        <ele>90</ele>
        <time>2021-07-07T06:20:13Z</time>
      </trkpt>
      <trkpt lat="47.58279" lon="1.42231">
        <ele>87</ele>
        <time>2021-07-07T06:20:55Z</time>
      </trkpt>
      <trkpt lat="47.58222" lon="1.42089">
        <ele>86</ele>
        <time>2021-07-07T06:21:14Z</time>
      </trkpt>
      <trkpt lat="47.58215" lon="1.42071">
        <ele>86</ele>
        <time>2021-07-07T06:21:17Z</time>
      </trkpt>
      <trkpt lat="47.58174" lon="1.41974">
        <ele>86</ele>
        <time>2021-07-07T06:21:31Z</time>
      </trkpt>
      <trkpt lat="47.58166" lon="1.41955">
        <ele>85</ele>
        <time>2021-07-07T06:21:33Z</time>
      </trkpt>
      <trkpt lat="47.58154" lon="1.41927">
        <ele>85</ele>
        <time>2021-07-07T06:21:37Z</time>
      </trkpt>
      <trkpt lat="47.58112" lon="1.41853">
        <ele>87</ele>
        <time>2021-07-07T06:21:49Z</time>
      </trkpt>
      <trkpt lat="47.58059" lon="1.41757">
        <ele>86</ele>
        <time>2021-07-07T06:22:04Z</time>
      </trkpt>
      <trkpt lat="47.58036" lon="1.41715">
        <ele>85</ele>
        <time>2021-07-07T06:22:10Z</time>
      </trkpt>
      <trkpt lat="47.58012" lon="1.41667">
        <ele>85</ele>
        <time>2021-07-07T06:22:18Z</time>
      </trkpt>
      <trkpt lat="47.57978" lon="1.416">
        <ele>83</ele>
        <time>2021-07-07T06:22:28Z</time>
      </trkpt>
      <trkpt lat="47.57938" lon="1.41524">
        <ele>80</ele>
        <time>2021-07-07T06:22:39Z</time>
      </trkpt>
      <trkpt lat="47.57915" lon="1.41485">
        <ele>80</ele>
        <time>2021-07-07T06:22:45Z</time>
      </trkpt>
      <trkpt lat="47.57869" lon="1.41407">
        <ele>82</ele>
        <time>2021-07-07T06:22:58Z</time>
      </trkpt>
      <trkpt lat="47.57861" lon="1.41387">
        <ele>82</ele>
        <time>2021-07-07T06:23:01Z</time>
      </trkpt>
      <trkpt lat="47.5783" lon="1.4129">
        <ele>83</ele>
        <time>2021-07-07T06:23:14Z</time>
      </trkpt>
      <trkpt lat="47.57829" lon="1.41285">
        <ele>83</ele>
        <time>2021-07-07T06:23:14Z</time>
      </trkpt>
      <trkpt lat="47.57827" lon="1.4128">
        <ele>83</ele>
        <time>2021-07-07T06:23:15Z</time>
      </trkpt>
      <trkpt lat="47.57819" lon="1.41255">
        <ele>84</ele>
        <time>2021-07-07T06:23:18Z</time>
      </trkpt>
      <trkpt lat="47.57812" lon="1.41237">
        <ele>84</ele>
        <time>2021-07-07T06:23:21Z</time>
      </trkpt>
      <trkpt lat="47.57795" lon="1.41203">
        <ele>84</ele>
        <time>2021-07-07T06:23:26Z</time>
      </trkpt>
      <trkpt lat="47.57782" lon="1.41176">
        <ele>85</ele>
        <time>2021-07-07T06:23:30Z</time>
      </trkpt>
      <trkpt lat="47.57749" lon="1.41108">
        <ele>87</ele>
        <time>2021-07-07T06:23:40Z</time>
      </trkpt>
      <trkpt lat="47.57734" lon="1.4107">
        <ele>86</ele>
        <time>2021-07-07T06:23:45Z</time>
      </trkpt>
      <trkpt lat="47.57722" lon="1.41028">
        <ele>87</ele>
        <time>2021-07-07T06:23:51Z</time>
      </trkpt>
      <trkpt lat="47.57715" lon="1.40986">
        <ele>87</ele>
        <time>2021-07-07T06:23:56Z</time>
      </trkpt>
      <trkpt lat="47.57711" lon="1.40956">
        <ele>87</ele>
        <time>2021-07-07T06:23:59Z</time>
      </trkpt>
      <trkpt lat="47.5771" lon="1.40923">
        <ele>87</ele>
        <time>2021-07-07T06:24:03Z</time>
      </trkpt>
      <trkpt lat="47.5771" lon="1.40869">
        <ele>87</ele>
        <time>2021-07-07T06:24:10Z</time>
      </trkpt>
      <trkpt lat="47.57713" lon="1.40816">
        <ele>87</ele>
        <time>2021-07-07T06:24:16Z</time>
      </trkpt>
      <trkpt lat="47.57713" lon="1.40779">
        <ele>87</ele>
        <time>2021-07-07T06:24:21Z</time>
      </trkpt>
      <trkpt lat="47.57714" lon="1.4075">
        <ele>88</ele>
        <time>2021-07-07T06:24:24Z</time>
      </trkpt>
      <trkpt lat="47.57713" lon="1.40728">
        <ele>88</ele>
        <time>2021-07-07T06:24:27Z</time>
      </trkpt>
      <trkpt lat="47.5771" lon="1.40693">
        <ele>88</ele>
        <time>2021-07-07T06:24:31Z</time>
      </trkpt>
      <trkpt lat="47.57703" lon="1.40613">
        <ele>88</ele>
        <time>2021-07-07T06:24:41Z</time>
      </trkpt>
      <trkpt lat="47.57691" lon="1.40478">
        <ele>87</ele>
        <time>2021-07-07T06:24:57Z</time>
      </trkpt>
      <trkpt lat="47.57684" lon="1.40454">
        <ele>87</ele>
        <time>2021-07-07T06:25:00Z</time>
      </trkpt>
      <trkpt lat="47.57678" lon="1.40433">
        <ele>87</ele>
        <time>2021-07-07T06:25:03Z</time>
      </trkpt>
      <trkpt lat="47.57674" lon="1.40408">
        <ele>87</ele>
        <time>2021-07-07T06:25:06Z</time>
      </trkpt>
      <trkpt lat="47.57672" lon="1.40394">
        <ele>87</ele>
        <time>2021-07-07T06:25:08Z</time>
      </trkpt>
      <trkpt lat="47.5766" lon="1.40329">
        <ele>86</ele>
        <time>2021-07-07T06:25:16Z</time>
      </trkpt>
      <trkpt lat="47.57643" lon="1.40216">
        <ele>88</ele>
        <time>2021-07-07T06:25:30Z</time>
      </trkpt>
      <trkpt lat="47.57641" lon="1.4019">
        <ele>88</ele>
        <time>2021-07-07T06:25:33Z</time>
      </trkpt>
      <trkpt lat="47.57639" lon="1.40057">
        <ele>89</ele>
        <time>2021-07-07T06:25:49Z</time>
      </trkpt>
      <trkpt lat="47.57634" lon="1.39993">
        <ele>90</ele>
        <time>2021-07-07T06:25:57Z</time>
      </trkpt>
      <trkpt lat="47.57629" lon="1.3996">
        <ele>89</ele>
        <time>2021-07-07T06:26:01Z</time>
      </trkpt>
      <trkpt lat="47.57622" lon="1.39928">
        <ele>89</ele>
        <time>2021-07-07T06:26:05Z</time>
      </trkpt>
      <trkpt lat="47.57607" lon="1.39856">
        <ele>88</ele>
        <time>2021-07-07T06:26:14Z</time>
      </trkpt>
      <trkpt lat="47.57605" lon="1.39847">
        <ele>88</ele>
        <time>2021-07-07T06:26:15Z</time>
      </trkpt>
      <trkpt lat="47.57593" lon="1.39789">
        <ele>88</ele>
        <time>2021-07-07T06:26:22Z</time>
      </trkpt>
      <trkpt lat="47.57581" lon="1.39732">
        <ele>89</ele>
        <time>2021-07-07T06:26:29Z</time>
      </trkpt>
      <trkpt lat="47.57573" lon="1.39708">
        <ele>89</ele>
        <time>2021-07-07T06:26:32Z</time>
      </trkpt>
      <trkpt lat="47.57567" lon="1.39699">
        <ele>89</ele>
        <time>2021-07-07T06:26:34Z</time>
      </trkpt>
      <trkpt lat="47.57503" lon="1.3964">
        <ele>90</ele>
        <time>2021-07-07T06:26:47Z</time>
      </trkpt>
      <trkpt lat="47.57479" lon="1.39613">
        <ele>90</ele>
        <time>2021-07-07T06:26:53Z</time>
      </trkpt>
      <trkpt lat="47.57468" lon="1.39595">
        <ele>90</ele>
        <time>2021-07-07T06:26:56Z</time>
      </trkpt>
      <trkpt lat="47.57457" lon="1.39572">
        <ele>90</ele>
        <time>2021-07-07T06:26:59Z</time>
      </trkpt>
      <trkpt lat="47.57452" lon="1.39555">
        <ele>90</ele>
        <time>2021-07-07T06:27:01Z</time>
      </trkpt>
      <trkpt lat="47.57448" lon="1.39537">
        <ele>90</ele>
        <time>2021-07-07T06:27:04Z</time>
      </trkpt>
      <trkpt lat="47.57444" lon="1.39501">
        <ele>90</ele>
        <time>2021-07-07T06:27:08Z</time>
      </trkpt>
      <trkpt lat="47.57437" lon="1.39432">
        <ele>90</ele>
        <time>2021-07-07T06:27:16Z</time>
      </trkpt>
      <trkpt lat="47.57435" lon="1.39409">
        <ele>91</ele>
        <time>2021-07-07T06:27:19Z</time>
      </trkpt>
      <trkpt lat="47.57433" lon="1.39382">
        <ele>91</ele>
        <time>2021-07-07T06:27:22Z</time>
      </trkpt>
      <trkpt lat="47.57433" lon="1.39373">
        <ele>92</ele>
        <time>2021-07-07T06:27:23Z</time>
      </trkpt>
      <trkpt lat="47.57432" lon="1.3934">
        <ele>92</ele>
        <time>2021-07-07T06:27:27Z</time>
      </trkpt>
      <trkpt lat="47.57434" lon="1.39307">
        <ele>92</ele>
        <time>2021-07-07T06:27:31Z</time>
      </trkpt>
      <trkpt lat="47.57437" lon="1.39272">
        <ele>91</ele>
        <time>2021-07-07T06:27:36Z</time>
      </trkpt>
      <trkpt lat="47.57441" lon="1.39253">
        <ele>91</ele>
        <time>2021-07-07T06:27:38Z</time>
      </trkpt>
      <trkpt lat="47.57447" lon="1.39224">
        <ele>91</ele>
        <time>2021-07-07T06:27:42Z</time>
      </trkpt>
      <trkpt lat="47.57458" lon="1.39188">
        <ele>91</ele>
        <time>2021-07-07T06:27:46Z</time>
      </trkpt>
      <trkpt lat="47.57499" lon="1.39084">
        <ele>91</ele>
        <time>2021-07-07T06:28:01Z</time>
      </trkpt>
      <trkpt lat="47.57507" lon="1.39064">
        <ele>91</ele>
        <time>2021-07-07T06:28:04Z</time>
      </trkpt>
      <trkpt lat="47.57547" lon="1.3896">
        <ele>90</ele>
        <time>2021-07-07T06:28:18Z</time>
      </trkpt>
      <trkpt lat="47.57556" lon="1.38936">
        <ele>90</ele>
        <time>2021-07-07T06:28:21Z</time>
      </trkpt>
      <trkpt lat="47.57563" lon="1.38915">
        <ele>90</ele>
        <time>2021-07-07T06:28:24Z</time>
      </trkpt>
      <trkpt lat="47.57567" lon="1.38894">
        <ele>90</ele>
        <time>2021-07-07T06:28:27Z</time>
      </trkpt>
      <trkpt lat="47.57573" lon="1.38859">
        <ele>90</ele>
        <time>2021-07-07T06:28:31Z</time>
      </trkpt>
      <trkpt lat="47.57576" lon="1.38827">
        <ele>90</ele>
        <time>2021-07-07T06:28:35Z</time>
      </trkpt>
      <trkpt lat="47.57577" lon="1.388">
        <ele>90</ele>
        <time>2021-07-07T06:28:38Z</time>
      </trkpt>
      <trkpt lat="47.57576" lon="1.3877">
        <ele>90</ele>
        <time>2021-07-07T06:28:42Z</time>
      </trkpt>
      <trkpt lat="47.57573" lon="1.38596">
        <ele>91</ele>
        <time>2021-07-07T06:29:03Z</time>
      </trkpt>
      <trkpt lat="47.57571" lon="1.385">
        <ele>92</ele>
        <time>2021-07-07T06:29:14Z</time>
      </trkpt>
      <trkpt lat="47.57575" lon="1.38432">
        <ele>92</ele>
        <time>2021-07-07T06:29:22Z</time>
      </trkpt>
      <trkpt lat="47.57576" lon="1.3842">
        <ele>92</ele>
        <time>2021-07-07T06:29:24Z</time>
      </trkpt>
      <trkpt lat="47.57582" lon="1.38358">
        <ele>91</ele>
        <time>2021-07-07T06:29:31Z</time>
      </trkpt>
      <trkpt lat="47.57595" lon="1.38277">
        <ele>88</ele>
        <time>2021-07-07T06:29:41Z</time>
      </trkpt>
      <trkpt lat="47.57598" lon="1.38262">
        <ele>87</ele>
        <time>2021-07-07T06:29:43Z</time>
      </trkpt>
      <trkpt lat="47.57609" lon="1.38197">
        <ele>87</ele>
        <time>2021-07-07T06:29:51Z</time>
      </trkpt>
      <trkpt lat="47.5763" lon="1.38123">
        <ele>86</ele>
        <time>2021-07-07T06:30:01Z</time>
      </trkpt>
      <trkpt lat="47.57641" lon="1.38081">
        <ele>85</ele>
        <time>2021-07-07T06:30:06Z</time>
      </trkpt>
      <trkpt lat="47.57652" lon="1.38035">
        <ele>84</ele>
        <time>2021-07-07T06:30:12Z</time>
      </trkpt>
      <trkpt lat="47.57655" lon="1.3802">
        <ele>84</ele>
        <time>2021-07-07T06:30:14Z</time>
      </trkpt>
      <trkpt lat="47.57664" lon="1.37976">
        <ele>83</ele>
        <time>2021-07-07T06:30:20Z</time>
      </trkpt>
      <trkpt lat="47.57668" lon="1.37957">
        <ele>82</ele>
        <time>2021-07-07T06:30:22Z</time>
      </trkpt>
      <trkpt lat="47.57679" lon="1.379">
        <ele>81</ele>
        <time>2021-07-07T06:30:29Z</time>
      </trkpt>
      <trkpt lat="47.57696" lon="1.3779">
        <ele>79</ele>
        <time>2021-07-07T06:30:43Z</time>
      </trkpt>
      <trkpt lat="47.57704" lon="1.37753">
        <ele>79</ele>
        <time>2021-07-07T06:30:47Z</time>
      </trkpt>
      <trkpt lat="47.57715" lon="1.37724">
        <ele>79</ele>
        <time>2021-07-07T06:30:51Z</time>
      </trkpt>
      <trkpt lat="47.57736" lon="1.37675">
        <ele>79</ele>
        <time>2021-07-07T06:30:58Z</time>
      </trkpt>
      <trkpt lat="47.57743" lon="1.37653">
        <ele>80</ele>
        <time>2021-07-07T06:31:01Z</time>
      </trkpt>
      <trkpt lat="47.5775" lon="1.37631">
        <ele>80</ele>
        <time>2021-07-07T06:31:04Z</time>
      </trkpt>
      <trkpt lat="47.57759" lon="1.37588">
        <ele>80</ele>
        <time>2021-07-07T06:31:10Z</time>
      </trkpt>
      <trkpt lat="47.57763" lon="1.37543">
        <ele>79</ele>
        <time>2021-07-07T06:31:15Z</time>
      </trkpt>
      <trkpt lat="47.57765" lon="1.37509">
        <ele>78</ele>
        <time>2021-07-07T06:31:19Z</time>
      </trkpt>
      <trkpt lat="47.57767" lon="1.37483">
        <ele>77</ele>
        <time>2021-07-07T06:31:22Z</time>
      </trkpt>
      <trkpt lat="47.57771" lon="1.37445">
        <ele>75</ele>
        <time>2021-07-07T06:31:27Z</time>
      </trkpt>
      <trkpt lat="47.57777" lon="1.37405">
        <ele>74</ele>
        <time>2021-07-07T06:31:32Z</time>
      </trkpt>
      <trkpt lat="47.57779" lon="1.37386">
        <ele>74</ele>
        <time>2021-07-07T06:31:34Z</time>
      </trkpt>
      <trkpt lat="47.57781" lon="1.37367">
        <ele>74</ele>
        <time>2021-07-07T06:31:36Z</time>
      </trkpt>
      <trkpt lat="47.57782" lon="1.37358">
        <ele>74</ele>
        <time>2021-07-07T06:31:37Z</time>
      </trkpt>
      <trkpt lat="47.57789" lon="1.37307">
        <ele>74</ele>
        <time>2021-07-07T06:31:44Z</time>
      </trkpt>
      <trkpt lat="47.57793" lon="1.37258">
        <ele>73</ele>
        <time>2021-07-07T06:31:50Z</time>
      </trkpt>
      <trkpt lat="47.578" lon="1.37162">
        <ele>72</ele>
        <time>2021-07-07T06:32:01Z</time>
      </trkpt>
      <trkpt lat="47.57801" lon="1.37121">
        <ele>71</ele>
        <time>2021-07-07T06:32:06Z</time>
      </trkpt>
      <trkpt lat="47.57802" lon="1.37064">
        <ele>71</ele>
        <time>2021-07-07T06:32:13Z</time>
      </trkpt>
      <trkpt lat="47.57802" lon="1.37033">
        <ele>72</ele>
        <time>2021-07-07T06:32:17Z</time>
      </trkpt>
      <trkpt lat="47.57802" lon="1.37009">
        <ele>72</ele>
        <time>2021-07-07T06:32:20Z</time>
      </trkpt>
      <trkpt lat="47.57802" lon="1.36974">
        <ele>72</ele>
        <time>2021-07-07T06:32:24Z</time>
      </trkpt>
      <trkpt lat="47.57803" lon="1.36951">
        <ele>72</ele>
        <time>2021-07-07T06:32:27Z</time>
      </trkpt>
      <trkpt lat="47.57803" lon="1.36944">
        <ele>72</ele>
        <time>2021-07-07T06:32:27Z</time>
      </trkpt>
      <trkpt lat="47.57805" lon="1.36934">
        <ele>72</ele>
        <time>2021-07-07T06:32:29Z</time>
      </trkpt>
      <trkpt lat="47.57807" lon="1.36926">
        <ele>72</ele>
        <time>2021-07-07T06:32:30Z</time>
      </trkpt>
      <trkpt lat="47.57807" lon="1.36917">
        <ele>72</ele>
        <time>2021-07-07T06:32:31Z</time>
      </trkpt>
      <trkpt lat="47.578" lon="1.36837">
        <ele>71</ele>
        <time>2021-07-07T06:32:40Z</time>
      </trkpt>
      <trkpt lat="47.57797" lon="1.36819">
        <ele>71</ele>
        <time>2021-07-07T06:32:43Z</time>
      </trkpt>
      <trkpt lat="47.57792" lon="1.3681">
        <ele>71</ele>
        <time>2021-07-07T06:32:44Z</time>
      </trkpt>
      <trkpt lat="47.57789" lon="1.36798">
        <ele>71</ele>
        <time>2021-07-07T06:32:46Z</time>
      </trkpt>
      <trkpt lat="47.57777" lon="1.3674">
        <ele>71</ele>
        <time>2021-07-07T06:32:53Z</time>
      </trkpt>
      <trkpt lat="47.57778" lon="1.3671">
        <ele>72</ele>
        <time>2021-07-07T06:32:56Z</time>
      </trkpt>
      <trkpt lat="47.57784" lon="1.367">
        <ele>72</ele>
        <time>2021-07-07T06:32:58Z</time>
      </trkpt>
      <trkpt lat="47.57785" lon="1.36688">
        <ele>72</ele>
        <time>2021-07-07T06:33:00Z</time>
      </trkpt>
      <trkpt lat="47.57781" lon="1.36676">
        <ele>72</ele>
        <time>2021-07-07T06:33:01Z</time>
      </trkpt>
      <trkpt lat="47.57773" lon="1.3667">
        <ele>72</ele>
        <time>2021-07-07T06:33:03Z</time>
      </trkpt>
      <trkpt lat="47.57768" lon="1.3667">
        <ele>72</ele>
        <time>2021-07-07T06:33:04Z</time>
      </trkpt>
      <trkpt lat="47.57762" lon="1.36664">
        <ele>72</ele>
        <time>2021-07-07T06:33:05Z</time>
      </trkpt>
      <trkpt lat="47.57748" lon="1.3664">
        <ele>71</ele>
        <time>2021-07-07T06:33:09Z</time>
      </trkpt>
      <trkpt lat="47.57742" lon="1.36624">
        <ele>71</ele>
        <time>2021-07-07T06:33:11Z</time>
      </trkpt>
      <trkpt lat="47.5774" lon="1.36619">
        <ele>71</ele>
        <time>2021-07-07T06:33:12Z</time>
      </trkpt>
      <trkpt lat="47.57734" lon="1.36601">
        <ele>71</ele>
        <time>2021-07-07T06:33:14Z</time>
      </trkpt>
      <trkpt lat="47.57721" lon="1.36569">
        <ele>70</ele>
        <time>2021-07-07T06:33:19Z</time>
      </trkpt>
      <trkpt lat="47.57706" lon="1.36535">
        <ele>70</ele>
        <time>2021-07-07T06:33:23Z</time>
      </trkpt>
      <trkpt lat="47.57677" lon="1.36482">
        <ele>71</ele>
        <time>2021-07-07T06:33:32Z</time>
      </trkpt>
      <trkpt lat="47.57616" lon="1.36368">
        <ele>72</ele>
        <time>2021-07-07T06:33:49Z</time>
      </trkpt>
      <trkpt lat="47.57598" lon="1.36334">
        <ele>73</ele>
        <time>2021-07-07T06:33:54Z</time>
      </trkpt>
      <trkpt lat="47.57573" lon="1.3629">
        <ele>72</ele>
        <time>2021-07-07T06:34:01Z</time>
      </trkpt>
      <trkpt lat="47.57569" lon="1.36284">
        <ele>71</ele>
        <time>2021-07-07T06:34:02Z</time>
      </trkpt>
      <trkpt lat="47.57566" lon="1.36279">
        <ele>71</ele>
        <time>2021-07-07T06:34:03Z</time>
      </trkpt>
      <trkpt lat="47.57535" lon="1.36221">
        <ele>71</ele>
        <time>2021-07-07T06:34:12Z</time>
      </trkpt>
      <trkpt lat="47.575" lon="1.36155">
        <ele>72</ele>
        <time>2021-07-07T06:34:22Z</time>
      </trkpt>
      <trkpt lat="47.57465" lon="1.36089">
        <ele>72</ele>
        <time>2021-07-07T06:34:32Z</time>
      </trkpt>
      <trkpt lat="47.57453" lon="1.3607">
        <ele>73</ele>
        <time>2021-07-07T06:34:35Z</time>
      </trkpt>
      <trkpt lat="47.57421" lon="1.36031">
        <ele>73</ele>
        <time>2021-07-07T06:34:43Z</time>
      </trkpt>
      <trkpt lat="47.57415" lon="1.36022">
        <ele>73</ele>
        <time>2021-07-07T06:34:44Z</time>
      </trkpt>
      <trkpt lat="47.57412" lon="1.36019">
        <ele>74</ele>
        <time>2021-07-07T06:34:45Z</time>
      </trkpt>
      <trkpt lat="47.57388" lon="1.35979">
        <ele>74</ele>
        <time>2021-07-07T06:34:51Z</time>
      </trkpt>
      <trkpt lat="47.57378" lon="1.35956">
        <ele>74</ele>
        <time>2021-07-07T06:34:54Z</time>
      </trkpt>
      <trkpt lat="47.57371" lon="1.35934">
        <ele>73</ele>
        <time>2021-07-07T06:34:57Z</time>
      </trkpt>
      <trkpt lat="47.57356" lon="1.35877">
        <ele>72</ele>
        <time>2021-07-07T06:35:05Z</time>
      </trkpt>
      <trkpt lat="47.57334" lon="1.35792">
        <ele>72</ele>
        <time>2021-07-07T06:35:16Z</time>
      </trkpt>
      <trkpt lat="47.57327" lon="1.35763">
        <ele>73</ele>
        <time>2021-07-07T06:35:19Z</time>
      </trkpt>
      <trkpt lat="47.57322" lon="1.35739">
        <ele>73</ele>
        <time>2021-07-07T06:35:22Z</time>
      </trkpt>
      <trkpt lat="47.57319" lon="1.35716">
        <ele>73</ele>
        <time>2021-07-07T06:35:25Z</time>
      </trkpt>
      <trkpt lat="47.57316" lon="1.3568">
        <ele>72</ele>
        <time>2021-07-07T06:35:29Z</time>
      </trkpt>
      <trkpt lat="47.57312" lon="1.35587">
        <ele>72</ele>
        <time>2021-07-07T06:35:41Z</time>
      </trkpt>
      <trkpt lat="47.5731" lon="1.3557">
        <ele>72</ele>
        <time>2021-07-07T06:35:43Z</time>
      </trkpt>
      <trkpt lat="47.57306" lon="1.35557">
        <ele>72</ele>
        <time>2021-07-07T06:35:44Z</time>
      </trkpt>
      <trkpt lat="47.57321" lon="1.35535">
        <ele>71</ele>
        <time>2021-07-07T06:35:48Z</time>
      </trkpt>
      <trkpt lat="47.57323" lon="1.35532">
        <ele>71</ele>
        <time>2021-07-07T06:35:49Z</time>
      </trkpt>
      <trkpt lat="47.57354" lon="1.35488">
        <ele>71</ele>
        <time>2021-07-07T06:35:56Z</time>
      </trkpt>
      <trkpt lat="47.57383" lon="1.35442">
        <ele>71</ele>
        <time>2021-07-07T06:36:04Z</time>
      </trkpt>
      <trkpt lat="47.57429" lon="1.35372">
        <ele>72</ele>
        <time>2021-07-07T06:36:16Z</time>
      </trkpt>
      <trkpt lat="47.57474" lon="1.35306">
        <ele>70</ele>
        <time>2021-07-07T06:36:27Z</time>
      </trkpt>
      <trkpt lat="47.57499" lon="1.35271">
        <ele>67</ele>
        <time>2021-07-07T06:36:33Z</time>
      </trkpt>
      <trkpt lat="47.57568" lon="1.35165">
        <ele>69</ele>
        <time>2021-07-07T06:36:51Z</time>
      </trkpt>
      <trkpt lat="47.57587" lon="1.35134">
        <ele>69</ele>
        <time>2021-07-07T06:36:56Z</time>
      </trkpt>
      <trkpt lat="47.57649" lon="1.35043">
        <ele>70</ele>
        <time>2021-07-07T06:37:11Z</time>
      </trkpt>
      <trkpt lat="47.57734" lon="1.34915">
        <ele>69</ele>
        <time>2021-07-07T06:37:33Z</time>
      </trkpt>
      <trkpt lat="47.57749" lon="1.34899">
        <ele>69</ele>
        <time>2021-07-07T06:37:36Z</time>
      </trkpt>
      <trkpt lat="47.57756" lon="1.34892">
        <ele>68</ele>
        <time>2021-07-07T06:37:38Z</time>
      </trkpt>
      <trkpt lat="47.57763" lon="1.34888">
        <ele>68</ele>
        <time>2021-07-07T06:37:39Z</time>
      </trkpt>
      <trkpt lat="47.57772" lon="1.34889">
        <ele>69</ele>
        <time>2021-07-07T06:37:41Z</time>
      </trkpt>
      <trkpt lat="47.57781" lon="1.34886">
        <ele>69</ele>
        <time>2021-07-07T06:37:42Z</time>
      </trkpt>
      <trkpt lat="47.57788" lon="1.34879">
        <ele>69</ele>
        <time>2021-07-07T06:37:44Z</time>
      </trkpt>
      <trkpt lat="47.57793" lon="1.34869">
        <ele>68</ele>
        <time>2021-07-07T06:37:45Z</time>
      </trkpt>
      <trkpt lat="47.57795" lon="1.34858">
        <ele>68</ele>
        <time>2021-07-07T06:37:47Z</time>
      </trkpt>
      <trkpt lat="47.57796" lon="1.34847">
        <ele>68</ele>
        <time>2021-07-07T06:37:48Z</time>
      </trkpt>
      <trkpt lat="47.57798" lon="1.34835">
        <ele>68</ele>
        <time>2021-07-07T06:37:49Z</time>
      </trkpt>
      <trkpt lat="47.57804" lon="1.34818">
        <ele>68</ele>
        <time>2021-07-07T06:37:52Z</time>
      </trkpt>
      <trkpt lat="47.57837" lon="1.34765">
        <ele>70</ele>
        <time>2021-07-07T06:38:00Z</time>
      </trkpt>
      <trkpt lat="47.57849" lon="1.34744">
        <ele>70</ele>
        <time>2021-07-07T06:38:04Z</time>
      </trkpt>
      <trkpt lat="47.5786" lon="1.34724">
        <ele>70</ele>
        <time>2021-07-07T06:38:07Z</time>
      </trkpt>
      <trkpt lat="47.57905" lon="1.34656">
        <ele>71</ele>
        <time>2021-07-07T06:38:18Z</time>
      </trkpt>
      <trkpt lat="47.57926" lon="1.34626">
        <ele>70</ele>
        <time>2021-07-07T06:38:23Z</time>
      </trkpt>
    </trkseg>
  </trk>
</gpx>